<?xml version="1.0" encoding="UTF-8" standalone="no" ?>
<gpx xmlns="http://www.topografix.com/GPX/1/1" creator="www.plotaroute.com" version="1.1"  xmlns:xsi="http://www.w3.org/2001/XMLSchema-instance" xsi:schemaLocation="http://www.topografix.com/GPX/1/1 http://www.topografix.com/GPX/1/1/gpx.xsd">
<metadata>
<desc>Route created on plotaroute.com</desc>
</metadata>
<trk>
<name>2ª Etapa - VP Fut. 2026</name>
<trkseg>
<trkpt lat="39.898312" lon="-8.272111">
<ele>105</ele>
<time>2026-05-08T00:00:00Z</time></trkpt>
<trkpt lat="39.8982501" lon="-8.2719663">
<ele>429</ele>
<time>2026-05-08T00:00:03Z</time></trkpt>
<trkpt lat="39.897976" lon="-8.271326">
<ele>427</ele>
<time>2026-05-08T00:00:14Z</time></trkpt>
<trkpt lat="39.898071" lon="-8.271588">
<ele>428</ele>
<time>2026-05-08T00:00:18Z</time></trkpt>
<trkpt lat="39.898071" lon="-8.271588">
<ele>428</ele>
<time>2026-05-08T00:00:18Z</time></trkpt>
<trkpt lat="39.897781" lon="-8.270788">
<ele>427</ele>
<time>2026-05-08T00:00:32Z</time></trkpt>
<trkpt lat="39.897701" lon="-8.270499">
<ele>426</ele>
<time>2026-05-08T00:00:37Z</time></trkpt>
<trkpt lat="39.897598" lon="-8.270034">
<ele>426</ele>
<time>2026-05-08T00:00:44Z</time></trkpt>
<trkpt lat="39.897502" lon="-8.269751">
<ele>426</ele>
<time>2026-05-08T00:00:49Z</time></trkpt>
<trkpt lat="39.897419" lon="-8.269574">
<ele>425</ele>
<time>2026-05-08T00:00:52Z</time></trkpt>
<trkpt lat="39.89727" lon="-8.269359">
<ele>424</ele>
<time>2026-05-08T00:00:56Z</time></trkpt>
<trkpt lat="39.897025" lon="-8.269074">
<ele>422</ele>
<time>2026-05-08T00:01:03Z</time></trkpt>
<trkpt lat="39.896668" lon="-8.268606">
<ele>421</ele>
<time>2026-05-08T00:01:13Z</time></trkpt>
<trkpt lat="39.896354" lon="-8.268157">
<ele>421</ele>
<time>2026-05-08T00:01:23Z</time></trkpt>
<trkpt lat="39.895909" lon="-8.267347">
<ele>425</ele>
<time>2026-05-08T00:01:38Z</time></trkpt>
<trkpt lat="39.895743" lon="-8.267128">
<ele>424</ele>
<time>2026-05-08T00:01:43Z</time></trkpt>
<trkpt lat="39.89517" lon="-8.26645">
<ele>418</ele>
<time>2026-05-08T00:01:58Z</time></trkpt>
<trkpt lat="39.8948361" lon="-8.2660758">
<ele>417</ele>
<time>2026-05-08T00:02:07Z</time></trkpt>
<trkpt lat="39.894743" lon="-8.265972">
<ele>417</ele>
<time>2026-05-08T00:02:09Z</time></trkpt>
<trkpt lat="39.89431" lon="-8.265499">
<ele>417</ele>
<time>2026-05-08T00:02:21Z</time></trkpt>
<trkpt lat="39.894059" lon="-8.26529">
<ele>418</ele>
<time>2026-05-08T00:02:27Z</time></trkpt>
<trkpt lat="39.893929" lon="-8.26521">
<ele>418</ele>
<time>2026-05-08T00:02:30Z</time></trkpt>
<trkpt lat="39.892778" lon="-8.264644">
<ele>421</ele>
<time>2026-05-08T00:02:54Z</time></trkpt>
<trkpt lat="39.891208" lon="-8.263721">
<ele>430</ele>
<time>2026-05-08T00:03:29Z</time></trkpt>
<trkpt lat="39.890679" lon="-8.263442">
<ele>430</ele>
<time>2026-05-08T00:03:40Z</time></trkpt>
<trkpt lat="39.890361" lon="-8.263315">
<ele>431</ele>
<time>2026-05-08T00:03:47Z</time></trkpt>
<trkpt lat="39.890144" lon="-8.263299">
<ele>431</ele>
<time>2026-05-08T00:03:51Z</time></trkpt>
<trkpt lat="39.889082" lon="-8.263307">
<ele>437</ele>
<time>2026-05-08T00:04:12Z</time></trkpt>
<trkpt lat="39.888754" lon="-8.263272">
<ele>438</ele>
<time>2026-05-08T00:04:19Z</time></trkpt>
<trkpt lat="39.888534" lon="-8.263211">
<ele>439</ele>
<time>2026-05-08T00:04:24Z</time></trkpt>
<trkpt lat="39.888281" lon="-8.263105">
<ele>439</ele>
<time>2026-05-08T00:04:29Z</time></trkpt>
<trkpt lat="39.887987" lon="-8.262917">
<ele>436</ele>
<time>2026-05-08T00:04:35Z</time></trkpt>
<trkpt lat="39.887805" lon="-8.262718">
<ele>435</ele>
<time>2026-05-08T00:04:40Z</time></trkpt>
<trkpt lat="39.88774" lon="-8.262618">
<ele>434</ele>
<time>2026-05-08T00:04:42Z</time></trkpt>
<trkpt lat="39.887247" lon="-8.2617">
<ele>434</ele>
<time>2026-05-08T00:04:59Z</time></trkpt>
<trkpt lat="39.886506" lon="-8.260226">
<ele>424</ele>
<time>2026-05-08T00:05:26Z</time></trkpt>
<trkpt lat="39.886348" lon="-8.259962">
<ele>424</ele>
<time>2026-05-08T00:05:32Z</time></trkpt>
<trkpt lat="39.886167" lon="-8.259711">
<ele>426</ele>
<time>2026-05-08T00:05:37Z</time></trkpt>
<trkpt lat="39.885807" lon="-8.259317">
<ele>430</ele>
<time>2026-05-08T00:05:46Z</time></trkpt>
<trkpt lat="39.885544" lon="-8.259089">
<ele>430</ele>
<time>2026-05-08T00:05:53Z</time></trkpt>
<trkpt lat="39.88538" lon="-8.258973">
<ele>430</ele>
<time>2026-05-08T00:05:56Z</time></trkpt>
<trkpt lat="39.884876" lon="-8.25867">
<ele>430</ele>
<time>2026-05-08T00:06:08Z</time></trkpt>
<trkpt lat="39.884809" lon="-8.25863">
<ele>431</ele>
<time>2026-05-08T00:06:09Z</time></trkpt>
<trkpt lat="39.884809" lon="-8.25863">
<ele>431</ele>
<time>2026-05-08T00:06:09Z</time></trkpt>
<trkpt lat="39.881684" lon="-8.256749">
<ele>435</ele>
<time>2026-05-08T00:07:18Z</time></trkpt>
<trkpt lat="39.881389" lon="-8.256533">
<ele>432</ele>
<time>2026-05-08T00:07:25Z</time></trkpt>
<trkpt lat="39.881114" lon="-8.256285">
<ele>429</ele>
<time>2026-05-08T00:07:31Z</time></trkpt>
<trkpt lat="39.880862" lon="-8.255975">
<ele>424</ele>
<time>2026-05-08T00:07:38Z</time></trkpt>
<trkpt lat="39.879085" lon="-8.253215">
<ele>419</ele>
<time>2026-05-08T00:08:34Z</time></trkpt>
<trkpt lat="39.878857" lon="-8.252914">
<ele>418</ele>
<time>2026-05-08T00:08:40Z</time></trkpt>
<trkpt lat="39.878611" lon="-8.252643">
<ele>417</ele>
<time>2026-05-08T00:08:47Z</time></trkpt>
<trkpt lat="39.878442" lon="-8.252479">
<ele>416</ele>
<time>2026-05-08T00:08:51Z</time></trkpt>
<trkpt lat="39.878101" lon="-8.252204">
<ele>416</ele>
<time>2026-05-08T00:08:59Z</time></trkpt>
<trkpt lat="39.876323" lon="-8.251069">
<ele>418</ele>
<time>2026-05-08T00:09:39Z</time></trkpt>
<trkpt lat="39.87508" lon="-8.250268">
<ele>411</ele>
<time>2026-05-08T00:10:06Z</time></trkpt>
<trkpt lat="39.874676" lon="-8.250018">
<ele>409</ele>
<time>2026-05-08T00:10:15Z</time></trkpt>
<trkpt lat="39.874266" lon="-8.2498">
<ele>407</ele>
<time>2026-05-08T00:10:24Z</time></trkpt>
<trkpt lat="39.874033" lon="-8.249694">
<ele>408</ele>
<time>2026-05-08T00:10:29Z</time></trkpt>
<trkpt lat="39.873598" lon="-8.249542">
<ele>413</ele>
<time>2026-05-08T00:10:38Z</time></trkpt>
<trkpt lat="39.872595" lon="-8.24936">
<ele>416</ele>
<time>2026-05-08T00:10:59Z</time></trkpt>
<trkpt lat="39.872433" lon="-8.249371">
<ele>416</ele>
<time>2026-05-08T00:11:02Z</time></trkpt>
<trkpt lat="39.87123" lon="-8.249453">
<ele>407</ele>
<time>2026-05-08T00:11:26Z</time></trkpt>
<trkpt lat="39.871186" lon="-8.249441">
<ele>406</ele>
<time>2026-05-08T00:11:27Z</time></trkpt>
<trkpt lat="39.87101" lon="-8.249395">
<ele>403</ele>
<time>2026-05-08T00:11:30Z</time></trkpt>
<trkpt lat="39.869589" lon="-8.248452">
<ele>392</ele>
<time>2026-05-08T00:12:02Z</time></trkpt>
<trkpt lat="39.86912" lon="-8.248141">
<ele>390</ele>
<time>2026-05-08T00:12:13Z</time></trkpt>
<trkpt lat="39.868914" lon="-8.248022">
<ele>390</ele>
<time>2026-05-08T00:12:17Z</time></trkpt>
<trkpt lat="39.868859" lon="-8.247987">
<ele>390</ele>
<time>2026-05-08T00:12:19Z</time></trkpt>
<trkpt lat="39.868835" lon="-8.247918">
<ele>389</ele>
<time>2026-05-08T00:12:20Z</time></trkpt>
<trkpt lat="39.86885" lon="-8.247845">
<ele>389</ele>
<time>2026-05-08T00:12:21Z</time></trkpt>
<trkpt lat="39.868898" lon="-8.247799">
<ele>389</ele>
<time>2026-05-08T00:12:22Z</time></trkpt>
<trkpt lat="39.868992" lon="-8.247674">
<ele>388</ele>
<time>2026-05-08T00:12:25Z</time></trkpt>
<trkpt lat="39.869146" lon="-8.24608">
<ele>378</ele>
<time>2026-05-08T00:12:50Z</time></trkpt>
<trkpt lat="39.869146" lon="-8.24608">
<ele>378</ele>
<time>2026-05-08T00:12:50Z</time></trkpt>
<trkpt lat="39.869146" lon="-8.246073">
<ele>377</ele>
<time>2026-05-08T00:12:50Z</time></trkpt>
<trkpt lat="39.869184" lon="-8.24572">
<ele>375</ele>
<time>2026-05-08T00:12:55Z</time></trkpt>
<trkpt lat="39.86925" lon="-8.24514">
<ele>371</ele>
<time>2026-05-08T00:13:04Z</time></trkpt>
<trkpt lat="39.86931" lon="-8.244962">
<ele>370</ele>
<time>2026-05-08T00:13:07Z</time></trkpt>
<trkpt lat="39.869451" lon="-8.244759">
<ele>369</ele>
<time>2026-05-08T00:13:11Z</time></trkpt>
<trkpt lat="39.86987" lon="-8.244369">
<ele>368</ele>
<time>2026-05-08T00:13:22Z</time></trkpt>
<trkpt lat="39.87011" lon="-8.244142">
<ele>368</ele>
<time>2026-05-08T00:13:28Z</time></trkpt>
<trkpt lat="39.870487" lon="-8.243783">
<ele>366</ele>
<time>2026-05-08T00:13:37Z</time></trkpt>
<trkpt lat="39.870711" lon="-8.243496">
<ele>364</ele>
<time>2026-05-08T00:13:43Z</time></trkpt>
<trkpt lat="39.870813" lon="-8.243266">
<ele>363</ele>
<time>2026-05-08T00:13:47Z</time></trkpt>
<trkpt lat="39.870904" lon="-8.242948">
<ele>363</ele>
<time>2026-05-08T00:13:53Z</time></trkpt>
<trkpt lat="39.87108" lon="-8.242053">
<ele>359</ele>
<time>2026-05-08T00:14:07Z</time></trkpt>
<trkpt lat="39.87111" lon="-8.24175">
<ele>357</ele>
<time>2026-05-08T00:14:12Z</time></trkpt>
<trkpt lat="39.871106" lon="-8.241453">
<ele>355</ele>
<time>2026-05-08T00:14:16Z</time></trkpt>
<trkpt lat="39.871071" lon="-8.241112">
<ele>354</ele>
<time>2026-05-08T00:14:21Z</time></trkpt>
<trkpt lat="39.871019" lon="-8.240945">
<ele>353</ele>
<time>2026-05-08T00:14:24Z</time></trkpt>
<trkpt lat="39.870911" lon="-8.240784">
<ele>353</ele>
<time>2026-05-08T00:14:27Z</time></trkpt>
<trkpt lat="39.870749" lon="-8.240637">
<ele>352</ele>
<time>2026-05-08T00:14:31Z</time></trkpt>
<trkpt lat="39.870571" lon="-8.240564">
<ele>352</ele>
<time>2026-05-08T00:14:35Z</time></trkpt>
<trkpt lat="39.870443" lon="-8.240561">
<ele>352</ele>
<time>2026-05-08T00:14:38Z</time></trkpt>
<trkpt lat="39.870167" lon="-8.24059">
<ele>353</ele>
<time>2026-05-08T00:14:43Z</time></trkpt>
<trkpt lat="39.869659" lon="-8.240657">
<ele>351</ele>
<time>2026-05-08T00:14:54Z</time></trkpt>
<trkpt lat="39.869525" lon="-8.240628">
<ele>351</ele>
<time>2026-05-08T00:14:56Z</time></trkpt>
<trkpt lat="39.869401" lon="-8.24053">
<ele>350</ele>
<time>2026-05-08T00:14:59Z</time></trkpt>
<trkpt lat="39.868872" lon="-8.239886">
<ele>347</ele>
<time>2026-05-08T00:15:14Z</time></trkpt>
<trkpt lat="39.868701" lon="-8.239669">
<ele>346</ele>
<time>2026-05-08T00:15:18Z</time></trkpt>
<trkpt lat="39.867998" lon="-8.238835">
<ele>340</ele>
<time>2026-05-08T00:15:37Z</time></trkpt>
<trkpt lat="39.867894" lon="-8.238734">
<ele>339</ele>
<time>2026-05-08T00:15:40Z</time></trkpt>
<trkpt lat="39.867756" lon="-8.238659">
<ele>338</ele>
<time>2026-05-08T00:15:43Z</time></trkpt>
<trkpt lat="39.867658" lon="-8.238633">
<ele>337</ele>
<time>2026-05-08T00:15:45Z</time></trkpt>
<trkpt lat="39.86699" lon="-8.238551">
<ele>334</ele>
<time>2026-05-08T00:15:59Z</time></trkpt>
<trkpt lat="39.865673" lon="-8.238389">
<ele>325</ele>
<time>2026-05-08T00:16:25Z</time></trkpt>
<trkpt lat="39.865568" lon="-8.23836">
<ele>325</ele>
<time>2026-05-08T00:16:27Z</time></trkpt>
<trkpt lat="39.865344" lon="-8.238259">
<ele>325</ele>
<time>2026-05-08T00:16:32Z</time></trkpt>
<trkpt lat="39.864958" lon="-8.238033">
<ele>324</ele>
<time>2026-05-08T00:16:40Z</time></trkpt>
<trkpt lat="39.864958" lon="-8.238033">
<ele>324</ele>
<time>2026-05-08T00:16:40Z</time></trkpt>
<trkpt lat="39.862378" lon="-8.236518">
<ele>313</ele>
<time>2026-05-08T00:17:37Z</time></trkpt>
<trkpt lat="39.862269" lon="-8.236459">
<ele>312</ele>
<time>2026-05-08T00:17:39Z</time></trkpt>
<trkpt lat="39.862113" lon="-8.236424">
<ele>310</ele>
<time>2026-05-08T00:17:43Z</time></trkpt>
<trkpt lat="39.861758" lon="-8.236446">
<ele>303</ele>
<time>2026-05-08T00:17:50Z</time></trkpt>
<trkpt lat="39.861692" lon="-8.236434">
<ele>302</ele>
<time>2026-05-08T00:17:51Z</time></trkpt>
<trkpt lat="39.861575" lon="-8.236363">
<ele>301</ele>
<time>2026-05-08T00:17:54Z</time></trkpt>
<trkpt lat="39.861487" lon="-8.236245">
<ele>301</ele>
<time>2026-05-08T00:17:56Z</time></trkpt>
<trkpt lat="39.861452" lon="-8.236161">
<ele>301</ele>
<time>2026-05-08T00:17:58Z</time></trkpt>
<trkpt lat="39.861423" lon="-8.236028">
<ele>302</ele>
<time>2026-05-08T00:18:00Z</time></trkpt>
<trkpt lat="39.861292" lon="-8.235053">
<ele>312</ele>
<time>2026-05-08T00:18:15Z</time></trkpt>
<trkpt lat="39.861234" lon="-8.23481">
<ele>312</ele>
<time>2026-05-08T00:18:19Z</time></trkpt>
<trkpt lat="39.861194" lon="-8.234732">
<ele>311</ele>
<time>2026-05-08T00:18:20Z</time></trkpt>
<trkpt lat="39.861037" lon="-8.23452">
<ele>307</ele>
<time>2026-05-08T00:18:25Z</time></trkpt>
<trkpt lat="39.860866" lon="-8.234122">
<ele>304</ele>
<time>2026-05-08T00:18:32Z</time></trkpt>
<trkpt lat="39.860774" lon="-8.234003">
<ele>302</ele>
<time>2026-05-08T00:18:35Z</time></trkpt>
<trkpt lat="39.860622" lon="-8.233935">
<ele>301</ele>
<time>2026-05-08T00:18:38Z</time></trkpt>
<trkpt lat="39.860412" lon="-8.233925">
<ele>297</ele>
<time>2026-05-08T00:18:42Z</time></trkpt>
<trkpt lat="39.860275" lon="-8.233894">
<ele>296</ele>
<time>2026-05-08T00:18:45Z</time></trkpt>
<trkpt lat="39.860169" lon="-8.233813">
<ele>295</ele>
<time>2026-05-08T00:18:47Z</time></trkpt>
<trkpt lat="39.860117" lon="-8.233735">
<ele>295</ele>
<time>2026-05-08T00:18:49Z</time></trkpt>
<trkpt lat="39.860035" lon="-8.233519">
<ele>298</ele>
<time>2026-05-08T00:18:53Z</time></trkpt>
<trkpt lat="39.859656" lon="-8.232236">
<ele>293</ele>
<time>2026-05-08T00:19:14Z</time></trkpt>
<trkpt lat="39.859561" lon="-8.23203">
<ele>289</ele>
<time>2026-05-08T00:19:17Z</time></trkpt>
<trkpt lat="39.85951" lon="-8.231971">
<ele>288</ele>
<time>2026-05-08T00:19:19Z</time></trkpt>
<trkpt lat="39.859387" lon="-8.231925">
<ele>286</ele>
<time>2026-05-08T00:19:21Z</time></trkpt>
<trkpt lat="39.85926" lon="-8.231954">
<ele>285</ele>
<time>2026-05-08T00:19:24Z</time></trkpt>
<trkpt lat="39.859187" lon="-8.232006">
<ele>285</ele>
<time>2026-05-08T00:19:26Z</time></trkpt>
<trkpt lat="39.859076" lon="-8.232147">
<ele>284</ele>
<time>2026-05-08T00:19:29Z</time></trkpt>
<trkpt lat="39.858494" lon="-8.233187">
<ele>279</ele>
<time>2026-05-08T00:19:48Z</time></trkpt>
<trkpt lat="39.858425" lon="-8.233273">
<ele>279</ele>
<time>2026-05-08T00:19:50Z</time></trkpt>
<trkpt lat="39.858373" lon="-8.233319">
<ele>278</ele>
<time>2026-05-08T00:19:52Z</time></trkpt>
<trkpt lat="39.858248" lon="-8.233376">
<ele>278</ele>
<time>2026-05-08T00:19:54Z</time></trkpt>
<trkpt lat="39.858084" lon="-8.233368">
<ele>278</ele>
<time>2026-05-08T00:19:58Z</time></trkpt>
<trkpt lat="39.857797" lon="-8.233302">
<ele>279</ele>
<time>2026-05-08T00:20:03Z</time></trkpt>
<trkpt lat="39.857676" lon="-8.233304">
<ele>279</ele>
<time>2026-05-08T00:20:06Z</time></trkpt>
<trkpt lat="39.856938" lon="-8.233655">
<ele>270</ele>
<time>2026-05-08T00:20:22Z</time></trkpt>
<trkpt lat="39.856635" lon="-8.233756">
<ele>266</ele>
<time>2026-05-08T00:20:28Z</time></trkpt>
<trkpt lat="39.856635" lon="-8.233756">
<ele>266</ele>
<time>2026-05-08T00:20:28Z</time></trkpt>
<trkpt lat="39.856189" lon="-8.233905">
<ele>257</ele>
<time>2026-05-08T00:20:37Z</time></trkpt>
<trkpt lat="39.856103" lon="-8.233912">
<ele>256</ele>
<time>2026-05-08T00:20:39Z</time></trkpt>
<trkpt lat="39.855975" lon="-8.233865">
<ele>256</ele>
<time>2026-05-08T00:20:41Z</time></trkpt>
<trkpt lat="39.855623" lon="-8.233514">
<ele>259</ele>
<time>2026-05-08T00:20:50Z</time></trkpt>
<trkpt lat="39.85539" lon="-8.233225">
<ele>258</ele>
<time>2026-05-08T00:20:57Z</time></trkpt>
<trkpt lat="39.855262" lon="-8.232957">
<ele>254</ele>
<time>2026-05-08T00:21:02Z</time></trkpt>
<trkpt lat="39.855164" lon="-8.232738">
<ele>251</ele>
<time>2026-05-08T00:21:06Z</time></trkpt>
<trkpt lat="39.855067" lon="-8.232603">
<ele>249</ele>
<time>2026-05-08T00:21:08Z</time></trkpt>
<trkpt lat="39.85496" lon="-8.232536">
<ele>247</ele>
<time>2026-05-08T00:21:11Z</time></trkpt>
<trkpt lat="39.854851" lon="-8.232525">
<ele>245</ele>
<time>2026-05-08T00:21:13Z</time></trkpt>
<trkpt lat="39.854717" lon="-8.232585">
<ele>244</ele>
<time>2026-05-08T00:21:16Z</time></trkpt>
<trkpt lat="39.854285" lon="-8.232841">
<ele>241</ele>
<time>2026-05-08T00:21:25Z</time></trkpt>
<trkpt lat="39.854152" lon="-8.232945">
<ele>240</ele>
<time>2026-05-08T00:21:28Z</time></trkpt>
<trkpt lat="39.854071" lon="-8.233066">
<ele>240</ele>
<time>2026-05-08T00:21:31Z</time></trkpt>
<trkpt lat="39.854049" lon="-8.233132">
<ele>241</ele>
<time>2026-05-08T00:21:32Z</time></trkpt>
<trkpt lat="39.854043" lon="-8.233304">
<ele>243</ele>
<time>2026-05-08T00:21:35Z</time></trkpt>
<trkpt lat="39.85407" lon="-8.2334">
<ele>243</ele>
<time>2026-05-08T00:21:36Z</time></trkpt>
<trkpt lat="39.854116" lon="-8.233478">
<ele>242</ele>
<time>2026-05-08T00:21:38Z</time></trkpt>
<trkpt lat="39.854171" lon="-8.233538">
<ele>242</ele>
<time>2026-05-08T00:21:39Z</time></trkpt>
<trkpt lat="39.854235" lon="-8.233575">
<ele>242</ele>
<time>2026-05-08T00:21:41Z</time></trkpt>
<trkpt lat="39.854371" lon="-8.233598">
<ele>243</ele>
<time>2026-05-08T00:21:43Z</time></trkpt>
<trkpt lat="39.85468" lon="-8.233581">
<ele>246</ele>
<time>2026-05-08T00:21:50Z</time></trkpt>
<trkpt lat="39.854806" lon="-8.233633">
<ele>246</ele>
<time>2026-05-08T00:21:52Z</time></trkpt>
<trkpt lat="39.855457" lon="-8.23421">
<ele>243</ele>
<time>2026-05-08T00:22:08Z</time></trkpt>
<trkpt lat="39.855694" lon="-8.234353">
<ele>246</ele>
<time>2026-05-08T00:22:13Z</time></trkpt>
<trkpt lat="39.855722" lon="-8.234402">
<ele>246</ele>
<time>2026-05-08T00:22:14Z</time></trkpt>
<trkpt lat="39.855759" lon="-8.234548">
<ele>245</ele>
<time>2026-05-08T00:22:16Z</time></trkpt>
<trkpt lat="39.8558" lon="-8.234789">
<ele>244</ele>
<time>2026-05-08T00:22:20Z</time></trkpt>
<trkpt lat="39.855802" lon="-8.234946">
<ele>243</ele>
<time>2026-05-08T00:22:23Z</time></trkpt>
<trkpt lat="39.855751" lon="-8.235065">
<ele>245</ele>
<time>2026-05-08T00:22:25Z</time></trkpt>
<trkpt lat="39.855666" lon="-8.235154">
<ele>247</ele>
<time>2026-05-08T00:22:27Z</time></trkpt>
<trkpt lat="39.855571" lon="-8.235191">
<ele>249</ele>
<time>2026-05-08T00:22:29Z</time></trkpt>
<trkpt lat="39.855424" lon="-8.235183">
<ele>249</ele>
<time>2026-05-08T00:22:32Z</time></trkpt>
<trkpt lat="39.855199" lon="-8.235118">
<ele>248</ele>
<time>2026-05-08T00:22:37Z</time></trkpt>
<trkpt lat="39.854797" lon="-8.234882">
<ele>244</ele>
<time>2026-05-08T00:22:45Z</time></trkpt>
<trkpt lat="39.854492" lon="-8.234786">
<ele>243</ele>
<time>2026-05-08T00:22:52Z</time></trkpt>
<trkpt lat="39.854315" lon="-8.234769">
<ele>242</ele>
<time>2026-05-08T00:22:55Z</time></trkpt>
<trkpt lat="39.854236" lon="-8.23478">
<ele>243</ele>
<time>2026-05-08T00:22:57Z</time></trkpt>
<trkpt lat="39.853968" lon="-8.234889">
<ele>242</ele>
<time>2026-05-08T00:23:02Z</time></trkpt>
<trkpt lat="39.853644" lon="-8.23506">
<ele>240</ele>
<time>2026-05-08T00:23:09Z</time></trkpt>
<trkpt lat="39.85357" lon="-8.235084">
<ele>240</ele>
<time>2026-05-08T00:23:11Z</time></trkpt>
<trkpt lat="39.853449" lon="-8.235082">
<ele>238</ele>
<time>2026-05-08T00:23:13Z</time></trkpt>
<trkpt lat="39.853389" lon="-8.235049">
<ele>237</ele>
<time>2026-05-08T00:23:15Z</time></trkpt>
<trkpt lat="39.853057" lon="-8.234761">
<ele>231</ele>
<time>2026-05-08T00:23:23Z</time></trkpt>
<trkpt lat="39.852973" lon="-8.234723">
<ele>230</ele>
<time>2026-05-08T00:23:24Z</time></trkpt>
<trkpt lat="39.852684" lon="-8.234651">
<ele>226</ele>
<time>2026-05-08T00:23:30Z</time></trkpt>
<trkpt lat="39.852525" lon="-8.234696">
<ele>226</ele>
<time>2026-05-08T00:23:34Z</time></trkpt>
<trkpt lat="39.852082" lon="-8.234985">
<ele>225</ele>
<time>2026-05-08T00:23:44Z</time></trkpt>
<trkpt lat="39.851708" lon="-8.235235">
<ele>223</ele>
<time>2026-05-08T00:23:52Z</time></trkpt>
<trkpt lat="39.851593" lon="-8.23533">
<ele>223</ele>
<time>2026-05-08T00:23:55Z</time></trkpt>
<trkpt lat="39.851524" lon="-8.235433">
<ele>224</ele>
<time>2026-05-08T00:23:57Z</time></trkpt>
<trkpt lat="39.851406" lon="-8.235678">
<ele>228</ele>
<time>2026-05-08T00:24:01Z</time></trkpt>
<trkpt lat="39.851374" lon="-8.235725">
<ele>229</ele>
<time>2026-05-08T00:24:02Z</time></trkpt>
<trkpt lat="39.851273" lon="-8.235805">
<ele>230</ele>
<time>2026-05-08T00:24:05Z</time></trkpt>
<trkpt lat="39.851212" lon="-8.235824">
<ele>230</ele>
<time>2026-05-08T00:24:06Z</time></trkpt>
<trkpt lat="39.851089" lon="-8.235821">
<ele>229</ele>
<time>2026-05-08T00:24:08Z</time></trkpt>
<trkpt lat="39.850873" lon="-8.235743">
<ele>226</ele>
<time>2026-05-08T00:24:13Z</time></trkpt>
<trkpt lat="39.850816" lon="-8.235698">
<ele>225</ele>
<time>2026-05-08T00:24:14Z</time></trkpt>
<trkpt lat="39.850755" lon="-8.235615">
<ele>224</ele>
<time>2026-05-08T00:24:16Z</time></trkpt>
<trkpt lat="39.850653" lon="-8.23521">
<ele>217</ele>
<time>2026-05-08T00:24:22Z</time></trkpt>
<trkpt lat="39.85062" lon="-8.235135">
<ele>216</ele>
<time>2026-05-08T00:24:24Z</time></trkpt>
<trkpt lat="39.850108" lon="-8.234587">
<ele>213</ele>
<time>2026-05-08T00:24:37Z</time></trkpt>
<trkpt lat="39.849987" lon="-8.234543">
<ele>213</ele>
<time>2026-05-08T00:24:40Z</time></trkpt>
<trkpt lat="39.849924" lon="-8.234552">
<ele>212</ele>
<time>2026-05-08T00:24:41Z</time></trkpt>
<trkpt lat="39.849811" lon="-8.234624">
<ele>212</ele>
<time>2026-05-08T00:24:43Z</time></trkpt>
<trkpt lat="39.849713" lon="-8.234761">
<ele>212</ele>
<time>2026-05-08T00:24:46Z</time></trkpt>
<trkpt lat="39.849444" lon="-8.235456">
<ele>216</ele>
<time>2026-05-08T00:24:58Z</time></trkpt>
<trkpt lat="39.849403" lon="-8.235518">
<ele>216</ele>
<time>2026-05-08T00:24:59Z</time></trkpt>
<trkpt lat="39.849294" lon="-8.235594">
<ele>215</ele>
<time>2026-05-08T00:25:02Z</time></trkpt>
<trkpt lat="39.849169" lon="-8.235595">
<ele>213</ele>
<time>2026-05-08T00:25:04Z</time></trkpt>
<trkpt lat="39.849129" lon="-8.235569">
<ele>212</ele>
<time>2026-05-08T00:25:05Z</time></trkpt>
<trkpt lat="39.849129" lon="-8.235568">
<ele>212</ele>
<time>2026-05-08T00:25:05Z</time></trkpt>
<trkpt lat="39.84906" lon="-8.235522">
<ele>209</ele>
<time>2026-05-08T00:25:07Z</time></trkpt>
<trkpt lat="39.849" lon="-8.235398">
<ele>206</ele>
<time>2026-05-08T00:25:09Z</time></trkpt>
<trkpt lat="39.848984" lon="-8.235317">
<ele>205</ele>
<time>2026-05-08T00:25:10Z</time></trkpt>
<trkpt lat="39.848991" lon="-8.235143">
<ele>204</ele>
<time>2026-05-08T00:25:13Z</time></trkpt>
<trkpt lat="39.849048" lon="-8.235008">
<ele>203</ele>
<time>2026-05-08T00:25:16Z</time></trkpt>
<trkpt lat="39.849196" lon="-8.234808">
<ele>202</ele>
<time>2026-05-08T00:25:20Z</time></trkpt>
<trkpt lat="39.849258" lon="-8.234697">
<ele>202</ele>
<time>2026-05-08T00:25:22Z</time></trkpt>
<trkpt lat="39.849394" lon="-8.234185">
<ele>195</ele>
<time>2026-05-08T00:25:30Z</time></trkpt>
<trkpt lat="39.849433" lon="-8.234088">
<ele>194</ele>
<time>2026-05-08T00:25:32Z</time></trkpt>
<trkpt lat="39.849519" lon="-8.233962">
<ele>192</ele>
<time>2026-05-08T00:25:35Z</time></trkpt>
<trkpt lat="39.84958" lon="-8.233903">
<ele>192</ele>
<time>2026-05-08T00:25:36Z</time></trkpt>
<trkpt lat="39.849805" lon="-8.233751">
<ele>191</ele>
<time>2026-05-08T00:25:41Z</time></trkpt>
<trkpt lat="39.849941" lon="-8.233695">
<ele>191</ele>
<time>2026-05-08T00:25:44Z</time></trkpt>
<trkpt lat="39.850099" lon="-8.233709">
<ele>193</ele>
<time>2026-05-08T00:25:47Z</time></trkpt>
<trkpt lat="39.850419" lon="-8.233924">
<ele>198</ele>
<time>2026-05-08T00:25:54Z</time></trkpt>
<trkpt lat="39.850546" lon="-8.23396">
<ele>198</ele>
<time>2026-05-08T00:25:57Z</time></trkpt>
<trkpt lat="39.850678" lon="-8.233913">
<ele>198</ele>
<time>2026-05-08T00:26:00Z</time></trkpt>
<trkpt lat="39.8508" lon="-8.233801">
<ele>197</ele>
<time>2026-05-08T00:26:03Z</time></trkpt>
<trkpt lat="39.850856" lon="-8.233641">
<ele>196</ele>
<time>2026-05-08T00:26:05Z</time></trkpt>
<trkpt lat="39.850847" lon="-8.233481">
<ele>195</ele>
<time>2026-05-08T00:26:08Z</time></trkpt>
<trkpt lat="39.850824" lon="-8.23341">
<ele>194</ele>
<time>2026-05-08T00:26:09Z</time></trkpt>
<trkpt lat="39.850664" lon="-8.233122">
<ele>188</ele>
<time>2026-05-08T00:26:15Z</time></trkpt>
<trkpt lat="39.850636" lon="-8.233045">
<ele>187</ele>
<time>2026-05-08T00:26:16Z</time></trkpt>
<trkpt lat="39.850623" lon="-8.232935">
<ele>185</ele>
<time>2026-05-08T00:26:18Z</time></trkpt>
<trkpt lat="39.850629" lon="-8.23273">
<ele>182</ele>
<time>2026-05-08T00:26:21Z</time></trkpt>
<trkpt lat="39.850682" lon="-8.232542">
<ele>181</ele>
<time>2026-05-08T00:26:24Z</time></trkpt>
<trkpt lat="39.850719" lon="-8.23247">
<ele>181</ele>
<time>2026-05-08T00:26:25Z</time></trkpt>
<trkpt lat="39.850795" lon="-8.232371">
<ele>180</ele>
<time>2026-05-08T00:26:27Z</time></trkpt>
<trkpt lat="39.851333" lon="-8.231891">
<ele>173</ele>
<time>2026-05-08T00:26:40Z</time></trkpt>
<trkpt lat="39.851476" lon="-8.231786">
<ele>173</ele>
<time>2026-05-08T00:26:44Z</time></trkpt>
<trkpt lat="39.851761" lon="-8.231625">
<ele>173</ele>
<time>2026-05-08T00:26:50Z</time></trkpt>
<trkpt lat="39.851887" lon="-8.231584">
<ele>173</ele>
<time>2026-05-08T00:26:52Z</time></trkpt>
<trkpt lat="39.852071" lon="-8.231561">
<ele>174</ele>
<time>2026-05-08T00:26:56Z</time></trkpt>
<trkpt lat="39.852181" lon="-8.231512">
<ele>174</ele>
<time>2026-05-08T00:26:58Z</time></trkpt>
<trkpt lat="39.852479" lon="-8.231221">
<ele>170</ele>
<time>2026-05-08T00:27:06Z</time></trkpt>
<trkpt lat="39.852988" lon="-8.230865">
<ele>169</ele>
<time>2026-05-08T00:27:18Z</time></trkpt>
<trkpt lat="39.853309" lon="-8.230756">
<ele>172</ele>
<time>2026-05-08T00:27:24Z</time></trkpt>
<trkpt lat="39.853398" lon="-8.230693">
<ele>173</ele>
<time>2026-05-08T00:27:26Z</time></trkpt>
<trkpt lat="39.853438" lon="-8.23064">
<ele>172</ele>
<time>2026-05-08T00:27:27Z</time></trkpt>
<trkpt lat="39.853504" lon="-8.230489">
<ele>170</ele>
<time>2026-05-08T00:27:30Z</time></trkpt>
<trkpt lat="39.85366" lon="-8.230051">
<ele>163</ele>
<time>2026-05-08T00:27:37Z</time></trkpt>
<trkpt lat="39.85375" lon="-8.229896">
<ele>161</ele>
<time>2026-05-08T00:27:40Z</time></trkpt>
<trkpt lat="39.853872" lon="-8.229784">
<ele>160</ele>
<time>2026-05-08T00:27:43Z</time></trkpt>
<trkpt lat="39.85416" lon="-8.229584">
<ele>159</ele>
<time>2026-05-08T00:27:50Z</time></trkpt>
<trkpt lat="39.854227" lon="-8.229556">
<ele>159</ele>
<time>2026-05-08T00:27:51Z</time></trkpt>
<trkpt lat="39.854411" lon="-8.229514">
<ele>159</ele>
<time>2026-05-08T00:27:55Z</time></trkpt>
<trkpt lat="39.855375" lon="-8.229382">
<ele>163</ele>
<time>2026-05-08T00:28:15Z</time></trkpt>
<trkpt lat="39.855554" lon="-8.229323">
<ele>162</ele>
<time>2026-05-08T00:28:18Z</time></trkpt>
<trkpt lat="39.855676" lon="-8.229251">
<ele>161</ele>
<time>2026-05-08T00:28:21Z</time></trkpt>
<trkpt lat="39.85613" lon="-8.228917">
<ele>158</ele>
<time>2026-05-08T00:28:31Z</time></trkpt>
<trkpt lat="39.856314" lon="-8.228746">
<ele>158</ele>
<time>2026-05-08T00:28:36Z</time></trkpt>
<trkpt lat="39.856543" lon="-8.228483">
<ele>155</ele>
<time>2026-05-08T00:28:42Z</time></trkpt>
<trkpt lat="39.856678" lon="-8.2283">
<ele>153</ele>
<time>2026-05-08T00:28:46Z</time></trkpt>
<trkpt lat="39.85675" lon="-8.22813">
<ele>154</ele>
<time>2026-05-08T00:28:49Z</time></trkpt>
<trkpt lat="39.8569" lon="-8.227656">
<ele>156</ele>
<time>2026-05-08T00:28:57Z</time></trkpt>
<trkpt lat="39.856913" lon="-8.227566">
<ele>156</ele>
<time>2026-05-08T00:28:58Z</time></trkpt>
<trkpt lat="39.856918" lon="-8.227442">
<ele>155</ele>
<time>2026-05-08T00:29:00Z</time></trkpt>
<trkpt lat="39.856866" lon="-8.226621">
<ele>150</ele>
<time>2026-05-08T00:29:13Z</time></trkpt>
<trkpt lat="39.856805" lon="-8.226445">
<ele>151</ele>
<time>2026-05-08T00:29:16Z</time></trkpt>
<trkpt lat="39.856451" lon="-8.225913">
<ele>150</ele>
<time>2026-05-08T00:29:27Z</time></trkpt>
<trkpt lat="39.856413" lon="-8.225816">
<ele>150</ele>
<time>2026-05-08T00:29:28Z</time></trkpt>
<trkpt lat="39.856328" lon="-8.225417">
<ele>151</ele>
<time>2026-05-08T00:29:35Z</time></trkpt>
<trkpt lat="39.856256" lon="-8.225285">
<ele>149</ele>
<time>2026-05-08T00:29:37Z</time></trkpt>
<trkpt lat="39.856208" lon="-8.225232">
<ele>148</ele>
<time>2026-05-08T00:29:38Z</time></trkpt>
<trkpt lat="39.856058" lon="-8.225198">
<ele>142</ele>
<time>2026-05-08T00:29:41Z</time></trkpt>
<trkpt lat="39.855981" lon="-8.225225">
<ele>139</ele>
<time>2026-05-08T00:29:43Z</time></trkpt>
<trkpt lat="39.8559804" lon="-8.2252254">
<ele>139</ele>
<time>2026-05-08T00:29:43Z</time></trkpt>
<trkpt lat="39.855364" lon="-8.225655">
<ele>149</ele>
<time>2026-05-08T00:29:57Z</time></trkpt>
<trkpt lat="39.855328" lon="-8.22571">
<ele>151</ele>
<time>2026-05-08T00:29:58Z</time></trkpt>
<trkpt lat="39.855298" lon="-8.225834">
<ele>154</ele>
<time>2026-05-08T00:30:00Z</time></trkpt>
<trkpt lat="39.855296" lon="-8.225916">
<ele>154</ele>
<time>2026-05-08T00:30:01Z</time></trkpt>
<trkpt lat="39.855359" lon="-8.226418">
<ele>149</ele>
<time>2026-05-08T00:30:09Z</time></trkpt>
<trkpt lat="39.855088" lon="-8.2272183">
<ele>142</ele>
<time>2026-05-08T00:30:23Z</time></trkpt>
<trkpt lat="39.854899" lon="-8.227022">
<ele>152</ele>
<time>2026-05-08T00:30:28Z</time></trkpt>
<trkpt lat="39.854241" lon="-8.226927">
<ele>167</ele>
<time>2026-05-08T00:30:41Z</time></trkpt>
<trkpt lat="39.854036" lon="-8.226965">
<ele>169</ele>
<time>2026-05-08T00:30:45Z</time></trkpt>
<trkpt lat="39.853753" lon="-8.227085">
<ele>170</ele>
<time>2026-05-08T00:30:51Z</time></trkpt>
<trkpt lat="39.85342" lon="-8.227354">
<ele>171</ele>
<time>2026-05-08T00:30:59Z</time></trkpt>
<trkpt lat="39.851766" lon="-8.228447">
<ele>183</ele>
<time>2026-05-08T00:31:36Z</time></trkpt>
<trkpt lat="39.851397" lon="-8.228498">
<ele>184</ele>
<time>2026-05-08T00:31:43Z</time></trkpt>
<trkpt lat="39.851366" lon="-8.228488">
<ele>185</ele>
<time>2026-05-08T00:31:44Z</time></trkpt>
<trkpt lat="39.851237" lon="-8.228449">
<ele>186</ele>
<time>2026-05-08T00:31:47Z</time></trkpt>
<trkpt lat="39.850915" lon="-8.228188">
<ele>190</ele>
<time>2026-05-08T00:31:54Z</time></trkpt>
<trkpt lat="39.850744" lon="-8.227761">
<ele>198</ele>
<time>2026-05-08T00:32:02Z</time></trkpt>
<trkpt lat="39.850752" lon="-8.227255">
<ele>203</ele>
<time>2026-05-08T00:32:09Z</time></trkpt>
<trkpt lat="39.851394" lon="-8.225674">
<ele>208</ele>
<time>2026-05-08T00:32:37Z</time></trkpt>
<trkpt lat="39.851453" lon="-8.22496">
<ele>214</ele>
<time>2026-05-08T00:32:48Z</time></trkpt>
<trkpt lat="39.8514" lon="-8.224544">
<ele>216</ele>
<time>2026-05-08T00:32:55Z</time></trkpt>
<trkpt lat="39.851248" lon="-8.224142">
<ele>221</ele>
<time>2026-05-08T00:33:01Z</time></trkpt>
<trkpt lat="39.851037" lon="-8.223804">
<ele>224</ele>
<time>2026-05-08T00:33:08Z</time></trkpt>
<trkpt lat="39.850734" lon="-8.223495">
<ele>228</ele>
<time>2026-05-08T00:33:16Z</time></trkpt>
<trkpt lat="39.850342" lon="-8.223304">
<ele>234</ele>
<time>2026-05-08T00:33:24Z</time></trkpt>
<trkpt lat="39.850109" lon="-8.223256">
<ele>238</ele>
<time>2026-05-08T00:33:29Z</time></trkpt>
<trkpt lat="39.849625" lon="-8.223318">
<ele>242</ele>
<time>2026-05-08T00:33:39Z</time></trkpt>
<trkpt lat="39.848556" lon="-8.223781">
<ele>244</ele>
<time>2026-05-08T00:34:01Z</time></trkpt>
<trkpt lat="39.847764" lon="-8.224124">
<ele>250</ele>
<time>2026-05-08T00:34:18Z</time></trkpt>
<trkpt lat="39.847216" lon="-8.224362">
<ele>255</ele>
<time>2026-05-08T00:34:30Z</time></trkpt>
<trkpt lat="39.846769" lon="-8.224352">
<ele>261</ele>
<time>2026-05-08T00:34:39Z</time></trkpt>
<trkpt lat="39.846557" lon="-8.22425">
<ele>262</ele>
<time>2026-05-08T00:34:43Z</time></trkpt>
<trkpt lat="39.846365" lon="-8.224064">
<ele>263</ele>
<time>2026-05-08T00:34:48Z</time></trkpt>
<trkpt lat="39.846172" lon="-8.223759">
<ele>265</ele>
<time>2026-05-08T00:34:54Z</time></trkpt>
<trkpt lat="39.846085" lon="-8.223335">
<ele>267</ele>
<time>2026-05-08T00:35:01Z</time></trkpt>
<trkpt lat="39.846144" lon="-8.222833">
<ele>273</ele>
<time>2026-05-08T00:35:08Z</time></trkpt>
<trkpt lat="39.846409" lon="-8.221758">
<ele>283</ele>
<time>2026-05-08T00:35:26Z</time></trkpt>
<trkpt lat="39.846481" lon="-8.22127">
<ele>287</ele>
<time>2026-05-08T00:35:33Z</time></trkpt>
<trkpt lat="39.846329" lon="-8.220706">
<ele>291</ele>
<time>2026-05-08T00:35:43Z</time></trkpt>
<trkpt lat="39.844571" lon="-8.217403">
<ele>294</ele>
<time>2026-05-08T00:36:45Z</time></trkpt>
<trkpt lat="39.844358" lon="-8.217158">
<ele>294</ele>
<time>2026-05-08T00:36:50Z</time></trkpt>
<trkpt lat="39.84409" lon="-8.216954">
<ele>296</ele>
<time>2026-05-08T00:36:56Z</time></trkpt>
<trkpt lat="39.843294" lon="-8.216442">
<ele>306</ele>
<time>2026-05-08T00:37:14Z</time></trkpt>
<trkpt lat="39.842744" lon="-8.216088">
<ele>303</ele>
<time>2026-05-08T00:37:27Z</time></trkpt>
<trkpt lat="39.842299" lon="-8.215655">
<ele>303</ele>
<time>2026-05-08T00:37:38Z</time></trkpt>
<trkpt lat="39.841972" lon="-8.215031">
<ele>307</ele>
<time>2026-05-08T00:37:49Z</time></trkpt>
<trkpt lat="39.8413" lon="-8.213268">
<ele>309</ele>
<time>2026-05-08T00:38:20Z</time></trkpt>
<trkpt lat="39.841232" lon="-8.212687">
<ele>310</ele>
<time>2026-05-08T00:38:29Z</time></trkpt>
<trkpt lat="39.841411" lon="-8.210918">
<ele>317</ele>
<time>2026-05-08T00:38:56Z</time></trkpt>
<trkpt lat="39.841422" lon="-8.210439">
<ele>316</ele>
<time>2026-05-08T00:39:03Z</time></trkpt>
<trkpt lat="39.841092" lon="-8.208154">
<ele>321</ele>
<time>2026-05-08T00:39:39Z</time></trkpt>
<trkpt lat="39.840993" lon="-8.207708">
<ele>322</ele>
<time>2026-05-08T00:39:46Z</time></trkpt>
<trkpt lat="39.841004" lon="-8.207607">
<ele>322</ele>
<time>2026-05-08T00:39:48Z</time></trkpt>
<trkpt lat="39.841107" lon="-8.20661">
<ele>323</ele>
<time>2026-05-08T00:40:03Z</time></trkpt>
<trkpt lat="39.84038" lon="-8.204716">
<ele>326</ele>
<time>2026-05-08T00:40:36Z</time></trkpt>
<trkpt lat="39.840328" lon="-8.204498">
<ele>327</ele>
<time>2026-05-08T00:40:39Z</time></trkpt>
<trkpt lat="39.840382" lon="-8.203927">
<ele>328</ele>
<time>2026-05-08T00:40:48Z</time></trkpt>
<trkpt lat="39.840526" lon="-8.203656">
<ele>329</ele>
<time>2026-05-08T00:40:53Z</time></trkpt>
<trkpt lat="39.840702" lon="-8.203458">
<ele>330</ele>
<time>2026-05-08T00:40:58Z</time></trkpt>
<trkpt lat="39.840789" lon="-8.20336">
<ele>331</ele>
<time>2026-05-08T00:41:00Z</time></trkpt>
<trkpt lat="39.840897" lon="-8.203129">
<ele>330</ele>
<time>2026-05-08T00:41:05Z</time></trkpt>
<trkpt lat="39.840908" lon="-8.203051">
<ele>330</ele>
<time>2026-05-08T00:41:06Z</time></trkpt>
<trkpt lat="39.840887" lon="-8.202883">
<ele>330</ele>
<time>2026-05-08T00:41:08Z</time></trkpt>
<trkpt lat="39.840774" lon="-8.202716">
<ele>330</ele>
<time>2026-05-08T00:41:12Z</time></trkpt>
<trkpt lat="39.840496" lon="-8.202485">
<ele>330</ele>
<time>2026-05-08T00:41:18Z</time></trkpt>
<trkpt lat="39.840227" lon="-8.202399">
<ele>330</ele>
<time>2026-05-08T00:41:24Z</time></trkpt>
<trkpt lat="39.839722" lon="-8.202363">
<ele>330</ele>
<time>2026-05-08T00:41:34Z</time></trkpt>
<trkpt lat="39.839102" lon="-8.202251">
<ele>330</ele>
<time>2026-05-08T00:41:47Z</time></trkpt>
<trkpt lat="39.83885" lon="-8.202107">
<ele>331</ele>
<time>2026-05-08T00:41:52Z</time></trkpt>
<trkpt lat="39.838736" lon="-8.201978">
<ele>332</ele>
<time>2026-05-08T00:41:55Z</time></trkpt>
<trkpt lat="39.838466" lon="-8.201671">
<ele>334</ele>
<time>2026-05-08T00:42:02Z</time></trkpt>
<trkpt lat="39.837665" lon="-8.200542">
<ele>343</ele>
<time>2026-05-08T00:42:26Z</time></trkpt>
<trkpt lat="39.837387" lon="-8.199917">
<ele>346</ele>
<time>2026-05-08T00:42:37Z</time></trkpt>
<trkpt lat="39.837142" lon="-8.199755">
<ele>348</ele>
<time>2026-05-08T00:42:43Z</time></trkpt>
<trkpt lat="39.836408" lon="-8.199629">
<ele>355</ele>
<time>2026-05-08T00:42:57Z</time></trkpt>
<trkpt lat="39.836199" lon="-8.199399">
<ele>358</ele>
<time>2026-05-08T00:43:03Z</time></trkpt>
<trkpt lat="39.835987" lon="-8.198966">
<ele>362</ele>
<time>2026-05-08T00:43:11Z</time></trkpt>
<trkpt lat="39.835915" lon="-8.198588">
<ele>363</ele>
<time>2026-05-08T00:43:17Z</time></trkpt>
<trkpt lat="39.835704" lon="-8.197495">
<ele>367</ele>
<time>2026-05-08T00:43:34Z</time></trkpt>
<trkpt lat="39.835637" lon="-8.197288">
<ele>368</ele>
<time>2026-05-08T00:43:38Z</time></trkpt>
<trkpt lat="39.835388" lon="-8.196516">
<ele>370</ele>
<time>2026-05-08T00:43:50Z</time></trkpt>
<trkpt lat="39.834957" lon="-8.195763">
<ele>371</ele>
<time>2026-05-08T00:44:05Z</time></trkpt>
<trkpt lat="39.834816" lon="-8.195517">
<ele>372</ele>
<time>2026-05-08T00:44:10Z</time></trkpt>
<trkpt lat="39.834557" lon="-8.194916">
<ele>376</ele>
<time>2026-05-08T00:44:20Z</time></trkpt>
<trkpt lat="39.834493" lon="-8.194702">
<ele>376</ele>
<time>2026-05-08T00:44:24Z</time></trkpt>
<trkpt lat="39.83445" lon="-8.194458">
<ele>375</ele>
<time>2026-05-08T00:44:28Z</time></trkpt>
<trkpt lat="39.834355" lon="-8.192785">
<ele>375</ele>
<time>2026-05-08T00:44:53Z</time></trkpt>
<trkpt lat="39.834302" lon="-8.190858">
<ele>374</ele>
<time>2026-05-08T00:45:23Z</time></trkpt>
<trkpt lat="39.834102" lon="-8.190313">
<ele>371</ele>
<time>2026-05-08T00:45:32Z</time></trkpt>
<trkpt lat="39.833959" lon="-8.190112">
<ele>368</ele>
<time>2026-05-08T00:45:37Z</time></trkpt>
<trkpt lat="39.833832" lon="-8.189991">
<ele>366</ele>
<time>2026-05-08T00:45:40Z</time></trkpt>
<trkpt lat="39.833687" lon="-8.189894">
<ele>366</ele>
<time>2026-05-08T00:45:43Z</time></trkpt>
<trkpt lat="39.833395" lon="-8.189764">
<ele>364</ele>
<time>2026-05-08T00:45:49Z</time></trkpt>
<trkpt lat="39.833106" lon="-8.189689">
<ele>361</ele>
<time>2026-05-08T00:45:55Z</time></trkpt>
<trkpt lat="39.829308" lon="-8.188596">
<ele>332</ele>
<time>2026-05-08T00:47:13Z</time></trkpt>
<trkpt lat="39.829117" lon="-8.188575">
<ele>331</ele>
<time>2026-05-08T00:47:17Z</time></trkpt>
<trkpt lat="39.828862" lon="-8.188607">
<ele>335</ele>
<time>2026-05-08T00:47:22Z</time></trkpt>
<trkpt lat="39.828629" lon="-8.18875">
<ele>338</ele>
<time>2026-05-08T00:47:27Z</time></trkpt>
<trkpt lat="39.828386" lon="-8.189001">
<ele>340</ele>
<time>2026-05-08T00:47:33Z</time></trkpt>
<trkpt lat="39.828196" lon="-8.18935">
<ele>343</ele>
<time>2026-05-08T00:47:40Z</time></trkpt>
<trkpt lat="39.827814" lon="-8.190426">
<ele>344</ele>
<time>2026-05-08T00:47:58Z</time></trkpt>
<trkpt lat="39.827676" lon="-8.190614">
<ele>346</ele>
<time>2026-05-08T00:48:02Z</time></trkpt>
<trkpt lat="39.827461" lon="-8.190723">
<ele>351</ele>
<time>2026-05-08T00:48:07Z</time></trkpt>
<trkpt lat="39.827271" lon="-8.190782">
<ele>352</ele>
<time>2026-05-08T00:48:11Z</time></trkpt>
<trkpt lat="39.827106" lon="-8.19079">
<ele>353</ele>
<time>2026-05-08T00:48:14Z</time></trkpt>
<trkpt lat="39.826925" lon="-8.190739">
<ele>355</ele>
<time>2026-05-08T00:48:18Z</time></trkpt>
<trkpt lat="39.826752" lon="-8.190627">
<ele>357</ele>
<time>2026-05-08T00:48:22Z</time></trkpt>
<trkpt lat="39.826596" lon="-8.190447">
<ele>360</ele>
<time>2026-05-08T00:48:26Z</time></trkpt>
<trkpt lat="39.8257" lon="-8.189098">
<ele>363</ele>
<time>2026-05-08T00:48:53Z</time></trkpt>
<trkpt lat="39.825461" lon="-8.188875">
<ele>366</ele>
<time>2026-05-08T00:48:59Z</time></trkpt>
<trkpt lat="39.825364" lon="-8.188824">
<ele>367</ele>
<time>2026-05-08T00:49:01Z</time></trkpt>
<trkpt lat="39.82524" lon="-8.188789">
<ele>368</ele>
<time>2026-05-08T00:49:04Z</time></trkpt>
<trkpt lat="39.825038" lon="-8.188781">
<ele>370</ele>
<time>2026-05-08T00:49:08Z</time></trkpt>
<trkpt lat="39.824843" lon="-8.188819">
<ele>371</ele>
<time>2026-05-08T00:49:12Z</time></trkpt>
<trkpt lat="39.824678" lon="-8.188894">
<ele>371</ele>
<time>2026-05-08T00:49:15Z</time></trkpt>
<trkpt lat="39.823598" lon="-8.189723">
<ele>373</ele>
<time>2026-05-08T00:49:40Z</time></trkpt>
<trkpt lat="39.823475" lon="-8.189795">
<ele>372</ele>
<time>2026-05-08T00:49:43Z</time></trkpt>
<trkpt lat="39.823182" lon="-8.18987">
<ele>373</ele>
<time>2026-05-08T00:49:49Z</time></trkpt>
<trkpt lat="39.822811" lon="-8.189854">
<ele>374</ele>
<time>2026-05-08T00:49:57Z</time></trkpt>
<trkpt lat="39.822628" lon="-8.189801">
<ele>375</ele>
<time>2026-05-08T00:50:00Z</time></trkpt>
<trkpt lat="39.822463" lon="-8.189717">
<ele>376</ele>
<time>2026-05-08T00:50:04Z</time></trkpt>
<trkpt lat="39.822276" lon="-8.189573">
<ele>376</ele>
<time>2026-05-08T00:50:08Z</time></trkpt>
<trkpt lat="39.82208" lon="-8.189356">
<ele>376</ele>
<time>2026-05-08T00:50:13Z</time></trkpt>
<trkpt lat="39.821994" lon="-8.18924">
<ele>376</ele>
<time>2026-05-08T00:50:16Z</time></trkpt>
<trkpt lat="39.821839" lon="-8.188958">
<ele>377</ele>
<time>2026-05-08T00:50:21Z</time></trkpt>
<trkpt lat="39.8216677" lon="-8.1885386">
<ele>379</ele>
<time>2026-05-08T00:50:29Z</time></trkpt>
<trkpt lat="39.821219" lon="-8.18744">
<ele>391</ele>
<time>2026-05-08T00:50:48Z</time></trkpt>
<trkpt lat="39.821077" lon="-8.187204">
<ele>393</ele>
<time>2026-05-08T00:50:52Z</time></trkpt>
<trkpt lat="39.820887" lon="-8.186968">
<ele>397</ele>
<time>2026-05-08T00:50:58Z</time></trkpt>
<trkpt lat="39.820676" lon="-8.186773">
<ele>399</ele>
<time>2026-05-08T00:51:03Z</time></trkpt>
<trkpt lat="39.820239" lon="-8.186518">
<ele>404</ele>
<time>2026-05-08T00:51:12Z</time></trkpt>
<trkpt lat="39.820018" lon="-8.186449">
<ele>406</ele>
<time>2026-05-08T00:51:17Z</time></trkpt>
<trkpt lat="39.81979" lon="-8.186418">
<ele>406</ele>
<time>2026-05-08T00:51:21Z</time></trkpt>
<trkpt lat="39.817722" lon="-8.18653">
<ele>408</ele>
<time>2026-05-08T00:52:03Z</time></trkpt>
<trkpt lat="39.817587" lon="-8.186514">
<ele>407</ele>
<time>2026-05-08T00:52:06Z</time></trkpt>
<trkpt lat="39.817339" lon="-8.186552">
<ele>406</ele>
<time>2026-05-08T00:52:11Z</time></trkpt>
<trkpt lat="39.817257" lon="-8.186545">
<ele>405</ele>
<time>2026-05-08T00:52:12Z</time></trkpt>
<trkpt lat="39.817203" lon="-8.18648">
<ele>405</ele>
<time>2026-05-08T00:52:14Z</time></trkpt>
<trkpt lat="39.817188" lon="-8.186387">
<ele>405</ele>
<time>2026-05-08T00:52:15Z</time></trkpt>
<trkpt lat="39.817232" lon="-8.186283">
<ele>405</ele>
<time>2026-05-08T00:52:17Z</time></trkpt>
<trkpt lat="39.81736" lon="-8.186003">
<ele>407</ele>
<time>2026-05-08T00:52:22Z</time></trkpt>
<trkpt lat="39.817781" lon="-8.184182">
<ele>404</ele>
<time>2026-05-08T00:52:51Z</time></trkpt>
<trkpt lat="39.817957" lon="-8.183477">
<ele>403</ele>
<time>2026-05-08T00:53:03Z</time></trkpt>
<trkpt lat="39.818059" lon="-8.183164">
<ele>402</ele>
<time>2026-05-08T00:53:08Z</time></trkpt>
<trkpt lat="39.81957" lon="-8.179264">
<ele>407</ele>
<time>2026-05-08T00:54:15Z</time></trkpt>
<trkpt lat="39.81957" lon="-8.179264">
<ele>407</ele>
<time>2026-05-08T00:54:15Z</time></trkpt>
<trkpt lat="39.821744" lon="-8.173598">
<ele>417</ele>
<time>2026-05-08T00:55:53Z</time></trkpt>
<trkpt lat="39.82288" lon="-8.170668">
<ele>409</ele>
<time>2026-05-08T00:56:43Z</time></trkpt>
<trkpt lat="39.823364" lon="-8.169351">
<ele>406</ele>
<time>2026-05-08T00:57:06Z</time></trkpt>
<trkpt lat="39.824483" lon="-8.165648">
<ele>404</ele>
<time>2026-05-08T00:58:07Z</time></trkpt>
<trkpt lat="39.825073" lon="-8.163682">
<ele>402</ele>
<time>2026-05-08T00:58:39Z</time></trkpt>
<trkpt lat="39.825218" lon="-8.163369">
<ele>401</ele>
<time>2026-05-08T00:58:45Z</time></trkpt>
<trkpt lat="39.825492" lon="-8.162971">
<ele>400</ele>
<time>2026-05-08T00:58:53Z</time></trkpt>
<trkpt lat="39.825615" lon="-8.162852">
<ele>400</ele>
<time>2026-05-08T00:58:56Z</time></trkpt>
<trkpt lat="39.825793" lon="-8.16256">
<ele>400</ele>
<time>2026-05-08T00:59:02Z</time></trkpt>
<trkpt lat="39.825852" lon="-8.162413">
<ele>399</ele>
<time>2026-05-08T00:59:05Z</time></trkpt>
<trkpt lat="39.825867" lon="-8.16229">
<ele>398</ele>
<time>2026-05-08T00:59:07Z</time></trkpt>
<trkpt lat="39.825708" lon="-8.161699">
<ele>394</ele>
<time>2026-05-08T00:59:16Z</time></trkpt>
<trkpt lat="39.82571" lon="-8.16154">
<ele>393</ele>
<time>2026-05-08T00:59:19Z</time></trkpt>
<trkpt lat="39.826133" lon="-8.160047">
<ele>396</ele>
<time>2026-05-08T00:59:43Z</time></trkpt>
<trkpt lat="39.826177" lon="-8.159764">
<ele>395</ele>
<time>2026-05-08T00:59:48Z</time></trkpt>
<trkpt lat="39.826244" lon="-8.158143">
<ele>390</ele>
<time>2026-05-08T01:00:13Z</time></trkpt>
<trkpt lat="39.826217" lon="-8.157431">
<ele>390</ele>
<time>2026-05-08T01:00:24Z</time></trkpt>
<trkpt lat="39.824632" lon="-8.151906">
<ele>384</ele>
<time>2026-05-08T01:01:54Z</time></trkpt>
<trkpt lat="39.823601" lon="-8.148152">
<ele>374</ele>
<time>2026-05-08T01:02:56Z</time></trkpt>
<trkpt lat="39.822769" lon="-8.145252">
<ele>359</ele>
<time>2026-05-08T01:03:43Z</time></trkpt>
<trkpt lat="39.822004" lon="-8.143225">
<ele>352</ele>
<time>2026-05-08T01:04:18Z</time></trkpt>
<trkpt lat="39.821928" lon="-8.14313">
<ele>352</ele>
<time>2026-05-08T01:04:20Z</time></trkpt>
<trkpt lat="39.821894" lon="-8.143133">
<ele>352</ele>
<time>2026-05-08T01:04:21Z</time></trkpt>
<trkpt lat="39.821837" lon="-8.1431">
<ele>352</ele>
<time>2026-05-08T01:04:22Z</time></trkpt>
<trkpt lat="39.821806" lon="-8.14303">
<ele>352</ele>
<time>2026-05-08T01:04:23Z</time></trkpt>
<trkpt lat="39.821824" lon="-8.142783">
<ele>352</ele>
<time>2026-05-08T01:04:27Z</time></trkpt>
<trkpt lat="39.8218" lon="-8.142729">
<ele>352</ele>
<time>2026-05-08T01:04:28Z</time></trkpt>
<trkpt lat="39.821711" lon="-8.142479">
<ele>352</ele>
<time>2026-05-08T01:04:32Z</time></trkpt>
<trkpt lat="39.821662" lon="-8.142352">
<ele>353</ele>
<time>2026-05-08T01:04:35Z</time></trkpt>
<trkpt lat="39.820978" lon="-8.140553">
<ele>352</ele>
<time>2026-05-08T01:05:05Z</time></trkpt>
<trkpt lat="39.820921" lon="-8.140397">
<ele>352</ele>
<time>2026-05-08T01:05:08Z</time></trkpt>
<trkpt lat="39.820613" lon="-8.139563">
<ele>352</ele>
<time>2026-05-08T01:05:22Z</time></trkpt>
<trkpt lat="39.820362" lon="-8.138885">
<ele>351</ele>
<time>2026-05-08T01:05:34Z</time></trkpt>
<trkpt lat="39.820255" lon="-8.138434">
<ele>353</ele>
<time>2026-05-08T01:05:41Z</time></trkpt>
<trkpt lat="39.820246" lon="-8.137941">
<ele>352</ele>
<time>2026-05-08T01:05:49Z</time></trkpt>
<trkpt lat="39.820337" lon="-8.136439">
<ele>334</ele>
<time>2026-05-08T01:06:12Z</time></trkpt>
<trkpt lat="39.820288" lon="-8.135922">
<ele>320</ele>
<time>2026-05-08T01:06:20Z</time></trkpt>
<trkpt lat="39.820279" lon="-8.135838">
<ele>318</ele>
<time>2026-05-08T01:06:21Z</time></trkpt>
<trkpt lat="39.82004" lon="-8.135301">
<ele>324</ele>
<time>2026-05-08T01:06:31Z</time></trkpt>
<trkpt lat="39.819711" lon="-8.134969">
<ele>324</ele>
<time>2026-05-08T01:06:39Z</time></trkpt>
<trkpt lat="39.816629" lon="-8.13337">
<ele>310</ele>
<time>2026-05-08T01:07:46Z</time></trkpt>
<trkpt lat="39.816357" lon="-8.133102">
<ele>306</ele>
<time>2026-05-08T01:07:52Z</time></trkpt>
<trkpt lat="39.816192" lon="-8.132823">
<ele>305</ele>
<time>2026-05-08T01:07:58Z</time></trkpt>
<trkpt lat="39.816093" lon="-8.13249">
<ele>305</ele>
<time>2026-05-08T01:08:03Z</time></trkpt>
<trkpt lat="39.816093" lon="-8.132008">
<ele>300</ele>
<time>2026-05-08T01:08:11Z</time></trkpt>
<trkpt lat="39.816151" lon="-8.131332">
<ele>298</ele>
<time>2026-05-08T01:08:21Z</time></trkpt>
<trkpt lat="39.816151" lon="-8.131042">
<ele>298</ele>
<time>2026-05-08T01:08:26Z</time></trkpt>
<trkpt lat="39.816093" lon="-8.130731">
<ele>299</ele>
<time>2026-05-08T01:08:31Z</time></trkpt>
<trkpt lat="39.815953" lon="-8.130237">
<ele>301</ele>
<time>2026-05-08T01:08:39Z</time></trkpt>
<trkpt lat="39.815104" lon="-8.128649">
<ele>297</ele>
<time>2026-05-08T01:09:09Z</time></trkpt>
<trkpt lat="39.81489" lon="-8.128145">
<ele>295</ele>
<time>2026-05-08T01:09:17Z</time></trkpt>
<trkpt lat="39.814338" lon="-8.126525">
<ele>288</ele>
<time>2026-05-08T01:09:45Z</time></trkpt>
<trkpt lat="39.814091" lon="-8.126032">
<ele>288</ele>
<time>2026-05-08T01:09:54Z</time></trkpt>
<trkpt lat="39.813736" lon="-8.125517">
<ele>287</ele>
<time>2026-05-08T01:10:04Z</time></trkpt>
<trkpt lat="39.812558" lon="-8.124508">
<ele>283</ele>
<time>2026-05-08T01:10:33Z</time></trkpt>
<trkpt lat="39.812245" lon="-8.124347">
<ele>283</ele>
<time>2026-05-08T01:10:39Z</time></trkpt>
<trkpt lat="39.811099" lon="-8.124197">
<ele>276</ele>
<time>2026-05-08T01:11:02Z</time></trkpt>
<trkpt lat="39.810827" lon="-8.124101">
<ele>274</ele>
<time>2026-05-08T01:11:08Z</time></trkpt>
<trkpt lat="39.810638" lon="-8.123972">
<ele>273</ele>
<time>2026-05-08T01:11:12Z</time></trkpt>
<trkpt lat="39.810283" lon="-8.123382">
<ele>271</ele>
<time>2026-05-08T01:11:24Z</time></trkpt>
<trkpt lat="39.809072" lon="-8.120796">
<ele>258</ele>
<time>2026-05-08T01:12:11Z</time></trkpt>
<trkpt lat="39.808956" lon="-8.120431">
<ele>260</ele>
<time>2026-05-08T01:12:17Z</time></trkpt>
<trkpt lat="39.808594" lon="-8.118822">
<ele>261</ele>
<time>2026-05-08T01:12:42Z</time></trkpt>
<trkpt lat="39.808594" lon="-8.118607">
<ele>261</ele>
<time>2026-05-08T01:12:46Z</time></trkpt>
<trkpt lat="39.808701" lon="-8.116995">
<ele>257</ele>
<time>2026-05-08T01:13:11Z</time></trkpt>
<trkpt lat="39.808701" lon="-8.116995">
<ele>257</ele>
<time>2026-05-08T01:13:11Z</time></trkpt>
<trkpt lat="39.808717" lon="-8.116751">
<ele>257</ele>
<time>2026-05-08T01:13:14Z</time></trkpt>
<trkpt lat="39.808709" lon="-8.116494">
<ele>258</ele>
<time>2026-05-08T01:13:18Z</time></trkpt>
<trkpt lat="39.808223" lon="-8.115024">
<ele>253</ele>
<time>2026-05-08T01:13:43Z</time></trkpt>
<trkpt lat="39.807794" lon="-8.11438">
<ele>255</ele>
<time>2026-05-08T01:13:56Z</time></trkpt>
<trkpt lat="39.807588" lon="-8.114284">
<ele>252</ele>
<time>2026-05-08T01:14:01Z</time></trkpt>
<trkpt lat="39.807127" lon="-8.114144">
<ele>249</ele>
<time>2026-05-08T01:14:10Z</time></trkpt>
<trkpt lat="39.806879" lon="-8.114005">
<ele>248</ele>
<time>2026-05-08T01:14:15Z</time></trkpt>
<trkpt lat="39.806138" lon="-8.113307">
<ele>244</ele>
<time>2026-05-08T01:14:34Z</time></trkpt>
<trkpt lat="39.805964" lon="-8.113071">
<ele>244</ele>
<time>2026-05-08T01:14:39Z</time></trkpt>
<trkpt lat="39.803859" lon="-8.108892">
<ele>235</ele>
<time>2026-05-08T01:15:56Z</time></trkpt>
<trkpt lat="39.803771" lon="-8.108576">
<ele>234</ele>
<time>2026-05-08T01:16:01Z</time></trkpt>
<trkpt lat="39.803732" lon="-8.107546">
<ele>238</ele>
<time>2026-05-08T01:16:17Z</time></trkpt>
<trkpt lat="39.803716" lon="-8.10736">
<ele>238</ele>
<time>2026-05-08T01:16:20Z</time></trkpt>
<trkpt lat="39.803539" lon="-8.106864">
<ele>237</ele>
<time>2026-05-08T01:16:28Z</time></trkpt>
<trkpt lat="39.803463" lon="-8.106664">
<ele>237</ele>
<time>2026-05-08T01:16:31Z</time></trkpt>
<trkpt lat="39.8034497" lon="-8.1066118">
<ele>237</ele>
<time>2026-05-08T01:16:32Z</time></trkpt>
<trkpt lat="39.803402" lon="-8.106424">
<ele>237</ele>
<time>2026-05-08T01:16:35Z</time></trkpt>
<trkpt lat="39.803249" lon="-8.105216">
<ele>237</ele>
<time>2026-05-08T01:16:54Z</time></trkpt>
<trkpt lat="39.803194" lon="-8.104735">
<ele>237</ele>
<time>2026-05-08T01:17:02Z</time></trkpt>
<trkpt lat="39.803095" lon="-8.10453">
<ele>236</ele>
<time>2026-05-08T01:17:05Z</time></trkpt>
<trkpt lat="39.803051" lon="-8.104479">
<ele>236</ele>
<time>2026-05-08T01:17:07Z</time></trkpt>
<trkpt lat="39.802954" lon="-8.104426">
<ele>235</ele>
<time>2026-05-08T01:17:09Z</time></trkpt>
<trkpt lat="39.802884" lon="-8.104422">
<ele>234</ele>
<time>2026-05-08T01:17:10Z</time></trkpt>
<trkpt lat="39.802793" lon="-8.104381">
<ele>233</ele>
<time>2026-05-08T01:17:12Z</time></trkpt>
<trkpt lat="39.802715" lon="-8.104297">
<ele>232</ele>
<time>2026-05-08T01:17:14Z</time></trkpt>
<trkpt lat="39.802667" lon="-8.104188">
<ele>232</ele>
<time>2026-05-08T01:17:16Z</time></trkpt>
<trkpt lat="39.802661" lon="-8.104149">
<ele>232</ele>
<time>2026-05-08T01:17:17Z</time></trkpt>
<trkpt lat="39.80265" lon="-8.104067">
<ele>232</ele>
<time>2026-05-08T01:17:18Z</time></trkpt>
<trkpt lat="39.802683" lon="-8.103901">
<ele>233</ele>
<time>2026-05-08T01:17:21Z</time></trkpt>
<trkpt lat="39.802704" lon="-8.103848">
<ele>234</ele>
<time>2026-05-08T01:17:21Z</time></trkpt>
<trkpt lat="39.802748" lon="-8.103661">
<ele>235</ele>
<time>2026-05-08T01:17:24Z</time></trkpt>
<trkpt lat="39.802733" lon="-8.103438">
<ele>236</ele>
<time>2026-05-08T01:17:28Z</time></trkpt>
<trkpt lat="39.802632" lon="-8.103208">
<ele>235</ele>
<time>2026-05-08T01:17:32Z</time></trkpt>
<trkpt lat="39.802618" lon="-8.102955">
<ele>235</ele>
<time>2026-05-08T01:17:36Z</time></trkpt>
<trkpt lat="39.802742" lon="-8.102643">
<ele>237</ele>
<time>2026-05-08T01:17:41Z</time></trkpt>
<trkpt lat="39.8035" lon="-8.101409">
<ele>237</ele>
<time>2026-05-08T01:18:06Z</time></trkpt>
<trkpt lat="39.803629" lon="-8.101053">
<ele>236</ele>
<time>2026-05-08T01:18:12Z</time></trkpt>
<trkpt lat="39.803898" lon="-8.100112">
<ele>232</ele>
<time>2026-05-08T01:18:27Z</time></trkpt>
<trkpt lat="39.803938" lon="-8.100025">
<ele>232</ele>
<time>2026-05-08T01:18:29Z</time></trkpt>
<trkpt lat="39.803998" lon="-8.099948">
<ele>232</ele>
<time>2026-05-08T01:18:30Z</time></trkpt>
<trkpt lat="39.804112" lon="-8.099886">
<ele>233</ele>
<time>2026-05-08T01:18:33Z</time></trkpt>
<trkpt lat="39.804208" lon="-8.099893">
<ele>234</ele>
<time>2026-05-08T01:18:35Z</time></trkpt>
<trkpt lat="39.805096" lon="-8.100415">
<ele>237</ele>
<time>2026-05-08T01:18:54Z</time></trkpt>
<trkpt lat="39.805136" lon="-8.100407">
<ele>237</ele>
<time>2026-05-08T01:18:55Z</time></trkpt>
<trkpt lat="39.805254" lon="-8.100289">
<ele>237</ele>
<time>2026-05-08T01:18:58Z</time></trkpt>
<trkpt lat="39.805388" lon="-8.100105">
<ele>237</ele>
<time>2026-05-08T01:19:02Z</time></trkpt>
<trkpt lat="39.805419" lon="-8.100056">
<ele>237</ele>
<time>2026-05-08T01:19:03Z</time></trkpt>
<trkpt lat="39.805359" lon="-8.099952">
<ele>237</ele>
<time>2026-05-08T01:19:05Z</time></trkpt>
<trkpt lat="39.8053" lon="-8.099888">
<ele>237</ele>
<time>2026-05-08T01:19:07Z</time></trkpt>
<trkpt lat="39.804039" lon="-8.099346">
<ele>236</ele>
<time>2026-05-08T01:19:33Z</time></trkpt>
<trkpt lat="39.802671" lon="-8.098968">
<ele>231</ele>
<time>2026-05-08T01:20:01Z</time></trkpt>
<trkpt lat="39.802588" lon="-8.098964">
<ele>231</ele>
<time>2026-05-08T01:20:03Z</time></trkpt>
<trkpt lat="39.802429" lon="-8.09895">
<ele>230</ele>
<time>2026-05-08T01:20:06Z</time></trkpt>
<trkpt lat="39.802251" lon="-8.098883">
<ele>230</ele>
<time>2026-05-08T01:20:10Z</time></trkpt>
<trkpt lat="39.802209" lon="-8.098822">
<ele>230</ele>
<time>2026-05-08T01:20:11Z</time></trkpt>
<trkpt lat="39.802178" lon="-8.098818">
<ele>230</ele>
<time>2026-05-08T01:20:12Z</time></trkpt>
<trkpt lat="39.802127" lon="-8.098778">
<ele>229</ele>
<time>2026-05-08T01:20:13Z</time></trkpt>
<trkpt lat="39.802102" lon="-8.098705">
<ele>229</ele>
<time>2026-05-08T01:20:14Z</time></trkpt>
<trkpt lat="39.802104" lon="-8.098666">
<ele>229</ele>
<time>2026-05-08T01:20:15Z</time></trkpt>
<trkpt lat="39.802121" lon="-8.098615">
<ele>229</ele>
<time>2026-05-08T01:20:16Z</time></trkpt>
<trkpt lat="39.802125" lon="-8.098162">
<ele>228</ele>
<time>2026-05-08T01:20:22Z</time></trkpt>
<trkpt lat="39.802013" lon="-8.097345">
<ele>225</ele>
<time>2026-05-08T01:20:35Z</time></trkpt>
<trkpt lat="39.801973" lon="-8.097147">
<ele>226</ele>
<time>2026-05-08T01:20:38Z</time></trkpt>
<trkpt lat="39.801953" lon="-8.096981">
<ele>226</ele>
<time>2026-05-08T01:20:41Z</time></trkpt>
<trkpt lat="39.801811" lon="-8.096792">
<ele>227</ele>
<time>2026-05-08T01:20:45Z</time></trkpt>
<trkpt lat="39.801744" lon="-8.096728">
<ele>227</ele>
<time>2026-05-08T01:20:47Z</time></trkpt>
<trkpt lat="39.801725" lon="-8.096647">
<ele>227</ele>
<time>2026-05-08T01:20:48Z</time></trkpt>
<trkpt lat="39.801742" lon="-8.096566">
<ele>228</ele>
<time>2026-05-08T01:20:49Z</time></trkpt>
<trkpt lat="39.801767" lon="-8.096527">
<ele>228</ele>
<time>2026-05-08T01:20:50Z</time></trkpt>
<trkpt lat="39.801738" lon="-8.096256">
<ele>230</ele>
<time>2026-05-08T01:20:54Z</time></trkpt>
<trkpt lat="39.801641" lon="-8.096144">
<ele>231</ele>
<time>2026-05-08T01:20:57Z</time></trkpt>
<trkpt lat="39.801399" lon="-8.095958">
<ele>232</ele>
<time>2026-05-08T01:21:03Z</time></trkpt>
<trkpt lat="39.801077" lon="-8.095707">
<ele>234</ele>
<time>2026-05-08T01:21:10Z</time></trkpt>
<trkpt lat="39.800848" lon="-8.095329">
<ele>235</ele>
<time>2026-05-08T01:21:17Z</time></trkpt>
<trkpt lat="39.8004304" lon="-8.0944268">
<ele>236</ele>
<time>2026-05-08T01:21:34Z</time></trkpt>
<trkpt lat="39.800068" lon="-8.093644">
<ele>236</ele>
<time>2026-05-08T01:21:48Z</time></trkpt>
<trkpt lat="39.79993" lon="-8.093505">
<ele>236</ele>
<time>2026-05-08T01:21:51Z</time></trkpt>
<trkpt lat="39.799898" lon="-8.09352">
<ele>236</ele>
<time>2026-05-08T01:21:52Z</time></trkpt>
<trkpt lat="39.799863" lon="-8.093513">
<ele>236</ele>
<time>2026-05-08T01:21:53Z</time></trkpt>
<trkpt lat="39.799828" lon="-8.093473">
<ele>236</ele>
<time>2026-05-08T01:21:54Z</time></trkpt>
<trkpt lat="39.799818" lon="-8.093414">
<ele>236</ele>
<time>2026-05-08T01:21:55Z</time></trkpt>
<trkpt lat="39.79984" lon="-8.093357">
<ele>236</ele>
<time>2026-05-08T01:21:55Z</time></trkpt>
<trkpt lat="39.799824" lon="-8.093109">
<ele>237</ele>
<time>2026-05-08T01:21:59Z</time></trkpt>
<trkpt lat="39.7989027" lon="-8.0911413">
<ele>239</ele>
<time>2026-05-08T01:22:35Z</time></trkpt>
<trkpt lat="39.798852" lon="-8.091033">
<ele>240</ele>
<time>2026-05-08T01:22:37Z</time></trkpt>
<trkpt lat="39.798207" lon="-8.0896">
<ele>243</ele>
<time>2026-05-08T01:23:02Z</time></trkpt>
<trkpt lat="39.798006" lon="-8.089335">
<ele>244</ele>
<time>2026-05-08T01:23:08Z</time></trkpt>
<trkpt lat="39.797359" lon="-8.08881">
<ele>248</ele>
<time>2026-05-08T01:23:23Z</time></trkpt>
<trkpt lat="39.797111" lon="-8.088571">
<ele>248</ele>
<time>2026-05-08T01:23:30Z</time></trkpt>
<trkpt lat="39.797039" lon="-8.088453">
<ele>248</ele>
<time>2026-05-08T01:23:32Z</time></trkpt>
<trkpt lat="39.796957" lon="-8.088417">
<ele>248</ele>
<time>2026-05-08T01:23:34Z</time></trkpt>
<trkpt lat="39.796927" lon="-8.088352">
<ele>248</ele>
<time>2026-05-08T01:23:35Z</time></trkpt>
<trkpt lat="39.796931" lon="-8.088273">
<ele>248</ele>
<time>2026-05-08T01:23:36Z</time></trkpt>
<trkpt lat="39.79685" lon="-8.087963">
<ele>249</ele>
<time>2026-05-08T01:23:41Z</time></trkpt>
<trkpt lat="39.796716" lon="-8.087689">
<ele>251</ele>
<time>2026-05-08T01:23:46Z</time></trkpt>
<trkpt lat="39.796618" lon="-8.087506">
<ele>252</ele>
<time>2026-05-08T01:23:49Z</time></trkpt>
<trkpt lat="39.796529" lon="-8.08724">
<ele>255</ele>
<time>2026-05-08T01:23:54Z</time></trkpt>
<trkpt lat="39.796352" lon="-8.086514">
<ele>261</ele>
<time>2026-05-08T01:24:06Z</time></trkpt>
<trkpt lat="39.796342" lon="-8.086351">
<ele>262</ele>
<time>2026-05-08T01:24:08Z</time></trkpt>
<trkpt lat="39.796222" lon="-8.085826">
<ele>263</ele>
<time>2026-05-08T01:24:17Z</time></trkpt>
<trkpt lat="39.796234" lon="-8.08564">
<ele>265</ele>
<time>2026-05-08T01:24:19Z</time></trkpt>
<trkpt lat="39.796337" lon="-8.085554">
<ele>267</ele>
<time>2026-05-08T01:24:22Z</time></trkpt>
<trkpt lat="39.796465" lon="-8.085511">
<ele>268</ele>
<time>2026-05-08T01:24:25Z</time></trkpt>
<trkpt lat="39.796812" lon="-8.085401">
<ele>272</ele>
<time>2026-05-08T01:24:32Z</time></trkpt>
<trkpt lat="39.796903" lon="-8.085417">
<ele>273</ele>
<time>2026-05-08T01:24:34Z</time></trkpt>
<trkpt lat="39.797013" lon="-8.085513">
<ele>272</ele>
<time>2026-05-08T01:24:36Z</time></trkpt>
<trkpt lat="39.797122" lon="-8.085705">
<ele>271</ele>
<time>2026-05-08T01:24:40Z</time></trkpt>
<trkpt lat="39.797181" lon="-8.086073">
<ele>266</ele>
<time>2026-05-08T01:24:46Z</time></trkpt>
<trkpt lat="39.79718" lon="-8.086185">
<ele>265</ele>
<time>2026-05-08T01:24:47Z</time></trkpt>
<trkpt lat="39.797141" lon="-8.086283">
<ele>263</ele>
<time>2026-05-08T01:24:49Z</time></trkpt>
<trkpt lat="39.797074" lon="-8.086352">
<ele>262</ele>
<time>2026-05-08T01:24:51Z</time></trkpt>
<trkpt lat="39.796617" lon="-8.08656">
<ele>261</ele>
<time>2026-05-08T01:25:00Z</time></trkpt>
<trkpt lat="39.796276" lon="-8.086726">
<ele>260</ele>
<time>2026-05-08T01:25:08Z</time></trkpt>
<trkpt lat="39.79578" lon="-8.08696">
<ele>261</ele>
<time>2026-05-08T01:25:18Z</time></trkpt>
<trkpt lat="39.795618" lon="-8.087015">
<ele>265</ele>
<time>2026-05-08T01:25:22Z</time></trkpt>
<trkpt lat="39.79546" lon="-8.087043">
<ele>268</ele>
<time>2026-05-08T01:25:25Z</time></trkpt>
<trkpt lat="39.794923" lon="-8.087319">
<ele>276</ele>
<time>2026-05-08T01:25:36Z</time></trkpt>
<trkpt lat="39.794357" lon="-8.087694">
<ele>274</ele>
<time>2026-05-08T01:25:49Z</time></trkpt>
<trkpt lat="39.793866" lon="-8.088144">
<ele>269</ele>
<time>2026-05-08T01:26:01Z</time></trkpt>
<trkpt lat="39.79368" lon="-8.088409">
<ele>266</ele>
<time>2026-05-08T01:26:07Z</time></trkpt>
<trkpt lat="39.793391" lon="-8.088928">
<ele>263</ele>
<time>2026-05-08T01:26:17Z</time></trkpt>
<trkpt lat="39.793321" lon="-8.089078">
<ele>262</ele>
<time>2026-05-08T01:26:19Z</time></trkpt>
<trkpt lat="39.793174" lon="-8.089498">
<ele>267</ele>
<time>2026-05-08T01:26:26Z</time></trkpt>
<trkpt lat="39.79314" lon="-8.089624">
<ele>268</ele>
<time>2026-05-08T01:26:28Z</time></trkpt>
<trkpt lat="39.793059" lon="-8.089985">
<ele>271</ele>
<time>2026-05-08T01:26:34Z</time></trkpt>
<trkpt lat="39.792949" lon="-8.09063">
<ele>278</ele>
<time>2026-05-08T01:26:44Z</time></trkpt>
<trkpt lat="39.792715" lon="-8.092599">
<ele>280</ele>
<time>2026-05-08T01:27:15Z</time></trkpt>
<trkpt lat="39.792715" lon="-8.092599">
<ele>280</ele>
<time>2026-05-08T01:27:15Z</time></trkpt>
<trkpt lat="39.792471" lon="-8.094651">
<ele>290</ele>
<time>2026-05-08T01:27:47Z</time></trkpt>
<trkpt lat="39.792219" lon="-8.097076">
<ele>285</ele>
<time>2026-05-08T01:28:25Z</time></trkpt>
<trkpt lat="39.792112" lon="-8.09763">
<ele>294</ele>
<time>2026-05-08T01:28:34Z</time></trkpt>
<trkpt lat="39.792021" lon="-8.09796">
<ele>299</ele>
<time>2026-05-08T01:28:39Z</time></trkpt>
<trkpt lat="39.7919" lon="-8.098314">
<ele>306</ele>
<time>2026-05-08T01:28:45Z</time></trkpt>
<trkpt lat="39.791719" lon="-8.098681">
<ele>310</ele>
<time>2026-05-08T01:28:52Z</time></trkpt>
<trkpt lat="39.79157" lon="-8.098897">
<ele>312</ele>
<time>2026-05-08T01:28:56Z</time></trkpt>
<trkpt lat="39.791428" lon="-8.099066">
<ele>313</ele>
<time>2026-05-08T01:29:00Z</time></trkpt>
<trkpt lat="39.791165" lon="-8.0993">
<ele>316</ele>
<time>2026-05-08T01:29:06Z</time></trkpt>
<trkpt lat="39.790898" lon="-8.099501">
<ele>317</ele>
<time>2026-05-08T01:29:13Z</time></trkpt>
<trkpt lat="39.790328" lon="-8.099805">
<ele>309</ele>
<time>2026-05-08T01:29:25Z</time></trkpt>
<trkpt lat="39.790013" lon="-8.099891">
<ele>303</ele>
<time>2026-05-08T01:29:31Z</time></trkpt>
<trkpt lat="39.789262" lon="-8.099995">
<ele>309</ele>
<time>2026-05-08T01:29:46Z</time></trkpt>
<trkpt lat="39.788709" lon="-8.100134">
<ele>325</ele>
<time>2026-05-08T01:29:58Z</time></trkpt>
<trkpt lat="39.788535" lon="-8.100207">
<ele>331</ele>
<time>2026-05-08T01:30:01Z</time></trkpt>
<trkpt lat="39.788101" lon="-8.100477">
<ele>343</ele>
<time>2026-05-08T01:30:11Z</time></trkpt>
<trkpt lat="39.787829" lon="-8.100719">
<ele>348</ele>
<time>2026-05-08T01:30:18Z</time></trkpt>
<trkpt lat="39.786275" lon="-8.101909">
<ele>346</ele>
<time>2026-05-08T01:30:54Z</time></trkpt>
<trkpt lat="39.78608" lon="-8.10204">
<ele>348</ele>
<time>2026-05-08T01:30:58Z</time></trkpt>
<trkpt lat="39.785627" lon="-8.10222">
<ele>354</ele>
<time>2026-05-08T01:31:08Z</time></trkpt>
<trkpt lat="39.78496" lon="-8.102416">
<ele>365</ele>
<time>2026-05-08T01:31:21Z</time></trkpt>
<trkpt lat="39.783477" lon="-8.102794">
<ele>382</ele>
<time>2026-05-08T01:31:52Z</time></trkpt>
<trkpt lat="39.783193" lon="-8.1029">
<ele>383</ele>
<time>2026-05-08T01:31:58Z</time></trkpt>
<trkpt lat="39.783043" lon="-8.103005">
<ele>383</ele>
<time>2026-05-08T01:32:01Z</time></trkpt>
<trkpt lat="39.782702" lon="-8.103194">
<ele>381</ele>
<time>2026-05-08T01:32:08Z</time></trkpt>
<trkpt lat="39.781641" lon="-8.103897">
<ele>375</ele>
<time>2026-05-08T01:32:32Z</time></trkpt>
<trkpt lat="39.781402" lon="-8.104056">
<ele>373</ele>
<time>2026-05-08T01:32:38Z</time></trkpt>
<trkpt lat="39.781325" lon="-8.104105">
<ele>373</ele>
<time>2026-05-08T01:32:39Z</time></trkpt>
<trkpt lat="39.781111" lon="-8.10424">
<ele>373</ele>
<time>2026-05-08T01:32:44Z</time></trkpt>
<trkpt lat="39.780834" lon="-8.10443">
<ele>374</ele>
<time>2026-05-08T01:32:50Z</time></trkpt>
<trkpt lat="39.780681" lon="-8.104501">
<ele>373</ele>
<time>2026-05-08T01:32:54Z</time></trkpt>
<trkpt lat="39.780382" lon="-8.104561">
<ele>372</ele>
<time>2026-05-08T01:33:00Z</time></trkpt>
<trkpt lat="39.780224" lon="-8.104552">
<ele>372</ele>
<time>2026-05-08T01:33:03Z</time></trkpt>
<trkpt lat="39.780038" lon="-8.10451">
<ele>371</ele>
<time>2026-05-08T01:33:07Z</time></trkpt>
<trkpt lat="39.779871" lon="-8.10443">
<ele>369</ele>
<time>2026-05-08T01:33:10Z</time></trkpt>
<trkpt lat="39.779355" lon="-8.104083">
<ele>362</ele>
<time>2026-05-08T01:33:22Z</time></trkpt>
<trkpt lat="39.779132" lon="-8.103898">
<ele>361</ele>
<time>2026-05-08T01:33:27Z</time></trkpt>
<trkpt lat="39.777623" lon="-8.102938">
<ele>356</ele>
<time>2026-05-08T01:34:01Z</time></trkpt>
<trkpt lat="39.777458" lon="-8.102863">
<ele>355</ele>
<time>2026-05-08T01:34:04Z</time></trkpt>
<trkpt lat="39.777248" lon="-8.102803">
<ele>355</ele>
<time>2026-05-08T01:34:09Z</time></trkpt>
<trkpt lat="39.776878" lon="-8.102777">
<ele>354</ele>
<time>2026-05-08T01:34:16Z</time></trkpt>
<trkpt lat="39.776751" lon="-8.102807">
<ele>354</ele>
<time>2026-05-08T01:34:19Z</time></trkpt>
<trkpt lat="39.776559" lon="-8.102886">
<ele>354</ele>
<time>2026-05-08T01:34:23Z</time></trkpt>
<trkpt lat="39.776416" lon="-8.102998">
<ele>355</ele>
<time>2026-05-08T01:34:26Z</time></trkpt>
<trkpt lat="39.775906" lon="-8.103539">
<ele>356</ele>
<time>2026-05-08T01:34:39Z</time></trkpt>
<trkpt lat="39.775143" lon="-8.104475">
<ele>356</ele>
<time>2026-05-08T01:35:00Z</time></trkpt>
<trkpt lat="39.774307" lon="-8.105502">
<ele>361</ele>
<time>2026-05-08T01:35:23Z</time></trkpt>
<trkpt lat="39.774149" lon="-8.105813">
<ele>362</ele>
<time>2026-05-08T01:35:29Z</time></trkpt>
<trkpt lat="39.774061" lon="-8.106149">
<ele>361</ele>
<time>2026-05-08T01:35:34Z</time></trkpt>
<trkpt lat="39.774047" lon="-8.106275">
<ele>361</ele>
<time>2026-05-08T01:35:36Z</time></trkpt>
<trkpt lat="39.773961" lon="-8.106982">
<ele>359</ele>
<time>2026-05-08T01:35:47Z</time></trkpt>
<trkpt lat="39.773914" lon="-8.108028">
<ele>359</ele>
<time>2026-05-08T01:36:04Z</time></trkpt>
<trkpt lat="39.773875" lon="-8.10831">
<ele>359</ele>
<time>2026-05-08T01:36:08Z</time></trkpt>
<trkpt lat="39.773795" lon="-8.108626">
<ele>360</ele>
<time>2026-05-08T01:36:13Z</time></trkpt>
<trkpt lat="39.77372" lon="-8.10883">
<ele>360</ele>
<time>2026-05-08T01:36:17Z</time></trkpt>
<trkpt lat="39.773649" lon="-8.10897">
<ele>361</ele>
<time>2026-05-08T01:36:19Z</time></trkpt>
<trkpt lat="39.773543" lon="-8.109143">
<ele>361</ele>
<time>2026-05-08T01:36:23Z</time></trkpt>
<trkpt lat="39.773207" lon="-8.109589">
<ele>362</ele>
<time>2026-05-08T01:36:32Z</time></trkpt>
<trkpt lat="39.772699" lon="-8.110198">
<ele>362</ele>
<time>2026-05-08T01:36:46Z</time></trkpt>
<trkpt lat="39.772512" lon="-8.110407">
<ele>362</ele>
<time>2026-05-08T01:36:51Z</time></trkpt>
<trkpt lat="39.77241" lon="-8.110495">
<ele>361</ele>
<time>2026-05-08T01:36:53Z</time></trkpt>
<trkpt lat="39.772218" lon="-8.110675">
<ele>361</ele>
<time>2026-05-08T01:36:58Z</time></trkpt>
<trkpt lat="39.77214" lon="-8.110755">
<ele>361</ele>
<time>2026-05-08T01:37:00Z</time></trkpt>
<trkpt lat="39.772046" lon="-8.110821">
<ele>361</ele>
<time>2026-05-08T01:37:02Z</time></trkpt>
<trkpt lat="39.771912" lon="-8.110887">
<ele>360</ele>
<time>2026-05-08T01:37:05Z</time></trkpt>
<trkpt lat="39.771717" lon="-8.110959">
<ele>359</ele>
<time>2026-05-08T01:37:09Z</time></trkpt>
<trkpt lat="39.771403" lon="-8.110999">
<ele>361</ele>
<time>2026-05-08T01:37:16Z</time></trkpt>
<trkpt lat="39.771299" lon="-8.110988">
<ele>362</ele>
<time>2026-05-08T01:37:18Z</time></trkpt>
<trkpt lat="39.770123" lon="-8.110621">
<ele>368</ele>
<time>2026-05-08T01:37:42Z</time></trkpt>
<trkpt lat="39.769135" lon="-8.110282">
<ele>369</ele>
<time>2026-05-08T01:38:02Z</time></trkpt>
<trkpt lat="39.768294" lon="-8.110085">
<ele>364</ele>
<time>2026-05-08T01:38:20Z</time></trkpt>
<trkpt lat="39.767871" lon="-8.110074">
<ele>362</ele>
<time>2026-05-08T01:38:28Z</time></trkpt>
<trkpt lat="39.767425" lon="-8.110183">
<ele>360</ele>
<time>2026-05-08T01:38:37Z</time></trkpt>
<trkpt lat="39.767125" lon="-8.110301">
<ele>358</ele>
<time>2026-05-08T01:38:43Z</time></trkpt>
<trkpt lat="39.766668" lon="-8.110603">
<ele>354</ele>
<time>2026-05-08T01:38:54Z</time></trkpt>
<trkpt lat="39.76632" lon="-8.110883">
<ele>352</ele>
<time>2026-05-08T01:39:02Z</time></trkpt>
<trkpt lat="39.766146" lon="-8.111043">
<ele>350</ele>
<time>2026-05-08T01:39:06Z</time></trkpt>
<trkpt lat="39.76298" lon="-8.113645">
<ele>328</ele>
<time>2026-05-08T01:40:21Z</time></trkpt>
<trkpt lat="39.762566" lon="-8.114121">
<ele>329</ele>
<time>2026-05-08T01:40:32Z</time></trkpt>
<trkpt lat="39.761586" lon="-8.115497">
<ele>322</ele>
<time>2026-05-08T01:41:01Z</time></trkpt>
<trkpt lat="39.761386" lon="-8.115716">
<ele>323</ele>
<time>2026-05-08T01:41:06Z</time></trkpt>
<trkpt lat="39.761234" lon="-8.115873">
<ele>323</ele>
<time>2026-05-08T01:41:10Z</time></trkpt>
<trkpt lat="39.760777" lon="-8.116214">
<ele>324</ele>
<time>2026-05-08T01:41:21Z</time></trkpt>
<trkpt lat="39.760594" lon="-8.116327">
<ele>325</ele>
<time>2026-05-08T01:41:25Z</time></trkpt>
<trkpt lat="39.760383" lon="-8.116425">
<ele>326</ele>
<time>2026-05-08T01:41:29Z</time></trkpt>
<trkpt lat="39.759997" lon="-8.116582">
<ele>328</ele>
<time>2026-05-08T01:41:37Z</time></trkpt>
<trkpt lat="39.757847" lon="-8.117322">
<ele>321</ele>
<time>2026-05-08T01:42:22Z</time></trkpt>
<trkpt lat="39.757451" lon="-8.117422">
<ele>318</ele>
<time>2026-05-08T01:42:30Z</time></trkpt>
<trkpt lat="39.757283" lon="-8.117464">
<ele>317</ele>
<time>2026-05-08T01:42:34Z</time></trkpt>
<trkpt lat="39.75715" lon="-8.117498">
<ele>316</ele>
<time>2026-05-08T01:42:36Z</time></trkpt>
<trkpt lat="39.755366" lon="-8.117869">
<ele>304</ele>
<time>2026-05-08T01:43:12Z</time></trkpt>
<trkpt lat="39.753957" lon="-8.118143">
<ele>293</ele>
<time>2026-05-08T01:43:41Z</time></trkpt>
<trkpt lat="39.753764" lon="-8.118228">
<ele>291</ele>
<time>2026-05-08T01:43:45Z</time></trkpt>
<trkpt lat="39.753614" lon="-8.118345">
<ele>290</ele>
<time>2026-05-08T01:43:49Z</time></trkpt>
<trkpt lat="39.753458" lon="-8.118504">
<ele>288</ele>
<time>2026-05-08T01:43:53Z</time></trkpt>
<trkpt lat="39.75332" lon="-8.118682">
<ele>287</ele>
<time>2026-05-08T01:43:56Z</time></trkpt>
<trkpt lat="39.753117" lon="-8.119063">
<ele>285</ele>
<time>2026-05-08T01:44:04Z</time></trkpt>
<trkpt lat="39.752842" lon="-8.119819">
<ele>284</ele>
<time>2026-05-08T01:44:16Z</time></trkpt>
<trkpt lat="39.752756" lon="-8.12021">
<ele>283</ele>
<time>2026-05-08T01:44:23Z</time></trkpt>
<trkpt lat="39.752702" lon="-8.120849">
<ele>279</ele>
<time>2026-05-08T01:44:33Z</time></trkpt>
<trkpt lat="39.752702" lon="-8.121212">
<ele>279</ele>
<time>2026-05-08T01:44:38Z</time></trkpt>
<trkpt lat="39.752736" lon="-8.121556">
<ele>279</ele>
<time>2026-05-08T01:44:44Z</time></trkpt>
<trkpt lat="39.753134" lon="-8.123511">
<ele>273</ele>
<time>2026-05-08T01:45:15Z</time></trkpt>
<trkpt lat="39.753161" lon="-8.123699">
<ele>273</ele>
<time>2026-05-08T01:45:18Z</time></trkpt>
<trkpt lat="39.753182" lon="-8.124117">
<ele>273</ele>
<time>2026-05-08T01:45:24Z</time></trkpt>
<trkpt lat="39.753177" lon="-8.124277">
<ele>273</ele>
<time>2026-05-08T01:45:27Z</time></trkpt>
<trkpt lat="39.753146" lon="-8.124486">
<ele>273</ele>
<time>2026-05-08T01:45:30Z</time></trkpt>
<trkpt lat="39.753085" lon="-8.12472">
<ele>273</ele>
<time>2026-05-08T01:45:34Z</time></trkpt>
<trkpt lat="39.752834" lon="-8.12551">
<ele>274</ele>
<time>2026-05-08T01:45:47Z</time></trkpt>
<trkpt lat="39.752788" lon="-8.125891">
<ele>274</ele>
<time>2026-05-08T01:45:53Z</time></trkpt>
<trkpt lat="39.752777" lon="-8.12609">
<ele>274</ele>
<time>2026-05-08T01:45:56Z</time></trkpt>
<trkpt lat="39.752786" lon="-8.126323">
<ele>273</ele>
<time>2026-05-08T01:45:59Z</time></trkpt>
<trkpt lat="39.752947" lon="-8.127318">
<ele>268</ele>
<time>2026-05-08T01:46:15Z</time></trkpt>
<trkpt lat="39.752956" lon="-8.127552">
<ele>267</ele>
<time>2026-05-08T01:46:19Z</time></trkpt>
<trkpt lat="39.752945" lon="-8.127798">
<ele>265</ele>
<time>2026-05-08T01:46:23Z</time></trkpt>
<trkpt lat="39.752844" lon="-8.128264">
<ele>265</ele>
<time>2026-05-08T01:46:30Z</time></trkpt>
<trkpt lat="39.752715" lon="-8.128566">
<ele>266</ele>
<time>2026-05-08T01:46:35Z</time></trkpt>
<trkpt lat="39.752586" lon="-8.128785">
<ele>266</ele>
<time>2026-05-08T01:46:40Z</time></trkpt>
<trkpt lat="39.752087" lon="-8.129461">
<ele>267</ele>
<time>2026-05-08T01:46:54Z</time></trkpt>
<trkpt lat="39.751997" lon="-8.129622">
<ele>268</ele>
<time>2026-05-08T01:46:57Z</time></trkpt>
<trkpt lat="39.751923" lon="-8.129804">
<ele>268</ele>
<time>2026-05-08T01:47:00Z</time></trkpt>
<trkpt lat="39.751836" lon="-8.130127">
<ele>267</ele>
<time>2026-05-08T01:47:05Z</time></trkpt>
<trkpt lat="39.751777" lon="-8.130544">
<ele>265</ele>
<time>2026-05-08T01:47:12Z</time></trkpt>
<trkpt lat="39.751783" lon="-8.1307">
<ele>263</ele>
<time>2026-05-08T01:47:14Z</time></trkpt>
<trkpt lat="39.7518" lon="-8.130957">
<ele>260</ele>
<time>2026-05-08T01:47:18Z</time></trkpt>
<trkpt lat="39.751926" lon="-8.131728">
<ele>253</ele>
<time>2026-05-08T01:47:31Z</time></trkpt>
<trkpt lat="39.751949" lon="-8.132074">
<ele>251</ele>
<time>2026-05-08T01:47:36Z</time></trkpt>
<trkpt lat="39.75194" lon="-8.132323">
<ele>250</ele>
<time>2026-05-08T01:47:40Z</time></trkpt>
<trkpt lat="39.751643" lon="-8.134146">
<ele>247</ele>
<time>2026-05-08T01:48:08Z</time></trkpt>
<trkpt lat="39.751621" lon="-8.134392">
<ele>246</ele>
<time>2026-05-08T01:48:12Z</time></trkpt>
<trkpt lat="39.751601" lon="-8.135575">
<ele>241</ele>
<time>2026-05-08T01:48:30Z</time></trkpt>
<trkpt lat="39.751578" lon="-8.13576">
<ele>240</ele>
<time>2026-05-08T01:48:33Z</time></trkpt>
<trkpt lat="39.75154" lon="-8.135928">
<ele>237</ele>
<time>2026-05-08T01:48:36Z</time></trkpt>
<trkpt lat="39.751457" lon="-8.13611">
<ele>234</ele>
<time>2026-05-08T01:48:39Z</time></trkpt>
<trkpt lat="39.75137" lon="-8.136251">
<ele>232</ele>
<time>2026-05-08T01:48:42Z</time></trkpt>
<trkpt lat="39.751143" lon="-8.136491">
<ele>230</ele>
<time>2026-05-08T01:48:48Z</time></trkpt>
<trkpt lat="39.750873" lon="-8.136646">
<ele>231</ele>
<time>2026-05-08T01:48:54Z</time></trkpt>
<trkpt lat="39.750607" lon="-8.136738">
<ele>229</ele>
<time>2026-05-08T01:48:59Z</time></trkpt>
<trkpt lat="39.750155" lon="-8.136957">
<ele>227</ele>
<time>2026-05-08T01:49:09Z</time></trkpt>
<trkpt lat="39.749945" lon="-8.13714">
<ele>227</ele>
<time>2026-05-08T01:49:14Z</time></trkpt>
<trkpt lat="39.749822" lon="-8.137306">
<ele>226</ele>
<time>2026-05-08T01:49:18Z</time></trkpt>
<trkpt lat="39.749702" lon="-8.137506">
<ele>225</ele>
<time>2026-05-08T01:49:22Z</time></trkpt>
<trkpt lat="39.749603" lon="-8.13777">
<ele>221</ele>
<time>2026-05-08T01:49:26Z</time></trkpt>
<trkpt lat="39.748502" lon="-8.141435">
<ele>200</ele>
<time>2026-05-08T01:50:27Z</time></trkpt>
<trkpt lat="39.748403" lon="-8.141671">
<ele>199</ele>
<time>2026-05-08T01:50:31Z</time></trkpt>
<trkpt lat="39.748283" lon="-8.14189">
<ele>196</ele>
<time>2026-05-08T01:50:35Z</time></trkpt>
<trkpt lat="39.748093" lon="-8.14213">
<ele>193</ele>
<time>2026-05-08T01:50:40Z</time></trkpt>
<trkpt lat="39.74772" lon="-8.14242">
<ele>193</ele>
<time>2026-05-08T01:50:49Z</time></trkpt>
<trkpt lat="39.746563" lon="-8.143111">
<ele>180</ele>
<time>2026-05-08T01:51:15Z</time></trkpt>
<trkpt lat="39.746365" lon="-8.143171">
<ele>176</ele>
<time>2026-05-08T01:51:19Z</time></trkpt>
<trkpt lat="39.746187" lon="-8.143189">
<ele>173</ele>
<time>2026-05-08T01:51:22Z</time></trkpt>
<trkpt lat="39.746021" lon="-8.143157">
<ele>172</ele>
<time>2026-05-08T01:51:26Z</time></trkpt>
<trkpt lat="39.745836" lon="-8.143091">
<ele>171</ele>
<time>2026-05-08T01:51:29Z</time></trkpt>
<trkpt lat="39.745579" lon="-8.142896">
<ele>172</ele>
<time>2026-05-08T01:51:35Z</time></trkpt>
<trkpt lat="39.745423" lon="-8.142703">
<ele>172</ele>
<time>2026-05-08T01:51:40Z</time></trkpt>
<trkpt lat="39.745292" lon="-8.142476">
<ele>173</ele>
<time>2026-05-08T01:51:44Z</time></trkpt>
<trkpt lat="39.745208" lon="-8.142238">
<ele>173</ele>
<time>2026-05-08T01:51:48Z</time></trkpt>
<trkpt lat="39.745148" lon="-8.142064">
<ele>173</ele>
<time>2026-05-08T01:51:51Z</time></trkpt>
<trkpt lat="39.745022" lon="-8.141442">
<ele>171</ele>
<time>2026-05-08T01:52:01Z</time></trkpt>
<trkpt lat="39.744853" lon="-8.140603">
<ele>170</ele>
<time>2026-05-08T01:52:14Z</time></trkpt>
<trkpt lat="39.7447474" lon="-8.1400766">
<ele>174</ele>
<time>2026-05-08T01:52:23Z</time></trkpt>
<trkpt lat="39.744721" lon="-8.139945">
<ele>175</ele>
<time>2026-05-08T01:52:25Z</time></trkpt>
<trkpt lat="39.744105" lon="-8.137933">
<ele>196</ele>
<time>2026-05-08T01:52:58Z</time></trkpt>
<trkpt lat="39.7441027" lon="-8.1379213">
<ele>197</ele>
<time>2026-05-08T01:52:58Z</time></trkpt>
<trkpt lat="39.744039" lon="-8.137599">
<ele>197</ele>
<time>2026-05-08T01:53:03Z</time></trkpt>
<trkpt lat="39.743992" lon="-8.137274">
<ele>198</ele>
<time>2026-05-08T01:53:09Z</time></trkpt>
<trkpt lat="39.744005" lon="-8.13646">
<ele>192</ele>
<time>2026-05-08T01:53:21Z</time></trkpt>
<trkpt lat="39.743997" lon="-8.136196">
<ele>191</ele>
<time>2026-05-08T01:53:25Z</time></trkpt>
<trkpt lat="39.743958" lon="-8.136023">
<ele>192</ele>
<time>2026-05-08T01:53:28Z</time></trkpt>
<trkpt lat="39.743868" lon="-8.135804">
<ele>195</ele>
<time>2026-05-08T01:53:32Z</time></trkpt>
<trkpt lat="39.743765" lon="-8.135608">
<ele>195</ele>
<time>2026-05-08T01:53:35Z</time></trkpt>
<trkpt lat="39.743604" lon="-8.13542">
<ele>196</ele>
<time>2026-05-08T01:53:40Z</time></trkpt>
<trkpt lat="39.743455" lon="-8.135321">
<ele>197</ele>
<time>2026-05-08T01:53:43Z</time></trkpt>
<trkpt lat="39.743128" lon="-8.135226">
<ele>197</ele>
<time>2026-05-08T01:53:50Z</time></trkpt>
<trkpt lat="39.742893" lon="-8.135233">
<ele>199</ele>
<time>2026-05-08T01:53:55Z</time></trkpt>
<trkpt lat="39.742706" lon="-8.135292">
<ele>201</ele>
<time>2026-05-08T01:53:58Z</time></trkpt>
<trkpt lat="39.742561" lon="-8.135401">
<ele>205</ele>
<time>2026-05-08T01:54:02Z</time></trkpt>
<trkpt lat="39.74243" lon="-8.135525">
<ele>207</ele>
<time>2026-05-08T01:54:05Z</time></trkpt>
<trkpt lat="39.742296" lon="-8.135716">
<ele>209</ele>
<time>2026-05-08T01:54:09Z</time></trkpt>
<trkpt lat="39.741914" lon="-8.136687">
<ele>214</ele>
<time>2026-05-08T01:54:26Z</time></trkpt>
<trkpt lat="39.741816" lon="-8.136844">
<ele>213</ele>
<time>2026-05-08T01:54:29Z</time></trkpt>
<trkpt lat="39.741601" lon="-8.137072">
<ele>213</ele>
<time>2026-05-08T01:54:34Z</time></trkpt>
<trkpt lat="39.741405" lon="-8.137199">
<ele>217</ele>
<time>2026-05-08T01:54:39Z</time></trkpt>
<trkpt lat="39.741226" lon="-8.137262">
<ele>221</ele>
<time>2026-05-08T01:54:43Z</time></trkpt>
<trkpt lat="39.741058" lon="-8.137273">
<ele>223</ele>
<time>2026-05-08T01:54:46Z</time></trkpt>
<trkpt lat="39.740887" lon="-8.137242">
<ele>224</ele>
<time>2026-05-08T01:54:49Z</time></trkpt>
<trkpt lat="39.740748" lon="-8.137181">
<ele>224</ele>
<time>2026-05-08T01:54:52Z</time></trkpt>
<trkpt lat="39.740601" lon="-8.13709">
<ele>225</ele>
<time>2026-05-08T01:54:56Z</time></trkpt>
<trkpt lat="39.74041" lon="-8.136923">
<ele>224</ele>
<time>2026-05-08T01:55:00Z</time></trkpt>
<trkpt lat="39.740236" lon="-8.136705">
<ele>222</ele>
<time>2026-05-08T01:55:05Z</time></trkpt>
<trkpt lat="39.739584" lon="-8.135719">
<ele>229</ele>
<time>2026-05-08T01:55:25Z</time></trkpt>
<trkpt lat="39.739356" lon="-8.135508">
<ele>231</ele>
<time>2026-05-08T01:55:31Z</time></trkpt>
<trkpt lat="39.739208" lon="-8.135416">
<ele>232</ele>
<time>2026-05-08T01:55:34Z</time></trkpt>
<trkpt lat="39.73822" lon="-8.135095">
<ele>236</ele>
<time>2026-05-08T01:55:54Z</time></trkpt>
<trkpt lat="39.738028" lon="-8.135082">
<ele>235</ele>
<time>2026-05-08T01:55:58Z</time></trkpt>
<trkpt lat="39.737851" lon="-8.135113">
<ele>234</ele>
<time>2026-05-08T01:56:02Z</time></trkpt>
<trkpt lat="39.73768" lon="-8.135195">
<ele>236</ele>
<time>2026-05-08T01:56:05Z</time></trkpt>
<trkpt lat="39.737186" lon="-8.135675">
<ele>246</ele>
<time>2026-05-08T01:56:18Z</time></trkpt>
<trkpt lat="39.737071" lon="-8.135748">
<ele>247</ele>
<time>2026-05-08T01:56:20Z</time></trkpt>
<trkpt lat="39.736912" lon="-8.135802">
<ele>247</ele>
<time>2026-05-08T01:56:24Z</time></trkpt>
<trkpt lat="39.736754" lon="-8.13582">
<ele>246</ele>
<time>2026-05-08T01:56:27Z</time></trkpt>
<trkpt lat="39.736585" lon="-8.135813">
<ele>246</ele>
<time>2026-05-08T01:56:30Z</time></trkpt>
<trkpt lat="39.736411" lon="-8.135767">
<ele>249</ele>
<time>2026-05-08T01:56:34Z</time></trkpt>
<trkpt lat="39.735876" lon="-8.135433">
<ele>250</ele>
<time>2026-05-08T01:56:46Z</time></trkpt>
<trkpt lat="39.735689" lon="-8.135382">
<ele>250</ele>
<time>2026-05-08T01:56:50Z</time></trkpt>
<trkpt lat="39.735586" lon="-8.135378">
<ele>250</ele>
<time>2026-05-08T01:56:52Z</time></trkpt>
<trkpt lat="39.735335" lon="-8.135411">
<ele>250</ele>
<time>2026-05-08T01:56:57Z</time></trkpt>
<trkpt lat="39.733517" lon="-8.135763">
<ele>261</ele>
<time>2026-05-08T01:57:33Z</time></trkpt>
<trkpt lat="39.732856" lon="-8.135865">
<ele>265</ele>
<time>2026-05-08T01:57:47Z</time></trkpt>
<trkpt lat="39.732579" lon="-8.135834">
<ele>266</ele>
<time>2026-05-08T01:57:52Z</time></trkpt>
<trkpt lat="39.732324" lon="-8.135712">
<ele>268</ele>
<time>2026-05-08T01:57:58Z</time></trkpt>
<trkpt lat="39.731598" lon="-8.135047">
<ele>270</ele>
<time>2026-05-08T01:58:16Z</time></trkpt>
<trkpt lat="39.731247" lon="-8.134907">
<ele>269</ele>
<time>2026-05-08T01:58:23Z</time></trkpt>
<trkpt lat="39.730736" lon="-8.134933">
<ele>271</ele>
<time>2026-05-08T01:58:33Z</time></trkpt>
<trkpt lat="39.730269" lon="-8.135058">
<ele>275</ele>
<time>2026-05-08T01:58:43Z</time></trkpt>
<trkpt lat="39.729317" lon="-8.135312">
<ele>279</ele>
<time>2026-05-08T01:59:02Z</time></trkpt>
<trkpt lat="39.729" lon="-8.135494">
<ele>281</ele>
<time>2026-05-08T01:59:09Z</time></trkpt>
<trkpt lat="39.72884" lon="-8.135615">
<ele>282</ele>
<time>2026-05-08T01:59:13Z</time></trkpt>
<trkpt lat="39.728736" lon="-8.135719">
<ele>283</ele>
<time>2026-05-08T01:59:16Z</time></trkpt>
<trkpt lat="39.728524" lon="-8.135959">
<ele>286</ele>
<time>2026-05-08T01:59:21Z</time></trkpt>
<trkpt lat="39.728374" lon="-8.136178">
<ele>287</ele>
<time>2026-05-08T01:59:26Z</time></trkpt>
<trkpt lat="39.727488" lon="-8.137968">
<ele>298</ele>
<time>2026-05-08T01:59:58Z</time></trkpt>
<trkpt lat="39.727337" lon="-8.138168">
<ele>296</ele>
<time>2026-05-08T02:00:03Z</time></trkpt>
<trkpt lat="39.727242" lon="-8.138252">
<ele>296</ele>
<time>2026-05-08T02:00:05Z</time></trkpt>
<trkpt lat="39.727043" lon="-8.138377">
<ele>296</ele>
<time>2026-05-08T02:00:10Z</time></trkpt>
<trkpt lat="39.726923" lon="-8.13843">
<ele>297</ele>
<time>2026-05-08T02:00:12Z</time></trkpt>
<trkpt lat="39.726588" lon="-8.138448">
<ele>299</ele>
<time>2026-05-08T02:00:19Z</time></trkpt>
<trkpt lat="39.724635" lon="-8.138168">
<ele>304</ele>
<time>2026-05-08T02:00:58Z</time></trkpt>
<trkpt lat="39.724339" lon="-8.138139">
<ele>304</ele>
<time>2026-05-08T02:01:04Z</time></trkpt>
<trkpt lat="39.724081" lon="-8.138154">
<ele>304</ele>
<time>2026-05-08T02:01:09Z</time></trkpt>
<trkpt lat="39.724081" lon="-8.138154">
<ele>304</ele>
<time>2026-05-08T02:01:09Z</time></trkpt>
<trkpt lat="39.72389" lon="-8.138178">
<ele>306</ele>
<time>2026-05-08T02:01:13Z</time></trkpt>
<trkpt lat="39.721996" lon="-8.138831">
<ele>316</ele>
<time>2026-05-08T02:01:52Z</time></trkpt>
<trkpt lat="39.720402" lon="-8.13938">
<ele>321</ele>
<time>2026-05-08T02:02:25Z</time></trkpt>
<trkpt lat="39.720028" lon="-8.139505">
<ele>322</ele>
<time>2026-05-08T02:02:33Z</time></trkpt>
<trkpt lat="39.719981" lon="-8.13952">
<ele>322</ele>
<time>2026-05-08T02:02:34Z</time></trkpt>
<trkpt lat="39.719703" lon="-8.139609">
<ele>323</ele>
<time>2026-05-08T02:02:40Z</time></trkpt>
<trkpt lat="39.719488" lon="-8.139658">
<ele>325</ele>
<time>2026-05-08T02:02:44Z</time></trkpt>
<trkpt lat="39.719317" lon="-8.139672">
<ele>326</ele>
<time>2026-05-08T02:02:48Z</time></trkpt>
<trkpt lat="39.718908" lon="-8.139622">
<ele>331</ele>
<time>2026-05-08T02:02:56Z</time></trkpt>
<trkpt lat="39.717949" lon="-8.139408">
<ele>347</ele>
<time>2026-05-08T02:03:15Z</time></trkpt>
<trkpt lat="39.717535" lon="-8.139366">
<ele>351</ele>
<time>2026-05-08T02:03:24Z</time></trkpt>
<trkpt lat="39.717213" lon="-8.139415">
<ele>354</ele>
<time>2026-05-08T02:03:30Z</time></trkpt>
<trkpt lat="39.71699" lon="-8.139548">
<ele>356</ele>
<time>2026-05-08T02:03:35Z</time></trkpt>
<trkpt lat="39.716721" lon="-8.139823">
<ele>360</ele>
<time>2026-05-08T02:03:42Z</time></trkpt>
<trkpt lat="39.716341" lon="-8.140298">
<ele>364</ele>
<time>2026-05-08T02:03:53Z</time></trkpt>
<trkpt lat="39.716081" lon="-8.140522">
<ele>365</ele>
<time>2026-05-08T02:03:59Z</time></trkpt>
<trkpt lat="39.715796" lon="-8.140643">
<ele>366</ele>
<time>2026-05-08T02:04:05Z</time></trkpt>
<trkpt lat="39.715452" lon="-8.140661">
<ele>369</ele>
<time>2026-05-08T02:04:12Z</time></trkpt>
<trkpt lat="39.71487" lon="-8.140552">
<ele>373</ele>
<time>2026-05-08T02:04:24Z</time></trkpt>
<trkpt lat="39.714607" lon="-8.140599">
<ele>376</ele>
<time>2026-05-08T02:04:29Z</time></trkpt>
<trkpt lat="39.714381" lon="-8.140703">
<ele>380</ele>
<time>2026-05-08T02:04:34Z</time></trkpt>
<trkpt lat="39.714137" lon="-8.140922">
<ele>384</ele>
<time>2026-05-08T02:04:40Z</time></trkpt>
<trkpt lat="39.713751" lon="-8.141369">
<ele>386</ele>
<time>2026-05-08T02:04:50Z</time></trkpt>
<trkpt lat="39.713463" lon="-8.141612">
<ele>386</ele>
<time>2026-05-08T02:04:57Z</time></trkpt>
<trkpt lat="39.713198" lon="-8.141744">
<ele>387</ele>
<time>2026-05-08T02:05:03Z</time></trkpt>
<trkpt lat="39.712926" lon="-8.141777">
<ele>388</ele>
<time>2026-05-08T02:05:08Z</time></trkpt>
<trkpt lat="39.712666" lon="-8.141761">
<ele>388</ele>
<time>2026-05-08T02:05:13Z</time></trkpt>
<trkpt lat="39.71234" lon="-8.141633">
<ele>389</ele>
<time>2026-05-08T02:05:20Z</time></trkpt>
<trkpt lat="39.712279" lon="-8.14158">
<ele>389</ele>
<time>2026-05-08T02:05:21Z</time></trkpt>
<trkpt lat="39.711007" lon="-8.140488">
<ele>406</ele>
<time>2026-05-08T02:05:52Z</time></trkpt>
<trkpt lat="39.710743" lon="-8.140151">
<ele>410</ele>
<time>2026-05-08T02:05:59Z</time></trkpt>
<trkpt lat="39.708943" lon="-8.137294">
<ele>411</ele>
<time>2026-05-08T02:06:56Z</time></trkpt>
<trkpt lat="39.707561" lon="-8.1351">
<ele>410</ele>
<time>2026-05-08T02:07:40Z</time></trkpt>
<trkpt lat="39.707327" lon="-8.134677">
<ele>407</ele>
<time>2026-05-08T02:07:48Z</time></trkpt>
<trkpt lat="39.70719" lon="-8.134228">
<ele>404</ele>
<time>2026-05-08T02:07:56Z</time></trkpt>
<trkpt lat="39.707142" lon="-8.13378">
<ele>402</ele>
<time>2026-05-08T02:08:03Z</time></trkpt>
<trkpt lat="39.706954" lon="-8.12938">
<ele>389</ele>
<time>2026-05-08T02:09:10Z</time></trkpt>
<trkpt lat="39.706917" lon="-8.129094">
<ele>388</ele>
<time>2026-05-08T02:09:15Z</time></trkpt>
<trkpt lat="39.706868" lon="-8.128857">
<ele>387</ele>
<time>2026-05-08T02:09:19Z</time></trkpt>
<trkpt lat="39.706751" lon="-8.128407">
<ele>386</ele>
<time>2026-05-08T02:09:26Z</time></trkpt>
<trkpt lat="39.706288" lon="-8.127074">
<ele>388</ele>
<time>2026-05-08T02:09:49Z</time></trkpt>
<trkpt lat="39.705935" lon="-8.126058">
<ele>389</ele>
<time>2026-05-08T02:10:06Z</time></trkpt>
<trkpt lat="39.705724" lon="-8.12559">
<ele>391</ele>
<time>2026-05-08T02:10:14Z</time></trkpt>
<trkpt lat="39.70551" lon="-8.125271">
<ele>392</ele>
<time>2026-05-08T02:10:21Z</time></trkpt>
<trkpt lat="39.7053358" lon="-8.1251025">
<ele>394</ele>
<time>2026-05-08T02:10:25Z</time></trkpt>
<trkpt lat="39.705298" lon="-8.125066">
<ele>394</ele>
<time>2026-05-08T02:10:26Z</time></trkpt>
<trkpt lat="39.705202" lon="-8.124974">
<ele>394</ele>
<time>2026-05-08T02:10:28Z</time></trkpt>
<trkpt lat="39.705113" lon="-8.124917">
<ele>394</ele>
<time>2026-05-08T02:10:30Z</time></trkpt>
<trkpt lat="39.704875" lon="-8.124787">
<ele>395</ele>
<time>2026-05-08T02:10:35Z</time></trkpt>
<trkpt lat="39.704564" lon="-8.124693">
<ele>395</ele>
<time>2026-05-08T02:10:42Z</time></trkpt>
<trkpt lat="39.704417" lon="-8.124667">
<ele>396</ele>
<time>2026-05-08T02:10:45Z</time></trkpt>
<trkpt lat="39.70402" lon="-8.124582">
<ele>399</ele>
<time>2026-05-08T02:10:53Z</time></trkpt>
<trkpt lat="39.703733" lon="-8.124563">
<ele>401</ele>
<time>2026-05-08T02:10:59Z</time></trkpt>
<trkpt lat="39.70364" lon="-8.124573">
<ele>401</ele>
<time>2026-05-08T02:11:01Z</time></trkpt>
<trkpt lat="39.703455" lon="-8.124594">
<ele>402</ele>
<time>2026-05-08T02:11:04Z</time></trkpt>
<trkpt lat="39.703199" lon="-8.124712">
<ele>403</ele>
<time>2026-05-08T02:11:10Z</time></trkpt>
<trkpt lat="39.702978" lon="-8.124918">
<ele>402</ele>
<time>2026-05-08T02:11:15Z</time></trkpt>
<trkpt lat="39.702811" lon="-8.1252">
<ele>402</ele>
<time>2026-05-08T02:11:21Z</time></trkpt>
<trkpt lat="39.702764" lon="-8.125369">
<ele>403</ele>
<time>2026-05-08T02:11:23Z</time></trkpt>
<trkpt lat="39.702709" lon="-8.12557">
<ele>404</ele>
<time>2026-05-08T02:11:27Z</time></trkpt>
<trkpt lat="39.702312" lon="-8.128684">
<ele>421</ele>
<time>2026-05-08T02:12:15Z</time></trkpt>
<trkpt lat="39.702164" lon="-8.129053">
<ele>423</ele>
<time>2026-05-08T02:12:22Z</time></trkpt>
<trkpt lat="39.702047" lon="-8.129261">
<ele>425</ele>
<time>2026-05-08T02:12:26Z</time></trkpt>
<trkpt lat="39.701874" lon="-8.12944">
<ele>427</ele>
<time>2026-05-08T02:12:30Z</time></trkpt>
<trkpt lat="39.70174" lon="-8.129545">
<ele>429</ele>
<time>2026-05-08T02:12:33Z</time></trkpt>
<trkpt lat="39.70142" lon="-8.129719">
<ele>434</ele>
<time>2026-05-08T02:12:40Z</time></trkpt>
<trkpt lat="39.700482" lon="-8.130063">
<ele>448</ele>
<time>2026-05-08T02:13:00Z</time></trkpt>
<trkpt lat="39.70027" lon="-8.130218">
<ele>451</ele>
<time>2026-05-08T02:13:05Z</time></trkpt>
<trkpt lat="39.70017" lon="-8.130332">
<ele>452</ele>
<time>2026-05-08T02:13:07Z</time></trkpt>
<trkpt lat="39.700054" lon="-8.130517">
<ele>453</ele>
<time>2026-05-08T02:13:11Z</time></trkpt>
<trkpt lat="39.700003" lon="-8.13082">
<ele>451</ele>
<time>2026-05-08T02:13:16Z</time></trkpt>
<trkpt lat="39.700014" lon="-8.131054">
<ele>453</ele>
<time>2026-05-08T02:13:19Z</time></trkpt>
<trkpt lat="39.700264" lon="-8.13184">
<ele>448</ele>
<time>2026-05-08T02:13:33Z</time></trkpt>
<trkpt lat="39.700301" lon="-8.132091">
<ele>448</ele>
<time>2026-05-08T02:13:36Z</time></trkpt>
<trkpt lat="39.700309" lon="-8.132298">
<ele>448</ele>
<time>2026-05-08T02:13:40Z</time></trkpt>
<trkpt lat="39.700225" lon="-8.132668">
<ele>451</ele>
<time>2026-05-08T02:13:46Z</time></trkpt>
<trkpt lat="39.700043" lon="-8.133034">
<ele>456</ele>
<time>2026-05-08T02:13:52Z</time></trkpt>
<trkpt lat="39.699854" lon="-8.133221">
<ele>458</ele>
<time>2026-05-08T02:13:57Z</time></trkpt>
<trkpt lat="39.699814" lon="-8.13326">
<ele>458</ele>
<time>2026-05-08T02:13:58Z</time></trkpt>
<trkpt lat="39.699565" lon="-8.133393">
<ele>459</ele>
<time>2026-05-08T02:14:03Z</time></trkpt>
<trkpt lat="39.699121" lon="-8.133503">
<ele>463</ele>
<time>2026-05-08T02:14:13Z</time></trkpt>
<trkpt lat="39.696857" lon="-8.134064">
<ele>478</ele>
<time>2026-05-08T02:14:59Z</time></trkpt>
<trkpt lat="39.696618" lon="-8.134174">
<ele>479</ele>
<time>2026-05-08T02:15:04Z</time></trkpt>
<trkpt lat="39.696482" lon="-8.134323">
<ele>482</ele>
<time>2026-05-08T02:15:07Z</time></trkpt>
<trkpt lat="39.696327" lon="-8.134659">
<ele>484</ele>
<time>2026-05-08T02:15:13Z</time></trkpt>
<trkpt lat="39.695486" lon="-8.136962">
<ele>489</ele>
<time>2026-05-08T02:15:53Z</time></trkpt>
<trkpt lat="39.69522" lon="-8.137607">
<ele>490</ele>
<time>2026-05-08T02:16:04Z</time></trkpt>
<trkpt lat="39.6949679" lon="-8.1379265">
<ele>491</ele>
<time>2026-05-08T02:16:11Z</time></trkpt>
<trkpt lat="39.694958" lon="-8.137939">
<ele>491</ele>
<time>2026-05-08T02:16:11Z</time></trkpt>
<trkpt lat="39.694811" lon="-8.138116">
<ele>490</ele>
<time>2026-05-08T02:16:15Z</time></trkpt>
<trkpt lat="39.693367" lon="-8.139385">
<ele>491</ele>
<time>2026-05-08T02:16:50Z</time></trkpt>
<trkpt lat="39.692834" lon="-8.13985">
<ele>490</ele>
<time>2026-05-08T02:17:03Z</time></trkpt>
<trkpt lat="39.692245" lon="-8.140324">
<ele>490</ele>
<time>2026-05-08T02:17:17Z</time></trkpt>
<trkpt lat="39.69182" lon="-8.14049">
<ele>486</ele>
<time>2026-05-08T02:17:26Z</time></trkpt>
<trkpt lat="39.69136" lon="-8.140583">
<ele>483</ele>
<time>2026-05-08T02:17:35Z</time></trkpt>
<trkpt lat="39.690798" lon="-8.140656">
<ele>481</ele>
<time>2026-05-08T02:17:47Z</time></trkpt>
<trkpt lat="39.689397" lon="-8.140837">
<ele>476</ele>
<time>2026-05-08T02:18:15Z</time></trkpt>
<trkpt lat="39.6878081" lon="-8.1410421">
<ele>461</ele>
<time>2026-05-08T02:18:47Z</time></trkpt>
<trkpt lat="39.68292" lon="-8.141673">
<ele>433</ele>
<time>2026-05-08T02:20:25Z</time></trkpt>
<trkpt lat="39.68292" lon="-8.141673">
<ele>433</ele>
<time>2026-05-08T02:20:25Z</time></trkpt>
<trkpt lat="39.681553" lon="-8.14185">
<ele>427</ele>
<time>2026-05-08T02:20:53Z</time></trkpt>
<trkpt lat="39.681216" lon="-8.141893">
<ele>425</ele>
<time>2026-05-08T02:21:00Z</time></trkpt>
<trkpt lat="39.680828" lon="-8.142054">
<ele>423</ele>
<time>2026-05-08T02:21:08Z</time></trkpt>
<trkpt lat="39.680741" lon="-8.142131">
<ele>423</ele>
<time>2026-05-08T02:21:10Z</time></trkpt>
<trkpt lat="39.680694" lon="-8.142228">
<ele>422</ele>
<time>2026-05-08T02:21:12Z</time></trkpt>
<trkpt lat="39.680642" lon="-8.142251">
<ele>422</ele>
<time>2026-05-08T02:21:13Z</time></trkpt>
<trkpt lat="39.680422" lon="-8.142279">
<ele>421</ele>
<time>2026-05-08T02:21:17Z</time></trkpt>
<trkpt lat="39.680343" lon="-8.142279">
<ele>421</ele>
<time>2026-05-08T02:21:19Z</time></trkpt>
<trkpt lat="39.680283" lon="-8.142245">
<ele>421</ele>
<time>2026-05-08T02:21:20Z</time></trkpt>
<trkpt lat="39.680248" lon="-8.142193">
<ele>421</ele>
<time>2026-05-08T02:21:21Z</time></trkpt>
<trkpt lat="39.680204" lon="-8.14215">
<ele>421</ele>
<time>2026-05-08T02:21:22Z</time></trkpt>
<trkpt lat="39.680092" lon="-8.142102">
<ele>421</ele>
<time>2026-05-08T02:21:25Z</time></trkpt>
<trkpt lat="39.6799559" lon="-8.1420961">
<ele>421</ele>
<time>2026-05-08T02:21:27Z</time></trkpt>
<trkpt lat="39.679908" lon="-8.142094">
<ele>422</ele>
<time>2026-05-08T02:21:28Z</time></trkpt>
<trkpt lat="39.678883" lon="-8.142222">
<ele>431</ele>
<time>2026-05-08T02:21:49Z</time></trkpt>
<trkpt lat="39.678422" lon="-8.142277">
<ele>433</ele>
<time>2026-05-08T02:21:58Z</time></trkpt>
<trkpt lat="39.677257" lon="-8.142442">
<ele>435</ele>
<time>2026-05-08T02:22:22Z</time></trkpt>
<trkpt lat="39.677101" lon="-8.142506">
<ele>435</ele>
<time>2026-05-08T02:22:25Z</time></trkpt>
<trkpt lat="39.677082" lon="-8.14256">
<ele>435</ele>
<time>2026-05-08T02:22:26Z</time></trkpt>
<trkpt lat="39.677012" lon="-8.142635">
<ele>435</ele>
<time>2026-05-08T02:22:28Z</time></trkpt>
<trkpt lat="39.676927" lon="-8.142649">
<ele>435</ele>
<time>2026-05-08T02:22:29Z</time></trkpt>
<trkpt lat="39.676864" lon="-8.142619">
<ele>435</ele>
<time>2026-05-08T02:22:31Z</time></trkpt>
<trkpt lat="39.676833" lon="-8.142583">
<ele>435</ele>
<time>2026-05-08T02:22:31Z</time></trkpt>
<trkpt lat="39.676627" lon="-8.142518">
<ele>434</ele>
<time>2026-05-08T02:22:36Z</time></trkpt>
<trkpt lat="39.676432" lon="-8.142532">
<ele>433</ele>
<time>2026-05-08T02:22:40Z</time></trkpt>
<trkpt lat="39.674555" lon="-8.142779">
<ele>424</ele>
<time>2026-05-08T02:23:17Z</time></trkpt>
<trkpt lat="39.673307" lon="-8.142916">
<ele>419</ele>
<time>2026-05-08T02:23:43Z</time></trkpt>
<trkpt lat="39.673129" lon="-8.142952">
<ele>419</ele>
<time>2026-05-08T02:23:46Z</time></trkpt>
<trkpt lat="39.673064" lon="-8.142994">
<ele>419</ele>
<time>2026-05-08T02:23:48Z</time></trkpt>
<trkpt lat="39.673029" lon="-8.143037">
<ele>420</ele>
<time>2026-05-08T02:23:49Z</time></trkpt>
<trkpt lat="39.672974" lon="-8.143384">
<ele>421</ele>
<time>2026-05-08T02:23:54Z</time></trkpt>
<trkpt lat="39.672938" lon="-8.144007">
<ele>423</ele>
<time>2026-05-08T02:24:04Z</time></trkpt>
<trkpt lat="39.672938" lon="-8.144007">
<ele>423</ele>
<time>2026-05-08T02:24:04Z</time></trkpt>
<trkpt lat="39.672907" lon="-8.144548">
<ele>425</ele>
<time>2026-05-08T02:24:12Z</time></trkpt>
<trkpt lat="39.672889" lon="-8.144875">
<ele>426</ele>
<time>2026-05-08T02:24:17Z</time></trkpt>
<trkpt lat="39.67268" lon="-8.148931">
<ele>421</ele>
<time>2026-05-08T02:25:20Z</time></trkpt>
<trkpt lat="39.672654" lon="-8.149286">
<ele>420</ele>
<time>2026-05-08T02:25:25Z</time></trkpt>
<trkpt lat="39.672587" lon="-8.149714">
<ele>418</ele>
<time>2026-05-08T02:25:32Z</time></trkpt>
<trkpt lat="39.672537" lon="-8.149989">
<ele>416</ele>
<time>2026-05-08T02:25:36Z</time></trkpt>
<trkpt lat="39.672422" lon="-8.150363">
<ele>418</ele>
<time>2026-05-08T02:25:43Z</time></trkpt>
<trkpt lat="39.672281" lon="-8.150697">
<ele>419</ele>
<time>2026-05-08T02:25:48Z</time></trkpt>
<trkpt lat="39.670977" lon="-8.152757">
<ele>405</ele>
<time>2026-05-08T02:26:30Z</time></trkpt>
<trkpt lat="39.670843" lon="-8.152971">
<ele>403</ele>
<time>2026-05-08T02:26:34Z</time></trkpt>
<trkpt lat="39.670135" lon="-8.1541">
<ele>398</ele>
<time>2026-05-08T02:26:56Z</time></trkpt>
<trkpt lat="39.669983" lon="-8.154395">
<ele>397</ele>
<time>2026-05-08T02:27:02Z</time></trkpt>
<trkpt lat="39.669881" lon="-8.154699">
<ele>395</ele>
<time>2026-05-08T02:27:07Z</time></trkpt>
<trkpt lat="39.669815" lon="-8.15505">
<ele>394</ele>
<time>2026-05-08T02:27:12Z</time></trkpt>
<trkpt lat="39.669797" lon="-8.155372">
<ele>393</ele>
<time>2026-05-08T02:27:17Z</time></trkpt>
<trkpt lat="39.669816" lon="-8.155683">
<ele>393</ele>
<time>2026-05-08T02:27:22Z</time></trkpt>
<trkpt lat="39.669908" lon="-8.156152">
<ele>392</ele>
<time>2026-05-08T02:27:30Z</time></trkpt>
<trkpt lat="39.670001" lon="-8.156412">
<ele>392</ele>
<time>2026-05-08T02:27:34Z</time></trkpt>
<trkpt lat="39.670181" lon="-8.156766">
<ele>391</ele>
<time>2026-05-08T02:27:41Z</time></trkpt>
<trkpt lat="39.670346" lon="-8.156995">
<ele>389</ele>
<time>2026-05-08T02:27:46Z</time></trkpt>
<trkpt lat="39.671703" lon="-8.158152">
<ele>379</ele>
<time>2026-05-08T02:28:18Z</time></trkpt>
<trkpt lat="39.67219" lon="-8.158594">
<ele>381</ele>
<time>2026-05-08T02:28:30Z</time></trkpt>
<trkpt lat="39.67238" lon="-8.158851">
<ele>380</ele>
<time>2026-05-08T02:28:35Z</time></trkpt>
<trkpt lat="39.672454" lon="-8.159066">
<ele>379</ele>
<time>2026-05-08T02:28:39Z</time></trkpt>
<trkpt lat="39.672694" lon="-8.160603">
<ele>369</ele>
<time>2026-05-08T02:29:03Z</time></trkpt>
<trkpt lat="39.672836" lon="-8.161516">
<ele>366</ele>
<time>2026-05-08T02:29:18Z</time></trkpt>
<trkpt lat="39.673016" lon="-8.162134">
<ele>363</ele>
<time>2026-05-08T02:29:28Z</time></trkpt>
<trkpt lat="39.673147" lon="-8.162341">
<ele>362</ele>
<time>2026-05-08T02:29:32Z</time></trkpt>
<trkpt lat="39.673182" lon="-8.162395">
<ele>362</ele>
<time>2026-05-08T02:29:33Z</time></trkpt>
<trkpt lat="39.673214" lon="-8.162445">
<ele>361</ele>
<time>2026-05-08T02:29:34Z</time></trkpt>
<trkpt lat="39.673668" lon="-8.162832">
<ele>356</ele>
<time>2026-05-08T02:29:45Z</time></trkpt>
<trkpt lat="39.673994" lon="-8.163021">
<ele>351</ele>
<time>2026-05-08T02:29:52Z</time></trkpt>
<trkpt lat="39.674942" lon="-8.163247">
<ele>346</ele>
<time>2026-05-08T02:30:11Z</time></trkpt>
<trkpt lat="39.675117" lon="-8.163365">
<ele>345</ele>
<time>2026-05-08T02:30:15Z</time></trkpt>
<trkpt lat="39.675264" lon="-8.163587">
<ele>344</ele>
<time>2026-05-08T02:30:20Z</time></trkpt>
<trkpt lat="39.675311" lon="-8.163697">
<ele>343</ele>
<time>2026-05-08T02:30:22Z</time></trkpt>
<trkpt lat="39.675383" lon="-8.163952">
<ele>341</ele>
<time>2026-05-08T02:30:26Z</time></trkpt>
<trkpt lat="39.675429" lon="-8.164572">
<ele>334</ele>
<time>2026-05-08T02:30:36Z</time></trkpt>
<trkpt lat="39.675509" lon="-8.165106">
<ele>329</ele>
<time>2026-05-08T02:30:44Z</time></trkpt>
<trkpt lat="39.675633" lon="-8.165406">
<ele>327</ele>
<time>2026-05-08T02:30:49Z</time></trkpt>
<trkpt lat="39.675692" lon="-8.165475">
<ele>327</ele>
<time>2026-05-08T02:30:51Z</time></trkpt>
<trkpt lat="39.675842" lon="-8.16561">
<ele>327</ele>
<time>2026-05-08T02:30:55Z</time></trkpt>
<trkpt lat="39.675979" lon="-8.165679">
<ele>326</ele>
<time>2026-05-08T02:30:57Z</time></trkpt>
<trkpt lat="39.676746" lon="-8.165959">
<ele>320</ele>
<time>2026-05-08T02:31:13Z</time></trkpt>
<trkpt lat="39.676885" lon="-8.166013">
<ele>319</ele>
<time>2026-05-08T02:31:16Z</time></trkpt>
<trkpt lat="39.677093" lon="-8.166094">
<ele>317</ele>
<time>2026-05-08T02:31:21Z</time></trkpt>
<trkpt lat="39.67728" lon="-8.166157">
<ele>315</ele>
<time>2026-05-08T02:31:25Z</time></trkpt>
<trkpt lat="39.677401" lon="-8.16621">
<ele>314</ele>
<time>2026-05-08T02:31:27Z</time></trkpt>
<trkpt lat="39.677694" lon="-8.166416">
<ele>315</ele>
<time>2026-05-08T02:31:34Z</time></trkpt>
<trkpt lat="39.677824" lon="-8.166553">
<ele>316</ele>
<time>2026-05-08T02:31:37Z</time></trkpt>
<trkpt lat="39.67792" lon="-8.166678">
<ele>316</ele>
<time>2026-05-08T02:31:40Z</time></trkpt>
<trkpt lat="39.679087" lon="-8.168409">
<ele>309</ele>
<time>2026-05-08T02:32:15Z</time></trkpt>
<trkpt lat="39.679311" lon="-8.168752">
<ele>309</ele>
<time>2026-05-08T02:32:22Z</time></trkpt>
<trkpt lat="39.679408" lon="-8.168912">
<ele>308</ele>
<time>2026-05-08T02:32:25Z</time></trkpt>
<trkpt lat="39.67974" lon="-8.169566">
<ele>303</ele>
<time>2026-05-08T02:32:38Z</time></trkpt>
<trkpt lat="39.679915" lon="-8.169942">
<ele>299</ele>
<time>2026-05-08T02:32:44Z</time></trkpt>
<trkpt lat="39.68026" lon="-8.170609">
<ele>294</ele>
<time>2026-05-08T02:32:57Z</time></trkpt>
<trkpt lat="39.680494" lon="-8.170899">
<ele>293</ele>
<time>2026-05-08T02:33:03Z</time></trkpt>
<trkpt lat="39.680964" lon="-8.171315">
<ele>296</ele>
<time>2026-05-08T02:33:15Z</time></trkpt>
<trkpt lat="39.68107" lon="-8.17144">
<ele>297</ele>
<time>2026-05-08T02:33:17Z</time></trkpt>
<trkpt lat="39.681172" lon="-8.171596">
<ele>296</ele>
<time>2026-05-08T02:33:21Z</time></trkpt>
<trkpt lat="39.6826" lon="-8.175071">
<ele>277</ele>
<time>2026-05-08T02:34:21Z</time></trkpt>
<trkpt lat="39.682739" lon="-8.175362">
<ele>273</ele>
<time>2026-05-08T02:34:27Z</time></trkpt>
<trkpt lat="39.682739" lon="-8.175362">
<ele>273</ele>
<time>2026-05-08T02:34:27Z</time></trkpt>
<trkpt lat="39.683156" lon="-8.176232">
<ele>265</ele>
<time>2026-05-08T02:34:42Z</time></trkpt>
<trkpt lat="39.683544" lon="-8.176586">
<ele>264</ele>
<time>2026-05-08T02:34:52Z</time></trkpt>
<trkpt lat="39.684295" lon="-8.176983">
<ele>260</ele>
<time>2026-05-08T02:35:08Z</time></trkpt>
<trkpt lat="39.684501" lon="-8.17724">
<ele>262</ele>
<time>2026-05-08T02:35:14Z</time></trkpt>
<trkpt lat="39.684592" lon="-8.177423">
<ele>262</ele>
<time>2026-05-08T02:35:17Z</time></trkpt>
<trkpt lat="39.684631" lon="-8.177636">
<ele>262</ele>
<time>2026-05-08T02:35:21Z</time></trkpt>
<trkpt lat="39.68465" lon="-8.177745">
<ele>262</ele>
<time>2026-05-08T02:35:22Z</time></trkpt>
<trkpt lat="39.684675" lon="-8.178614">
<ele>257</ele>
<time>2026-05-08T02:35:36Z</time></trkpt>
<trkpt lat="39.684705" lon="-8.17876">
<ele>256</ele>
<time>2026-05-08T02:35:38Z</time></trkpt>
<trkpt lat="39.684718" lon="-8.178826">
<ele>255</ele>
<time>2026-05-08T02:35:39Z</time></trkpt>
<trkpt lat="39.684741" lon="-8.178936">
<ele>254</ele>
<time>2026-05-08T02:35:41Z</time></trkpt>
<trkpt lat="39.684857" lon="-8.179236">
<ele>251</ele>
<time>2026-05-08T02:35:46Z</time></trkpt>
<trkpt lat="39.685104" lon="-8.179536">
<ele>247</ele>
<time>2026-05-08T02:35:53Z</time></trkpt>
<trkpt lat="39.685385" lon="-8.179805">
<ele>246</ele>
<time>2026-05-08T02:36:00Z</time></trkpt>
<trkpt lat="39.685899" lon="-8.180103">
<ele>248</ele>
<time>2026-05-08T02:36:11Z</time></trkpt>
<trkpt lat="39.686161" lon="-8.180255">
<ele>251</ele>
<time>2026-05-08T02:36:17Z</time></trkpt>
<trkpt lat="39.686326" lon="-8.180427">
<ele>253</ele>
<time>2026-05-08T02:36:21Z</time></trkpt>
<trkpt lat="39.686467" lon="-8.18076">
<ele>253</ele>
<time>2026-05-08T02:36:27Z</time></trkpt>
<trkpt lat="39.686557" lon="-8.181049">
<ele>254</ele>
<time>2026-05-08T02:36:32Z</time></trkpt>
<trkpt lat="39.686613" lon="-8.18153">
<ele>254</ele>
<time>2026-05-08T02:36:39Z</time></trkpt>
<trkpt lat="39.686708" lon="-8.182982">
<ele>254</ele>
<time>2026-05-08T02:37:02Z</time></trkpt>
<trkpt lat="39.686785" lon="-8.184177">
<ele>258</ele>
<time>2026-05-08T02:37:20Z</time></trkpt>
<trkpt lat="39.686805" lon="-8.18445">
<ele>259</ele>
<time>2026-05-08T02:37:24Z</time></trkpt>
<trkpt lat="39.686864" lon="-8.18483">
<ele>260</ele>
<time>2026-05-08T02:37:30Z</time></trkpt>
<trkpt lat="39.686926" lon="-8.185041">
<ele>261</ele>
<time>2026-05-08T02:37:34Z</time></trkpt>
<trkpt lat="39.68763" lon="-8.186783">
<ele>255</ele>
<time>2026-05-08T02:38:04Z</time></trkpt>
<trkpt lat="39.6885915" lon="-8.1891552">
<ele>248</ele>
<time>2026-05-08T02:38:46Z</time></trkpt>
<trkpt lat="39.68903" lon="-8.190237">
<ele>247</ele>
<time>2026-05-08T02:39:04Z</time></trkpt>
<trkpt lat="39.689316" lon="-8.190946">
<ele>248</ele>
<time>2026-05-08T02:39:17Z</time></trkpt>
<trkpt lat="39.689397" lon="-8.191105">
<ele>247</ele>
<time>2026-05-08T02:39:20Z</time></trkpt>
<trkpt lat="39.689536" lon="-8.191297">
<ele>246</ele>
<time>2026-05-08T02:39:24Z</time></trkpt>
<trkpt lat="39.689756" lon="-8.191507">
<ele>246</ele>
<time>2026-05-08T02:39:29Z</time></trkpt>
<trkpt lat="39.689882" lon="-8.19159">
<ele>247</ele>
<time>2026-05-08T02:39:32Z</time></trkpt>
<trkpt lat="39.690046" lon="-8.191682">
<ele>247</ele>
<time>2026-05-08T02:39:36Z</time></trkpt>
<trkpt lat="39.690295" lon="-8.191764">
<ele>249</ele>
<time>2026-05-08T02:39:41Z</time></trkpt>
<trkpt lat="39.691314" lon="-8.192035">
<ele>254</ele>
<time>2026-05-08T02:40:02Z</time></trkpt>
<trkpt lat="39.691496" lon="-8.1921">
<ele>255</ele>
<time>2026-05-08T02:40:05Z</time></trkpt>
<trkpt lat="39.691651" lon="-8.19218">
<ele>255</ele>
<time>2026-05-08T02:40:09Z</time></trkpt>
<trkpt lat="39.691834" lon="-8.192313">
<ele>255</ele>
<time>2026-05-08T02:40:13Z</time></trkpt>
<trkpt lat="39.692023" lon="-8.192475">
<ele>255</ele>
<time>2026-05-08T02:40:18Z</time></trkpt>
<trkpt lat="39.694053" lon="-8.194545">
<ele>274</ele>
<time>2026-05-08T02:41:09Z</time></trkpt>
<trkpt lat="39.695099" lon="-8.195603">
<ele>281</ele>
<time>2026-05-08T02:41:36Z</time></trkpt>
<trkpt lat="39.695295" lon="-8.195815">
<ele>282</ele>
<time>2026-05-08T02:41:41Z</time></trkpt>
<trkpt lat="39.695389" lon="-8.195954">
<ele>283</ele>
<time>2026-05-08T02:41:44Z</time></trkpt>
<trkpt lat="39.695486" lon="-8.196121">
<ele>283</ele>
<time>2026-05-08T02:41:47Z</time></trkpt>
<trkpt lat="39.695581" lon="-8.196353">
<ele>282</ele>
<time>2026-05-08T02:41:51Z</time></trkpt>
<trkpt lat="39.695961" lon="-8.197619">
<ele>275</ele>
<time>2026-05-08T02:42:12Z</time></trkpt>
<trkpt lat="39.69606" lon="-8.197829">
<ele>275</ele>
<time>2026-05-08T02:42:16Z</time></trkpt>
<trkpt lat="39.69621" lon="-8.198061">
<ele>274</ele>
<time>2026-05-08T02:42:20Z</time></trkpt>
<trkpt lat="39.696414" lon="-8.198293">
<ele>274</ele>
<time>2026-05-08T02:42:26Z</time></trkpt>
<trkpt lat="39.69807" lon="-8.199626">
<ele>281</ele>
<time>2026-05-08T02:43:05Z</time></trkpt>
<trkpt lat="39.698809" lon="-8.200216">
<ele>288</ele>
<time>2026-05-08T02:43:22Z</time></trkpt>
<trkpt lat="39.699008" lon="-8.200353">
<ele>289</ele>
<time>2026-05-08T02:43:27Z</time></trkpt>
<trkpt lat="39.69915" lon="-8.200423">
<ele>290</ele>
<time>2026-05-08T02:43:30Z</time></trkpt>
<trkpt lat="39.699235" lon="-8.200444">
<ele>289</ele>
<time>2026-05-08T02:43:32Z</time></trkpt>
<trkpt lat="39.700193" lon="-8.200625">
<ele>278</ele>
<time>2026-05-08T02:43:51Z</time></trkpt>
<trkpt lat="39.700468" lon="-8.200737">
<ele>275</ele>
<time>2026-05-08T02:43:57Z</time></trkpt>
<trkpt lat="39.700695" lon="-8.20091">
<ele>272</ele>
<time>2026-05-08T02:44:02Z</time></trkpt>
<trkpt lat="39.700824" lon="-8.201062">
<ele>270</ele>
<time>2026-05-08T02:44:06Z</time></trkpt>
<trkpt lat="39.700891" lon="-8.201167">
<ele>270</ele>
<time>2026-05-08T02:44:08Z</time></trkpt>
<trkpt lat="39.700975" lon="-8.201363">
<ele>270</ele>
<time>2026-05-08T02:44:11Z</time></trkpt>
<trkpt lat="39.701071" lon="-8.201662">
<ele>268</ele>
<time>2026-05-08T02:44:16Z</time></trkpt>
<trkpt lat="39.701307" lon="-8.20256">
<ele>259</ele>
<time>2026-05-08T02:44:31Z</time></trkpt>
<trkpt lat="39.701434" lon="-8.20291">
<ele>257</ele>
<time>2026-05-08T02:44:37Z</time></trkpt>
<trkpt lat="39.701506" lon="-8.203042">
<ele>256</ele>
<time>2026-05-08T02:44:39Z</time></trkpt>
<trkpt lat="39.701756" lon="-8.203382">
<ele>252</ele>
<time>2026-05-08T02:44:46Z</time></trkpt>
<trkpt lat="39.702232" lon="-8.203925">
<ele>247</ele>
<time>2026-05-08T02:44:59Z</time></trkpt>
<trkpt lat="39.702421" lon="-8.204175">
<ele>245</ele>
<time>2026-05-08T02:45:05Z</time></trkpt>
<trkpt lat="39.702596" lon="-8.204431">
<ele>244</ele>
<time>2026-05-08T02:45:10Z</time></trkpt>
<trkpt lat="39.702721" lon="-8.204653">
<ele>242</ele>
<time>2026-05-08T02:45:14Z</time></trkpt>
<trkpt lat="39.702801" lon="-8.20487">
<ele>240</ele>
<time>2026-05-08T02:45:18Z</time></trkpt>
<trkpt lat="39.70289" lon="-8.205327">
<ele>235</ele>
<time>2026-05-08T02:45:25Z</time></trkpt>
<trkpt lat="39.702901" lon="-8.205753">
<ele>231</ele>
<time>2026-05-08T02:45:32Z</time></trkpt>
<trkpt lat="39.702834" lon="-8.207047">
<ele>220</ele>
<time>2026-05-08T02:45:52Z</time></trkpt>
<trkpt lat="39.702789" lon="-8.207413">
<ele>218</ele>
<time>2026-05-08T02:45:57Z</time></trkpt>
<trkpt lat="39.702735" lon="-8.20764">
<ele>218</ele>
<time>2026-05-08T02:46:01Z</time></trkpt>
<trkpt lat="39.702607" lon="-8.207955">
<ele>218</ele>
<time>2026-05-08T02:46:06Z</time></trkpt>
<trkpt lat="39.702329" lon="-8.208383">
<ele>218</ele>
<time>2026-05-08T02:46:15Z</time></trkpt>
<trkpt lat="39.701645" lon="-8.209337">
<ele>211</ele>
<time>2026-05-08T02:46:35Z</time></trkpt>
<trkpt lat="39.70147" lon="-8.209678">
<ele>211</ele>
<time>2026-05-08T02:46:41Z</time></trkpt>
<trkpt lat="39.701434" lon="-8.209825">
<ele>211</ele>
<time>2026-05-08T02:46:44Z</time></trkpt>
<trkpt lat="39.701414" lon="-8.210004">
<ele>210</ele>
<time>2026-05-08T02:46:47Z</time></trkpt>
<trkpt lat="39.701391" lon="-8.210492">
<ele>206</ele>
<time>2026-05-08T02:46:54Z</time></trkpt>
<trkpt lat="39.701351" lon="-8.210896">
<ele>203</ele>
<time>2026-05-08T02:47:00Z</time></trkpt>
<trkpt lat="39.701311" lon="-8.211125">
<ele>201</ele>
<time>2026-05-08T02:47:04Z</time></trkpt>
<trkpt lat="39.701253" lon="-8.211329">
<ele>200</ele>
<time>2026-05-08T02:47:07Z</time></trkpt>
<trkpt lat="39.701082" lon="-8.211611">
<ele>198</ele>
<time>2026-05-08T02:47:13Z</time></trkpt>
<trkpt lat="39.700894" lon="-8.211747">
<ele>199</ele>
<time>2026-05-08T02:47:17Z</time></trkpt>
<trkpt lat="39.700312" lon="-8.211887">
<ele>199</ele>
<time>2026-05-08T02:47:29Z</time></trkpt>
<trkpt lat="39.699878" lon="-8.212019">
<ele>198</ele>
<time>2026-05-08T02:47:38Z</time></trkpt>
<trkpt lat="39.699777" lon="-8.212083">
<ele>198</ele>
<time>2026-05-08T02:47:40Z</time></trkpt>
<trkpt lat="39.699675" lon="-8.212175">
<ele>197</ele>
<time>2026-05-08T02:47:43Z</time></trkpt>
<trkpt lat="39.699562" lon="-8.212313">
<ele>197</ele>
<time>2026-05-08T02:47:46Z</time></trkpt>
<trkpt lat="39.699423" lon="-8.212554">
<ele>195</ele>
<time>2026-05-08T02:47:51Z</time></trkpt>
<trkpt lat="39.699385" lon="-8.212671">
<ele>196</ele>
<time>2026-05-08T02:47:53Z</time></trkpt>
<trkpt lat="39.69931" lon="-8.213076">
<ele>202</ele>
<time>2026-05-08T02:47:59Z</time></trkpt>
<trkpt lat="39.699269" lon="-8.213226">
<ele>203</ele>
<time>2026-05-08T02:48:01Z</time></trkpt>
<trkpt lat="39.699216" lon="-8.213336">
<ele>203</ele>
<time>2026-05-08T02:48:03Z</time></trkpt>
<trkpt lat="39.699042" lon="-8.213485">
<ele>201</ele>
<time>2026-05-08T02:48:08Z</time></trkpt>
<trkpt lat="39.698925" lon="-8.213561">
<ele>201</ele>
<time>2026-05-08T02:48:10Z</time></trkpt>
<trkpt lat="39.698361" lon="-8.213849">
<ele>195</ele>
<time>2026-05-08T02:48:22Z</time></trkpt>
<trkpt lat="39.698258" lon="-8.21395">
<ele>196</ele>
<time>2026-05-08T02:48:25Z</time></trkpt>
<trkpt lat="39.697484" lon="-8.214895">
<ele>204</ele>
<time>2026-05-08T02:48:46Z</time></trkpt>
<trkpt lat="39.697351" lon="-8.215186">
<ele>204</ele>
<time>2026-05-08T02:48:51Z</time></trkpt>
<trkpt lat="39.697315" lon="-8.215345">
<ele>203</ele>
<time>2026-05-08T02:48:54Z</time></trkpt>
<trkpt lat="39.697308" lon="-8.215481">
<ele>204</ele>
<time>2026-05-08T02:48:56Z</time></trkpt>
<trkpt lat="39.697364" lon="-8.215913">
<ele>207</ele>
<time>2026-05-08T02:49:03Z</time></trkpt>
<trkpt lat="39.697452" lon="-8.216176">
<ele>208</ele>
<time>2026-05-08T02:49:07Z</time></trkpt>
<trkpt lat="39.697521" lon="-8.216332">
<ele>208</ele>
<time>2026-05-08T02:49:10Z</time></trkpt>
<trkpt lat="39.697604" lon="-8.216461">
<ele>209</ele>
<time>2026-05-08T02:49:13Z</time></trkpt>
<trkpt lat="39.697719" lon="-8.21658">
<ele>211</ele>
<time>2026-05-08T02:49:16Z</time></trkpt>
<trkpt lat="39.697816" lon="-8.216648">
<ele>212</ele>
<time>2026-05-08T02:49:18Z</time></trkpt>
<trkpt lat="39.698485" lon="-8.216918">
<ele>224</ele>
<time>2026-05-08T02:49:32Z</time></trkpt>
<trkpt lat="39.698648" lon="-8.217">
<ele>227</ele>
<time>2026-05-08T02:49:35Z</time></trkpt>
<trkpt lat="39.698794" lon="-8.217126">
<ele>228</ele>
<time>2026-05-08T02:49:39Z</time></trkpt>
<trkpt lat="39.698896" lon="-8.217274">
<ele>227</ele>
<time>2026-05-08T02:49:42Z</time></trkpt>
<trkpt lat="39.698896" lon="-8.217274">
<ele>227</ele>
<time>2026-05-08T02:49:42Z</time></trkpt>
<trkpt lat="39.699369" lon="-8.217956">
<ele>229</ele>
<time>2026-05-08T02:49:56Z</time></trkpt>
<trkpt lat="39.699465" lon="-8.218133">
<ele>227</ele>
<time>2026-05-08T02:49:59Z</time></trkpt>
<trkpt lat="39.69971" lon="-8.218584">
<ele>223</ele>
<time>2026-05-08T02:50:08Z</time></trkpt>
<trkpt lat="39.699824" lon="-8.218934">
<ele>220</ele>
<time>2026-05-08T02:50:14Z</time></trkpt>
<trkpt lat="39.699899" lon="-8.219375">
<ele>216</ele>
<time>2026-05-08T02:50:21Z</time></trkpt>
<trkpt lat="39.69987" lon="-8.219823">
<ele>213</ele>
<time>2026-05-08T02:50:28Z</time></trkpt>
<trkpt lat="39.699758" lon="-8.2208">
<ele>206</ele>
<time>2026-05-08T02:50:43Z</time></trkpt>
<trkpt lat="39.69989" lon="-8.221208">
<ele>202</ele>
<time>2026-05-08T02:50:50Z</time></trkpt>
<trkpt lat="39.700385" lon="-8.221959">
<ele>191</ele>
<time>2026-05-08T02:51:05Z</time></trkpt>
<trkpt lat="39.700522" lon="-8.222373">
<ele>189</ele>
<time>2026-05-08T02:51:12Z</time></trkpt>
<trkpt lat="39.700557" lon="-8.222599">
<ele>187</ele>
<time>2026-05-08T02:51:15Z</time></trkpt>
<trkpt lat="39.700544" lon="-8.222829">
<ele>186</ele>
<time>2026-05-08T02:51:19Z</time></trkpt>
<trkpt lat="39.700451" lon="-8.223203">
<ele>185</ele>
<time>2026-05-08T02:51:25Z</time></trkpt>
<trkpt lat="39.700055" lon="-8.223804">
<ele>179</ele>
<time>2026-05-08T02:51:37Z</time></trkpt>
<trkpt lat="39.698734" lon="-8.224834">
<ele>179</ele>
<time>2026-05-08T02:52:08Z</time></trkpt>
<trkpt lat="39.697991" lon="-8.225649">
<ele>180</ele>
<time>2026-05-08T02:52:28Z</time></trkpt>
<trkpt lat="39.69781" lon="-8.2261">
<ele>174</ele>
<time>2026-05-08T02:52:35Z</time></trkpt>
<trkpt lat="39.697595" lon="-8.226465">
<ele>172</ele>
<time>2026-05-08T02:52:43Z</time></trkpt>
<trkpt lat="39.697061" lon="-8.227027">
<ele>170</ele>
<time>2026-05-08T02:52:56Z</time></trkpt>
<trkpt lat="39.696958" lon="-8.227266">
<ele>163</ele>
<time>2026-05-08T02:53:01Z</time></trkpt>
<trkpt lat="39.696914" lon="-8.227479">
<ele>156</ele>
<time>2026-05-08T02:53:04Z</time></trkpt>
<trkpt lat="39.69691" lon="-8.227665">
<ele>150</ele>
<time>2026-05-08T02:53:07Z</time></trkpt>
<trkpt lat="39.6969412" lon="-8.2281914">
<ele>132</ele>
<time>2026-05-08T02:53:15Z</time></trkpt>
<trkpt lat="39.697176" lon="-8.232159">
<ele>170</ele>
<time>2026-05-08T02:54:16Z</time></trkpt>
<trkpt lat="39.697193" lon="-8.232403">
<ele>177</ele>
<time>2026-05-08T02:54:20Z</time></trkpt>
<trkpt lat="39.697187" lon="-8.232639">
<ele>183</ele>
<time>2026-05-08T02:54:24Z</time></trkpt>
<trkpt lat="39.6971685" lon="-8.2327263">
<ele>184</ele>
<time>2026-05-08T02:54:25Z</time></trkpt>
<trkpt lat="39.697145" lon="-8.232837">
<ele>186</ele>
<time>2026-05-08T02:54:27Z</time></trkpt>
<trkpt lat="39.696975" lon="-8.233124">
<ele>191</ele>
<time>2026-05-08T02:54:32Z</time></trkpt>
<trkpt lat="39.696823" lon="-8.233272">
<ele>193</ele>
<time>2026-05-08T02:54:36Z</time></trkpt>
<trkpt lat="39.696678" lon="-8.233343">
<ele>194</ele>
<time>2026-05-08T02:54:39Z</time></trkpt>
<trkpt lat="39.696491" lon="-8.233379">
<ele>194</ele>
<time>2026-05-08T02:54:43Z</time></trkpt>
<trkpt lat="39.696311" lon="-8.23337">
<ele>192</ele>
<time>2026-05-08T02:54:47Z</time></trkpt>
<trkpt lat="39.695787" lon="-8.233194">
<ele>183</ele>
<time>2026-05-08T02:54:58Z</time></trkpt>
<trkpt lat="39.695562" lon="-8.233139">
<ele>178</ele>
<time>2026-05-08T02:55:02Z</time></trkpt>
<trkpt lat="39.695291" lon="-8.233145">
<ele>174</ele>
<time>2026-05-08T02:55:08Z</time></trkpt>
<trkpt lat="39.695027" lon="-8.23335">
<ele>179</ele>
<time>2026-05-08T02:55:14Z</time></trkpt>
<trkpt lat="39.694921" lon="-8.233591">
<ele>179</ele>
<time>2026-05-08T02:55:18Z</time></trkpt>
<trkpt lat="39.69485" lon="-8.233916">
<ele>180</ele>
<time>2026-05-08T02:55:23Z</time></trkpt>
<trkpt lat="39.694854" lon="-8.234155">
<ele>182</ele>
<time>2026-05-08T02:55:27Z</time></trkpt>
<trkpt lat="39.694902" lon="-8.234414">
<ele>183</ele>
<time>2026-05-08T02:55:31Z</time></trkpt>
<trkpt lat="39.695002" lon="-8.234646">
<ele>185</ele>
<time>2026-05-08T02:55:35Z</time></trkpt>
<trkpt lat="39.695107" lon="-8.234778">
<ele>186</ele>
<time>2026-05-08T02:55:38Z</time></trkpt>
<trkpt lat="39.695329" lon="-8.234906">
<ele>188</ele>
<time>2026-05-08T02:55:43Z</time></trkpt>
<trkpt lat="39.695605" lon="-8.234955">
<ele>192</ele>
<time>2026-05-08T02:55:49Z</time></trkpt>
<trkpt lat="39.696198" lon="-8.23474">
<ele>202</ele>
<time>2026-05-08T02:56:01Z</time></trkpt>
<trkpt lat="39.696604" lon="-8.234586">
<ele>206</ele>
<time>2026-05-08T02:56:09Z</time></trkpt>
<trkpt lat="39.696783" lon="-8.234608">
<ele>207</ele>
<time>2026-05-08T02:56:13Z</time></trkpt>
<trkpt lat="39.696968" lon="-8.23467">
<ele>208</ele>
<time>2026-05-08T02:56:17Z</time></trkpt>
<trkpt lat="39.697117" lon="-8.234785">
<ele>208</ele>
<time>2026-05-08T02:56:20Z</time></trkpt>
<trkpt lat="39.697238" lon="-8.234941">
<ele>208</ele>
<time>2026-05-08T02:56:24Z</time></trkpt>
<trkpt lat="39.697333" lon="-8.235166">
<ele>210</ele>
<time>2026-05-08T02:56:28Z</time></trkpt>
<trkpt lat="39.697362" lon="-8.235373">
<ele>212</ele>
<time>2026-05-08T02:56:31Z</time></trkpt>
<trkpt lat="39.697362" lon="-8.235656">
<ele>215</ele>
<time>2026-05-08T02:56:35Z</time></trkpt>
<trkpt lat="39.697307" lon="-8.235941">
<ele>218</ele>
<time>2026-05-08T02:56:40Z</time></trkpt>
<trkpt lat="39.697213" lon="-8.23612">
<ele>222</ele>
<time>2026-05-08T02:56:43Z</time></trkpt>
<trkpt lat="39.697075" lon="-8.23626">
<ele>224</ele>
<time>2026-05-08T02:56:47Z</time></trkpt>
<trkpt lat="39.696473" lon="-8.236603">
<ele>230</ele>
<time>2026-05-08T02:57:00Z</time></trkpt>
<trkpt lat="39.695284" lon="-8.237193">
<ele>241</ele>
<time>2026-05-08T02:57:25Z</time></trkpt>
<trkpt lat="39.69483" lon="-8.237204">
<ele>243</ele>
<time>2026-05-08T02:57:34Z</time></trkpt>
<trkpt lat="39.693674" lon="-8.237118">
<ele>247</ele>
<time>2026-05-08T02:57:58Z</time></trkpt>
<trkpt lat="39.693195" lon="-8.237333">
<ele>253</ele>
<time>2026-05-08T02:58:08Z</time></trkpt>
<trkpt lat="39.692832" lon="-8.237719">
<ele>254</ele>
<time>2026-05-08T02:58:17Z</time></trkpt>
<trkpt lat="39.6927" lon="-8.238094">
<ele>253</ele>
<time>2026-05-08T02:58:24Z</time></trkpt>
<trkpt lat="39.692634" lon="-8.238513">
<ele>252</ele>
<time>2026-05-08T02:58:30Z</time></trkpt>
<trkpt lat="39.692906" lon="-8.240068">
<ele>252</ele>
<time>2026-05-08T02:58:55Z</time></trkpt>
<trkpt lat="39.693121" lon="-8.240562">
<ele>257</ele>
<time>2026-05-08T02:59:03Z</time></trkpt>
<trkpt lat="39.693476" lon="-8.240755">
<ele>263</ele>
<time>2026-05-08T02:59:11Z</time></trkpt>
<trkpt lat="39.694186" lon="-8.240927">
<ele>267</ele>
<time>2026-05-08T02:59:26Z</time></trkpt>
<trkpt lat="39.694483" lon="-8.24112">
<ele>271</ele>
<time>2026-05-08T02:59:32Z</time></trkpt>
<trkpt lat="39.694755" lon="-8.241656">
<ele>272</ele>
<time>2026-05-08T02:59:42Z</time></trkpt>
<trkpt lat="39.694747" lon="-8.242139">
<ele>276</ele>
<time>2026-05-08T02:59:50Z</time></trkpt>
<trkpt lat="39.694582" lon="-8.242568">
<ele>277</ele>
<time>2026-05-08T02:59:57Z</time></trkpt>
<trkpt lat="39.693633" lon="-8.243727">
<ele>279</ele>
<time>2026-05-08T03:00:23Z</time></trkpt>
<trkpt lat="39.693407" lon="-8.244168">
<ele>280</ele>
<time>2026-05-08T03:00:31Z</time></trkpt>
<trkpt lat="39.693251" lon="-8.244789">
<ele>285</ele>
<time>2026-05-08T03:00:41Z</time></trkpt>
<trkpt lat="39.693228" lon="-8.245014">
<ele>288</ele>
<time>2026-05-08T03:00:45Z</time></trkpt>
<trkpt lat="39.693228" lon="-8.245181">
<ele>288</ele>
<time>2026-05-08T03:00:47Z</time></trkpt>
<trkpt lat="39.693248" lon="-8.24534">
<ele>289</ele>
<time>2026-05-08T03:00:50Z</time></trkpt>
<trkpt lat="39.693361" lon="-8.245753">
<ele>294</ele>
<time>2026-05-08T03:00:57Z</time></trkpt>
<trkpt lat="39.69388" lon="-8.247182">
<ele>289</ele>
<time>2026-05-08T03:01:21Z</time></trkpt>
<trkpt lat="39.694235" lon="-8.247697">
<ele>288</ele>
<time>2026-05-08T03:01:32Z</time></trkpt>
<trkpt lat="39.694887" lon="-8.248387">
<ele>285</ele>
<time>2026-05-08T03:01:49Z</time></trkpt>
<trkpt lat="39.694887" lon="-8.248387">
<ele>285</ele>
<time>2026-05-08T03:01:49Z</time></trkpt>
<trkpt lat="39.695498" lon="-8.248855">
<ele>284</ele>
<time>2026-05-08T03:02:03Z</time></trkpt>
<trkpt lat="39.695738" lon="-8.249252">
<ele>277</ele>
<time>2026-05-08T03:02:11Z</time></trkpt>
<trkpt lat="39.69587" lon="-8.249703">
<ele>275</ele>
<time>2026-05-08T03:02:18Z</time></trkpt>
<trkpt lat="39.695961" lon="-8.250594">
<ele>270</ele>
<time>2026-05-08T03:02:32Z</time></trkpt>
<trkpt lat="39.696101" lon="-8.251023">
<ele>269</ele>
<time>2026-05-08T03:02:39Z</time></trkpt>
<trkpt lat="39.696539" lon="-8.25157">
<ele>272</ele>
<time>2026-05-08T03:02:51Z</time></trkpt>
<trkpt lat="39.697653" lon="-8.252578">
<ele>273</ele>
<time>2026-05-08T03:03:18Z</time></trkpt>
<trkpt lat="39.700427" lon="-8.254381">
<ele>284</ele>
<time>2026-05-08T03:04:21Z</time></trkpt>
<trkpt lat="39.701095" lon="-8.254982">
<ele>290</ele>
<time>2026-05-08T03:04:37Z</time></trkpt>
<trkpt lat="39.703812" lon="-8.258153">
<ele>312</ele>
<time>2026-05-08T03:05:50Z</time></trkpt>
<trkpt lat="39.705066" lon="-8.259616">
<ele>321</ele>
<time>2026-05-08T03:06:24Z</time></trkpt>
<trkpt lat="39.705297" lon="-8.259981">
<ele>321</ele>
<time>2026-05-08T03:06:31Z</time></trkpt>
<trkpt lat="39.705338" lon="-8.260582">
<ele>324</ele>
<time>2026-05-08T03:06:40Z</time></trkpt>
<trkpt lat="39.705247" lon="-8.261065">
<ele>329</ele>
<time>2026-05-08T03:06:48Z</time></trkpt>
<trkpt lat="39.705097" lon="-8.261351">
<ele>332</ele>
<time>2026-05-08T03:06:53Z</time></trkpt>
<trkpt lat="39.704942" lon="-8.261505">
<ele>335</ele>
<time>2026-05-08T03:06:57Z</time></trkpt>
<trkpt lat="39.70462" lon="-8.261687">
<ele>339</ele>
<time>2026-05-08T03:07:04Z</time></trkpt>
<trkpt lat="39.703477" lon="-8.262138">
<ele>343</ele>
<time>2026-05-08T03:07:28Z</time></trkpt>
<trkpt lat="39.702398" lon="-8.262564">
<ele>352</ele>
<time>2026-05-08T03:07:51Z</time></trkpt>
<trkpt lat="39.702152" lon="-8.262741">
<ele>353</ele>
<time>2026-05-08T03:07:56Z</time></trkpt>
<trkpt lat="39.701921" lon="-8.263006">
<ele>356</ele>
<time>2026-05-08T03:08:03Z</time></trkpt>
<trkpt lat="39.70183" lon="-8.263189">
<ele>357</ele>
<time>2026-05-08T03:08:06Z</time></trkpt>
<trkpt lat="39.70167" lon="-8.263608">
<ele>362</ele>
<time>2026-05-08T03:08:13Z</time></trkpt>
<trkpt lat="39.701617" lon="-8.263948">
<ele>364</ele>
<time>2026-05-08T03:08:19Z</time></trkpt>
<trkpt lat="39.7015371" lon="-8.2649341">
<ele>364</ele>
<time>2026-05-08T03:08:34Z</time></trkpt>
<trkpt lat="39.701513" lon="-8.265232">
<ele>363</ele>
<time>2026-05-08T03:08:38Z</time></trkpt>
<trkpt lat="39.701444" lon="-8.265695">
<ele>360</ele>
<time>2026-05-08T03:08:46Z</time></trkpt>
<trkpt lat="39.70137" lon="-8.266005">
<ele>358</ele>
<time>2026-05-08T03:08:51Z</time></trkpt>
<trkpt lat="39.70114" lon="-8.26651">
<ele>355</ele>
<time>2026-05-08T03:09:00Z</time></trkpt>
<trkpt lat="39.700839" lon="-8.266935">
<ele>352</ele>
<time>2026-05-08T03:09:09Z</time></trkpt>
<trkpt lat="39.700668" lon="-8.267092">
<ele>351</ele>
<time>2026-05-08T03:09:13Z</time></trkpt>
<trkpt lat="39.700289" lon="-8.267342">
<ele>351</ele>
<time>2026-05-08T03:09:21Z</time></trkpt>
<trkpt lat="39.69978" lon="-8.267574">
<ele>351</ele>
<time>2026-05-08T03:09:32Z</time></trkpt>
<trkpt lat="39.699477" lon="-8.26777">
<ele>350</ele>
<time>2026-05-08T03:09:39Z</time></trkpt>
<trkpt lat="39.699384" lon="-8.267912">
<ele>348</ele>
<time>2026-05-08T03:09:42Z</time></trkpt>
<trkpt lat="39.699304" lon="-8.268126">
<ele>345</ele>
<time>2026-05-08T03:09:46Z</time></trkpt>
<trkpt lat="39.699275" lon="-8.268453">
<ele>340</ele>
<time>2026-05-08T03:09:51Z</time></trkpt>
<trkpt lat="39.699386" lon="-8.269043">
<ele>335</ele>
<time>2026-05-08T03:10:00Z</time></trkpt>
<trkpt lat="39.699397" lon="-8.26932">
<ele>334</ele>
<time>2026-05-08T03:10:04Z</time></trkpt>
<trkpt lat="39.699364" lon="-8.269496">
<ele>334</ele>
<time>2026-05-08T03:10:07Z</time></trkpt>
<trkpt lat="39.699245" lon="-8.269718">
<ele>333</ele>
<time>2026-05-08T03:10:11Z</time></trkpt>
<trkpt lat="39.699077" lon="-8.269992">
<ele>330</ele>
<time>2026-05-08T03:10:17Z</time></trkpt>
<trkpt lat="39.698993" lon="-8.270205">
<ele>328</ele>
<time>2026-05-08T03:10:20Z</time></trkpt>
<trkpt lat="39.698963" lon="-8.270324">
<ele>328</ele>
<time>2026-05-08T03:10:22Z</time></trkpt>
<trkpt lat="39.698959" lon="-8.270712">
<ele>326</ele>
<time>2026-05-08T03:10:28Z</time></trkpt>
<trkpt lat="39.699023" lon="-8.27144">
<ele>326</ele>
<time>2026-05-08T03:10:40Z</time></trkpt>
<trkpt lat="39.69899" lon="-8.271804">
<ele>325</ele>
<time>2026-05-08T03:10:45Z</time></trkpt>
<trkpt lat="39.698916" lon="-8.272164">
<ele>322</ele>
<time>2026-05-08T03:10:51Z</time></trkpt>
<trkpt lat="39.698821" lon="-8.272378">
<ele>321</ele>
<time>2026-05-08T03:10:55Z</time></trkpt>
<trkpt lat="39.698652" lon="-8.27258">
<ele>318</ele>
<time>2026-05-08T03:10:59Z</time></trkpt>
<trkpt lat="39.698045" lon="-8.273322">
<ele>313</ele>
<time>2026-05-08T03:11:16Z</time></trkpt>
<trkpt lat="39.696648" lon="-8.274759">
<ele>312</ele>
<time>2026-05-08T03:11:52Z</time></trkpt>
<trkpt lat="39.695639" lon="-8.275999">
<ele>310</ele>
<time>2026-05-08T03:12:20Z</time></trkpt>
<trkpt lat="39.695059" lon="-8.276804">
<ele>311</ele>
<time>2026-05-08T03:12:37Z</time></trkpt>
<trkpt lat="39.694097" lon="-8.278317">
<ele>314</ele>
<time>2026-05-08T03:13:07Z</time></trkpt>
<trkpt lat="39.694097" lon="-8.278317">
<ele>314</ele>
<time>2026-05-08T03:13:07Z</time></trkpt>
<trkpt lat="39.693923" lon="-8.278591">
<ele>313</ele>
<time>2026-05-08T03:13:12Z</time></trkpt>
<trkpt lat="39.69369" lon="-8.278944">
<ele>312</ele>
<time>2026-05-08T03:13:19Z</time></trkpt>
<trkpt lat="39.693628" lon="-8.279271">
<ele>312</ele>
<time>2026-05-08T03:13:25Z</time></trkpt>
<trkpt lat="39.693603" lon="-8.279702">
<ele>313</ele>
<time>2026-05-08T03:13:31Z</time></trkpt>
<trkpt lat="39.693525" lon="-8.281696">
<ele>318</ele>
<time>2026-05-08T03:14:02Z</time></trkpt>
<trkpt lat="39.693504" lon="-8.281834">
<ele>319</ele>
<time>2026-05-08T03:14:04Z</time></trkpt>
<trkpt lat="39.693493" lon="-8.282158">
<ele>320</ele>
<time>2026-05-08T03:14:09Z</time></trkpt>
<trkpt lat="39.693569" lon="-8.282572">
<ele>322</ele>
<time>2026-05-08T03:14:16Z</time></trkpt>
<trkpt lat="39.693599" lon="-8.282669">
<ele>323</ele>
<time>2026-05-08T03:14:17Z</time></trkpt>
<trkpt lat="39.69374" lon="-8.282921">
<ele>325</ele>
<time>2026-05-08T03:14:22Z</time></trkpt>
<trkpt lat="39.6940508" lon="-8.2832545">
<ele>329</ele>
<time>2026-05-08T03:14:30Z</time></trkpt>
<trkpt lat="39.694095" lon="-8.283302">
<ele>329</ele>
<time>2026-05-08T03:14:31Z</time></trkpt>
<trkpt lat="39.694236" lon="-8.283504">
<ele>332</ele>
<time>2026-05-08T03:14:36Z</time></trkpt>
<trkpt lat="39.694457" lon="-8.284023">
<ele>336</ele>
<time>2026-05-08T03:14:45Z</time></trkpt>
<trkpt lat="39.694505" lon="-8.284286">
<ele>338</ele>
<time>2026-05-08T03:14:49Z</time></trkpt>
<trkpt lat="39.694497" lon="-8.284576">
<ele>338</ele>
<time>2026-05-08T03:14:53Z</time></trkpt>
<trkpt lat="39.694346" lon="-8.285169">
<ele>341</ele>
<time>2026-05-08T03:15:03Z</time></trkpt>
<trkpt lat="39.693984" lon="-8.286598">
<ele>342</ele>
<time>2026-05-08T03:15:26Z</time></trkpt>
<trkpt lat="39.693882" lon="-8.287002">
<ele>344</ele>
<time>2026-05-08T03:15:33Z</time></trkpt>
<trkpt lat="39.693649" lon="-8.287889">
<ele>347</ele>
<time>2026-05-08T03:15:47Z</time></trkpt>
<trkpt lat="39.69331" lon="-8.289181">
<ele>351</ele>
<time>2026-05-08T03:16:08Z</time></trkpt>
<trkpt lat="39.693132" lon="-8.289938">
<ele>355</ele>
<time>2026-05-08T03:16:21Z</time></trkpt>
<trkpt lat="39.693149" lon="-8.290156">
<ele>355</ele>
<time>2026-05-08T03:16:24Z</time></trkpt>
<trkpt lat="39.6931672" lon="-8.2902172">
<ele>355</ele>
<time>2026-05-08T03:16:25Z</time></trkpt>
<trkpt lat="39.693185" lon="-8.290277">
<ele>355</ele>
<time>2026-05-08T03:16:26Z</time></trkpt>
<trkpt lat="39.693275" lon="-8.290405">
<ele>355</ele>
<time>2026-05-08T03:16:29Z</time></trkpt>
<trkpt lat="39.693257" lon="-8.290928">
<ele>356</ele>
<time>2026-05-08T03:16:37Z</time></trkpt>
<trkpt lat="39.693239" lon="-8.291427">
<ele>356</ele>
<time>2026-05-08T03:16:44Z</time></trkpt>
<trkpt lat="39.693232" lon="-8.291627">
<ele>357</ele>
<time>2026-05-08T03:16:47Z</time></trkpt>
<trkpt lat="39.693255" lon="-8.292805">
<ele>357</ele>
<time>2026-05-08T03:17:06Z</time></trkpt>
<trkpt lat="39.693388" lon="-8.293888">
<ele>354</ele>
<time>2026-05-08T03:17:23Z</time></trkpt>
<trkpt lat="39.693413" lon="-8.293889">
<ele>354</ele>
<time>2026-05-08T03:17:23Z</time></trkpt>
<trkpt lat="39.693456" lon="-8.29392">
<ele>354</ele>
<time>2026-05-08T03:17:24Z</time></trkpt>
<trkpt lat="39.693476" lon="-8.293978">
<ele>354</ele>
<time>2026-05-08T03:17:25Z</time></trkpt>
<trkpt lat="39.69346" lon="-8.294054">
<ele>353</ele>
<time>2026-05-08T03:17:26Z</time></trkpt>
<trkpt lat="39.693412" lon="-8.294225">
<ele>353</ele>
<time>2026-05-08T03:17:29Z</time></trkpt>
<trkpt lat="39.693715" lon="-8.296637">
<ele>352</ele>
<time>2026-05-08T03:18:07Z</time></trkpt>
<trkpt lat="39.694078" lon="-8.299204">
<ele>358</ele>
<time>2026-05-08T03:18:47Z</time></trkpt>
<trkpt lat="39.694254" lon="-8.299752">
<ele>356</ele>
<time>2026-05-08T03:18:56Z</time></trkpt>
<trkpt lat="39.694818" lon="-8.301051">
<ele>352</ele>
<time>2026-05-08T03:19:19Z</time></trkpt>
<trkpt lat="39.695252" lon="-8.301913">
<ele>351</ele>
<time>2026-05-08T03:19:35Z</time></trkpt>
<trkpt lat="39.695361" lon="-8.302048">
<ele>352</ele>
<time>2026-05-08T03:19:38Z</time></trkpt>
<trkpt lat="39.695414" lon="-8.302071">
<ele>352</ele>
<time>2026-05-08T03:19:39Z</time></trkpt>
<trkpt lat="39.695447" lon="-8.302104">
<ele>352</ele>
<time>2026-05-08T03:19:40Z</time></trkpt>
<trkpt lat="39.695485" lon="-8.3022">
<ele>353</ele>
<time>2026-05-08T03:19:42Z</time></trkpt>
<trkpt lat="39.695486" lon="-8.302254">
<ele>353</ele>
<time>2026-05-08T03:19:42Z</time></trkpt>
<trkpt lat="39.69547" lon="-8.302323">
<ele>352</ele>
<time>2026-05-08T03:19:44Z</time></trkpt>
<trkpt lat="39.695498" lon="-8.302564">
<ele>352</ele>
<time>2026-05-08T03:19:47Z</time></trkpt>
<trkpt lat="39.695645" lon="-8.303023">
<ele>352</ele>
<time>2026-05-08T03:19:55Z</time></trkpt>
<trkpt lat="39.695819" lon="-8.303652">
<ele>351</ele>
<time>2026-05-08T03:20:05Z</time></trkpt>
<trkpt lat="39.69595" lon="-8.304311">
<ele>351</ele>
<time>2026-05-08T03:20:16Z</time></trkpt>
<trkpt lat="39.696051" lon="-8.305017">
<ele>352</ele>
<time>2026-05-08T03:20:27Z</time></trkpt>
<trkpt lat="39.696087" lon="-8.30544">
<ele>352</ele>
<time>2026-05-08T03:20:33Z</time></trkpt>
<trkpt lat="39.696103" lon="-8.305956">
<ele>352</ele>
<time>2026-05-08T03:20:41Z</time></trkpt>
<trkpt lat="39.696097" lon="-8.306309">
<ele>351</ele>
<time>2026-05-08T03:20:47Z</time></trkpt>
<trkpt lat="39.69609" lon="-8.306562">
<ele>351</ele>
<time>2026-05-08T03:20:51Z</time></trkpt>
<trkpt lat="39.696031" lon="-8.306848">
<ele>351</ele>
<time>2026-05-08T03:20:55Z</time></trkpt>
<trkpt lat="39.69595" lon="-8.30739">
<ele>352</ele>
<time>2026-05-08T03:21:04Z</time></trkpt>
<trkpt lat="39.695967" lon="-8.30749">
<ele>352</ele>
<time>2026-05-08T03:21:05Z</time></trkpt>
<trkpt lat="39.696084" lon="-8.307645">
<ele>352</ele>
<time>2026-05-08T03:21:09Z</time></trkpt>
<trkpt lat="39.696525" lon="-8.307772">
<ele>351</ele>
<time>2026-05-08T03:21:18Z</time></trkpt>
<trkpt lat="39.696679" lon="-8.307807">
<ele>351</ele>
<time>2026-05-08T03:21:21Z</time></trkpt>
<trkpt lat="39.696777" lon="-8.30783">
<ele>351</ele>
<time>2026-05-08T03:21:23Z</time></trkpt>
<trkpt lat="39.697495" lon="-8.308027">
<ele>352</ele>
<time>2026-05-08T03:21:38Z</time></trkpt>
<trkpt lat="39.698357" lon="-8.30846">
<ele>345</ele>
<time>2026-05-08T03:21:56Z</time></trkpt>
<trkpt lat="39.699168" lon="-8.308739">
<ele>339</ele>
<time>2026-05-08T03:22:13Z</time></trkpt>
<trkpt lat="39.699168" lon="-8.308739">
<ele>339</ele>
<time>2026-05-08T03:22:13Z</time></trkpt>
<trkpt lat="39.700404" lon="-8.309162">
<ele>332</ele>
<time>2026-05-08T03:22:39Z</time></trkpt>
<trkpt lat="39.70114" lon="-8.309489">
<ele>332</ele>
<time>2026-05-08T03:22:54Z</time></trkpt>
<trkpt lat="39.70125" lon="-8.309523">
<ele>332</ele>
<time>2026-05-08T03:22:56Z</time></trkpt>
<trkpt lat="39.701324" lon="-8.309523">
<ele>332</ele>
<time>2026-05-08T03:22:58Z</time></trkpt>
<trkpt lat="39.701507" lon="-8.30949">
<ele>332</ele>
<time>2026-05-08T03:23:02Z</time></trkpt>
<trkpt lat="39.701661" lon="-8.309418">
<ele>332</ele>
<time>2026-05-08T03:23:05Z</time></trkpt>
<trkpt lat="39.702233" lon="-8.308998">
<ele>332</ele>
<time>2026-05-08T03:23:18Z</time></trkpt>
<trkpt lat="39.702541" lon="-8.308776">
<ele>332</ele>
<time>2026-05-08T03:23:25Z</time></trkpt>
<trkpt lat="39.702972" lon="-8.308555">
<ele>333</ele>
<time>2026-05-08T03:23:34Z</time></trkpt>
<trkpt lat="39.703382" lon="-8.308398">
<ele>334</ele>
<time>2026-05-08T03:23:43Z</time></trkpt>
<trkpt lat="39.704603" lon="-8.308131">
<ele>332</ele>
<time>2026-05-08T03:24:08Z</time></trkpt>
<trkpt lat="39.705115" lon="-8.308051">
<ele>330</ele>
<time>2026-05-08T03:24:18Z</time></trkpt>
<trkpt lat="39.705575" lon="-8.308076">
<ele>329</ele>
<time>2026-05-08T03:24:27Z</time></trkpt>
<trkpt lat="39.705814" lon="-8.307988">
<ele>330</ele>
<time>2026-05-08T03:24:32Z</time></trkpt>
<trkpt lat="39.707016" lon="-8.3069">
<ele>324</ele>
<time>2026-05-08T03:25:02Z</time></trkpt>
<trkpt lat="39.707229" lon="-8.306675">
<ele>323</ele>
<time>2026-05-08T03:25:07Z</time></trkpt>
<trkpt lat="39.707504" lon="-8.306406">
<ele>320</ele>
<time>2026-05-08T03:25:14Z</time></trkpt>
<trkpt lat="39.707705" lon="-8.306243">
<ele>320</ele>
<time>2026-05-08T03:25:19Z</time></trkpt>
<trkpt lat="39.709135" lon="-8.30538">
<ele>322</ele>
<time>2026-05-08T03:25:50Z</time></trkpt>
<trkpt lat="39.709407" lon="-8.305287">
<ele>322</ele>
<time>2026-05-08T03:25:56Z</time></trkpt>
<trkpt lat="39.709698" lon="-8.30526">
<ele>322</ele>
<time>2026-05-08T03:26:02Z</time></trkpt>
<trkpt lat="39.7099" lon="-8.305192">
<ele>322</ele>
<time>2026-05-08T03:26:06Z</time></trkpt>
<trkpt lat="39.7100914" lon="-8.3050128">
<ele>323</ele>
<time>2026-05-08T03:26:11Z</time></trkpt>
<trkpt lat="39.710136" lon="-8.304971">
<ele>323</ele>
<time>2026-05-08T03:26:12Z</time></trkpt>
<trkpt lat="39.710463" lon="-8.304587">
<ele>324</ele>
<time>2026-05-08T03:26:21Z</time></trkpt>
<trkpt lat="39.71125" lon="-8.303315">
<ele>327</ele>
<time>2026-05-08T03:26:46Z</time></trkpt>
<trkpt lat="39.711414" lon="-8.303103">
<ele>327</ele>
<time>2026-05-08T03:26:50Z</time></trkpt>
<trkpt lat="39.711693" lon="-8.302896">
<ele>327</ele>
<time>2026-05-08T03:26:57Z</time></trkpt>
<trkpt lat="39.712452" lon="-8.302508">
<ele>327</ele>
<time>2026-05-08T03:27:13Z</time></trkpt>
<trkpt lat="39.712669" lon="-8.302462">
<ele>328</ele>
<time>2026-05-08T03:27:18Z</time></trkpt>
<trkpt lat="39.71303" lon="-8.302444">
<ele>329</ele>
<time>2026-05-08T03:27:25Z</time></trkpt>
<trkpt lat="39.713752" lon="-8.302407">
<ele>333</ele>
<time>2026-05-08T03:27:39Z</time></trkpt>
<trkpt lat="39.71504" lon="-8.302343">
<ele>340</ele>
<time>2026-05-08T03:28:05Z</time></trkpt>
<trkpt lat="39.716108" lon="-8.302289">
<ele>340</ele>
<time>2026-05-08T03:28:27Z</time></trkpt>
<trkpt lat="39.716722" lon="-8.302259">
<ele>341</ele>
<time>2026-05-08T03:28:39Z</time></trkpt>
<trkpt lat="39.716722" lon="-8.302259">
<ele>341</ele>
<time>2026-05-08T03:28:39Z</time></trkpt>
<trkpt lat="39.716759" lon="-8.302257">
<ele>341</ele>
<time>2026-05-08T03:28:40Z</time></trkpt>
<trkpt lat="39.7184903" lon="-8.302178">
<ele>343</ele>
<time>2026-05-08T03:29:14Z</time></trkpt>
<trkpt lat="39.71849" lon="-8.302178">
<ele>343</ele>
<time>2026-05-08T03:29:14Z</time></trkpt>
<trkpt lat="39.718666" lon="-8.30217">
<ele>342</ele>
<time>2026-05-08T03:29:18Z</time></trkpt>
<trkpt lat="39.718955" lon="-8.302157">
<ele>342</ele>
<time>2026-05-08T03:29:24Z</time></trkpt>
<trkpt lat="39.720252" lon="-8.302098">
<ele>343</ele>
<time>2026-05-08T03:29:50Z</time></trkpt>
<trkpt lat="39.720967" lon="-8.302065">
<ele>343</ele>
<time>2026-05-08T03:30:04Z</time></trkpt>
<trkpt lat="39.721181" lon="-8.302032">
<ele>343</ele>
<time>2026-05-08T03:30:08Z</time></trkpt>
<trkpt lat="39.721213" lon="-8.30201">
<ele>343</ele>
<time>2026-05-08T03:30:09Z</time></trkpt>
<trkpt lat="39.721283" lon="-8.302011">
<ele>343</ele>
<time>2026-05-08T03:30:11Z</time></trkpt>
<trkpt lat="39.721338" lon="-8.30207">
<ele>344</ele>
<time>2026-05-08T03:30:12Z</time></trkpt>
<trkpt lat="39.72135" lon="-8.302114">
<ele>344</ele>
<time>2026-05-08T03:30:13Z</time></trkpt>
<trkpt lat="39.721351" lon="-8.302158">
<ele>344</ele>
<time>2026-05-08T03:30:13Z</time></trkpt>
<trkpt lat="39.721431" lon="-8.302356">
<ele>345</ele>
<time>2026-05-08T03:30:17Z</time></trkpt>
<trkpt lat="39.721768" lon="-8.302646">
<ele>346</ele>
<time>2026-05-08T03:30:25Z</time></trkpt>
<trkpt lat="39.722808" lon="-8.303355">
<ele>349</ele>
<time>2026-05-08T03:30:48Z</time></trkpt>
<trkpt lat="39.723386" lon="-8.3037">
<ele>351</ele>
<time>2026-05-08T03:31:01Z</time></trkpt>
<trkpt lat="39.724296" lon="-8.303848">
<ele>349</ele>
<time>2026-05-08T03:31:20Z</time></trkpt>
<trkpt lat="39.725538" lon="-8.303971">
<ele>350</ele>
<time>2026-05-08T03:31:44Z</time></trkpt>
<trkpt lat="39.727519" lon="-8.304107">
<ele>349</ele>
<time>2026-05-08T03:32:24Z</time></trkpt>
<trkpt lat="39.731722" lon="-8.304477">
<ele>354</ele>
<time>2026-05-08T03:33:49Z</time></trkpt>
<trkpt lat="39.732058" lon="-8.304459">
<ele>353</ele>
<time>2026-05-08T03:33:55Z</time></trkpt>
<trkpt lat="39.732167" lon="-8.304433">
<ele>353</ele>
<time>2026-05-08T03:33:58Z</time></trkpt>
<trkpt lat="39.732405" lon="-8.304336">
<ele>352</ele>
<time>2026-05-08T03:34:03Z</time></trkpt>
<trkpt lat="39.7325" lon="-8.304196">
<ele>351</ele>
<time>2026-05-08T03:34:05Z</time></trkpt>
<trkpt lat="39.732515" lon="-8.304137">
<ele>351</ele>
<time>2026-05-08T03:34:06Z</time></trkpt>
<trkpt lat="39.732698" lon="-8.303833">
<ele>351</ele>
<time>2026-05-08T03:34:12Z</time></trkpt>
<trkpt lat="39.732762" lon="-8.303782">
<ele>351</ele>
<time>2026-05-08T03:34:14Z</time></trkpt>
<trkpt lat="39.732812" lon="-8.303785">
<ele>352</ele>
<time>2026-05-08T03:34:15Z</time></trkpt>
<trkpt lat="39.73287" lon="-8.303832">
<ele>352</ele>
<time>2026-05-08T03:34:16Z</time></trkpt>
<trkpt lat="39.732885" lon="-8.303861">
<ele>352</ele>
<time>2026-05-08T03:34:17Z</time></trkpt>
<trkpt lat="39.732997" lon="-8.303861">
<ele>353</ele>
<time>2026-05-08T03:34:19Z</time></trkpt>
<trkpt lat="39.733713" lon="-8.303365">
<ele>356</ele>
<time>2026-05-08T03:34:35Z</time></trkpt>
<trkpt lat="39.734007" lon="-8.303266">
<ele>357</ele>
<time>2026-05-08T03:34:41Z</time></trkpt>
<trkpt lat="39.734576" lon="-8.303341">
<ele>358</ele>
<time>2026-05-08T03:34:53Z</time></trkpt>
<trkpt lat="39.735179" lon="-8.303518">
<ele>358</ele>
<time>2026-05-08T03:35:05Z</time></trkpt>
<trkpt lat="39.736364" lon="-8.303938">
<ele>358</ele>
<time>2026-05-08T03:35:30Z</time></trkpt>
<trkpt lat="39.737815" lon="-8.304788">
<ele>351</ele>
<time>2026-05-08T03:36:02Z</time></trkpt>
<trkpt lat="39.73877" lon="-8.305377">
<ele>356</ele>
<time>2026-05-08T03:36:23Z</time></trkpt>
<trkpt lat="39.740214" lon="-8.306245">
<ele>360</ele>
<time>2026-05-08T03:36:55Z</time></trkpt>
<trkpt lat="39.74036" lon="-8.306275">
<ele>361</ele>
<time>2026-05-08T03:36:58Z</time></trkpt>
<trkpt lat="39.74036" lon="-8.306275">
<ele>361</ele>
<time>2026-05-08T03:36:58Z</time></trkpt>
<trkpt lat="39.742498" lon="-8.306712">
<ele>362</ele>
<time>2026-05-08T03:37:41Z</time></trkpt>
<trkpt lat="39.742932" lon="-8.30683">
<ele>361</ele>
<time>2026-05-08T03:37:50Z</time></trkpt>
<trkpt lat="39.743076" lon="-8.306803">
<ele>360</ele>
<time>2026-05-08T03:37:53Z</time></trkpt>
<trkpt lat="39.743153" lon="-8.306759">
<ele>359</ele>
<time>2026-05-08T03:37:55Z</time></trkpt>
<trkpt lat="39.743289" lon="-8.30665">
<ele>357</ele>
<time>2026-05-08T03:37:58Z</time></trkpt>
<trkpt lat="39.744393" lon="-8.304735">
<ele>353</ele>
<time>2026-05-08T03:38:35Z</time></trkpt>
<trkpt lat="39.745891" lon="-8.303041">
<ele>344</ele>
<time>2026-05-08T03:39:14Z</time></trkpt>
<trkpt lat="39.746375" lon="-8.302396">
<ele>339</ele>
<time>2026-05-08T03:39:28Z</time></trkpt>
<trkpt lat="39.746428" lon="-8.302179">
<ele>339</ele>
<time>2026-05-08T03:39:32Z</time></trkpt>
<trkpt lat="39.746424" lon="-8.302115">
<ele>338</ele>
<time>2026-05-08T03:39:33Z</time></trkpt>
<trkpt lat="39.746458" lon="-8.302039">
<ele>338</ele>
<time>2026-05-08T03:39:34Z</time></trkpt>
<trkpt lat="39.746521" lon="-8.302006">
<ele>338</ele>
<time>2026-05-08T03:39:36Z</time></trkpt>
<trkpt lat="39.746555" lon="-8.302011">
<ele>338</ele>
<time>2026-05-08T03:39:36Z</time></trkpt>
<trkpt lat="39.74669" lon="-8.301927">
<ele>338</ele>
<time>2026-05-08T03:39:39Z</time></trkpt>
<trkpt lat="39.747622" lon="-8.300799">
<ele>338</ele>
<time>2026-05-08T03:40:05Z</time></trkpt>
<trkpt lat="39.748126" lon="-8.300232">
<ele>334</ele>
<time>2026-05-08T03:40:18Z</time></trkpt>
<trkpt lat="39.748126" lon="-8.300232">
<ele>334</ele>
<time>2026-05-08T03:40:18Z</time></trkpt>
<trkpt lat="39.749732" lon="-8.298424">
<ele>320</ele>
<time>2026-05-08T03:41:01Z</time></trkpt>
<trkpt lat="39.750282" lon="-8.297804">
<ele>318</ele>
<time>2026-05-08T03:41:15Z</time></trkpt>
<trkpt lat="39.750703" lon="-8.296779">
<ele>316</ele>
<time>2026-05-08T03:41:33Z</time></trkpt>
<trkpt lat="39.751394" lon="-8.29549">
<ele>316</ele>
<time>2026-05-08T03:41:57Z</time></trkpt>
<trkpt lat="39.752216" lon="-8.294284">
<ele>312</ele>
<time>2026-05-08T03:42:22Z</time></trkpt>
<trkpt lat="39.752272" lon="-8.2942">
<ele>311</ele>
<time>2026-05-08T03:42:24Z</time></trkpt>
<trkpt lat="39.753174" lon="-8.29317">
<ele>303</ele>
<time>2026-05-08T03:42:48Z</time></trkpt>
<trkpt lat="39.753434" lon="-8.292915">
<ele>302</ele>
<time>2026-05-08T03:42:54Z</time></trkpt>
<trkpt lat="39.753634" lon="-8.292719">
<ele>301</ele>
<time>2026-05-08T03:42:59Z</time></trkpt>
<trkpt lat="39.754271" lon="-8.292094">
<ele>296</ele>
<time>2026-05-08T03:43:15Z</time></trkpt>
<trkpt lat="39.754732" lon="-8.291905">
<ele>293</ele>
<time>2026-05-08T03:43:25Z</time></trkpt>
<trkpt lat="39.755666" lon="-8.291969">
<ele>291</ele>
<time>2026-05-08T03:43:44Z</time></trkpt>
<trkpt lat="39.755879" lon="-8.291984">
<ele>292</ele>
<time>2026-05-08T03:43:48Z</time></trkpt>
<trkpt lat="39.756927" lon="-8.292055">
<ele>297</ele>
<time>2026-05-08T03:44:09Z</time></trkpt>
<trkpt lat="39.757639" lon="-8.292042">
<ele>294</ele>
<time>2026-05-08T03:44:23Z</time></trkpt>
<trkpt lat="39.758388" lon="-8.291871">
<ele>281</ele>
<time>2026-05-08T03:44:39Z</time></trkpt>
<trkpt lat="39.758678" lon="-8.291838">
<ele>278</ele>
<time>2026-05-08T03:44:45Z</time></trkpt>
<trkpt lat="39.758873" lon="-8.291873">
<ele>276</ele>
<time>2026-05-08T03:44:48Z</time></trkpt>
<trkpt lat="39.759303" lon="-8.291951">
<ele>273</ele>
<time>2026-05-08T03:44:57Z</time></trkpt>
<trkpt lat="39.759603" lon="-8.291742">
<ele>268</ele>
<time>2026-05-08T03:45:04Z</time></trkpt>
<trkpt lat="39.760868" lon="-8.289454">
<ele>262</ele>
<time>2026-05-08T03:45:47Z</time></trkpt>
<trkpt lat="39.760956" lon="-8.289272">
<ele>264</ele>
<time>2026-05-08T03:45:51Z</time></trkpt>
<trkpt lat="39.761122" lon="-8.288607">
<ele>268</ele>
<time>2026-05-08T03:46:01Z</time></trkpt>
<trkpt lat="39.761253" lon="-8.287068">
<ele>275</ele>
<time>2026-05-08T03:46:25Z</time></trkpt>
<trkpt lat="39.7614" lon="-8.285344">
<ele>275</ele>
<time>2026-05-08T03:46:52Z</time></trkpt>
<trkpt lat="39.7614" lon="-8.285344">
<ele>275</ele>
<time>2026-05-08T03:46:52Z</time></trkpt>
<trkpt lat="39.761473" lon="-8.284489">
<ele>278</ele>
<time>2026-05-08T03:47:05Z</time></trkpt>
<trkpt lat="39.76155" lon="-8.283585">
<ele>281</ele>
<time>2026-05-08T03:47:19Z</time></trkpt>
<trkpt lat="39.761596" lon="-8.283013">
<ele>280</ele>
<time>2026-05-08T03:47:28Z</time></trkpt>
<trkpt lat="39.761379" lon="-8.282285">
<ele>274</ele>
<time>2026-05-08T03:47:40Z</time></trkpt>
<trkpt lat="39.761372" lon="-8.281995">
<ele>272</ele>
<time>2026-05-08T03:47:45Z</time></trkpt>
<trkpt lat="39.761437" lon="-8.281708">
<ele>271</ele>
<time>2026-05-08T03:47:49Z</time></trkpt>
<trkpt lat="39.761658" lon="-8.280902">
<ele>265</ele>
<time>2026-05-08T03:48:02Z</time></trkpt>
<trkpt lat="39.761833" lon="-8.280504">
<ele>261</ele>
<time>2026-05-08T03:48:10Z</time></trkpt>
<trkpt lat="39.762159" lon="-8.280165">
<ele>260</ele>
<time>2026-05-08T03:48:18Z</time></trkpt>
<trkpt lat="39.762545" lon="-8.280061">
<ele>263</ele>
<time>2026-05-08T03:48:26Z</time></trkpt>
<trkpt lat="39.763026" lon="-8.280217">
<ele>262</ele>
<time>2026-05-08T03:48:36Z</time></trkpt>
<trkpt lat="39.763637" lon="-8.280296">
<ele>258</ele>
<time>2026-05-08T03:48:48Z</time></trkpt>
<trkpt lat="39.764815" lon="-8.280641">
<ele>241</ele>
<time>2026-05-08T03:49:12Z</time></trkpt>
<trkpt lat="39.76504" lon="-8.28053">
<ele>238</ele>
<time>2026-05-08T03:49:17Z</time></trkpt>
<trkpt lat="39.765196" lon="-8.280126">
<ele>237</ele>
<time>2026-05-08T03:49:24Z</time></trkpt>
<trkpt lat="39.765391" lon="-8.279285">
<ele>224</ele>
<time>2026-05-08T03:49:38Z</time></trkpt>
<trkpt lat="39.765416" lon="-8.278347">
<ele>218</ele>
<time>2026-05-08T03:49:52Z</time></trkpt>
<trkpt lat="39.765541" lon="-8.278118">
<ele>217</ele>
<time>2026-05-08T03:49:56Z</time></trkpt>
<trkpt lat="39.766568" lon="-8.277291">
<ele>202</ele>
<time>2026-05-08T03:50:21Z</time></trkpt>
<trkpt lat="39.766624" lon="-8.277062">
<ele>199</ele>
<time>2026-05-08T03:50:24Z</time></trkpt>
<trkpt lat="39.766568" lon="-8.276548">
<ele>197</ele>
<time>2026-05-08T03:50:32Z</time></trkpt>
<trkpt lat="39.766757" lon="-8.276019">
<ele>192</ele>
<time>2026-05-08T03:50:41Z</time></trkpt>
<trkpt lat="39.766955" lon="-8.275622">
<ele>185</ele>
<time>2026-05-08T03:50:48Z</time></trkpt>
<trkpt lat="39.767067" lon="-8.275286">
<ele>182</ele>
<time>2026-05-08T03:50:54Z</time></trkpt>
<trkpt lat="39.767151" lon="-8.275086">
<ele>181</ele>
<time>2026-05-08T03:50:58Z</time></trkpt>
<trkpt lat="39.767284" lon="-8.274916">
<ele>179</ele>
<time>2026-05-08T03:51:01Z</time></trkpt>
<trkpt lat="39.767509" lon="-8.274844">
<ele>177</ele>
<time>2026-05-08T03:51:06Z</time></trkpt>
<trkpt lat="39.767789" lon="-8.274808">
<ele>174</ele>
<time>2026-05-08T03:51:12Z</time></trkpt>
<trkpt lat="39.768543" lon="-8.274781">
<ele>165</ele>
<time>2026-05-08T03:51:27Z</time></trkpt>
<trkpt lat="39.76893" lon="-8.274869">
<ele>161</ele>
<time>2026-05-08T03:51:35Z</time></trkpt>
<trkpt lat="39.769599" lon="-8.275084">
<ele>147</ele>
<time>2026-05-08T03:51:48Z</time></trkpt>
<trkpt lat="39.769759" lon="-8.275099">
<ele>144</ele>
<time>2026-05-08T03:51:52Z</time></trkpt>
<trkpt lat="39.76993" lon="-8.27507">
<ele>142</ele>
<time>2026-05-08T03:51:55Z</time></trkpt>
<trkpt lat="39.770108" lon="-8.274985">
<ele>140</ele>
<time>2026-05-08T03:51:59Z</time></trkpt>
<trkpt lat="39.770176" lon="-8.274696">
<ele>143</ele>
<time>2026-05-08T03:52:04Z</time></trkpt>
<trkpt lat="39.770312" lon="-8.273758">
<ele>143</ele>
<time>2026-05-08T03:52:18Z</time></trkpt>
<trkpt lat="39.770411" lon="-8.272978">
<ele>135</ele>
<time>2026-05-08T03:52:30Z</time></trkpt>
<trkpt lat="39.770382" lon="-8.272858">
<ele>134</ele>
<time>2026-05-08T03:52:32Z</time></trkpt>
<trkpt lat="39.770317" lon="-8.272769">
<ele>134</ele>
<time>2026-05-08T03:52:34Z</time></trkpt>
<trkpt lat="39.770209" lon="-8.272741">
<ele>135</ele>
<time>2026-05-08T03:52:36Z</time></trkpt>
<trkpt lat="39.770095" lon="-8.272757">
<ele>137</ele>
<time>2026-05-08T03:52:39Z</time></trkpt>
<trkpt lat="39.769197" lon="-8.273024">
<ele>138</ele>
<time>2026-05-08T03:52:57Z</time></trkpt>
<trkpt lat="39.768555" lon="-8.273156">
<ele>143</ele>
<time>2026-05-08T03:53:10Z</time></trkpt>
<trkpt lat="39.768555" lon="-8.273156">
<ele>143</ele>
<time>2026-05-08T03:53:10Z</time></trkpt>
<trkpt lat="39.767989" lon="-8.27329">
<ele>149</ele>
<time>2026-05-08T03:53:22Z</time></trkpt>
<trkpt lat="39.767742" lon="-8.273276">
<ele>148</ele>
<time>2026-05-08T03:53:27Z</time></trkpt>
<trkpt lat="39.767072" lon="-8.273045">
<ele>137</ele>
<time>2026-05-08T03:53:41Z</time></trkpt>
<trkpt lat="39.767003" lon="-8.273024">
<ele>137</ele>
<time>2026-05-08T03:53:42Z</time></trkpt>
<trkpt lat="39.766338" lon="-8.272777">
<ele>135</ele>
<time>2026-05-08T03:53:56Z</time></trkpt>
<trkpt lat="39.766208" lon="-8.272652">
<ele>136</ele>
<time>2026-05-08T03:53:59Z</time></trkpt>
<trkpt lat="39.766438" lon="-8.272342">
<ele>139</ele>
<time>2026-05-08T03:54:06Z</time></trkpt>
<trkpt lat="39.766735" lon="-8.271749">
<ele>148</ele>
<time>2026-05-08T03:54:17Z</time></trkpt>
<trkpt lat="39.766952" lon="-8.271386">
<ele>147</ele>
<time>2026-05-08T03:54:24Z</time></trkpt>
<trkpt lat="39.767125" lon="-8.27116">
<ele>145</ele>
<time>2026-05-08T03:54:29Z</time></trkpt>
<trkpt lat="39.767216" lon="-8.271073">
<ele>144</ele>
<time>2026-05-08T03:54:31Z</time></trkpt>
<trkpt lat="39.767216" lon="-8.271073">
<ele>144</ele>
<time>2026-05-08T03:54:31Z</time></trkpt>
<trkpt lat="39.767264" lon="-8.271027">
<ele>144</ele>
<time>2026-05-08T03:54:32Z</time></trkpt>
<trkpt lat="39.768593" lon="-8.270268">
<ele>141</ele>
<time>2026-05-08T03:55:01Z</time></trkpt>
<trkpt lat="39.768737" lon="-8.270202">
<ele>141</ele>
<time>2026-05-08T03:55:04Z</time></trkpt>
<trkpt lat="39.768931" lon="-8.270162">
<ele>140</ele>
<time>2026-05-08T03:55:08Z</time></trkpt>
<trkpt lat="39.769207" lon="-8.270176">
<ele>137</ele>
<time>2026-05-08T03:55:14Z</time></trkpt>
<trkpt lat="39.769372" lon="-8.270151">
<ele>136</ele>
<time>2026-05-08T03:55:17Z</time></trkpt>
<trkpt lat="39.769472" lon="-8.270036">
<ele>138</ele>
<time>2026-05-08T03:55:20Z</time></trkpt>
<trkpt lat="39.769931" lon="-8.269729">
<ele>140</ele>
<time>2026-05-08T03:55:30Z</time></trkpt>
<trkpt lat="39.770206" lon="-8.26947">
<ele>140</ele>
<time>2026-05-08T03:55:37Z</time></trkpt>
<trkpt lat="39.770321" lon="-8.269306">
<ele>141</ele>
<time>2026-05-08T03:55:40Z</time></trkpt>
<trkpt lat="39.770357" lon="-8.269211">
<ele>141</ele>
<time>2026-05-08T03:55:42Z</time></trkpt>
<trkpt lat="39.770375" lon="-8.268992">
<ele>139</ele>
<time>2026-05-08T03:55:45Z</time></trkpt>
<trkpt lat="39.770357" lon="-8.268867">
<ele>138</ele>
<time>2026-05-08T03:55:47Z</time></trkpt>
<trkpt lat="39.770315" lon="-8.268755">
<ele>137</ele>
<time>2026-05-08T03:55:49Z</time></trkpt>
<trkpt lat="39.770248" lon="-8.268644">
<ele>136</ele>
<time>2026-05-08T03:55:51Z</time></trkpt>
<trkpt lat="39.770038" lon="-8.268427">
<ele>137</ele>
<time>2026-05-08T03:55:57Z</time></trkpt>
<trkpt lat="39.769941" lon="-8.268353">
<ele>139</ele>
<time>2026-05-08T03:55:59Z</time></trkpt>
<trkpt lat="39.769334" lon="-8.267965">
<ele>150</ele>
<time>2026-05-08T03:56:13Z</time></trkpt>
<trkpt lat="39.768416" lon="-8.267455">
<ele>157</ele>
<time>2026-05-08T03:56:33Z</time></trkpt>
<trkpt lat="39.768294" lon="-8.267345">
<ele>158</ele>
<time>2026-05-08T03:56:36Z</time></trkpt>
<trkpt lat="39.767877" lon="-8.266773">
<ele>160</ele>
<time>2026-05-08T03:56:48Z</time></trkpt>
<trkpt lat="39.767498" lon="-8.266158">
<ele>157</ele>
<time>2026-05-08T03:57:00Z</time></trkpt>
<trkpt lat="39.767498" lon="-8.266158">
<ele>157</ele>
<time>2026-05-08T03:57:00Z</time></trkpt>
<trkpt lat="39.767415" lon="-8.265947">
<ele>156</ele>
<time>2026-05-08T03:57:03Z</time></trkpt>
<trkpt lat="39.767362" lon="-8.265749">
<ele>157</ele>
<time>2026-05-08T03:57:07Z</time></trkpt>
<trkpt lat="39.767179" lon="-8.26396">
<ele>162</ele>
<time>2026-05-08T03:57:35Z</time></trkpt>
<trkpt lat="39.76717" lon="-8.263665">
<ele>161</ele>
<time>2026-05-08T03:57:39Z</time></trkpt>
<trkpt lat="39.767244" lon="-8.263355">
<ele>157</ele>
<time>2026-05-08T03:57:44Z</time></trkpt>
<trkpt lat="39.767355" lon="-8.263184">
<ele>156</ele>
<time>2026-05-08T03:57:48Z</time></trkpt>
<trkpt lat="39.768189" lon="-8.262126">
<ele>152</ele>
<time>2026-05-08T03:58:11Z</time></trkpt>
<trkpt lat="39.768685" lon="-8.261323">
<ele>158</ele>
<time>2026-05-08T03:58:27Z</time></trkpt>
<trkpt lat="39.768825" lon="-8.26104">
<ele>157</ele>
<time>2026-05-08T03:58:32Z</time></trkpt>
<trkpt lat="39.769" lon="-8.2606">
<ele>161</ele>
<time>2026-05-08T03:58:40Z</time></trkpt>
<trkpt lat="39.76916" lon="-8.260325">
<ele>162</ele>
<time>2026-05-08T03:58:45Z</time></trkpt>
<trkpt lat="39.769524" lon="-8.259947">
<ele>153</ele>
<time>2026-05-08T03:58:54Z</time></trkpt>
<trkpt lat="39.769648" lon="-8.259699">
<ele>152</ele>
<time>2026-05-08T03:58:59Z</time></trkpt>
<trkpt lat="39.76971" lon="-8.259491">
<ele>153</ele>
<time>2026-05-08T03:59:02Z</time></trkpt>
<trkpt lat="39.769816" lon="-8.259021">
<ele>155</ele>
<time>2026-05-08T03:59:10Z</time></trkpt>
<trkpt lat="39.769852" lon="-8.2588">
<ele>155</ele>
<time>2026-05-08T03:59:13Z</time></trkpt>
<trkpt lat="39.76986" lon="-8.258405">
<ele>158</ele>
<time>2026-05-08T03:59:19Z</time></trkpt>
<trkpt lat="39.769763" lon="-8.257499">
<ele>165</ele>
<time>2026-05-08T03:59:33Z</time></trkpt>
<trkpt lat="39.769777" lon="-8.257263">
<ele>163</ele>
<time>2026-05-08T03:59:37Z</time></trkpt>
<trkpt lat="39.769851" lon="-8.257105">
<ele>159</ele>
<time>2026-05-08T03:59:40Z</time></trkpt>
<trkpt lat="39.770102" lon="-8.25679">
<ele>149</ele>
<time>2026-05-08T03:59:47Z</time></trkpt>
<trkpt lat="39.770144" lon="-8.256699">
<ele>148</ele>
<time>2026-05-08T03:59:48Z</time></trkpt>
<trkpt lat="39.77015" lon="-8.256648">
<ele>147</ele>
<time>2026-05-08T03:59:49Z</time></trkpt>
<trkpt lat="39.770151" lon="-8.256556">
<ele>147</ele>
<time>2026-05-08T03:59:51Z</time></trkpt>
<trkpt lat="39.770122" lon="-8.256369">
<ele>148</ele>
<time>2026-05-08T03:59:54Z</time></trkpt>
<trkpt lat="39.769963" lon="-8.255904">
<ele>152</ele>
<time>2026-05-08T04:00:01Z</time></trkpt>
<trkpt lat="39.769937" lon="-8.255785">
<ele>152</ele>
<time>2026-05-08T04:00:03Z</time></trkpt>
<trkpt lat="39.769904" lon="-8.255549">
<ele>152</ele>
<time>2026-05-08T04:00:07Z</time></trkpt>
<trkpt lat="39.769703" lon="-8.254714">
<ele>156</ele>
<time>2026-05-08T04:00:21Z</time></trkpt>
<trkpt lat="39.769704" lon="-8.254593">
<ele>158</ele>
<time>2026-05-08T04:00:22Z</time></trkpt>
<trkpt lat="39.769733" lon="-8.254481">
<ele>159</ele>
<time>2026-05-08T04:00:24Z</time></trkpt>
<trkpt lat="39.769789" lon="-8.254409">
<ele>159</ele>
<time>2026-05-08T04:00:26Z</time></trkpt>
<trkpt lat="39.769881" lon="-8.254328">
<ele>160</ele>
<time>2026-05-08T04:00:28Z</time></trkpt>
<trkpt lat="39.770167" lon="-8.254179">
<ele>161</ele>
<time>2026-05-08T04:00:34Z</time></trkpt>
<trkpt lat="39.77035" lon="-8.254149">
<ele>162</ele>
<time>2026-05-08T04:00:38Z</time></trkpt>
<trkpt lat="39.770675" lon="-8.25413">
<ele>162</ele>
<time>2026-05-08T04:00:44Z</time></trkpt>
<trkpt lat="39.771398" lon="-8.254176">
<ele>163</ele>
<time>2026-05-08T04:00:59Z</time></trkpt>
<trkpt lat="39.771719" lon="-8.254144">
<ele>164</ele>
<time>2026-05-08T04:01:05Z</time></trkpt>
<trkpt lat="39.771797" lon="-8.254096">
<ele>162</ele>
<time>2026-05-08T04:01:07Z</time></trkpt>
<trkpt lat="39.771838" lon="-8.253958">
<ele>162</ele>
<time>2026-05-08T04:01:09Z</time></trkpt>
<trkpt lat="39.771838" lon="-8.253868">
<ele>162</ele>
<time>2026-05-08T04:01:11Z</time></trkpt>
<trkpt lat="39.771814" lon="-8.253756">
<ele>163</ele>
<time>2026-05-08T04:01:13Z</time></trkpt>
<trkpt lat="39.771661" lon="-8.253364">
<ele>169</ele>
<time>2026-05-08T04:01:19Z</time></trkpt>
<trkpt lat="39.771175" lon="-8.252431">
<ele>169</ele>
<time>2026-05-08T04:01:37Z</time></trkpt>
<trkpt lat="39.771053" lon="-8.252238">
<ele>168</ele>
<time>2026-05-08T04:01:41Z</time></trkpt>
<trkpt lat="39.770916" lon="-8.252062">
<ele>167</ele>
<time>2026-05-08T04:01:44Z</time></trkpt>
<trkpt lat="39.769801" lon="-8.250922">
<ele>161</ele>
<time>2026-05-08T04:02:13Z</time></trkpt>
<trkpt lat="39.768548" lon="-8.249321">
<ele>162</ele>
<time>2026-05-08T04:02:48Z</time></trkpt>
<trkpt lat="39.768548" lon="-8.249321">
<ele>162</ele>
<time>2026-05-08T04:02:48Z</time></trkpt>
<trkpt lat="39.768309" lon="-8.249044">
<ele>161</ele>
<time>2026-05-08T04:02:54Z</time></trkpt>
<trkpt lat="39.767619" lon="-8.248529">
<ele>161</ele>
<time>2026-05-08T04:03:10Z</time></trkpt>
<trkpt lat="39.767525" lon="-8.248394">
<ele>159</ele>
<time>2026-05-08T04:03:13Z</time></trkpt>
<trkpt lat="39.767472" lon="-8.248259">
<ele>159</ele>
<time>2026-05-08T04:03:15Z</time></trkpt>
<trkpt lat="39.767463" lon="-8.24812">
<ele>161</ele>
<time>2026-05-08T04:03:18Z</time></trkpt>
<trkpt lat="39.767517" lon="-8.247956">
<ele>162</ele>
<time>2026-05-08T04:03:20Z</time></trkpt>
<trkpt lat="39.767605" lon="-8.247882">
<ele>162</ele>
<time>2026-05-08T04:03:22Z</time></trkpt>
<trkpt lat="39.768668" lon="-8.247281">
<ele>163</ele>
<time>2026-05-08T04:03:46Z</time></trkpt>
<trkpt lat="39.768668" lon="-8.247281">
<ele>163</ele>
<time>2026-05-08T04:03:46Z</time></trkpt>
<trkpt lat="39.769317" lon="-8.246884">
<ele>166</ele>
<time>2026-05-08T04:04:00Z</time></trkpt>
<trkpt lat="39.769378" lon="-8.246826">
<ele>167</ele>
<time>2026-05-08T04:04:02Z</time></trkpt>
<trkpt lat="39.769409" lon="-8.24676">
<ele>168</ele>
<time>2026-05-08T04:04:03Z</time></trkpt>
<trkpt lat="39.76942" lon="-8.246662">
<ele>169</ele>
<time>2026-05-08T04:04:04Z</time></trkpt>
<trkpt lat="39.769393" lon="-8.24639">
<ele>173</ele>
<time>2026-05-08T04:04:09Z</time></trkpt>
<trkpt lat="39.769584" lon="-8.246291">
<ele>173</ele>
<time>2026-05-08T04:04:13Z</time></trkpt>
<trkpt lat="39.769721" lon="-8.246192">
<ele>173</ele>
<time>2026-05-08T04:04:16Z</time></trkpt>
<trkpt lat="39.770003" lon="-8.245938">
<ele>174</ele>
<time>2026-05-08T04:04:23Z</time></trkpt>
<trkpt lat="39.770239" lon="-8.245819">
<ele>176</ele>
<time>2026-05-08T04:04:28Z</time></trkpt>
<trkpt lat="39.770398" lon="-8.24582">
<ele>176</ele>
<time>2026-05-08T04:04:31Z</time></trkpt>
<trkpt lat="39.770398" lon="-8.24582">
<ele>176</ele>
<time>2026-05-08T04:04:31Z</time></trkpt>
<trkpt lat="39.770448" lon="-8.24582">
<ele>176</ele>
<time>2026-05-08T04:04:32Z</time></trkpt>
<trkpt lat="39.770741" lon="-8.245935">
<ele>175</ele>
<time>2026-05-08T04:04:38Z</time></trkpt>
<trkpt lat="39.770954" lon="-8.246153">
<ele>174</ele>
<time>2026-05-08T04:04:43Z</time></trkpt>
<trkpt lat="39.771571" lon="-8.247031">
<ele>169</ele>
<time>2026-05-08T04:05:02Z</time></trkpt>
<trkpt lat="39.7718436" lon="-8.2474264">
<ele>167</ele>
<time>2026-05-08T04:05:10Z</time></trkpt>
<trkpt lat="39.773368" lon="-8.249637">
<ele>154</ele>
<time>2026-05-08T04:05:56Z</time></trkpt>
<trkpt lat="39.773623" lon="-8.249877">
<ele>152</ele>
<time>2026-05-08T04:06:02Z</time></trkpt>
<trkpt lat="39.773958" lon="-8.249937">
<ele>153</ele>
<time>2026-05-08T04:06:09Z</time></trkpt>
<trkpt lat="39.774814" lon="-8.249895">
<ele>148</ele>
<time>2026-05-08T04:06:26Z</time></trkpt>
<trkpt lat="39.775267" lon="-8.249955">
<ele>141</ele>
<time>2026-05-08T04:06:35Z</time></trkpt>
<trkpt lat="39.775473" lon="-8.249932">
<ele>139</ele>
<time>2026-05-08T04:06:39Z</time></trkpt>
<trkpt lat="39.775681" lon="-8.249845">
<ele>138</ele>
<time>2026-05-08T04:06:44Z</time></trkpt>
<trkpt lat="39.776416" lon="-8.249187">
<ele>133</ele>
<time>2026-05-08T04:07:01Z</time></trkpt>
<trkpt lat="39.776515" lon="-8.249067">
<ele>133</ele>
<time>2026-05-08T04:07:04Z</time></trkpt>
<trkpt lat="39.776579" lon="-8.248937">
<ele>134</ele>
<time>2026-05-08T04:07:07Z</time></trkpt>
<trkpt lat="39.776711" lon="-8.248335">
<ele>142</ele>
<time>2026-05-08T04:07:16Z</time></trkpt>
<trkpt lat="39.776752" lon="-8.248209">
<ele>142</ele>
<time>2026-05-08T04:07:18Z</time></trkpt>
<trkpt lat="39.776904" lon="-8.248016">
<ele>139</ele>
<time>2026-05-08T04:07:23Z</time></trkpt>
<trkpt lat="39.77701" lon="-8.247954">
<ele>135</ele>
<time>2026-05-08T04:07:25Z</time></trkpt>
<trkpt lat="39.7771" lon="-8.247931">
<ele>132</ele>
<time>2026-05-08T04:07:27Z</time></trkpt>
<trkpt lat="39.777191" lon="-8.247945">
<ele>128</ele>
<time>2026-05-08T04:07:29Z</time></trkpt>
<trkpt lat="39.7774535" lon="-8.24802">
<ele>117</ele>
<time>2026-05-08T04:07:34Z</time></trkpt>
<trkpt lat="39.779831" lon="-8.248699">
<ele>131</ele>
<time>2026-05-08T04:08:23Z</time></trkpt>
<trkpt lat="39.779864" lon="-8.248703">
<ele>132</ele>
<time>2026-05-08T04:08:23Z</time></trkpt>
<trkpt lat="39.7799341" lon="-8.248703">
<ele>134</ele>
<time>2026-05-08T04:08:25Z</time></trkpt>
<trkpt lat="39.780089" lon="-8.248703">
<ele>138</ele>
<time>2026-05-08T04:08:28Z</time></trkpt>
<trkpt lat="39.780275" lon="-8.248573">
<ele>143</ele>
<time>2026-05-08T04:08:32Z</time></trkpt>
<trkpt lat="39.780321" lon="-8.248494">
<ele>143</ele>
<time>2026-05-08T04:08:34Z</time></trkpt>
<trkpt lat="39.780361" lon="-8.248412">
<ele>142</ele>
<time>2026-05-08T04:08:35Z</time></trkpt>
<trkpt lat="39.780446" lon="-8.248153">
<ele>140</ele>
<time>2026-05-08T04:08:40Z</time></trkpt>
<trkpt lat="39.780521" lon="-8.247979">
<ele>139</ele>
<time>2026-05-08T04:08:43Z</time></trkpt>
<trkpt lat="39.780645" lon="-8.247818">
<ele>139</ele>
<time>2026-05-08T04:08:46Z</time></trkpt>
<trkpt lat="39.780838" lon="-8.247667">
<ele>141</ele>
<time>2026-05-08T04:08:51Z</time></trkpt>
<trkpt lat="39.781172" lon="-8.247528">
<ele>150</ele>
<time>2026-05-08T04:08:58Z</time></trkpt>
<trkpt lat="39.781301" lon="-8.247381">
<ele>154</ele>
<time>2026-05-08T04:09:01Z</time></trkpt>
<trkpt lat="39.781383" lon="-8.247169">
<ele>156</ele>
<time>2026-05-08T04:09:05Z</time></trkpt>
<trkpt lat="39.78139" lon="-8.246952">
<ele>155</ele>
<time>2026-05-08T04:09:08Z</time></trkpt>
<trkpt lat="39.781237" lon="-8.246443">
<ele>147</ele>
<time>2026-05-08T04:09:16Z</time></trkpt>
<trkpt lat="39.781184" lon="-8.246079">
<ele>147</ele>
<time>2026-05-08T04:09:22Z</time></trkpt>
<trkpt lat="39.781153" lon="-8.245127">
<ele>148</ele>
<time>2026-05-08T04:09:37Z</time></trkpt>
<trkpt lat="39.781186" lon="-8.244843">
<ele>148</ele>
<time>2026-05-08T04:09:41Z</time></trkpt>
<trkpt lat="39.781314" lon="-8.24455">
<ele>148</ele>
<time>2026-05-08T04:09:46Z</time></trkpt>
<trkpt lat="39.781531" lon="-8.244355">
<ele>151</ele>
<time>2026-05-08T04:09:52Z</time></trkpt>
<trkpt lat="39.781756" lon="-8.244299">
<ele>152</ele>
<time>2026-05-08T04:09:56Z</time></trkpt>
<trkpt lat="39.782026" lon="-8.244352">
<ele>150</ele>
<time>2026-05-08T04:10:02Z</time></trkpt>
<trkpt lat="39.782945" lon="-8.244885">
<ele>148</ele>
<time>2026-05-08T04:10:22Z</time></trkpt>
<trkpt lat="39.783095" lon="-8.245057">
<ele>147</ele>
<time>2026-05-08T04:10:26Z</time></trkpt>
<trkpt lat="39.783565" lon="-8.245709">
<ele>158</ele>
<time>2026-05-08T04:10:40Z</time></trkpt>
<trkpt lat="39.784258" lon="-8.246313">
<ele>153</ele>
<time>2026-05-08T04:10:56Z</time></trkpt>
<trkpt lat="39.784789" lon="-8.247072">
<ele>153</ele>
<time>2026-05-08T04:11:12Z</time></trkpt>
<trkpt lat="39.784956" lon="-8.247135">
<ele>148</ele>
<time>2026-05-08T04:11:16Z</time></trkpt>
<trkpt lat="39.785108" lon="-8.247096">
<ele>146</ele>
<time>2026-05-08T04:11:19Z</time></trkpt>
<trkpt lat="39.785186" lon="-8.246984">
<ele>146</ele>
<time>2026-05-08T04:11:21Z</time></trkpt>
<trkpt lat="39.785186" lon="-8.246984">
<ele>146</ele>
<time>2026-05-08T04:11:21Z</time></trkpt>
<trkpt lat="39.785224" lon="-8.24693">
<ele>146</ele>
<time>2026-05-08T04:11:22Z</time></trkpt>
<trkpt lat="39.785264" lon="-8.246694">
<ele>145</ele>
<time>2026-05-08T04:11:26Z</time></trkpt>
<trkpt lat="39.785207" lon="-8.246499">
<ele>149</ele>
<time>2026-05-08T04:11:29Z</time></trkpt>
<trkpt lat="39.784179" lon="-8.24502">
<ele>138</ele>
<time>2026-05-08T04:12:00Z</time></trkpt>
<trkpt lat="39.784102" lon="-8.244818">
<ele>138</ele>
<time>2026-05-08T04:12:03Z</time></trkpt>
<trkpt lat="39.784081" lon="-8.244574">
<ele>139</ele>
<time>2026-05-08T04:12:07Z</time></trkpt>
<trkpt lat="39.784144" lon="-8.243721">
<ele>144</ele>
<time>2026-05-08T04:12:20Z</time></trkpt>
<trkpt lat="39.784144" lon="-8.243721">
<ele>144</ele>
<time>2026-05-08T04:12:20Z</time></trkpt>
<trkpt lat="39.7841741" lon="-8.2433138">
<ele>146</ele>
<time>2026-05-08T04:12:27Z</time></trkpt>
<trkpt lat="39.784177" lon="-8.243274">
<ele>147</ele>
<time>2026-05-08T04:12:27Z</time></trkpt>
<trkpt lat="39.784269" lon="-8.242975">
<ele>152</ele>
<time>2026-05-08T04:12:32Z</time></trkpt>
<trkpt lat="39.784431" lon="-8.242794">
<ele>157</ele>
<time>2026-05-08T04:12:37Z</time></trkpt>
<trkpt lat="39.784795" lon="-8.242621">
<ele>161</ele>
<time>2026-05-08T04:12:44Z</time></trkpt>
<trkpt lat="39.784948" lon="-8.242488">
<ele>160</ele>
<time>2026-05-08T04:12:48Z</time></trkpt>
<trkpt lat="39.785033" lon="-8.242279">
<ele>160</ele>
<time>2026-05-08T04:12:52Z</time></trkpt>
<trkpt lat="39.785131" lon="-8.241754">
<ele>160</ele>
<time>2026-05-08T04:13:00Z</time></trkpt>
<trkpt lat="39.785243" lon="-8.2415">
<ele>163</ele>
<time>2026-05-08T04:13:04Z</time></trkpt>
<trkpt lat="39.785453" lon="-8.241282">
<ele>167</ele>
<time>2026-05-08T04:13:10Z</time></trkpt>
<trkpt lat="39.785786" lon="-8.241038">
<ele>167</ele>
<time>2026-05-08T04:13:18Z</time></trkpt>
<trkpt lat="39.787002" lon="-8.240302">
<ele>178</ele>
<time>2026-05-08T04:13:44Z</time></trkpt>
<trkpt lat="39.787209" lon="-8.240141">
<ele>180</ele>
<time>2026-05-08T04:13:49Z</time></trkpt>
<trkpt lat="39.787311" lon="-8.239955">
<ele>181</ele>
<time>2026-05-08T04:13:53Z</time></trkpt>
<trkpt lat="39.787388" lon="-8.239689">
<ele>181</ele>
<time>2026-05-08T04:13:57Z</time></trkpt>
<trkpt lat="39.787502" lon="-8.239289">
<ele>178</ele>
<time>2026-05-08T04:14:04Z</time></trkpt>
<trkpt lat="39.787673" lon="-8.23902">
<ele>179</ele>
<time>2026-05-08T04:14:09Z</time></trkpt>
<trkpt lat="39.787888" lon="-8.238866">
<ele>182</ele>
<time>2026-05-08T04:14:14Z</time></trkpt>
<trkpt lat="39.788122" lon="-8.238799">
<ele>185</ele>
<time>2026-05-08T04:14:19Z</time></trkpt>
<trkpt lat="39.788359" lon="-8.238837">
<ele>189</ele>
<time>2026-05-08T04:14:24Z</time></trkpt>
<trkpt lat="39.788769" lon="-8.239069">
<ele>192</ele>
<time>2026-05-08T04:14:33Z</time></trkpt>
<trkpt lat="39.789087" lon="-8.239359">
<ele>197</ele>
<time>2026-05-08T04:14:40Z</time></trkpt>
<trkpt lat="39.789287" lon="-8.239452">
<ele>199</ele>
<time>2026-05-08T04:14:45Z</time></trkpt>
<trkpt lat="39.789464" lon="-8.239428">
<ele>198</ele>
<time>2026-05-08T04:14:48Z</time></trkpt>
<trkpt lat="39.789643" lon="-8.239234">
<ele>194</ele>
<time>2026-05-08T04:14:53Z</time></trkpt>
<trkpt lat="39.78967" lon="-8.239144">
<ele>193</ele>
<time>2026-05-08T04:14:54Z</time></trkpt>
<trkpt lat="39.789699" lon="-8.239045">
<ele>194</ele>
<time>2026-05-08T04:14:56Z</time></trkpt>
<trkpt lat="39.789718" lon="-8.238979">
<ele>196</ele>
<time>2026-05-08T04:14:57Z</time></trkpt>
<trkpt lat="39.789669" lon="-8.238693">
<ele>200</ele>
<time>2026-05-08T04:15:02Z</time></trkpt>
<trkpt lat="39.789527" lon="-8.238499">
<ele>201</ele>
<time>2026-05-08T04:15:06Z</time></trkpt>
<trkpt lat="39.788351" lon="-8.237725">
<ele>198</ele>
<time>2026-05-08T04:15:32Z</time></trkpt>
<trkpt lat="39.78816" lon="-8.237506">
<ele>198</ele>
<time>2026-05-08T04:15:37Z</time></trkpt>
<trkpt lat="39.788076" lon="-8.237254">
<ele>199</ele>
<time>2026-05-08T04:15:41Z</time></trkpt>
<trkpt lat="39.788059" lon="-8.236971">
<ele>203</ele>
<time>2026-05-08T04:15:46Z</time></trkpt>
<trkpt lat="39.788147" lon="-8.236672">
<ele>210</ele>
<time>2026-05-08T04:15:51Z</time></trkpt>
<trkpt lat="39.788327" lon="-8.236433">
<ele>215</ele>
<time>2026-05-08T04:15:56Z</time></trkpt>
<trkpt lat="39.788534" lon="-8.236329">
<ele>218</ele>
<time>2026-05-08T04:16:00Z</time></trkpt>
<trkpt lat="39.789018" lon="-8.23626">
<ele>223</ele>
<time>2026-05-08T04:16:10Z</time></trkpt>
<trkpt lat="39.789216" lon="-8.236164">
<ele>224</ele>
<time>2026-05-08T04:16:14Z</time></trkpt>
<trkpt lat="39.78939" lon="-8.235978">
<ele>223</ele>
<time>2026-05-08T04:16:19Z</time></trkpt>
<trkpt lat="39.789535" lon="-8.235738">
<ele>223</ele>
<time>2026-05-08T04:16:23Z</time></trkpt>
<trkpt lat="39.789604" lon="-8.235487">
<ele>226</ele>
<time>2026-05-08T04:16:28Z</time></trkpt>
<trkpt lat="39.789627" lon="-8.235227">
<ele>227</ele>
<time>2026-05-08T04:16:32Z</time></trkpt>
<trkpt lat="39.789598" lon="-8.234907">
<ele>229</ele>
<time>2026-05-08T04:16:37Z</time></trkpt>
<trkpt lat="39.789448" lon="-8.234552">
<ele>230</ele>
<time>2026-05-08T04:16:43Z</time></trkpt>
<trkpt lat="39.789296" lon="-8.23439">
<ele>230</ele>
<time>2026-05-08T04:16:47Z</time></trkpt>
<trkpt lat="39.788554" lon="-8.233935">
<ele>239</ele>
<time>2026-05-08T04:17:03Z</time></trkpt>
<trkpt lat="39.788291" lon="-8.233728">
<ele>243</ele>
<time>2026-05-08T04:17:09Z</time></trkpt>
<trkpt lat="39.788094" lon="-8.233464">
<ele>250</ele>
<time>2026-05-08T04:17:15Z</time></trkpt>
<trkpt lat="39.787509" lon="-8.232198">
<ele>258</ele>
<time>2026-05-08T04:17:38Z</time></trkpt>
<trkpt lat="39.786948" lon="-8.230585">
<ele>245</ele>
<time>2026-05-08T04:18:05Z</time></trkpt>
<trkpt lat="39.786809" lon="-8.230186">
<ele>251</ele>
<time>2026-05-08T04:18:12Z</time></trkpt>
<trkpt lat="39.786688" lon="-8.229949">
<ele>254</ele>
<time>2026-05-08T04:18:16Z</time></trkpt>
<trkpt lat="39.786557" lon="-8.229774">
<ele>255</ele>
<time>2026-05-08T04:18:20Z</time></trkpt>
<trkpt lat="39.785898" lon="-8.229246">
<ele>252</ele>
<time>2026-05-08T04:18:35Z</time></trkpt>
<trkpt lat="39.785705" lon="-8.229203">
<ele>251</ele>
<time>2026-05-08T04:18:39Z</time></trkpt>
<trkpt lat="39.785418" lon="-8.229222">
<ele>250</ele>
<time>2026-05-08T04:18:45Z</time></trkpt>
<trkpt lat="39.785223" lon="-8.229178">
<ele>249</ele>
<time>2026-05-08T04:18:49Z</time></trkpt>
<trkpt lat="39.785047" lon="-8.229001">
<ele>250</ele>
<time>2026-05-08T04:18:54Z</time></trkpt>
<trkpt lat="39.784521" lon="-8.228093">
<ele>251</ele>
<time>2026-05-08T04:19:11Z</time></trkpt>
<trkpt lat="39.784453" lon="-8.227902">
<ele>251</ele>
<time>2026-05-08T04:19:14Z</time></trkpt>
<trkpt lat="39.784441" lon="-8.227723">
<ele>253</ele>
<time>2026-05-08T04:19:17Z</time></trkpt>
<trkpt lat="39.784466" lon="-8.227301">
<ele>259</ele>
<time>2026-05-08T04:19:24Z</time></trkpt>
<trkpt lat="39.784413" lon="-8.226929">
<ele>264</ele>
<time>2026-05-08T04:19:29Z</time></trkpt>
<trkpt lat="39.784355" lon="-8.226737">
<ele>265</ele>
<time>2026-05-08T04:19:33Z</time></trkpt>
<trkpt lat="39.78423" lon="-8.226593">
<ele>264</ele>
<time>2026-05-08T04:19:36Z</time></trkpt>
<trkpt lat="39.78349" lon="-8.226071">
<ele>263</ele>
<time>2026-05-08T04:19:53Z</time></trkpt>
<trkpt lat="39.783391" lon="-8.225933">
<ele>264</ele>
<time>2026-05-08T04:19:56Z</time></trkpt>
<trkpt lat="39.783341" lon="-8.225779">
<ele>265</ele>
<time>2026-05-08T04:19:58Z</time></trkpt>
<trkpt lat="39.78336" lon="-8.225515">
<ele>262</ele>
<time>2026-05-08T04:20:02Z</time></trkpt>
<trkpt lat="39.783467" lon="-8.22525">
<ele>261</ele>
<time>2026-05-08T04:20:07Z</time></trkpt>
<trkpt lat="39.783801" lon="-8.225026">
<ele>266</ele>
<time>2026-05-08T04:20:14Z</time></trkpt>
<trkpt lat="39.784024" lon="-8.224884">
<ele>268</ele>
<time>2026-05-08T04:20:19Z</time></trkpt>
<trkpt lat="39.784145" lon="-8.224717">
<ele>269</ele>
<time>2026-05-08T04:20:23Z</time></trkpt>
<trkpt lat="39.784437" lon="-8.223789">
<ele>267</ele>
<time>2026-05-08T04:20:38Z</time></trkpt>
<trkpt lat="39.784845" lon="-8.223171">
<ele>268</ele>
<time>2026-05-08T04:20:51Z</time></trkpt>
<trkpt lat="39.785116" lon="-8.22285">
<ele>267</ele>
<time>2026-05-08T04:20:58Z</time></trkpt>
<trkpt lat="39.785346" lon="-8.222653">
<ele>268</ele>
<time>2026-05-08T04:21:04Z</time></trkpt>
<trkpt lat="39.785623" lon="-8.222455">
<ele>268</ele>
<time>2026-05-08T04:21:10Z</time></trkpt>
<trkpt lat="39.785841" lon="-8.222365">
<ele>271</ele>
<time>2026-05-08T04:21:15Z</time></trkpt>
<trkpt lat="39.786931" lon="-8.222187">
<ele>272</ele>
<time>2026-05-08T04:21:37Z</time></trkpt>
<trkpt lat="39.787165" lon="-8.222207">
<ele>271</ele>
<time>2026-05-08T04:21:41Z</time></trkpt>
<trkpt lat="39.787869" lon="-8.222707">
<ele>280</ele>
<time>2026-05-08T04:21:58Z</time></trkpt>
<trkpt lat="39.78806" lon="-8.222814">
<ele>281</ele>
<time>2026-05-08T04:22:02Z</time></trkpt>
<trkpt lat="39.788508" lon="-8.222901">
<ele>279</ele>
<time>2026-05-08T04:22:11Z</time></trkpt>
<trkpt lat="39.788993" lon="-8.223221">
<ele>284</ele>
<time>2026-05-08T04:22:22Z</time></trkpt>
<trkpt lat="39.78917" lon="-8.223242">
<ele>284</ele>
<time>2026-05-08T04:22:25Z</time></trkpt>
<trkpt lat="39.789308" lon="-8.223161">
<ele>282</ele>
<time>2026-05-08T04:22:28Z</time></trkpt>
<trkpt lat="39.789592" lon="-8.222792">
<ele>274</ele>
<time>2026-05-08T04:22:36Z</time></trkpt>
<trkpt lat="39.789804" lon="-8.222729">
<ele>273</ele>
<time>2026-05-08T04:22:41Z</time></trkpt>
<trkpt lat="39.79003" lon="-8.222774">
<ele>275</ele>
<time>2026-05-08T04:22:45Z</time></trkpt>
<trkpt lat="39.791409" lon="-8.223451">
<ele>287</ele>
<time>2026-05-08T04:23:15Z</time></trkpt>
<trkpt lat="39.791711" lon="-8.223526">
<ele>289</ele>
<time>2026-05-08T04:23:21Z</time></trkpt>
<trkpt lat="39.793063" lon="-8.223567">
<ele>298</ele>
<time>2026-05-08T04:23:48Z</time></trkpt>
<trkpt lat="39.793262" lon="-8.223521">
<ele>299</ele>
<time>2026-05-08T04:23:52Z</time></trkpt>
<trkpt lat="39.793394" lon="-8.223425">
<ele>298</ele>
<time>2026-05-08T04:23:55Z</time></trkpt>
<trkpt lat="39.794229" lon="-8.222607">
<ele>310</ele>
<time>2026-05-08T04:24:16Z</time></trkpt>
<trkpt lat="39.794727" lon="-8.222329">
<ele>312</ele>
<time>2026-05-08T04:24:27Z</time></trkpt>
<trkpt lat="39.794852" lon="-8.222187">
<ele>314</ele>
<time>2026-05-08T04:24:30Z</time></trkpt>
<trkpt lat="39.794894" lon="-8.221976">
<ele>315</ele>
<time>2026-05-08T04:24:34Z</time></trkpt>
<trkpt lat="39.794865" lon="-8.221808">
<ele>315</ele>
<time>2026-05-08T04:24:36Z</time></trkpt>
<trkpt lat="39.794566" lon="-8.221227">
<ele>309</ele>
<time>2026-05-08T04:24:47Z</time></trkpt>
<trkpt lat="39.794537" lon="-8.221084">
<ele>309</ele>
<time>2026-05-08T04:24:49Z</time></trkpt>
<trkpt lat="39.794556" lon="-8.220928">
<ele>309</ele>
<time>2026-05-08T04:24:52Z</time></trkpt>
<trkpt lat="39.79462" lon="-8.220782">
<ele>309</ele>
<time>2026-05-08T04:24:54Z</time></trkpt>
<trkpt lat="39.794742" lon="-8.220686">
<ele>311</ele>
<time>2026-05-08T04:24:57Z</time></trkpt>
<trkpt lat="39.794988" lon="-8.220586">
<ele>313</ele>
<time>2026-05-08T04:25:02Z</time></trkpt>
<trkpt lat="39.795567" lon="-8.220481">
<ele>319</ele>
<time>2026-05-08T04:25:14Z</time></trkpt>
<trkpt lat="39.796198" lon="-8.220487">
<ele>326</ele>
<time>2026-05-08T04:25:27Z</time></trkpt>
<trkpt lat="39.796354" lon="-8.220407">
<ele>326</ele>
<time>2026-05-08T04:25:30Z</time></trkpt>
<trkpt lat="39.796441" lon="-8.220277">
<ele>326</ele>
<time>2026-05-08T04:25:33Z</time></trkpt>
<trkpt lat="39.796479" lon="-8.220064">
<ele>323</ele>
<time>2026-05-08T04:25:36Z</time></trkpt>
<trkpt lat="39.796488" lon="-8.219542">
<ele>325</ele>
<time>2026-05-08T04:25:44Z</time></trkpt>
<trkpt lat="39.796652" lon="-8.218653">
<ele>330</ele>
<time>2026-05-08T04:25:58Z</time></trkpt>
<trkpt lat="39.79651" lon="-8.218022">
<ele>330</ele>
<time>2026-05-08T04:26:08Z</time></trkpt>
<trkpt lat="39.796496" lon="-8.21769">
<ele>330</ele>
<time>2026-05-08T04:26:13Z</time></trkpt>
<trkpt lat="39.796685" lon="-8.215935">
<ele>328</ele>
<time>2026-05-08T04:26:41Z</time></trkpt>
<trkpt lat="39.79691" lon="-8.215421">
<ele>327</ele>
<time>2026-05-08T04:26:50Z</time></trkpt>
<trkpt lat="39.79739" lon="-8.214624">
<ele>327</ele>
<time>2026-05-08T04:27:05Z</time></trkpt>
<trkpt lat="39.797496" lon="-8.21413">
<ele>328</ele>
<time>2026-05-08T04:27:13Z</time></trkpt>
<trkpt lat="39.797961" lon="-8.213041">
<ele>339</ele>
<time>2026-05-08T04:27:32Z</time></trkpt>
<trkpt lat="39.798079" lon="-8.212513">
<ele>341</ele>
<time>2026-05-08T04:27:41Z</time></trkpt>
<trkpt lat="39.798202" lon="-8.212136">
<ele>343</ele>
<time>2026-05-08T04:27:47Z</time></trkpt>
<trkpt lat="39.79857" lon="-8.211708">
<ele>345</ele>
<time>2026-05-08T04:27:57Z</time></trkpt>
<trkpt lat="39.798947" lon="-8.21129">
<ele>345</ele>
<time>2026-05-08T04:28:07Z</time></trkpt>
<trkpt lat="39.799002" lon="-8.211229">
<ele>344</ele>
<time>2026-05-08T04:28:08Z</time></trkpt>
<trkpt lat="39.799379" lon="-8.210715">
<ele>343</ele>
<time>2026-05-08T04:28:19Z</time></trkpt>
<trkpt lat="39.79951" lon="-8.210064">
<ele>344</ele>
<time>2026-05-08T04:28:30Z</time></trkpt>
<trkpt lat="39.799702" lon="-8.208389">
<ele>344</ele>
<time>2026-05-08T04:28:56Z</time></trkpt>
<trkpt lat="39.799783" lon="-8.208095">
<ele>345</ele>
<time>2026-05-08T04:29:01Z</time></trkpt>
<trkpt lat="39.799826" lon="-8.207999">
<ele>346</ele>
<time>2026-05-08T04:29:02Z</time></trkpt>
<trkpt lat="39.800533" lon="-8.206416">
<ele>351</ele>
<time>2026-05-08T04:29:31Z</time></trkpt>
<trkpt lat="39.800605" lon="-8.206252">
<ele>351</ele>
<time>2026-05-08T04:29:33Z</time></trkpt>
<trkpt lat="39.800682" lon="-8.206074">
<ele>352</ele>
<time>2026-05-08T04:29:37Z</time></trkpt>
<trkpt lat="39.801099" lon="-8.205164">
<ele>357</ele>
<time>2026-05-08T04:29:53Z</time></trkpt>
<trkpt lat="39.801215" lon="-8.205046">
<ele>357</ele>
<time>2026-05-08T04:29:56Z</time></trkpt>
<trkpt lat="39.801742" lon="-8.204552">
<ele>357</ele>
<time>2026-05-08T04:30:09Z</time></trkpt>
<trkpt lat="39.802356" lon="-8.20393">
<ele>354</ele>
<time>2026-05-08T04:30:24Z</time></trkpt>
<trkpt lat="39.802466" lon="-8.203688">
<ele>353</ele>
<time>2026-05-08T04:30:29Z</time></trkpt>
<trkpt lat="39.802941" lon="-8.202328">
<ele>354</ele>
<time>2026-05-08T04:30:52Z</time></trkpt>
<trkpt lat="39.803057" lon="-8.202003">
<ele>356</ele>
<time>2026-05-08T04:30:57Z</time></trkpt>
<trkpt lat="39.803152" lon="-8.201775">
<ele>357</ele>
<time>2026-05-08T04:31:01Z</time></trkpt>
<trkpt lat="39.803187" lon="-8.201701">
<ele>357</ele>
<time>2026-05-08T04:31:03Z</time></trkpt>
<trkpt lat="39.803379" lon="-8.201523">
<ele>358</ele>
<time>2026-05-08T04:31:07Z</time></trkpt>
<trkpt lat="39.805181" lon="-8.200524">
<ele>363</ele>
<time>2026-05-08T04:31:47Z</time></trkpt>
<trkpt lat="39.805332" lon="-8.200398">
<ele>363</ele>
<time>2026-05-08T04:31:50Z</time></trkpt>
<trkpt lat="39.805446" lon="-8.200236">
<ele>363</ele>
<time>2026-05-08T04:31:54Z</time></trkpt>
<trkpt lat="39.80581" lon="-8.1993767">
<ele>365</ele>
<time>2026-05-08T04:32:09Z</time></trkpt>
<trkpt lat="39.805923" lon="-8.19911">
<ele>365</ele>
<time>2026-05-08T04:32:13Z</time></trkpt>
<trkpt lat="39.806049" lon="-8.198823">
<ele>366</ele>
<time>2026-05-08T04:32:18Z</time></trkpt>
<trkpt lat="39.806431" lon="-8.197933">
<ele>369</ele>
<time>2026-05-08T04:32:34Z</time></trkpt>
<trkpt lat="39.807193" lon="-8.196097">
<ele>371</ele>
<time>2026-05-08T04:33:06Z</time></trkpt>
<trkpt lat="39.807256" lon="-8.196007">
<ele>371</ele>
<time>2026-05-08T04:33:08Z</time></trkpt>
<trkpt lat="39.807462" lon="-8.195794">
<ele>372</ele>
<time>2026-05-08T04:33:13Z</time></trkpt>
<trkpt lat="39.807803" lon="-8.195473">
<ele>373</ele>
<time>2026-05-08T04:33:22Z</time></trkpt>
<trkpt lat="39.810375" lon="-8.193301">
<ele>383</ele>
<time>2026-05-08T04:34:23Z</time></trkpt>
<trkpt lat="39.810362" lon="-8.193221">
<ele>383</ele>
<time>2026-05-08T04:34:25Z</time></trkpt>
<trkpt lat="39.81039" lon="-8.193157">
<ele>383</ele>
<time>2026-05-08T04:34:26Z</time></trkpt>
<trkpt lat="39.810414" lon="-8.193137">
<ele>383</ele>
<time>2026-05-08T04:34:26Z</time></trkpt>
<trkpt lat="39.810474" lon="-8.193135">
<ele>383</ele>
<time>2026-05-08T04:34:27Z</time></trkpt>
<trkpt lat="39.810521" lon="-8.193184">
<ele>384</ele>
<time>2026-05-08T04:34:29Z</time></trkpt>
<trkpt lat="39.810901" lon="-8.192853">
<ele>385</ele>
<time>2026-05-08T04:34:38Z</time></trkpt>
<trkpt lat="39.810901" lon="-8.192853">
<ele>385</ele>
<time>2026-05-08T04:34:38Z</time></trkpt>
<trkpt lat="39.811548" lon="-8.192309">
<ele>388</ele>
<time>2026-05-08T04:34:53Z</time></trkpt>
<trkpt lat="39.81216" lon="-8.191893">
<ele>390</ele>
<time>2026-05-08T04:35:07Z</time></trkpt>
<trkpt lat="39.813472" lon="-8.191239">
<ele>397</ele>
<time>2026-05-08T04:35:35Z</time></trkpt>
<trkpt lat="39.81381" lon="-8.19103">
<ele>397</ele>
<time>2026-05-08T04:35:43Z</time></trkpt>
<trkpt lat="39.814328" lon="-8.190617">
<ele>397</ele>
<time>2026-05-08T04:35:55Z</time></trkpt>
<trkpt lat="39.814472" lon="-8.190416">
<ele>398</ele>
<time>2026-05-08T04:35:59Z</time></trkpt>
<trkpt lat="39.814611" lon="-8.19015">
<ele>400</ele>
<time>2026-05-08T04:36:04Z</time></trkpt>
<trkpt lat="39.814862" lon="-8.189523">
<ele>402</ele>
<time>2026-05-08T04:36:15Z</time></trkpt>
<trkpt lat="39.814946" lon="-8.189193">
<ele>402</ele>
<time>2026-05-08T04:36:20Z</time></trkpt>
<trkpt lat="39.815117" lon="-8.188313">
<ele>401</ele>
<time>2026-05-08T04:36:34Z</time></trkpt>
<trkpt lat="39.815193" lon="-8.188139">
<ele>401</ele>
<time>2026-05-08T04:36:37Z</time></trkpt>
<trkpt lat="39.815276" lon="-8.187998">
<ele>401</ele>
<time>2026-05-08T04:36:40Z</time></trkpt>
<trkpt lat="39.815777" lon="-8.187595">
<ele>402</ele>
<time>2026-05-08T04:36:52Z</time></trkpt>
<trkpt lat="39.81669" lon="-8.187099">
<ele>402</ele>
<time>2026-05-08T04:37:12Z</time></trkpt>
<trkpt lat="39.816921" lon="-8.186898">
<ele>403</ele>
<time>2026-05-08T04:37:17Z</time></trkpt>
<trkpt lat="39.817104" lon="-8.186681">
<ele>404</ele>
<time>2026-05-08T04:37:22Z</time></trkpt>
<trkpt lat="39.817188" lon="-8.186387">
<ele>405</ele>
<time>2026-05-08T04:37:27Z</time></trkpt>
<trkpt lat="39.817232" lon="-8.186283">
<ele>405</ele>
<time>2026-05-08T04:37:29Z</time></trkpt>
<trkpt lat="39.817301" lon="-8.186249">
<ele>406</ele>
<time>2026-05-08T04:37:30Z</time></trkpt>
<trkpt lat="39.817338" lon="-8.186254">
<ele>406</ele>
<time>2026-05-08T04:37:31Z</time></trkpt>
<trkpt lat="39.817399" lon="-8.186307">
<ele>407</ele>
<time>2026-05-08T04:37:33Z</time></trkpt>
<trkpt lat="39.81742" lon="-8.18636">
<ele>407</ele>
<time>2026-05-08T04:37:34Z</time></trkpt>
<trkpt lat="39.817587" lon="-8.186514">
<ele>407</ele>
<time>2026-05-08T04:37:38Z</time></trkpt>
<trkpt lat="39.81768" lon="-8.18653">
<ele>407</ele>
<time>2026-05-08T04:37:40Z</time></trkpt>
<trkpt lat="39.8187418" lon="-8.1864776">
<ele>409</ele>
<time>2026-05-08T04:38:01Z</time></trkpt>
<trkpt lat="39.81979" lon="-8.186418">
<ele>406</ele>
<time>2026-05-08T04:38:22Z</time></trkpt>
<trkpt lat="39.820018" lon="-8.186449">
<ele>406</ele>
<time>2026-05-08T04:38:26Z</time></trkpt>
<trkpt lat="39.820239" lon="-8.186518">
<ele>404</ele>
<time>2026-05-08T04:38:31Z</time></trkpt>
<trkpt lat="39.820676" lon="-8.186773">
<ele>399</ele>
<time>2026-05-08T04:38:41Z</time></trkpt>
<trkpt lat="39.820887" lon="-8.186968">
<ele>397</ele>
<time>2026-05-08T04:38:46Z</time></trkpt>
<trkpt lat="39.821077" lon="-8.187204">
<ele>393</ele>
<time>2026-05-08T04:38:51Z</time></trkpt>
<trkpt lat="39.821219" lon="-8.18744">
<ele>391</ele>
<time>2026-05-08T04:38:56Z</time></trkpt>
<trkpt lat="39.821839" lon="-8.188958">
<ele>377</ele>
<time>2026-05-08T04:39:22Z</time></trkpt>
<trkpt lat="39.821994" lon="-8.18924">
<ele>376</ele>
<time>2026-05-08T04:39:27Z</time></trkpt>
<trkpt lat="39.82208" lon="-8.189356">
<ele>376</ele>
<time>2026-05-08T04:39:30Z</time></trkpt>
<trkpt lat="39.822276" lon="-8.189573">
<ele>376</ele>
<time>2026-05-08T04:39:35Z</time></trkpt>
<trkpt lat="39.822463" lon="-8.189717">
<ele>376</ele>
<time>2026-05-08T04:39:39Z</time></trkpt>
<trkpt lat="39.822628" lon="-8.189801">
<ele>375</ele>
<time>2026-05-08T04:39:43Z</time></trkpt>
<trkpt lat="39.822811" lon="-8.189854">
<ele>374</ele>
<time>2026-05-08T04:39:47Z</time></trkpt>
<trkpt lat="39.823182" lon="-8.18987">
<ele>373</ele>
<time>2026-05-08T04:39:54Z</time></trkpt>
<trkpt lat="39.823475" lon="-8.189795">
<ele>372</ele>
<time>2026-05-08T04:40:00Z</time></trkpt>
<trkpt lat="39.823598" lon="-8.189723">
<ele>373</ele>
<time>2026-05-08T04:40:03Z</time></trkpt>
<trkpt lat="39.824678" lon="-8.188894">
<ele>371</ele>
<time>2026-05-08T04:40:28Z</time></trkpt>
<trkpt lat="39.824843" lon="-8.188819">
<ele>371</ele>
<time>2026-05-08T04:40:31Z</time></trkpt>
<trkpt lat="39.825038" lon="-8.188781">
<ele>370</ele>
<time>2026-05-08T04:40:35Z</time></trkpt>
<trkpt lat="39.82524" lon="-8.188789">
<ele>368</ele>
<time>2026-05-08T04:40:39Z</time></trkpt>
<trkpt lat="39.825364" lon="-8.188824">
<ele>367</ele>
<time>2026-05-08T04:40:42Z</time></trkpt>
<trkpt lat="39.825461" lon="-8.188875">
<ele>366</ele>
<time>2026-05-08T04:40:44Z</time></trkpt>
<trkpt lat="39.8257" lon="-8.189098">
<ele>363</ele>
<time>2026-05-08T04:40:50Z</time></trkpt>
<trkpt lat="39.826596" lon="-8.190447">
<ele>360</ele>
<time>2026-05-08T04:41:17Z</time></trkpt>
<trkpt lat="39.826752" lon="-8.190627">
<ele>357</ele>
<time>2026-05-08T04:41:22Z</time></trkpt>
<trkpt lat="39.826925" lon="-8.190739">
<ele>355</ele>
<time>2026-05-08T04:41:26Z</time></trkpt>
<trkpt lat="39.827106" lon="-8.19079">
<ele>353</ele>
<time>2026-05-08T04:41:29Z</time></trkpt>
<trkpt lat="39.827271" lon="-8.190782">
<ele>352</ele>
<time>2026-05-08T04:41:33Z</time></trkpt>
<trkpt lat="39.827461" lon="-8.190723">
<ele>351</ele>
<time>2026-05-08T04:41:36Z</time></trkpt>
<trkpt lat="39.827676" lon="-8.190614">
<ele>346</ele>
<time>2026-05-08T04:41:41Z</time></trkpt>
<trkpt lat="39.827814" lon="-8.190426">
<ele>344</ele>
<time>2026-05-08T04:41:45Z</time></trkpt>
<trkpt lat="39.828196" lon="-8.18935">
<ele>343</ele>
<time>2026-05-08T04:42:03Z</time></trkpt>
<trkpt lat="39.828386" lon="-8.189001">
<ele>340</ele>
<time>2026-05-08T04:42:10Z</time></trkpt>
<trkpt lat="39.828629" lon="-8.18875">
<ele>338</ele>
<time>2026-05-08T04:42:16Z</time></trkpt>
<trkpt lat="39.828862" lon="-8.188607">
<ele>335</ele>
<time>2026-05-08T04:42:21Z</time></trkpt>
<trkpt lat="39.829117" lon="-8.188575">
<ele>331</ele>
<time>2026-05-08T04:42:26Z</time></trkpt>
<trkpt lat="39.829308" lon="-8.188596">
<ele>332</ele>
<time>2026-05-08T04:42:30Z</time></trkpt>
<trkpt lat="39.8304" lon="-8.188911">
<ele>341</ele>
<time>2026-05-08T04:42:53Z</time></trkpt>
<trkpt lat="39.8304" lon="-8.188911">
<ele>341</ele>
<time>2026-05-08T04:42:53Z</time></trkpt>
<trkpt lat="39.833106" lon="-8.189689">
<ele>361</ele>
<time>2026-05-08T04:43:48Z</time></trkpt>
<trkpt lat="39.833395" lon="-8.189764">
<ele>364</ele>
<time>2026-05-08T04:43:54Z</time></trkpt>
<trkpt lat="39.833687" lon="-8.189894">
<ele>366</ele>
<time>2026-05-08T04:44:00Z</time></trkpt>
<trkpt lat="39.833832" lon="-8.189991">
<ele>366</ele>
<time>2026-05-08T04:44:04Z</time></trkpt>
<trkpt lat="39.833959" lon="-8.190112">
<ele>368</ele>
<time>2026-05-08T04:44:07Z</time></trkpt>
<trkpt lat="39.834102" lon="-8.190313">
<ele>371</ele>
<time>2026-05-08T04:44:11Z</time></trkpt>
<trkpt lat="39.834302" lon="-8.190858">
<ele>374</ele>
<time>2026-05-08T04:44:20Z</time></trkpt>
<trkpt lat="39.834355" lon="-8.192785">
<ele>375</ele>
<time>2026-05-08T04:44:50Z</time></trkpt>
<trkpt lat="39.83445" lon="-8.194458">
<ele>375</ele>
<time>2026-05-08T04:45:16Z</time></trkpt>
<trkpt lat="39.834493" lon="-8.194702">
<ele>376</ele>
<time>2026-05-08T04:45:20Z</time></trkpt>
<trkpt lat="39.834557" lon="-8.194916">
<ele>376</ele>
<time>2026-05-08T04:45:23Z</time></trkpt>
<trkpt lat="39.834816" lon="-8.195517">
<ele>372</ele>
<time>2026-05-08T04:45:34Z</time></trkpt>
<trkpt lat="39.834957" lon="-8.195763">
<ele>371</ele>
<time>2026-05-08T04:45:38Z</time></trkpt>
<trkpt lat="39.835388" lon="-8.196516">
<ele>370</ele>
<time>2026-05-08T04:45:53Z</time></trkpt>
<trkpt lat="39.835637" lon="-8.197288">
<ele>368</ele>
<time>2026-05-08T04:46:06Z</time></trkpt>
<trkpt lat="39.835704" lon="-8.197495">
<ele>367</ele>
<time>2026-05-08T04:46:09Z</time></trkpt>
<trkpt lat="39.835915" lon="-8.198588">
<ele>363</ele>
<time>2026-05-08T04:46:27Z</time></trkpt>
<trkpt lat="39.835987" lon="-8.198966">
<ele>362</ele>
<time>2026-05-08T04:46:33Z</time></trkpt>
<trkpt lat="39.836199" lon="-8.199399">
<ele>358</ele>
<time>2026-05-08T04:46:40Z</time></trkpt>
<trkpt lat="39.836408" lon="-8.199629">
<ele>355</ele>
<time>2026-05-08T04:46:46Z</time></trkpt>
<trkpt lat="39.837142" lon="-8.199755">
<ele>348</ele>
<time>2026-05-08T04:47:01Z</time></trkpt>
<trkpt lat="39.837387" lon="-8.199917">
<ele>346</ele>
<time>2026-05-08T04:47:06Z</time></trkpt>
<trkpt lat="39.837665" lon="-8.200542">
<ele>343</ele>
<time>2026-05-08T04:47:17Z</time></trkpt>
<trkpt lat="39.838466" lon="-8.201671">
<ele>334</ele>
<time>2026-05-08T04:47:41Z</time></trkpt>
<trkpt lat="39.838736" lon="-8.201978">
<ele>332</ele>
<time>2026-05-08T04:47:48Z</time></trkpt>
<trkpt lat="39.83885" lon="-8.202107">
<ele>331</ele>
<time>2026-05-08T04:47:51Z</time></trkpt>
<trkpt lat="39.839102" lon="-8.202251">
<ele>330</ele>
<time>2026-05-08T04:47:57Z</time></trkpt>
<trkpt lat="39.839722" lon="-8.202363">
<ele>330</ele>
<time>2026-05-08T04:48:09Z</time></trkpt>
<trkpt lat="39.840227" lon="-8.202399">
<ele>330</ele>
<time>2026-05-08T04:48:19Z</time></trkpt>
<trkpt lat="39.840496" lon="-8.202485">
<ele>330</ele>
<time>2026-05-08T04:48:25Z</time></trkpt>
<trkpt lat="39.840774" lon="-8.202716">
<ele>330</ele>
<time>2026-05-08T04:48:32Z</time></trkpt>
<trkpt lat="39.840887" lon="-8.202883">
<ele>330</ele>
<time>2026-05-08T04:48:35Z</time></trkpt>
<trkpt lat="39.840908" lon="-8.203051">
<ele>330</ele>
<time>2026-05-08T04:48:38Z</time></trkpt>
<trkpt lat="39.840897" lon="-8.203129">
<ele>330</ele>
<time>2026-05-08T04:48:39Z</time></trkpt>
<trkpt lat="39.840789" lon="-8.20336">
<ele>331</ele>
<time>2026-05-08T04:48:43Z</time></trkpt>
<trkpt lat="39.840702" lon="-8.203458">
<ele>330</ele>
<time>2026-05-08T04:48:45Z</time></trkpt>
<trkpt lat="39.840526" lon="-8.203656">
<ele>329</ele>
<time>2026-05-08T04:48:50Z</time></trkpt>
<trkpt lat="39.840382" lon="-8.203927">
<ele>328</ele>
<time>2026-05-08T04:48:55Z</time></trkpt>
<trkpt lat="39.840328" lon="-8.204498">
<ele>327</ele>
<time>2026-05-08T04:49:04Z</time></trkpt>
<trkpt lat="39.84038" lon="-8.204716">
<ele>326</ele>
<time>2026-05-08T04:49:07Z</time></trkpt>
<trkpt lat="39.841107" lon="-8.20661">
<ele>323</ele>
<time>2026-05-08T04:49:40Z</time></trkpt>
<trkpt lat="39.841004" lon="-8.207607">
<ele>322</ele>
<time>2026-05-08T04:49:55Z</time></trkpt>
<trkpt lat="39.840993" lon="-8.207708">
<ele>322</ele>
<time>2026-05-08T04:49:57Z</time></trkpt>
<trkpt lat="39.841092" lon="-8.208154">
<ele>321</ele>
<time>2026-05-08T04:50:04Z</time></trkpt>
<trkpt lat="39.841422" lon="-8.210439">
<ele>316</ele>
<time>2026-05-08T04:50:40Z</time></trkpt>
<trkpt lat="39.841411" lon="-8.210918">
<ele>317</ele>
<time>2026-05-08T04:50:47Z</time></trkpt>
<trkpt lat="39.841232" lon="-8.212687">
<ele>310</ele>
<time>2026-05-08T04:51:15Z</time></trkpt>
<trkpt lat="39.8413" lon="-8.213268">
<ele>309</ele>
<time>2026-05-08T04:51:24Z</time></trkpt>
<trkpt lat="39.841972" lon="-8.215031">
<ele>307</ele>
<time>2026-05-08T04:51:54Z</time></trkpt>
<trkpt lat="39.842299" lon="-8.215655">
<ele>303</ele>
<time>2026-05-08T04:52:06Z</time></trkpt>
<trkpt lat="39.842744" lon="-8.216088">
<ele>303</ele>
<time>2026-05-08T04:52:17Z</time></trkpt>
<trkpt lat="39.843294" lon="-8.216442">
<ele>306</ele>
<time>2026-05-08T04:52:29Z</time></trkpt>
<trkpt lat="39.84409" lon="-8.216954">
<ele>296</ele>
<time>2026-05-08T04:52:47Z</time></trkpt>
<trkpt lat="39.844358" lon="-8.217158">
<ele>294</ele>
<time>2026-05-08T04:52:53Z</time></trkpt>
<trkpt lat="39.844571" lon="-8.217403">
<ele>294</ele>
<time>2026-05-08T04:52:59Z</time></trkpt>
<trkpt lat="39.846034" lon="-8.220153">
<ele>295</ele>
<time>2026-05-08T04:53:50Z</time></trkpt>
<trkpt lat="39.846034" lon="-8.220153">
<ele>295</ele>
<time>2026-05-08T04:53:50Z</time></trkpt>
<trkpt lat="39.846329" lon="-8.220706">
<ele>291</ele>
<time>2026-05-08T04:54:01Z</time></trkpt>
<trkpt lat="39.846481" lon="-8.22127">
<ele>287</ele>
<time>2026-05-08T04:54:10Z</time></trkpt>
<trkpt lat="39.846409" lon="-8.221758">
<ele>283</ele>
<time>2026-05-08T04:54:17Z</time></trkpt>
<trkpt lat="39.846144" lon="-8.222833">
<ele>273</ele>
<time>2026-05-08T04:54:35Z</time></trkpt>
<trkpt lat="39.846085" lon="-8.223335">
<ele>267</ele>
<time>2026-05-08T04:54:43Z</time></trkpt>
<trkpt lat="39.846172" lon="-8.223759">
<ele>265</ele>
<time>2026-05-08T04:54:49Z</time></trkpt>
<trkpt lat="39.846365" lon="-8.224064">
<ele>263</ele>
<time>2026-05-08T04:54:56Z</time></trkpt>
<trkpt lat="39.846557" lon="-8.22425">
<ele>262</ele>
<time>2026-05-08T04:55:00Z</time></trkpt>
<trkpt lat="39.846769" lon="-8.224352">
<ele>261</ele>
<time>2026-05-08T04:55:05Z</time></trkpt>
<trkpt lat="39.847216" lon="-8.224362">
<ele>255</ele>
<time>2026-05-08T04:55:14Z</time></trkpt>
<trkpt lat="39.847764" lon="-8.224124">
<ele>250</ele>
<time>2026-05-08T04:55:25Z</time></trkpt>
<trkpt lat="39.848556" lon="-8.223781">
<ele>244</ele>
<time>2026-05-08T04:55:42Z</time></trkpt>
<trkpt lat="39.849625" lon="-8.223318">
<ele>242</ele>
<time>2026-05-08T04:56:05Z</time></trkpt>
<trkpt lat="39.850109" lon="-8.223256">
<ele>238</ele>
<time>2026-05-08T04:56:14Z</time></trkpt>
<trkpt lat="39.850342" lon="-8.223304">
<ele>234</ele>
<time>2026-05-08T04:56:19Z</time></trkpt>
<trkpt lat="39.850734" lon="-8.223495">
<ele>228</ele>
<time>2026-05-08T04:56:28Z</time></trkpt>
<trkpt lat="39.851037" lon="-8.223804">
<ele>224</ele>
<time>2026-05-08T04:56:35Z</time></trkpt>
<trkpt lat="39.851248" lon="-8.224142">
<ele>221</ele>
<time>2026-05-08T04:56:42Z</time></trkpt>
<trkpt lat="39.8514" lon="-8.224544">
<ele>216</ele>
<time>2026-05-08T04:56:49Z</time></trkpt>
<trkpt lat="39.851453" lon="-8.22496">
<ele>214</ele>
<time>2026-05-08T04:56:55Z</time></trkpt>
<trkpt lat="39.851394" lon="-8.225674">
<ele>208</ele>
<time>2026-05-08T04:57:06Z</time></trkpt>
<trkpt lat="39.850752" lon="-8.227255">
<ele>203</ele>
<time>2026-05-08T04:57:34Z</time></trkpt>
<trkpt lat="39.850744" lon="-8.227761">
<ele>198</ele>
<time>2026-05-08T04:57:42Z</time></trkpt>
<trkpt lat="39.850915" lon="-8.228188">
<ele>190</ele>
<time>2026-05-08T04:57:49Z</time></trkpt>
<trkpt lat="39.851237" lon="-8.228449">
<ele>186</ele>
<time>2026-05-08T04:57:57Z</time></trkpt>
<trkpt lat="39.851366" lon="-8.228488">
<ele>185</ele>
<time>2026-05-08T04:57:59Z</time></trkpt>
<trkpt lat="39.851397" lon="-8.228498">
<ele>184</ele>
<time>2026-05-08T04:58:00Z</time></trkpt>
<trkpt lat="39.851766" lon="-8.228447">
<ele>183</ele>
<time>2026-05-08T04:58:07Z</time></trkpt>
<trkpt lat="39.85342" lon="-8.227354">
<ele>171</ele>
<time>2026-05-08T04:58:45Z</time></trkpt>
<trkpt lat="39.853753" lon="-8.227085">
<ele>170</ele>
<time>2026-05-08T04:58:52Z</time></trkpt>
<trkpt lat="39.854036" lon="-8.226965">
<ele>169</ele>
<time>2026-05-08T04:58:58Z</time></trkpt>
<trkpt lat="39.854241" lon="-8.226927">
<ele>167</ele>
<time>2026-05-08T04:59:03Z</time></trkpt>
<trkpt lat="39.854899" lon="-8.227022">
<ele>152</ele>
<time>2026-05-08T04:59:16Z</time></trkpt>
<trkpt lat="39.855033" lon="-8.226997">
<ele>150</ele>
<time>2026-05-08T04:59:18Z</time></trkpt>
<trkpt lat="39.855105" lon="-8.226964">
<ele>149</ele>
<time>2026-05-08T04:59:20Z</time></trkpt>
<trkpt lat="39.855223" lon="-8.22686">
<ele>149</ele>
<time>2026-05-08T04:59:23Z</time></trkpt>
<trkpt lat="39.855337" lon="-8.226629">
<ele>149</ele>
<time>2026-05-08T04:59:27Z</time></trkpt>
<trkpt lat="39.855357" lon="-8.226522">
<ele>149</ele>
<time>2026-05-08T04:59:29Z</time></trkpt>
<trkpt lat="39.855359" lon="-8.226418">
<ele>149</ele>
<time>2026-05-08T04:59:30Z</time></trkpt>
<trkpt lat="39.855296" lon="-8.225916">
<ele>154</ele>
<time>2026-05-08T04:59:38Z</time></trkpt>
<trkpt lat="39.855298" lon="-8.225834">
<ele>154</ele>
<time>2026-05-08T04:59:39Z</time></trkpt>
<trkpt lat="39.855328" lon="-8.22571">
<ele>151</ele>
<time>2026-05-08T04:59:41Z</time></trkpt>
<trkpt lat="39.855364" lon="-8.225655">
<ele>149</ele>
<time>2026-05-08T04:59:43Z</time></trkpt>
<trkpt lat="39.85555" lon="-8.2255254">
<ele>142</ele>
<time>2026-05-08T04:59:47Z</time></trkpt>
<trkpt lat="39.855981" lon="-8.225225">
<ele>139</ele>
<time>2026-05-08T04:59:57Z</time></trkpt>
<trkpt lat="39.856058" lon="-8.225198">
<ele>142</ele>
<time>2026-05-08T04:59:58Z</time></trkpt>
<trkpt lat="39.856208" lon="-8.225232">
<ele>148</ele>
<time>2026-05-08T05:00:01Z</time></trkpt>
<trkpt lat="39.856256" lon="-8.225285">
<ele>149</ele>
<time>2026-05-08T05:00:03Z</time></trkpt>
<trkpt lat="39.856328" lon="-8.225417">
<ele>151</ele>
<time>2026-05-08T05:00:05Z</time></trkpt>
<trkpt lat="39.856413" lon="-8.225816">
<ele>150</ele>
<time>2026-05-08T05:00:11Z</time></trkpt>
<trkpt lat="39.856451" lon="-8.225913">
<ele>150</ele>
<time>2026-05-08T05:00:13Z</time></trkpt>
<trkpt lat="39.856805" lon="-8.226445">
<ele>151</ele>
<time>2026-05-08T05:00:24Z</time></trkpt>
<trkpt lat="39.856866" lon="-8.226621">
<ele>150</ele>
<time>2026-05-08T05:00:27Z</time></trkpt>
<trkpt lat="39.856918" lon="-8.227442">
<ele>155</ele>
<time>2026-05-08T05:00:40Z</time></trkpt>
<trkpt lat="39.856913" lon="-8.227566">
<ele>156</ele>
<time>2026-05-08T05:00:41Z</time></trkpt>
<trkpt lat="39.8569" lon="-8.227656">
<ele>156</ele>
<time>2026-05-08T05:00:43Z</time></trkpt>
<trkpt lat="39.85675" lon="-8.22813">
<ele>154</ele>
<time>2026-05-08T05:00:51Z</time></trkpt>
<trkpt lat="39.856678" lon="-8.2283">
<ele>153</ele>
<time>2026-05-08T05:00:54Z</time></trkpt>
<trkpt lat="39.856543" lon="-8.228483">
<ele>155</ele>
<time>2026-05-08T05:00:58Z</time></trkpt>
<trkpt lat="39.856308" lon="-8.228751">
<ele>158</ele>
<time>2026-05-08T05:01:04Z</time></trkpt>
<trkpt lat="39.856308" lon="-8.228751">
<ele>158</ele>
<time>2026-05-08T05:01:04Z</time></trkpt>
<trkpt lat="39.85613" lon="-8.228917">
<ele>158</ele>
<time>2026-05-08T05:01:08Z</time></trkpt>
<trkpt lat="39.855676" lon="-8.229251">
<ele>161</ele>
<time>2026-05-08T05:01:19Z</time></trkpt>
<trkpt lat="39.855554" lon="-8.229323">
<ele>162</ele>
<time>2026-05-08T05:01:21Z</time></trkpt>
<trkpt lat="39.855375" lon="-8.229382">
<ele>163</ele>
<time>2026-05-08T05:01:25Z</time></trkpt>
<trkpt lat="39.854411" lon="-8.229514">
<ele>159</ele>
<time>2026-05-08T05:01:45Z</time></trkpt>
<trkpt lat="39.854227" lon="-8.229556">
<ele>159</ele>
<time>2026-05-08T05:01:48Z</time></trkpt>
<trkpt lat="39.85416" lon="-8.229584">
<ele>159</ele>
<time>2026-05-08T05:01:50Z</time></trkpt>
<trkpt lat="39.853872" lon="-8.229784">
<ele>160</ele>
<time>2026-05-08T05:01:56Z</time></trkpt>
<trkpt lat="39.85375" lon="-8.229896">
<ele>161</ele>
<time>2026-05-08T05:01:59Z</time></trkpt>
<trkpt lat="39.85366" lon="-8.230051">
<ele>163</ele>
<time>2026-05-08T05:02:02Z</time></trkpt>
<trkpt lat="39.853504" lon="-8.230489">
<ele>170</ele>
<time>2026-05-08T05:02:10Z</time></trkpt>
<trkpt lat="39.853438" lon="-8.23064">
<ele>172</ele>
<time>2026-05-08T05:02:12Z</time></trkpt>
<trkpt lat="39.853398" lon="-8.230693">
<ele>173</ele>
<time>2026-05-08T05:02:13Z</time></trkpt>
<trkpt lat="39.853309" lon="-8.230756">
<ele>172</ele>
<time>2026-05-08T05:02:15Z</time></trkpt>
<trkpt lat="39.852988" lon="-8.230865">
<ele>169</ele>
<time>2026-05-08T05:02:22Z</time></trkpt>
<trkpt lat="39.852479" lon="-8.231221">
<ele>170</ele>
<time>2026-05-08T05:02:34Z</time></trkpt>
<trkpt lat="39.852181" lon="-8.231512">
<ele>174</ele>
<time>2026-05-08T05:02:41Z</time></trkpt>
<trkpt lat="39.852071" lon="-8.231561">
<ele>174</ele>
<time>2026-05-08T05:02:43Z</time></trkpt>
<trkpt lat="39.851887" lon="-8.231584">
<ele>173</ele>
<time>2026-05-08T05:02:47Z</time></trkpt>
<trkpt lat="39.851761" lon="-8.231625">
<ele>173</ele>
<time>2026-05-08T05:02:50Z</time></trkpt>
<trkpt lat="39.851476" lon="-8.231786">
<ele>173</ele>
<time>2026-05-08T05:02:56Z</time></trkpt>
<trkpt lat="39.851333" lon="-8.231891">
<ele>173</ele>
<time>2026-05-08T05:02:59Z</time></trkpt>
<trkpt lat="39.850795" lon="-8.232371">
<ele>180</ele>
<time>2026-05-08T05:03:12Z</time></trkpt>
<trkpt lat="39.850719" lon="-8.23247">
<ele>181</ele>
<time>2026-05-08T05:03:15Z</time></trkpt>
<trkpt lat="39.850682" lon="-8.232542">
<ele>181</ele>
<time>2026-05-08T05:03:16Z</time></trkpt>
<trkpt lat="39.850629" lon="-8.23273">
<ele>182</ele>
<time>2026-05-08T05:03:19Z</time></trkpt>
<trkpt lat="39.850623" lon="-8.232935">
<ele>185</ele>
<time>2026-05-08T05:03:22Z</time></trkpt>
<trkpt lat="39.850636" lon="-8.233045">
<ele>187</ele>
<time>2026-05-08T05:03:24Z</time></trkpt>
<trkpt lat="39.850664" lon="-8.233122">
<ele>188</ele>
<time>2026-05-08T05:03:25Z</time></trkpt>
<trkpt lat="39.850824" lon="-8.23341">
<ele>194</ele>
<time>2026-05-08T05:03:31Z</time></trkpt>
<trkpt lat="39.850847" lon="-8.233481">
<ele>195</ele>
<time>2026-05-08T05:03:32Z</time></trkpt>
<trkpt lat="39.850856" lon="-8.233641">
<ele>196</ele>
<time>2026-05-08T05:03:34Z</time></trkpt>
<trkpt lat="39.8508" lon="-8.233801">
<ele>197</ele>
<time>2026-05-08T05:03:37Z</time></trkpt>
<trkpt lat="39.850678" lon="-8.233913">
<ele>198</ele>
<time>2026-05-08T05:03:40Z</time></trkpt>
<trkpt lat="39.850546" lon="-8.23396">
<ele>198</ele>
<time>2026-05-08T05:03:43Z</time></trkpt>
<trkpt lat="39.850419" lon="-8.233924">
<ele>198</ele>
<time>2026-05-08T05:03:45Z</time></trkpt>
<trkpt lat="39.850099" lon="-8.233709">
<ele>193</ele>
<time>2026-05-08T05:03:52Z</time></trkpt>
<trkpt lat="39.849941" lon="-8.233695">
<ele>191</ele>
<time>2026-05-08T05:03:56Z</time></trkpt>
<trkpt lat="39.849805" lon="-8.233751">
<ele>191</ele>
<time>2026-05-08T05:03:59Z</time></trkpt>
<trkpt lat="39.84958" lon="-8.233903">
<ele>192</ele>
<time>2026-05-08T05:04:04Z</time></trkpt>
<trkpt lat="39.849519" lon="-8.233962">
<ele>192</ele>
<time>2026-05-08T05:04:05Z</time></trkpt>
<trkpt lat="39.849433" lon="-8.234088">
<ele>194</ele>
<time>2026-05-08T05:04:08Z</time></trkpt>
<trkpt lat="39.849394" lon="-8.234185">
<ele>195</ele>
<time>2026-05-08T05:04:09Z</time></trkpt>
<trkpt lat="39.849258" lon="-8.234697">
<ele>202</ele>
<time>2026-05-08T05:04:18Z</time></trkpt>
<trkpt lat="39.849196" lon="-8.234808">
<ele>202</ele>
<time>2026-05-08T05:04:20Z</time></trkpt>
<trkpt lat="39.849048" lon="-8.235008">
<ele>203</ele>
<time>2026-05-08T05:04:24Z</time></trkpt>
<trkpt lat="39.848991" lon="-8.235143">
<ele>204</ele>
<time>2026-05-08T05:04:26Z</time></trkpt>
<trkpt lat="39.848984" lon="-8.235317">
<ele>205</ele>
<time>2026-05-08T05:04:29Z</time></trkpt>
<trkpt lat="39.849" lon="-8.235398">
<ele>206</ele>
<time>2026-05-08T05:04:30Z</time></trkpt>
<trkpt lat="39.84906" lon="-8.235522">
<ele>209</ele>
<time>2026-05-08T05:04:33Z</time></trkpt>
<trkpt lat="39.849169" lon="-8.235595">
<ele>213</ele>
<time>2026-05-08T05:04:35Z</time></trkpt>
<trkpt lat="39.849232" lon="-8.235603">
<ele>214</ele>
<time>2026-05-08T05:04:36Z</time></trkpt>
<trkpt lat="39.849294" lon="-8.235594">
<ele>215</ele>
<time>2026-05-08T05:04:38Z</time></trkpt>
<trkpt lat="39.849403" lon="-8.235518">
<ele>216</ele>
<time>2026-05-08T05:04:40Z</time></trkpt>
<trkpt lat="39.849444" lon="-8.235456">
<ele>216</ele>
<time>2026-05-08T05:04:41Z</time></trkpt>
<trkpt lat="39.849713" lon="-8.234761">
<ele>212</ele>
<time>2026-05-08T05:04:53Z</time></trkpt>
<trkpt lat="39.849811" lon="-8.234624">
<ele>212</ele>
<time>2026-05-08T05:04:56Z</time></trkpt>
<trkpt lat="39.849924" lon="-8.234552">
<ele>212</ele>
<time>2026-05-08T05:04:59Z</time></trkpt>
<trkpt lat="39.849987" lon="-8.234543">
<ele>213</ele>
<time>2026-05-08T05:05:00Z</time></trkpt>
<trkpt lat="39.850108" lon="-8.234587">
<ele>213</ele>
<time>2026-05-08T05:05:03Z</time></trkpt>
<trkpt lat="39.85062" lon="-8.235135">
<ele>216</ele>
<time>2026-05-08T05:05:16Z</time></trkpt>
<trkpt lat="39.850653" lon="-8.23521">
<ele>217</ele>
<time>2026-05-08T05:05:17Z</time></trkpt>
<trkpt lat="39.850755" lon="-8.235615">
<ele>224</ele>
<time>2026-05-08T05:05:24Z</time></trkpt>
<trkpt lat="39.850816" lon="-8.235698">
<ele>225</ele>
<time>2026-05-08T05:05:26Z</time></trkpt>
<trkpt lat="39.850873" lon="-8.235743">
<ele>226</ele>
<time>2026-05-08T05:05:27Z</time></trkpt>
<trkpt lat="39.851089" lon="-8.235821">
<ele>229</ele>
<time>2026-05-08T05:05:31Z</time></trkpt>
<trkpt lat="39.851212" lon="-8.235824">
<ele>230</ele>
<time>2026-05-08T05:05:34Z</time></trkpt>
<trkpt lat="39.851273" lon="-8.235805">
<ele>230</ele>
<time>2026-05-08T05:05:35Z</time></trkpt>
<trkpt lat="39.851374" lon="-8.235725">
<ele>229</ele>
<time>2026-05-08T05:05:37Z</time></trkpt>
<trkpt lat="39.851406" lon="-8.235678">
<ele>228</ele>
<time>2026-05-08T05:05:38Z</time></trkpt>
<trkpt lat="39.851524" lon="-8.235433">
<ele>224</ele>
<time>2026-05-08T05:05:43Z</time></trkpt>
<trkpt lat="39.851593" lon="-8.23533">
<ele>223</ele>
<time>2026-05-08T05:05:45Z</time></trkpt>
<trkpt lat="39.851802" lon="-8.235172">
<ele>223</ele>
<time>2026-05-08T05:05:50Z</time></trkpt>
<trkpt lat="39.851802" lon="-8.235172">
<ele>223</ele>
<time>2026-05-08T05:05:50Z</time></trkpt>
<trkpt lat="39.852082" lon="-8.234985">
<ele>225</ele>
<time>2026-05-08T05:05:56Z</time></trkpt>
<trkpt lat="39.852525" lon="-8.234696">
<ele>226</ele>
<time>2026-05-08T05:06:06Z</time></trkpt>
<trkpt lat="39.852684" lon="-8.234651">
<ele>226</ele>
<time>2026-05-08T05:06:09Z</time></trkpt>
<trkpt lat="39.852973" lon="-8.234723">
<ele>230</ele>
<time>2026-05-08T05:06:15Z</time></trkpt>
<trkpt lat="39.853057" lon="-8.234761">
<ele>231</ele>
<time>2026-05-08T05:06:17Z</time></trkpt>
<trkpt lat="39.853389" lon="-8.235049">
<ele>237</ele>
<time>2026-05-08T05:06:25Z</time></trkpt>
<trkpt lat="39.853449" lon="-8.235082">
<ele>238</ele>
<time>2026-05-08T05:06:26Z</time></trkpt>
<trkpt lat="39.85357" lon="-8.235084">
<ele>240</ele>
<time>2026-05-08T05:06:29Z</time></trkpt>
<trkpt lat="39.853644" lon="-8.23506">
<ele>240</ele>
<time>2026-05-08T05:06:30Z</time></trkpt>
<trkpt lat="39.853968" lon="-8.234889">
<ele>242</ele>
<time>2026-05-08T05:06:37Z</time></trkpt>
<trkpt lat="39.854236" lon="-8.23478">
<ele>243</ele>
<time>2026-05-08T05:06:43Z</time></trkpt>
<trkpt lat="39.854315" lon="-8.234769">
<ele>242</ele>
<time>2026-05-08T05:06:44Z</time></trkpt>
<trkpt lat="39.854492" lon="-8.234786">
<ele>243</ele>
<time>2026-05-08T05:06:48Z</time></trkpt>
<trkpt lat="39.854797" lon="-8.234882">
<ele>244</ele>
<time>2026-05-08T05:06:54Z</time></trkpt>
<trkpt lat="39.855199" lon="-8.235118">
<ele>248</ele>
<time>2026-05-08T05:07:03Z</time></trkpt>
<trkpt lat="39.855424" lon="-8.235183">
<ele>249</ele>
<time>2026-05-08T05:07:08Z</time></trkpt>
<trkpt lat="39.855571" lon="-8.235191">
<ele>249</ele>
<time>2026-05-08T05:07:11Z</time></trkpt>
<trkpt lat="39.855666" lon="-8.235154">
<ele>247</ele>
<time>2026-05-08T05:07:13Z</time></trkpt>
<trkpt lat="39.855751" lon="-8.235065">
<ele>245</ele>
<time>2026-05-08T05:07:15Z</time></trkpt>
<trkpt lat="39.855802" lon="-8.234946">
<ele>243</ele>
<time>2026-05-08T05:07:17Z</time></trkpt>
<trkpt lat="39.8558" lon="-8.234789">
<ele>244</ele>
<time>2026-05-08T05:07:19Z</time></trkpt>
<trkpt lat="39.855759" lon="-8.234548">
<ele>245</ele>
<time>2026-05-08T05:07:23Z</time></trkpt>
<trkpt lat="39.855722" lon="-8.234402">
<ele>246</ele>
<time>2026-05-08T05:07:26Z</time></trkpt>
<trkpt lat="39.855694" lon="-8.234353">
<ele>246</ele>
<time>2026-05-08T05:07:26Z</time></trkpt>
<trkpt lat="39.855457" lon="-8.23421">
<ele>243</ele>
<time>2026-05-08T05:07:32Z</time></trkpt>
<trkpt lat="39.854806" lon="-8.233633">
<ele>246</ele>
<time>2026-05-08T05:07:47Z</time></trkpt>
<trkpt lat="39.85468" lon="-8.233581">
<ele>246</ele>
<time>2026-05-08T05:07:50Z</time></trkpt>
<trkpt lat="39.854371" lon="-8.233598">
<ele>243</ele>
<time>2026-05-08T05:07:56Z</time></trkpt>
<trkpt lat="39.854235" lon="-8.233575">
<ele>242</ele>
<time>2026-05-08T05:07:59Z</time></trkpt>
<trkpt lat="39.854171" lon="-8.233538">
<ele>242</ele>
<time>2026-05-08T05:08:00Z</time></trkpt>
<trkpt lat="39.854116" lon="-8.233478">
<ele>242</ele>
<time>2026-05-08T05:08:02Z</time></trkpt>
<trkpt lat="39.85407" lon="-8.2334">
<ele>243</ele>
<time>2026-05-08T05:08:03Z</time></trkpt>
<trkpt lat="39.854043" lon="-8.233304">
<ele>243</ele>
<time>2026-05-08T05:08:05Z</time></trkpt>
<trkpt lat="39.854049" lon="-8.233132">
<ele>241</ele>
<time>2026-05-08T05:08:08Z</time></trkpt>
<trkpt lat="39.854071" lon="-8.233066">
<ele>240</ele>
<time>2026-05-08T05:08:09Z</time></trkpt>
<trkpt lat="39.854152" lon="-8.232945">
<ele>240</ele>
<time>2026-05-08T05:08:11Z</time></trkpt>
<trkpt lat="39.854285" lon="-8.232841">
<ele>241</ele>
<time>2026-05-08T05:08:14Z</time></trkpt>
<trkpt lat="39.854717" lon="-8.232585">
<ele>244</ele>
<time>2026-05-08T05:08:24Z</time></trkpt>
<trkpt lat="39.854851" lon="-8.232525">
<ele>245</ele>
<time>2026-05-08T05:08:27Z</time></trkpt>
<trkpt lat="39.85496" lon="-8.232536">
<ele>247</ele>
<time>2026-05-08T05:08:29Z</time></trkpt>
<trkpt lat="39.855067" lon="-8.232603">
<ele>249</ele>
<time>2026-05-08T05:08:31Z</time></trkpt>
<trkpt lat="39.855164" lon="-8.232738">
<ele>251</ele>
<time>2026-05-08T05:08:34Z</time></trkpt>
<trkpt lat="39.855262" lon="-8.232957">
<ele>254</ele>
<time>2026-05-08T05:08:38Z</time></trkpt>
<trkpt lat="39.85539" lon="-8.233225">
<ele>258</ele>
<time>2026-05-08T05:08:43Z</time></trkpt>
<trkpt lat="39.855623" lon="-8.233514">
<ele>259</ele>
<time>2026-05-08T05:08:49Z</time></trkpt>
<trkpt lat="39.855975" lon="-8.233865">
<ele>256</ele>
<time>2026-05-08T05:08:58Z</time></trkpt>
<trkpt lat="39.856103" lon="-8.233912">
<ele>256</ele>
<time>2026-05-08T05:09:01Z</time></trkpt>
<trkpt lat="39.856189" lon="-8.233905">
<ele>257</ele>
<time>2026-05-08T05:09:03Z</time></trkpt>
<trkpt lat="39.856938" lon="-8.233655">
<ele>270</ele>
<time>2026-05-08T05:09:18Z</time></trkpt>
<trkpt lat="39.857676" lon="-8.233304">
<ele>279</ele>
<time>2026-05-08T05:09:34Z</time></trkpt>
<trkpt lat="39.857797" lon="-8.233302">
<ele>279</ele>
<time>2026-05-08T05:09:36Z</time></trkpt>
<trkpt lat="39.858084" lon="-8.233368">
<ele>278</ele>
<time>2026-05-08T05:09:42Z</time></trkpt>
<trkpt lat="39.858248" lon="-8.233376">
<ele>278</ele>
<time>2026-05-08T05:09:45Z</time></trkpt>
<trkpt lat="39.858373" lon="-8.233319">
<ele>278</ele>
<time>2026-05-08T05:09:48Z</time></trkpt>
<trkpt lat="39.858447" lon="-8.233246">
<ele>279</ele>
<time>2026-05-08T05:09:50Z</time></trkpt>
<trkpt lat="39.858447" lon="-8.233246">
<ele>279</ele>
<time>2026-05-08T05:09:50Z</time></trkpt>
<trkpt lat="39.858494" lon="-8.233187">
<ele>279</ele>
<time>2026-05-08T05:09:51Z</time></trkpt>
<trkpt lat="39.859076" lon="-8.232147">
<ele>284</ele>
<time>2026-05-08T05:10:11Z</time></trkpt>
<trkpt lat="39.859187" lon="-8.232006">
<ele>285</ele>
<time>2026-05-08T05:10:14Z</time></trkpt>
<trkpt lat="39.85926" lon="-8.231954">
<ele>285</ele>
<time>2026-05-08T05:10:16Z</time></trkpt>
<trkpt lat="39.859387" lon="-8.231925">
<ele>286</ele>
<time>2026-05-08T05:10:18Z</time></trkpt>
<trkpt lat="39.85951" lon="-8.231971">
<ele>288</ele>
<time>2026-05-08T05:10:21Z</time></trkpt>
<trkpt lat="39.859561" lon="-8.23203">
<ele>289</ele>
<time>2026-05-08T05:10:22Z</time></trkpt>
<trkpt lat="39.859656" lon="-8.232236">
<ele>293</ele>
<time>2026-05-08T05:10:26Z</time></trkpt>
<trkpt lat="39.860035" lon="-8.233519">
<ele>298</ele>
<time>2026-05-08T05:10:47Z</time></trkpt>
<trkpt lat="39.860117" lon="-8.233735">
<ele>295</ele>
<time>2026-05-08T05:10:51Z</time></trkpt>
<trkpt lat="39.860169" lon="-8.233813">
<ele>295</ele>
<time>2026-05-08T05:10:52Z</time></trkpt>
<trkpt lat="39.860275" lon="-8.233894">
<ele>296</ele>
<time>2026-05-08T05:10:55Z</time></trkpt>
<trkpt lat="39.860412" lon="-8.233925">
<ele>297</ele>
<time>2026-05-08T05:10:58Z</time></trkpt>
<trkpt lat="39.860622" lon="-8.233935">
<ele>301</ele>
<time>2026-05-08T05:11:02Z</time></trkpt>
<trkpt lat="39.860774" lon="-8.234003">
<ele>302</ele>
<time>2026-05-08T05:11:05Z</time></trkpt>
<trkpt lat="39.860866" lon="-8.234122">
<ele>304</ele>
<time>2026-05-08T05:11:08Z</time></trkpt>
<trkpt lat="39.861037" lon="-8.23452">
<ele>307</ele>
<time>2026-05-08T05:11:15Z</time></trkpt>
<trkpt lat="39.861194" lon="-8.234732">
<ele>311</ele>
<time>2026-05-08T05:11:19Z</time></trkpt>
<trkpt lat="39.861234" lon="-8.23481">
<ele>312</ele>
<time>2026-05-08T05:11:21Z</time></trkpt>
<trkpt lat="39.861292" lon="-8.235053">
<ele>312</ele>
<time>2026-05-08T05:11:25Z</time></trkpt>
<trkpt lat="39.861423" lon="-8.236028">
<ele>302</ele>
<time>2026-05-08T05:11:40Z</time></trkpt>
<trkpt lat="39.861452" lon="-8.236161">
<ele>301</ele>
<time>2026-05-08T05:11:42Z</time></trkpt>
<trkpt lat="39.861487" lon="-8.236245">
<ele>301</ele>
<time>2026-05-08T05:11:43Z</time></trkpt>
<trkpt lat="39.861575" lon="-8.236363">
<ele>301</ele>
<time>2026-05-08T05:11:46Z</time></trkpt>
<trkpt lat="39.861692" lon="-8.236434">
<ele>302</ele>
<time>2026-05-08T05:11:49Z</time></trkpt>
<trkpt lat="39.861758" lon="-8.236446">
<ele>303</ele>
<time>2026-05-08T05:11:50Z</time></trkpt>
<trkpt lat="39.862113" lon="-8.236424">
<ele>310</ele>
<time>2026-05-08T05:11:57Z</time></trkpt>
<trkpt lat="39.862269" lon="-8.236459">
<ele>312</ele>
<time>2026-05-08T05:12:00Z</time></trkpt>
<trkpt lat="39.862378" lon="-8.236518">
<ele>313</ele>
<time>2026-05-08T05:12:03Z</time></trkpt>
<trkpt lat="39.865344" lon="-8.238259">
<ele>325</ele>
<time>2026-05-08T05:13:08Z</time></trkpt>
<trkpt lat="39.865568" lon="-8.23836">
<ele>325</ele>
<time>2026-05-08T05:13:12Z</time></trkpt>
<trkpt lat="39.865673" lon="-8.238389">
<ele>325</ele>
<time>2026-05-08T05:13:15Z</time></trkpt>
<trkpt lat="39.86699" lon="-8.238551">
<ele>334</ele>
<time>2026-05-08T05:13:41Z</time></trkpt>
<trkpt lat="39.867658" lon="-8.238633">
<ele>337</ele>
<time>2026-05-08T05:13:55Z</time></trkpt>
<trkpt lat="39.867756" lon="-8.238659">
<ele>338</ele>
<time>2026-05-08T05:13:57Z</time></trkpt>
<trkpt lat="39.867894" lon="-8.238734">
<ele>339</ele>
<time>2026-05-08T05:14:00Z</time></trkpt>
<trkpt lat="39.867998" lon="-8.238835">
<ele>340</ele>
<time>2026-05-08T05:14:02Z</time></trkpt>
<trkpt lat="39.868701" lon="-8.239669">
<ele>346</ele>
<time>2026-05-08T05:14:21Z</time></trkpt>
<trkpt lat="39.868872" lon="-8.239886">
<ele>347</ele>
<time>2026-05-08T05:14:26Z</time></trkpt>
<trkpt lat="39.869401" lon="-8.24053">
<ele>350</ele>
<time>2026-05-08T05:14:40Z</time></trkpt>
<trkpt lat="39.869525" lon="-8.240628">
<ele>351</ele>
<time>2026-05-08T05:14:43Z</time></trkpt>
<trkpt lat="39.869659" lon="-8.240657">
<ele>351</ele>
<time>2026-05-08T05:14:46Z</time></trkpt>
<trkpt lat="39.870167" lon="-8.24059">
<ele>353</ele>
<time>2026-05-08T05:14:56Z</time></trkpt>
<trkpt lat="39.870443" lon="-8.240561">
<ele>352</ele>
<time>2026-05-08T05:15:02Z</time></trkpt>
<trkpt lat="39.870571" lon="-8.240564">
<ele>352</ele>
<time>2026-05-08T05:15:04Z</time></trkpt>
<trkpt lat="39.870749" lon="-8.240637">
<ele>352</ele>
<time>2026-05-08T05:15:08Z</time></trkpt>
<trkpt lat="39.870911" lon="-8.240784">
<ele>353</ele>
<time>2026-05-08T05:15:12Z</time></trkpt>
<trkpt lat="39.870982" lon="-8.24089">
<ele>353</ele>
<time>2026-05-08T05:15:14Z</time></trkpt>
<trkpt lat="39.870982" lon="-8.24089">
<ele>353</ele>
<time>2026-05-08T05:15:14Z</time></trkpt>
<trkpt lat="39.871019" lon="-8.240945">
<ele>353</ele>
<time>2026-05-08T05:15:15Z</time></trkpt>
<trkpt lat="39.871071" lon="-8.241112">
<ele>354</ele>
<time>2026-05-08T05:15:18Z</time></trkpt>
<trkpt lat="39.871106" lon="-8.241453">
<ele>355</ele>
<time>2026-05-08T05:15:24Z</time></trkpt>
<trkpt lat="39.87111" lon="-8.24175">
<ele>357</ele>
<time>2026-05-08T05:15:28Z</time></trkpt>
<trkpt lat="39.87108" lon="-8.242053">
<ele>359</ele>
<time>2026-05-08T05:15:33Z</time></trkpt>
<trkpt lat="39.870904" lon="-8.242948">
<ele>363</ele>
<time>2026-05-08T05:15:47Z</time></trkpt>
<trkpt lat="39.870813" lon="-8.243266">
<ele>363</ele>
<time>2026-05-08T05:15:52Z</time></trkpt>
<trkpt lat="39.870711" lon="-8.243496">
<ele>364</ele>
<time>2026-05-08T05:15:56Z</time></trkpt>
<trkpt lat="39.870487" lon="-8.243783">
<ele>366</ele>
<time>2026-05-08T05:16:03Z</time></trkpt>
<trkpt lat="39.87011" lon="-8.244142">
<ele>368</ele>
<time>2026-05-08T05:16:12Z</time></trkpt>
<trkpt lat="39.86987" lon="-8.244369">
<ele>368</ele>
<time>2026-05-08T05:16:18Z</time></trkpt>
<trkpt lat="39.869451" lon="-8.244759">
<ele>369</ele>
<time>2026-05-08T05:16:28Z</time></trkpt>
<trkpt lat="39.86931" lon="-8.244962">
<ele>370</ele>
<time>2026-05-08T05:16:32Z</time></trkpt>
<trkpt lat="39.86925" lon="-8.24514">
<ele>371</ele>
<time>2026-05-08T05:16:35Z</time></trkpt>
<trkpt lat="39.869184" lon="-8.24572">
<ele>375</ele>
<time>2026-05-08T05:16:44Z</time></trkpt>
<trkpt lat="39.869146" lon="-8.246073">
<ele>377</ele>
<time>2026-05-08T05:16:50Z</time></trkpt>
<trkpt lat="39.868992" lon="-8.247674">
<ele>388</ele>
<time>2026-05-08T05:17:15Z</time></trkpt>
<trkpt lat="39.868992" lon="-8.24784">
<ele>389</ele>
<time>2026-05-08T05:17:17Z</time></trkpt>
<trkpt lat="39.869009" lon="-8.247924">
<ele>389</ele>
<time>2026-05-08T05:17:19Z</time></trkpt>
<trkpt lat="39.86912" lon="-8.248141">
<ele>390</ele>
<time>2026-05-08T05:17:23Z</time></trkpt>
<trkpt lat="39.869589" lon="-8.248452">
<ele>392</ele>
<time>2026-05-08T05:17:33Z</time></trkpt>
<trkpt lat="39.87101" lon="-8.249395">
<ele>403</ele>
<time>2026-05-08T05:18:05Z</time></trkpt>
<trkpt lat="39.871186" lon="-8.249441">
<ele>406</ele>
<time>2026-05-08T05:18:09Z</time></trkpt>
<trkpt lat="39.87123" lon="-8.249453">
<ele>407</ele>
<time>2026-05-08T05:18:10Z</time></trkpt>
<trkpt lat="39.872433" lon="-8.249371">
<ele>416</ele>
<time>2026-05-08T05:18:34Z</time></trkpt>
<trkpt lat="39.872595" lon="-8.24936">
<ele>416</ele>
<time>2026-05-08T05:18:37Z</time></trkpt>
<trkpt lat="39.872792" lon="-8.249396">
<ele>416</ele>
<time>2026-05-08T05:18:41Z</time></trkpt>
<trkpt lat="39.872792" lon="-8.249396">
<ele>416</ele>
<time>2026-05-08T05:18:41Z</time></trkpt>
<trkpt lat="39.873598" lon="-8.249542">
<ele>413</ele>
<time>2026-05-08T05:18:57Z</time></trkpt>
<trkpt lat="39.874033" lon="-8.249694">
<ele>408</ele>
<time>2026-05-08T05:19:06Z</time></trkpt>
<trkpt lat="39.874266" lon="-8.2498">
<ele>407</ele>
<time>2026-05-08T05:19:11Z</time></trkpt>
<trkpt lat="39.874676" lon="-8.250018">
<ele>409</ele>
<time>2026-05-08T05:19:20Z</time></trkpt>
<trkpt lat="39.87508" lon="-8.250268">
<ele>411</ele>
<time>2026-05-08T05:19:29Z</time></trkpt>
<trkpt lat="39.876323" lon="-8.251069">
<ele>418</ele>
<time>2026-05-08T05:19:57Z</time></trkpt>
<trkpt lat="39.878101" lon="-8.252204">
<ele>416</ele>
<time>2026-05-08T05:20:37Z</time></trkpt>
<trkpt lat="39.878442" lon="-8.252479">
<ele>416</ele>
<time>2026-05-08T05:20:45Z</time></trkpt>
<trkpt lat="39.878611" lon="-8.252643">
<ele>417</ele>
<time>2026-05-08T05:20:49Z</time></trkpt>
<trkpt lat="39.878857" lon="-8.252914">
<ele>418</ele>
<time>2026-05-08T05:20:55Z</time></trkpt>
<trkpt lat="39.879085" lon="-8.253215">
<ele>419</ele>
<time>2026-05-08T05:21:02Z</time></trkpt>
<trkpt lat="39.880862" lon="-8.255975">
<ele>424</ele>
<time>2026-05-08T05:21:57Z</time></trkpt>
<trkpt lat="39.881114" lon="-8.256285">
<ele>429</ele>
<time>2026-05-08T05:22:04Z</time></trkpt>
<trkpt lat="39.881389" lon="-8.256533">
<ele>432</ele>
<time>2026-05-08T05:22:11Z</time></trkpt>
<trkpt lat="39.881684" lon="-8.256749">
<ele>435</ele>
<time>2026-05-08T05:22:18Z</time></trkpt>
<trkpt lat="39.884876" lon="-8.25867">
<ele>430</ele>
<time>2026-05-08T05:23:28Z</time></trkpt>
<trkpt lat="39.885445" lon="-8.259019">
<ele>430</ele>
<time>2026-05-08T05:23:41Z</time></trkpt>
<trkpt lat="39.885445" lon="-8.259019">
<ele>430</ele>
<time>2026-05-08T05:23:41Z</time></trkpt>
<trkpt lat="39.885807" lon="-8.259317">
<ele>430</ele>
<time>2026-05-08T05:23:49Z</time></trkpt>
<trkpt lat="39.886167" lon="-8.259711">
<ele>426</ele>
<time>2026-05-08T05:23:59Z</time></trkpt>
<trkpt lat="39.886348" lon="-8.259962">
<ele>424</ele>
<time>2026-05-08T05:24:04Z</time></trkpt>
<trkpt lat="39.886506" lon="-8.260226">
<ele>424</ele>
<time>2026-05-08T05:24:09Z</time></trkpt>
<trkpt lat="39.887247" lon="-8.2617">
<ele>434</ele>
<time>2026-05-08T05:24:36Z</time></trkpt>
<trkpt lat="39.88774" lon="-8.262618">
<ele>434</ele>
<time>2026-05-08T05:24:53Z</time></trkpt>
<trkpt lat="39.887805" lon="-8.262718">
<ele>435</ele>
<time>2026-05-08T05:24:55Z</time></trkpt>
<trkpt lat="39.887987" lon="-8.262917">
<ele>436</ele>
<time>2026-05-08T05:25:00Z</time></trkpt>
<trkpt lat="39.888281" lon="-8.263105">
<ele>439</ele>
<time>2026-05-08T05:25:07Z</time></trkpt>
<trkpt lat="39.888534" lon="-8.263211">
<ele>439</ele>
<time>2026-05-08T05:25:12Z</time></trkpt>
<trkpt lat="39.888754" lon="-8.263272">
<ele>438</ele>
<time>2026-05-08T05:25:17Z</time></trkpt>
<trkpt lat="39.889082" lon="-8.263307">
<ele>437</ele>
<time>2026-05-08T05:25:23Z</time></trkpt>
<trkpt lat="39.890144" lon="-8.263299">
<ele>431</ele>
<time>2026-05-08T05:25:44Z</time></trkpt>
<trkpt lat="39.890361" lon="-8.263315">
<ele>431</ele>
<time>2026-05-08T05:25:49Z</time></trkpt>
<trkpt lat="39.890679" lon="-8.263442">
<ele>430</ele>
<time>2026-05-08T05:25:55Z</time></trkpt>
<trkpt lat="39.891208" lon="-8.263721">
<ele>430</ele>
<time>2026-05-08T05:26:07Z</time></trkpt>
<trkpt lat="39.892778" lon="-8.264644">
<ele>421</ele>
<time>2026-05-08T05:26:41Z</time></trkpt>
<trkpt lat="39.893929" lon="-8.26521">
<ele>418</ele>
<time>2026-05-08T05:27:06Z</time></trkpt>
<trkpt lat="39.894059" lon="-8.26529">
<ele>418</ele>
<time>2026-05-08T05:27:09Z</time></trkpt>
<trkpt lat="39.89431" lon="-8.265499">
<ele>417</ele>
<time>2026-05-08T05:27:15Z</time></trkpt>
<trkpt lat="39.894765" lon="-8.265996">
<ele>417</ele>
<time>2026-05-08T05:27:27Z</time></trkpt>
<trkpt lat="39.89517" lon="-8.26645">
<ele>418</ele>
<time>2026-05-08T05:27:38Z</time></trkpt>
<trkpt lat="39.895743" lon="-8.267128">
<ele>424</ele>
<time>2026-05-08T05:27:53Z</time></trkpt>
<trkpt lat="39.895909" lon="-8.267347">
<ele>425</ele>
<time>2026-05-08T05:27:58Z</time></trkpt>
<trkpt lat="39.896354" lon="-8.268157">
<ele>421</ele>
<time>2026-05-08T05:28:13Z</time></trkpt>
<trkpt lat="39.896668" lon="-8.268606">
<ele>421</ele>
<time>2026-05-08T05:28:22Z</time></trkpt>
<trkpt lat="39.897025" lon="-8.269074">
<ele>422</ele>
<time>2026-05-08T05:28:33Z</time></trkpt>
<trkpt lat="39.89727" lon="-8.269359">
<ele>424</ele>
<time>2026-05-08T05:28:39Z</time></trkpt>
<trkpt lat="39.897419" lon="-8.269574">
<ele>425</ele>
<time>2026-05-08T05:28:44Z</time></trkpt>
<trkpt lat="39.897502" lon="-8.269751">
<ele>426</ele>
<time>2026-05-08T05:28:47Z</time></trkpt>
<trkpt lat="39.897598" lon="-8.270034">
<ele>426</ele>
<time>2026-05-08T05:28:52Z</time></trkpt>
<trkpt lat="39.897701" lon="-8.270499">
<ele>426</ele>
<time>2026-05-08T05:28:59Z</time></trkpt>
<trkpt lat="39.897781" lon="-8.270788">
<ele>427</ele>
<time>2026-05-08T05:29:04Z</time></trkpt>
<trkpt lat="39.898114" lon="-8.271708">
<ele>428</ele>
<time>2026-05-08T05:29:19Z</time></trkpt>
<trkpt lat="39.898269" lon="-8.272045">
<ele>429</ele>
<time>2026-05-08T05:29:25Z</time></trkpt>
<trkpt lat="39.898465" lon="-8.272347">
<ele>430</ele>
<time>2026-05-08T05:29:31Z</time></trkpt>
<trkpt lat="39.898557" lon="-8.272458">
<ele>430</ele>
<time>2026-05-08T05:29:34Z</time></trkpt>
<trkpt lat="39.898663" lon="-8.272492">
<ele>430</ele>
<time>2026-05-08T05:29:36Z</time></trkpt>
<trkpt lat="39.898694" lon="-8.272482">
<ele>430</ele>
<time>2026-05-08T05:29:37Z</time></trkpt>
<trkpt lat="39.89873" lon="-8.272493">
<ele>430</ele>
<time>2026-05-08T05:29:38Z</time></trkpt>
<trkpt lat="39.898758" lon="-8.272525">
<ele>431</ele>
<time>2026-05-08T05:29:38Z</time></trkpt>
<trkpt lat="39.89877" lon="-8.272572">
<ele>431</ele>
<time>2026-05-08T05:29:39Z</time></trkpt>
<trkpt lat="39.898874" lon="-8.272723">
<ele>431</ele>
<time>2026-05-08T05:29:42Z</time></trkpt>
<trkpt lat="39.899144" lon="-8.27295">
<ele>433</ele>
<time>2026-05-08T05:29:49Z</time></trkpt>
<trkpt lat="39.899144" lon="-8.272951">
<ele>433</ele>
<time>2026-05-08T05:29:49Z</time></trkpt>
<trkpt lat="39.899525" lon="-8.273272">
<ele>434</ele>
<time>2026-05-08T05:29:58Z</time></trkpt>
<trkpt lat="39.899977" lon="-8.273809">
<ele>436</ele>
<time>2026-05-08T05:30:10Z</time></trkpt>
<trkpt lat="39.90029" lon="-8.274146">
<ele>439</ele>
<time>2026-05-08T05:30:18Z</time></trkpt>
<trkpt lat="39.9005219" lon="-8.2742905">
<ele>439</ele>
<time>2026-05-08T05:30:23Z</time></trkpt>
<trkpt lat="39.900558" lon="-8.274313">
<ele>439</ele>
<time>2026-05-08T05:30:24Z</time></trkpt>
<trkpt lat="39.901219" lon="-8.274575">
<ele>441</ele>
<time>2026-05-08T05:30:38Z</time></trkpt>
<trkpt lat="39.901391" lon="-8.274624">
<ele>442</ele>
<time>2026-05-08T05:30:41Z</time></trkpt>
<trkpt lat="39.901634" lon="-8.274647">
<ele>442</ele>
<time>2026-05-08T05:30:46Z</time></trkpt>
<trkpt lat="39.90164" lon="-8.274605">
<ele>442</ele>
<time>2026-05-08T05:30:47Z</time></trkpt>
<trkpt lat="39.901679" lon="-8.274538">
<ele>443</ele>
<time>2026-05-08T05:30:48Z</time></trkpt>
<trkpt lat="39.901708" lon="-8.274519">
<ele>443</ele>
<time>2026-05-08T05:30:49Z</time></trkpt>
<trkpt lat="39.901772" lon="-8.274519">
<ele>443</ele>
<time>2026-05-08T05:30:50Z</time></trkpt>
<trkpt lat="39.901827" lon="-8.274571">
<ele>444</ele>
<time>2026-05-08T05:30:52Z</time></trkpt>
<trkpt lat="39.901993" lon="-8.274528">
<ele>445</ele>
<time>2026-05-08T05:30:55Z</time></trkpt>
<trkpt lat="39.903267" lon="-8.274685">
<ele>455</ele>
<time>2026-05-08T05:31:21Z</time></trkpt>
<trkpt lat="39.903513" lon="-8.274232">
<ele>453</ele>
<time>2026-05-08T05:31:29Z</time></trkpt>
<trkpt lat="39.903611" lon="-8.274128">
<ele>452</ele>
<time>2026-05-08T05:31:32Z</time></trkpt>
<trkpt lat="39.903667" lon="-8.274103">
<ele>451</ele>
<time>2026-05-08T05:31:33Z</time></trkpt>
<trkpt lat="39.903797" lon="-8.274095">
<ele>451</ele>
<time>2026-05-08T05:31:35Z</time></trkpt>
<trkpt lat="39.903926" lon="-8.274141">
<ele>452</ele>
<time>2026-05-08T05:31:38Z</time></trkpt>
<trkpt lat="39.904405" lon="-8.274389">
<ele>457</ele>
<time>2026-05-08T05:31:48Z</time></trkpt>
<trkpt lat="39.904504" lon="-8.274416">
<ele>457</ele>
<time>2026-05-08T05:31:50Z</time></trkpt>
<trkpt lat="39.904662" lon="-8.274398">
<ele>458</ele>
<time>2026-05-08T05:31:54Z</time></trkpt>
<trkpt lat="39.90507" lon="-8.274212">
<ele>460</ele>
<time>2026-05-08T05:32:02Z</time></trkpt>
<trkpt lat="39.906361" lon="-8.27438">
<ele>466</ele>
<time>2026-05-08T05:32:28Z</time></trkpt>
<trkpt lat="39.906463" lon="-8.274364">
<ele>466</ele>
<time>2026-05-08T05:32:30Z</time></trkpt>
<trkpt lat="39.906867" lon="-8.27408">
<ele>468</ele>
<time>2026-05-08T05:32:40Z</time></trkpt>
<trkpt lat="39.906867" lon="-8.27408">
<ele>468</ele>
<time>2026-05-08T05:32:40Z</time></trkpt>
<trkpt lat="39.907228" lon="-8.273827">
<ele>471</ele>
<time>2026-05-08T05:32:48Z</time></trkpt>
<trkpt lat="39.907314" lon="-8.273785">
<ele>472</ele>
<time>2026-05-08T05:32:50Z</time></trkpt>
<trkpt lat="39.907401" lon="-8.273785">
<ele>472</ele>
<time>2026-05-08T05:32:51Z</time></trkpt>
<trkpt lat="39.90852" lon="-8.274111">
<ele>477</ele>
<time>2026-05-08T05:33:14Z</time></trkpt>
<trkpt lat="39.908747" lon="-8.274136">
<ele>478</ele>
<time>2026-05-08T05:33:19Z</time></trkpt>
<trkpt lat="39.908988" lon="-8.274098">
<ele>479</ele>
<time>2026-05-08T05:33:24Z</time></trkpt>
<trkpt lat="39.909141" lon="-8.274033">
<ele>479</ele>
<time>2026-05-08T05:33:27Z</time></trkpt>
<trkpt lat="39.909256" lon="-8.273959">
<ele>480</ele>
<time>2026-05-08T05:33:30Z</time></trkpt>
<trkpt lat="39.910154" lon="-8.273207">
<ele>481</ele>
<time>2026-05-08T05:33:51Z</time></trkpt>
<trkpt lat="39.910259" lon="-8.273086">
<ele>481</ele>
<time>2026-05-08T05:33:54Z</time></trkpt>
<trkpt lat="39.910266" lon="-8.273033">
<ele>481</ele>
<time>2026-05-08T05:33:55Z</time></trkpt>
<trkpt lat="39.910282" lon="-8.273003">
<ele>481</ele>
<time>2026-05-08T05:33:55Z</time></trkpt>
<trkpt lat="39.910331" lon="-8.272972">
<ele>481</ele>
<time>2026-05-08T05:33:56Z</time></trkpt>
<trkpt lat="39.910349" lon="-8.272972">
<ele>481</ele>
<time>2026-05-08T05:33:57Z</time></trkpt>
<trkpt lat="39.910531" lon="-8.272899">
<ele>482</ele>
<time>2026-05-08T05:34:00Z</time></trkpt>
<trkpt lat="39.911271" lon="-8.272277">
<ele>482</ele>
<time>2026-05-08T05:34:18Z</time></trkpt>
<trkpt lat="39.911648" lon="-8.272002">
<ele>482</ele>
<time>2026-05-08T05:34:27Z</time></trkpt>
<trkpt lat="39.911785" lon="-8.27194">
<ele>481</ele>
<time>2026-05-08T05:34:30Z</time></trkpt>
<trkpt lat="39.912004" lon="-8.271893">
<ele>480</ele>
<time>2026-05-08T05:34:34Z</time></trkpt>
<trkpt lat="39.912187" lon="-8.271895">
<ele>480</ele>
<time>2026-05-08T05:34:38Z</time></trkpt>
<trkpt lat="39.913033" lon="-8.272089">
<ele>478</ele>
<time>2026-05-08T05:34:55Z</time></trkpt>
<trkpt lat="39.913342" lon="-8.272101">
<ele>477</ele>
<time>2026-05-08T05:35:01Z</time></trkpt>
<trkpt lat="39.914752" lon="-8.271903">
<ele>479</ele>
<time>2026-05-08T05:35:30Z</time></trkpt>
<trkpt lat="39.915167" lon="-8.271842">
<ele>480</ele>
<time>2026-05-08T05:35:38Z</time></trkpt>
<trkpt lat="39.915345" lon="-8.271815">
<ele>481</ele>
<time>2026-05-08T05:35:42Z</time></trkpt>
<trkpt lat="39.915455" lon="-8.271799">
<ele>481</ele>
<time>2026-05-08T05:35:44Z</time></trkpt>
<trkpt lat="39.915676" lon="-8.271766">
<ele>482</ele>
<time>2026-05-08T05:35:48Z</time></trkpt>
<trkpt lat="39.916885" lon="-8.271591">
<ele>483</ele>
<time>2026-05-08T05:36:13Z</time></trkpt>
<trkpt lat="39.918578" lon="-8.271344">
<ele>491</ele>
<time>2026-05-08T05:36:47Z</time></trkpt>
<trkpt lat="39.919019" lon="-8.271186">
<ele>492</ele>
<time>2026-05-08T05:36:56Z</time></trkpt>
<trkpt lat="39.919335" lon="-8.271041">
<ele>494</ele>
<time>2026-05-08T05:37:03Z</time></trkpt>
<trkpt lat="39.91963" lon="-8.270792">
<ele>497</ele>
<time>2026-05-08T05:37:10Z</time></trkpt>
<trkpt lat="39.919684" lon="-8.270725">
<ele>498</ele>
<time>2026-05-08T05:37:11Z</time></trkpt>
<trkpt lat="39.919755" lon="-8.270693">
<ele>499</ele>
<time>2026-05-08T05:37:13Z</time></trkpt>
<trkpt lat="39.919948" lon="-8.270584">
<ele>501</ele>
<time>2026-05-08T05:37:17Z</time></trkpt>
<trkpt lat="39.920051" lon="-8.270457">
<ele>502</ele>
<time>2026-05-08T05:37:20Z</time></trkpt>
<trkpt lat="39.920303" lon="-8.270083">
<ele>505</ele>
<time>2026-05-08T05:37:27Z</time></trkpt>
<trkpt lat="39.920575" lon="-8.269564">
<ele>509</ele>
<time>2026-05-08T05:37:37Z</time></trkpt>
<trkpt lat="39.920783" lon="-8.269082">
<ele>511</ele>
<time>2026-05-08T05:37:45Z</time></trkpt>
<trkpt lat="39.921794" lon="-8.266522">
<ele>504</ele>
<time>2026-05-08T05:38:30Z</time></trkpt>
<trkpt lat="39.922181" lon="-8.265553">
<ele>497</ele>
<time>2026-05-08T05:38:47Z</time></trkpt>
<trkpt lat="39.922241" lon="-8.2654">
<ele>497</ele>
<time>2026-05-08T05:38:49Z</time></trkpt>
<trkpt lat="39.922679" lon="-8.26428">
<ele>502</ele>
<time>2026-05-08T05:39:08Z</time></trkpt>
<trkpt lat="39.923827" lon="-8.26137">
<ele>505</ele>
<time>2026-05-08T05:39:59Z</time></trkpt>
<trkpt lat="39.924199" lon="-8.260421">
<ele>503</ele>
<time>2026-05-08T05:40:15Z</time></trkpt>
<trkpt lat="39.924341" lon="-8.260047">
<ele>502</ele>
<time>2026-05-08T05:40:22Z</time></trkpt>
<trkpt lat="39.924591" lon="-8.259454">
<ele>506</ele>
<time>2026-05-08T05:40:32Z</time></trkpt>
<trkpt lat="39.924698" lon="-8.259271">
<ele>507</ele>
<time>2026-05-08T05:40:35Z</time></trkpt>
<trkpt lat="39.92481" lon="-8.259119">
<ele>508</ele>
<time>2026-05-08T05:40:39Z</time></trkpt>
<trkpt lat="39.925" lon="-8.258895">
<ele>508</ele>
<time>2026-05-08T05:40:44Z</time></trkpt>
<trkpt lat="39.925101" lon="-8.258799">
<ele>508</ele>
<time>2026-05-08T05:40:46Z</time></trkpt>
<trkpt lat="39.926353" lon="-8.257742">
<ele>506</ele>
<time>2026-05-08T05:41:16Z</time></trkpt>
<trkpt lat="39.927098" lon="-8.257111">
<ele>506</ele>
<time>2026-05-08T05:41:34Z</time></trkpt>
<trkpt lat="39.927357" lon="-8.25692">
<ele>504</ele>
<time>2026-05-08T05:41:40Z</time></trkpt>
<trkpt lat="39.927459" lon="-8.256865">
<ele>504</ele>
<time>2026-05-08T05:41:42Z</time></trkpt>
<trkpt lat="39.927635" lon="-8.256786">
<ele>503</ele>
<time>2026-05-08T05:41:46Z</time></trkpt>
<trkpt lat="39.927863" lon="-8.256726">
<ele>502</ele>
<time>2026-05-08T05:41:51Z</time></trkpt>
<trkpt lat="39.928532" lon="-8.256642">
<ele>503</ele>
<time>2026-05-08T05:42:04Z</time></trkpt>
<trkpt lat="39.930397" lon="-8.256441">
<ele>512</ele>
<time>2026-05-08T05:42:42Z</time></trkpt>
<trkpt lat="39.930826" lon="-8.256353">
<ele>513</ele>
<time>2026-05-08T05:42:50Z</time></trkpt>
<trkpt lat="39.930988" lon="-8.256279">
<ele>512</ele>
<time>2026-05-08T05:42:54Z</time></trkpt>
<trkpt lat="39.931149" lon="-8.256132">
<ele>511</ele>
<time>2026-05-08T05:42:58Z</time></trkpt>
<trkpt lat="39.93135" lon="-8.255877">
<ele>510</ele>
<time>2026-05-08T05:43:03Z</time></trkpt>
<trkpt lat="39.931447" lon="-8.255701">
<ele>511</ele>
<time>2026-05-08T05:43:07Z</time></trkpt>
<trkpt lat="39.931496" lon="-8.255558">
<ele>511</ele>
<time>2026-05-08T05:43:09Z</time></trkpt>
<trkpt lat="39.931656" lon="-8.255267">
<ele>512</ele>
<time>2026-05-08T05:43:15Z</time></trkpt>
<trkpt lat="39.9316704" lon="-8.2552414">
<ele>512</ele>
<time>2026-05-08T05:43:15Z</time></trkpt>
<trkpt lat="39.931897" lon="-8.254839">
<ele>511</ele>
<time>2026-05-08T05:43:23Z</time></trkpt>
<trkpt lat="39.932443" lon="-8.25393">
<ele>511</ele>
<time>2026-05-08T05:43:40Z</time></trkpt>
<trkpt lat="39.932476" lon="-8.253876">
<ele>511</ele>
<time>2026-05-08T05:43:41Z</time></trkpt>
<trkpt lat="39.932758" lon="-8.253406">
<ele>513</ele>
<time>2026-05-08T05:43:51Z</time></trkpt>
<trkpt lat="39.932924" lon="-8.253113">
<ele>515</ele>
<time>2026-05-08T05:43:56Z</time></trkpt>
<trkpt lat="39.933154" lon="-8.252745">
<ele>516</ele>
<time>2026-05-08T05:44:04Z</time></trkpt>
<trkpt lat="39.933238" lon="-8.252637">
<ele>516</ele>
<time>2026-05-08T05:44:06Z</time></trkpt>
<trkpt lat="39.933492" lon="-8.252417">
<ele>521</ele>
<time>2026-05-08T05:44:12Z</time></trkpt>
<trkpt lat="39.933804" lon="-8.252219">
<ele>527</ele>
<time>2026-05-08T05:44:19Z</time></trkpt>
<trkpt lat="39.933905" lon="-8.252181">
<ele>529</ele>
<time>2026-05-08T05:44:21Z</time></trkpt>
<trkpt lat="39.934348" lon="-8.251873">
<ele>536</ele>
<time>2026-05-08T05:44:31Z</time></trkpt>
<trkpt lat="39.934592" lon="-8.251665">
<ele>539</ele>
<time>2026-05-08T05:44:37Z</time></trkpt>
<trkpt lat="39.935069" lon="-8.251146">
<ele>544</ele>
<time>2026-05-08T05:44:49Z</time></trkpt>
<trkpt lat="39.935909" lon="-8.250138">
<ele>534</ele>
<time>2026-05-08T05:45:12Z</time></trkpt>
<trkpt lat="39.936057" lon="-8.249982">
<ele>533</ele>
<time>2026-05-08T05:45:16Z</time></trkpt>
<trkpt lat="39.936209" lon="-8.249849">
<ele>533</ele>
<time>2026-05-08T05:45:20Z</time></trkpt>
<trkpt lat="39.936341" lon="-8.249762">
<ele>533</ele>
<time>2026-05-08T05:45:23Z</time></trkpt>
<trkpt lat="39.93649" lon="-8.249695">
<ele>533</ele>
<time>2026-05-08T05:45:26Z</time></trkpt>
<trkpt lat="39.936637" lon="-8.249657">
<ele>533</ele>
<time>2026-05-08T05:45:29Z</time></trkpt>
<trkpt lat="39.936788" lon="-8.249652">
<ele>533</ele>
<time>2026-05-08T05:45:32Z</time></trkpt>
<trkpt lat="39.936937" lon="-8.249673">
<ele>534</ele>
<time>2026-05-08T05:45:35Z</time></trkpt>
<trkpt lat="39.937091" lon="-8.249722">
<ele>535</ele>
<time>2026-05-08T05:45:38Z</time></trkpt>
<trkpt lat="39.937219" lon="-8.249788">
<ele>536</ele>
<time>2026-05-08T05:45:41Z</time></trkpt>
<trkpt lat="39.937441" lon="-8.249949">
<ele>538</ele>
<time>2026-05-08T05:45:46Z</time></trkpt>
<trkpt lat="39.938361" lon="-8.250727">
<ele>532</ele>
<time>2026-05-08T05:46:08Z</time></trkpt>
<trkpt lat="39.938526" lon="-8.250839">
<ele>532</ele>
<time>2026-05-08T05:46:12Z</time></trkpt>
<trkpt lat="39.938766" lon="-8.250963">
<ele>532</ele>
<time>2026-05-08T05:46:17Z</time></trkpt>
<trkpt lat="39.939009" lon="-8.251041">
<ele>531</ele>
<time>2026-05-08T05:46:22Z</time></trkpt>
<trkpt lat="39.939259" lon="-8.251075">
<ele>530</ele>
<time>2026-05-08T05:46:27Z</time></trkpt>
<trkpt lat="39.939541" lon="-8.251061">
<ele>529</ele>
<time>2026-05-08T05:46:33Z</time></trkpt>
<trkpt lat="39.939796" lon="-8.250993">
<ele>527</ele>
<time>2026-05-08T05:46:38Z</time></trkpt>
<trkpt lat="39.940061" lon="-8.250877">
<ele>526</ele>
<time>2026-05-08T05:46:43Z</time></trkpt>
<trkpt lat="39.940385" lon="-8.250664">
<ele>529</ele>
<time>2026-05-08T05:46:51Z</time></trkpt>
<trkpt lat="39.940632" lon="-8.250464">
<ele>529</ele>
<time>2026-05-08T05:46:56Z</time></trkpt>
<trkpt lat="39.941446" lon="-8.249775">
<ele>522</ele>
<time>2026-05-08T05:47:16Z</time></trkpt>
<trkpt lat="39.941541" lon="-8.249694">
<ele>521</ele>
<time>2026-05-08T05:47:18Z</time></trkpt>
<trkpt lat="39.94202" lon="-8.249292">
<ele>521</ele>
<time>2026-05-08T05:47:30Z</time></trkpt>
<trkpt lat="39.9426635" lon="-8.2487481">
<ele>525</ele>
<time>2026-05-08T05:47:45Z</time></trkpt>
<trkpt lat="39.9442109" lon="-8.2474402">
<ele>512</ele>
<time>2026-05-08T05:48:22Z</time></trkpt>
<trkpt lat="39.9446316" lon="-8.2470828">
<ele>507</ele>
<time>2026-05-08T05:48:32Z</time></trkpt>
<trkpt lat="39.945337" lon="-8.24648">
<ele>499</ele>
<time>2026-05-08T05:48:49Z</time></trkpt>
<trkpt lat="39.945585" lon="-8.246215">
<ele>499</ele>
<time>2026-05-08T05:48:55Z</time></trkpt>
<trkpt lat="39.945754" lon="-8.246008">
<ele>499</ele>
<time>2026-05-08T05:49:00Z</time></trkpt>
<trkpt lat="39.945863" lon="-8.245871">
<ele>499</ele>
<time>2026-05-08T05:49:03Z</time></trkpt>
<trkpt lat="39.946409" lon="-8.245195">
<ele>508</ele>
<time>2026-05-08T05:49:18Z</time></trkpt>
<trkpt lat="39.946668" lon="-8.244943">
<ele>510</ele>
<time>2026-05-08T05:49:24Z</time></trkpt>
<trkpt lat="39.946793" lon="-8.244847">
<ele>510</ele>
<time>2026-05-08T05:49:27Z</time></trkpt>
<trkpt lat="39.947049" lon="-8.244743">
<ele>510</ele>
<time>2026-05-08T05:49:33Z</time></trkpt>
<trkpt lat="39.947224" lon="-8.244724">
<ele>511</ele>
<time>2026-05-08T05:49:36Z</time></trkpt>
<trkpt lat="39.947465" lon="-8.24475">
<ele>512</ele>
<time>2026-05-08T05:49:41Z</time></trkpt>
<trkpt lat="39.947692" lon="-8.244844">
<ele>514</ele>
<time>2026-05-08T05:49:46Z</time></trkpt>
<trkpt lat="39.948413" lon="-8.245312">
<ele>519</ele>
<time>2026-05-08T05:50:02Z</time></trkpt>
<trkpt lat="39.948571" lon="-8.245375">
<ele>522</ele>
<time>2026-05-08T05:50:05Z</time></trkpt>
<trkpt lat="39.948721" lon="-8.245407">
<ele>523</ele>
<time>2026-05-08T05:50:08Z</time></trkpt>
<trkpt lat="39.948855" lon="-8.245413">
<ele>523</ele>
<time>2026-05-08T05:50:11Z</time></trkpt>
<trkpt lat="39.949082" lon="-8.245377">
<ele>524</ele>
<time>2026-05-08T05:50:16Z</time></trkpt>
<trkpt lat="39.949294" lon="-8.245281">
<ele>524</ele>
<time>2026-05-08T05:50:20Z</time></trkpt>
<trkpt lat="39.949439" lon="-8.245173">
<ele>525</ele>
<time>2026-05-08T05:50:24Z</time></trkpt>
<trkpt lat="39.949604" lon="-8.245006">
<ele>526</ele>
<time>2026-05-08T05:50:28Z</time></trkpt>
<trkpt lat="39.950054" lon="-8.244444">
<ele>530</ele>
<time>2026-05-08T05:50:40Z</time></trkpt>
<trkpt lat="39.950172" lon="-8.244295">
<ele>531</ele>
<time>2026-05-08T05:50:43Z</time></trkpt>
<trkpt lat="39.950712" lon="-8.243594">
<ele>525</ele>
<time>2026-05-08T05:50:59Z</time></trkpt>
<trkpt lat="39.951483" lon="-8.242592">
<ele>522</ele>
<time>2026-05-08T05:51:21Z</time></trkpt>
<trkpt lat="39.951609" lon="-8.242399">
<ele>523</ele>
<time>2026-05-08T05:51:24Z</time></trkpt>
<trkpt lat="39.951736" lon="-8.242111">
<ele>523</ele>
<time>2026-05-08T05:51:30Z</time></trkpt>
<trkpt lat="39.951799" lon="-8.241845">
<ele>523</ele>
<time>2026-05-08T05:51:34Z</time></trkpt>
<trkpt lat="39.951823" lon="-8.241637">
<ele>522</ele>
<time>2026-05-08T05:51:37Z</time></trkpt>
<trkpt lat="39.951826" lon="-8.241426">
<ele>521</ele>
<time>2026-05-08T05:51:40Z</time></trkpt>
<trkpt lat="39.95178" lon="-8.241055">
<ele>518</ele>
<time>2026-05-08T05:51:46Z</time></trkpt>
<trkpt lat="39.951758" lon="-8.240924">
<ele>517</ele>
<time>2026-05-08T05:51:48Z</time></trkpt>
<trkpt lat="39.951535" lon="-8.239803">
<ele>520</ele>
<time>2026-05-08T05:52:06Z</time></trkpt>
<trkpt lat="39.95144" lon="-8.239237">
<ele>522</ele>
<time>2026-05-08T05:52:15Z</time></trkpt>
<trkpt lat="39.951429" lon="-8.239018">
<ele>523</ele>
<time>2026-05-08T05:52:18Z</time></trkpt>
<trkpt lat="39.951437" lon="-8.238804">
<ele>525</ele>
<time>2026-05-08T05:52:21Z</time></trkpt>
<trkpt lat="39.951494" lon="-8.238504">
<ele>527</ele>
<time>2026-05-08T05:52:26Z</time></trkpt>
<trkpt lat="39.951555" lon="-8.238332">
<ele>529</ele>
<time>2026-05-08T05:52:29Z</time></trkpt>
<trkpt lat="39.95163" lon="-8.238178">
<ele>530</ele>
<time>2026-05-08T05:52:32Z</time></trkpt>
<trkpt lat="39.951769" lon="-8.237968">
<ele>532</ele>
<time>2026-05-08T05:52:36Z</time></trkpt>
<trkpt lat="39.952021" lon="-8.237726">
<ele>533</ele>
<time>2026-05-08T05:52:42Z</time></trkpt>
<trkpt lat="39.953782" lon="-8.236562">
<ele>516</ele>
<time>2026-05-08T05:53:22Z</time></trkpt>
<trkpt lat="39.953914" lon="-8.236457">
<ele>514</ele>
<time>2026-05-08T05:53:25Z</time></trkpt>
<trkpt lat="39.954073" lon="-8.236282">
<ele>510</ele>
<time>2026-05-08T05:53:29Z</time></trkpt>
<trkpt lat="39.954163" lon="-8.23614">
<ele>506</ele>
<time>2026-05-08T05:53:32Z</time></trkpt>
<trkpt lat="39.954245" lon="-8.235961">
<ele>503</ele>
<time>2026-05-08T05:53:35Z</time></trkpt>
<trkpt lat="39.954348" lon="-8.235644">
<ele>501</ele>
<time>2026-05-08T05:53:41Z</time></trkpt>
<trkpt lat="39.954385" lon="-8.235243">
<ele>499</ele>
<time>2026-05-08T05:53:47Z</time></trkpt>
<trkpt lat="39.954381" lon="-8.234593">
<ele>495</ele>
<time>2026-05-08T05:53:57Z</time></trkpt>
<trkpt lat="39.954405" lon="-8.234399">
<ele>495</ele>
<time>2026-05-08T05:54:00Z</time></trkpt>
<trkpt lat="39.954449" lon="-8.234209">
<ele>494</ele>
<time>2026-05-08T05:54:03Z</time></trkpt>
<trkpt lat="39.954528" lon="-8.233994">
<ele>493</ele>
<time>2026-05-08T05:54:07Z</time></trkpt>
<trkpt lat="39.954642" lon="-8.233777">
<ele>491</ele>
<time>2026-05-08T05:54:11Z</time></trkpt>
<trkpt lat="39.954823" lon="-8.233553">
<ele>490</ele>
<time>2026-05-08T05:54:16Z</time></trkpt>
<trkpt lat="39.955061" lon="-8.233331">
<ele>488</ele>
<time>2026-05-08T05:54:21Z</time></trkpt>
<trkpt lat="39.955149" lon="-8.233246">
<ele>488</ele>
<time>2026-05-08T05:54:24Z</time></trkpt>
<trkpt lat="39.95577" lon="-8.232641">
<ele>482</ele>
<time>2026-05-08T05:54:39Z</time></trkpt>
<trkpt lat="39.957867" lon="-8.230598">
<ele>472</ele>
<time>2026-05-08T05:55:32Z</time></trkpt>
<trkpt lat="39.958184" lon="-8.230289">
<ele>468</ele>
<time>2026-05-08T05:55:40Z</time></trkpt>
<trkpt lat="39.95849" lon="-8.229995">
<ele>462</ele>
<time>2026-05-08T05:55:47Z</time></trkpt>
<trkpt lat="39.958581" lon="-8.229907">
<ele>461</ele>
<time>2026-05-08T05:55:49Z</time></trkpt>
<trkpt lat="39.959364" lon="-8.22914">
<ele>451</ele>
<time>2026-05-08T05:56:09Z</time></trkpt>
<trkpt lat="39.96007" lon="-8.228442">
<ele>448</ele>
<time>2026-05-08T05:56:27Z</time></trkpt>
<trkpt lat="39.960263" lon="-8.228212">
<ele>446</ele>
<time>2026-05-08T05:56:32Z</time></trkpt>
<trkpt lat="39.960458" lon="-8.227948">
<ele>445</ele>
<time>2026-05-08T05:56:38Z</time></trkpt>
<trkpt lat="39.960753" lon="-8.227424">
<ele>444</ele>
<time>2026-05-08T05:56:48Z</time></trkpt>
<trkpt lat="39.961581" lon="-8.225796">
<ele>448</ele>
<time>2026-05-08T05:57:18Z</time></trkpt>
<trkpt lat="39.96204" lon="-8.224886">
<ele>449</ele>
<time>2026-05-08T05:57:34Z</time></trkpt>
<trkpt lat="39.962237" lon="-8.224516">
<ele>450</ele>
<time>2026-05-08T05:57:41Z</time></trkpt>
<trkpt lat="39.96242" lon="-8.224227">
<ele>450</ele>
<time>2026-05-08T05:57:47Z</time></trkpt>
<trkpt lat="39.962622" lon="-8.223998">
<ele>452</ele>
<time>2026-05-08T05:57:52Z</time></trkpt>
<trkpt lat="39.962714" lon="-8.223915">
<ele>452</ele>
<time>2026-05-08T05:57:55Z</time></trkpt>
<trkpt lat="39.963004" lon="-8.22375">
<ele>453</ele>
<time>2026-05-08T05:58:01Z</time></trkpt>
<trkpt lat="39.963288" lon="-8.223674">
<ele>453</ele>
<time>2026-05-08T05:58:07Z</time></trkpt>
<trkpt lat="39.963422" lon="-8.22367">
<ele>453</ele>
<time>2026-05-08T05:58:09Z</time></trkpt>
<trkpt lat="39.963547" lon="-8.223682">
<ele>451</ele>
<time>2026-05-08T05:58:12Z</time></trkpt>
<trkpt lat="39.963919" lon="-8.22377">
<ele>448</ele>
<time>2026-05-08T05:58:20Z</time></trkpt>
<trkpt lat="39.964881" lon="-8.224118">
<ele>439</ele>
<time>2026-05-08T05:58:40Z</time></trkpt>
<trkpt lat="39.965036" lon="-8.224118">
<ele>437</ele>
<time>2026-05-08T05:58:43Z</time></trkpt>
<trkpt lat="39.965449" lon="-8.223989">
<ele>437</ele>
<time>2026-05-08T05:58:51Z</time></trkpt>
<trkpt lat="39.965578" lon="-8.223936">
<ele>437</ele>
<time>2026-05-08T05:58:54Z</time></trkpt>
<trkpt lat="39.966494" lon="-8.223597">
<ele>438</ele>
<time>2026-05-08T05:59:13Z</time></trkpt>
<trkpt lat="39.966594" lon="-8.223559">
<ele>439</ele>
<time>2026-05-08T05:59:15Z</time></trkpt>
<trkpt lat="39.966707" lon="-8.22352">
<ele>440</ele>
<time>2026-05-08T05:59:17Z</time></trkpt>
<trkpt lat="39.967332" lon="-8.223292">
<ele>443</ele>
<time>2026-05-08T05:59:30Z</time></trkpt>
<trkpt lat="39.969227" lon="-8.222607">
<ele>441</ele>
<time>2026-05-08T06:00:10Z</time></trkpt>
<trkpt lat="39.970308" lon="-8.222233">
<ele>440</ele>
<time>2026-05-08T06:00:32Z</time></trkpt>
<trkpt lat="39.970522" lon="-8.222181">
<ele>440</ele>
<time>2026-05-08T06:00:37Z</time></trkpt>
<trkpt lat="39.970883" lon="-8.222153">
<ele>440</ele>
<time>2026-05-08T06:00:44Z</time></trkpt>
<trkpt lat="39.971232" lon="-8.22219">
<ele>440</ele>
<time>2026-05-08T06:00:51Z</time></trkpt>
<trkpt lat="39.971546" lon="-8.222271">
<ele>441</ele>
<time>2026-05-08T06:00:57Z</time></trkpt>
<trkpt lat="39.973668" lon="-8.223134">
<ele>460</ele>
<time>2026-05-08T06:01:42Z</time></trkpt>
<trkpt lat="39.973844" lon="-8.223183">
<ele>462</ele>
<time>2026-05-08T06:01:45Z</time></trkpt>
<trkpt lat="39.974096" lon="-8.223202">
<ele>465</ele>
<time>2026-05-08T06:01:50Z</time></trkpt>
<trkpt lat="39.974358" lon="-8.223149">
<ele>469</ele>
<time>2026-05-08T06:01:56Z</time></trkpt>
<trkpt lat="39.974587" lon="-8.223019">
<ele>472</ele>
<time>2026-05-08T06:02:01Z</time></trkpt>
<trkpt lat="39.97478" lon="-8.222854">
<ele>473</ele>
<time>2026-05-08T06:02:05Z</time></trkpt>
<trkpt lat="39.974955" lon="-8.222704">
<ele>473</ele>
<time>2026-05-08T06:02:10Z</time></trkpt>
<trkpt lat="39.975289" lon="-8.2224">
<ele>471</ele>
<time>2026-05-08T06:02:18Z</time></trkpt>
<trkpt lat="39.975449" lon="-8.222284">
<ele>471</ele>
<time>2026-05-08T06:02:21Z</time></trkpt>
<trkpt lat="39.975594" lon="-8.222212">
<ele>471</ele>
<time>2026-05-08T06:02:25Z</time></trkpt>
<trkpt lat="39.975754" lon="-8.222167">
<ele>472</ele>
<time>2026-05-08T06:02:28Z</time></trkpt>
<trkpt lat="39.975866" lon="-8.222149">
<ele>471</ele>
<time>2026-05-08T06:02:30Z</time></trkpt>
<trkpt lat="39.976255" lon="-8.222169">
<ele>468</ele>
<time>2026-05-08T06:02:38Z</time></trkpt>
<trkpt lat="39.97645" lon="-8.222165">
<ele>466</ele>
<time>2026-05-08T06:02:42Z</time></trkpt>
<trkpt lat="39.976633" lon="-8.222121">
<ele>464</ele>
<time>2026-05-08T06:02:46Z</time></trkpt>
<trkpt lat="39.976788" lon="-8.222043">
<ele>463</ele>
<time>2026-05-08T06:02:49Z</time></trkpt>
<trkpt lat="39.977054" lon="-8.221866">
<ele>463</ele>
<time>2026-05-08T06:02:55Z</time></trkpt>
<trkpt lat="39.9788" lon="-8.220584">
<ele>447</ele>
<time>2026-05-08T06:03:35Z</time></trkpt>
<trkpt lat="39.979212" lon="-8.220255">
<ele>447</ele>
<time>2026-05-08T06:03:45Z</time></trkpt>
<trkpt lat="39.979708" lon="-8.21975">
<ele>453</ele>
<time>2026-05-08T06:03:57Z</time></trkpt>
<trkpt lat="39.979968" lon="-8.21944">
<ele>459</ele>
<time>2026-05-08T06:04:04Z</time></trkpt>
<trkpt lat="39.980112" lon="-8.219234">
<ele>463</ele>
<time>2026-05-08T06:04:09Z</time></trkpt>
<trkpt lat="39.980213" lon="-8.218882">
<ele>467</ele>
<time>2026-05-08T06:04:14Z</time></trkpt>
<trkpt lat="39.980252" lon="-8.218657">
<ele>468</ele>
<time>2026-05-08T06:04:18Z</time></trkpt>
<trkpt lat="39.980255" lon="-8.218551">
<ele>469</ele>
<time>2026-05-08T06:04:20Z</time></trkpt>
<trkpt lat="39.980223" lon="-8.218441">
<ele>469</ele>
<time>2026-05-08T06:04:21Z</time></trkpt>
<trkpt lat="39.980191" lon="-8.218363">
<ele>470</ele>
<time>2026-05-08T06:04:23Z</time></trkpt>
<trkpt lat="39.980181" lon="-8.218276">
<ele>469</ele>
<time>2026-05-08T06:04:24Z</time></trkpt>
<trkpt lat="39.980194" lon="-8.21819">
<ele>469</ele>
<time>2026-05-08T06:04:25Z</time></trkpt>
<trkpt lat="39.980227" lon="-8.218113">
<ele>468</ele>
<time>2026-05-08T06:04:27Z</time></trkpt>
<trkpt lat="39.980278" lon="-8.218055">
<ele>468</ele>
<time>2026-05-08T06:04:28Z</time></trkpt>
<trkpt lat="39.98034" lon="-8.218022">
<ele>468</ele>
<time>2026-05-08T06:04:29Z</time></trkpt>
<trkpt lat="39.980408" lon="-8.218018">
<ele>469</ele>
<time>2026-05-08T06:04:31Z</time></trkpt>
<trkpt lat="39.980473" lon="-8.218043">
<ele>470</ele>
<time>2026-05-08T06:04:32Z</time></trkpt>
<trkpt lat="39.980528" lon="-8.218094">
<ele>470</ele>
<time>2026-05-08T06:04:34Z</time></trkpt>
<trkpt lat="39.980772" lon="-8.218078">
<ele>472</ele>
<time>2026-05-08T06:04:38Z</time></trkpt>
<trkpt lat="39.980954" lon="-8.217948">
<ele>475</ele>
<time>2026-05-08T06:04:43Z</time></trkpt>
<trkpt lat="39.981195" lon="-8.217644">
<ele>479</ele>
<time>2026-05-08T06:04:49Z</time></trkpt>
<trkpt lat="39.981437" lon="-8.217306">
<ele>483</ele>
<time>2026-05-08T06:04:56Z</time></trkpt>
<trkpt lat="39.981531" lon="-8.217198">
<ele>485</ele>
<time>2026-05-08T06:04:59Z</time></trkpt>
<trkpt lat="39.981636" lon="-8.21708">
<ele>486</ele>
<time>2026-05-08T06:05:02Z</time></trkpt>
<trkpt lat="39.98183" lon="-8.216932">
<ele>488</ele>
<time>2026-05-08T06:05:06Z</time></trkpt>
<trkpt lat="39.982081" lon="-8.216816">
<ele>490</ele>
<time>2026-05-08T06:05:12Z</time></trkpt>
<trkpt lat="39.982224" lon="-8.216773">
<ele>490</ele>
<time>2026-05-08T06:05:14Z</time></trkpt>
<trkpt lat="39.982384" lon="-8.216762">
<ele>492</ele>
<time>2026-05-08T06:05:18Z</time></trkpt>
<trkpt lat="39.982514" lon="-8.21677">
<ele>493</ele>
<time>2026-05-08T06:05:20Z</time></trkpt>
<trkpt lat="39.982759" lon="-8.216822">
<ele>494</ele>
<time>2026-05-08T06:05:25Z</time></trkpt>
<trkpt lat="39.983627" lon="-8.217155">
<ele>497</ele>
<time>2026-05-08T06:05:43Z</time></trkpt>
<trkpt lat="39.9838754" lon="-8.2171919">
<ele>496</ele>
<time>2026-05-08T06:05:48Z</time></trkpt>
<trkpt lat="39.983977" lon="-8.217207">
<ele>496</ele>
<time>2026-05-08T06:05:50Z</time></trkpt>
<trkpt lat="39.984213" lon="-8.217151">
<ele>495</ele>
<time>2026-05-08T06:05:55Z</time></trkpt>
<trkpt lat="39.984906" lon="-8.216726">
<ele>493</ele>
<time>2026-05-08T06:06:11Z</time></trkpt>
<trkpt lat="39.984998" lon="-8.216691">
<ele>492</ele>
<time>2026-05-08T06:06:13Z</time></trkpt>
<trkpt lat="39.985088" lon="-8.216674">
<ele>493</ele>
<time>2026-05-08T06:06:14Z</time></trkpt>
<trkpt lat="39.985577" lon="-8.216716">
<ele>497</ele>
<time>2026-05-08T06:06:24Z</time></trkpt>
<trkpt lat="39.985672" lon="-8.216704">
<ele>497</ele>
<time>2026-05-08T06:06:26Z</time></trkpt>
<trkpt lat="39.985782" lon="-8.216666">
<ele>498</ele>
<time>2026-05-08T06:06:28Z</time></trkpt>
<trkpt lat="39.986104" lon="-8.216505">
<ele>499</ele>
<time>2026-05-08T06:06:35Z</time></trkpt>
<trkpt lat="39.9861732" lon="-8.2164632">
<ele>499</ele>
<time>2026-05-08T06:06:37Z</time></trkpt>
<trkpt lat="39.986485" lon="-8.216275">
<ele>499</ele>
<time>2026-05-08T06:06:44Z</time></trkpt>
<trkpt lat="39.986485" lon="-8.216275">
<ele>499</ele>
<time>2026-05-08T06:06:44Z</time></trkpt>
<trkpt lat="39.987608" lon="-8.215604">
<ele>496</ele>
<time>2026-05-08T06:07:08Z</time></trkpt>
<trkpt lat="39.988295" lon="-8.215168">
<ele>496</ele>
<time>2026-05-08T06:07:24Z</time></trkpt>
<trkpt lat="39.989407" lon="-8.21366">
<ele>491</ele>
<time>2026-05-08T06:07:56Z</time></trkpt>
<trkpt lat="39.990068" lon="-8.213079">
<ele>482</ele>
<time>2026-05-08T06:08:12Z</time></trkpt>
<trkpt lat="39.991221" lon="-8.212476">
<ele>482</ele>
<time>2026-05-08T06:08:37Z</time></trkpt>
<trkpt lat="39.991334" lon="-8.212443">
<ele>483</ele>
<time>2026-05-08T06:08:39Z</time></trkpt>
<trkpt lat="39.991377" lon="-8.212441">
<ele>483</ele>
<time>2026-05-08T06:08:40Z</time></trkpt>
<trkpt lat="39.991521" lon="-8.212509">
<ele>484</ele>
<time>2026-05-08T06:08:43Z</time></trkpt>
<trkpt lat="39.991886" lon="-8.21289">
<ele>482</ele>
<time>2026-05-08T06:08:52Z</time></trkpt>
<trkpt lat="39.991932" lon="-8.212952">
<ele>482</ele>
<time>2026-05-08T06:08:54Z</time></trkpt>
<trkpt lat="39.991988" lon="-8.213101">
<ele>481</ele>
<time>2026-05-08T06:08:56Z</time></trkpt>
<trkpt lat="39.992009" lon="-8.21339">
<ele>483</ele>
<time>2026-05-08T06:09:01Z</time></trkpt>
<trkpt lat="39.99203" lon="-8.213479">
<ele>484</ele>
<time>2026-05-08T06:09:02Z</time></trkpt>
<trkpt lat="39.992082" lon="-8.213572">
<ele>485</ele>
<time>2026-05-08T06:09:04Z</time></trkpt>
<trkpt lat="39.992155" lon="-8.213652">
<ele>486</ele>
<time>2026-05-08T06:09:06Z</time></trkpt>
<trkpt lat="39.992257" lon="-8.213718">
<ele>486</ele>
<time>2026-05-08T06:09:08Z</time></trkpt>
<trkpt lat="39.992722" lon="-8.21389">
<ele>483</ele>
<time>2026-05-08T06:09:18Z</time></trkpt>
<trkpt lat="39.992887" lon="-8.214018">
<ele>482</ele>
<time>2026-05-08T06:09:22Z</time></trkpt>
<trkpt lat="39.993148" lon="-8.214553">
<ele>483</ele>
<time>2026-05-08T06:09:31Z</time></trkpt>
<trkpt lat="39.993398" lon="-8.215384">
<ele>484</ele>
<time>2026-05-08T06:09:45Z</time></trkpt>
<trkpt lat="39.993528" lon="-8.215649">
<ele>484</ele>
<time>2026-05-08T06:09:50Z</time></trkpt>
<trkpt lat="39.993659" lon="-8.215802">
<ele>483</ele>
<time>2026-05-08T06:09:53Z</time></trkpt>
<trkpt lat="39.993821" lon="-8.215908">
<ele>482</ele>
<time>2026-05-08T06:09:57Z</time></trkpt>
<trkpt lat="39.994008" lon="-8.215962">
<ele>480</ele>
<time>2026-05-08T06:10:01Z</time></trkpt>
<trkpt lat="39.994195" lon="-8.215959">
<ele>477</ele>
<time>2026-05-08T06:10:05Z</time></trkpt>
<trkpt lat="39.994251" lon="-8.215958">
<ele>477</ele>
<time>2026-05-08T06:10:06Z</time></trkpt>
<trkpt lat="39.995386" lon="-8.215435">
<ele>475</ele>
<time>2026-05-08T06:10:30Z</time></trkpt>
<trkpt lat="39.995534" lon="-8.215331">
<ele>474</ele>
<time>2026-05-08T06:10:33Z</time></trkpt>
<trkpt lat="39.995664" lon="-8.215202">
<ele>474</ele>
<time>2026-05-08T06:10:36Z</time></trkpt>
<trkpt lat="39.995782" lon="-8.215015">
<ele>472</ele>
<time>2026-05-08T06:10:40Z</time></trkpt>
<trkpt lat="39.996107" lon="-8.214416">
<ele>474</ele>
<time>2026-05-08T06:10:51Z</time></trkpt>
<trkpt lat="39.996206" lon="-8.214231">
<ele>474</ele>
<time>2026-05-08T06:10:55Z</time></trkpt>
<trkpt lat="39.996286" lon="-8.214072">
<ele>475</ele>
<time>2026-05-08T06:10:58Z</time></trkpt>
<trkpt lat="39.99668" lon="-8.213285">
<ele>480</ele>
<time>2026-05-08T06:11:12Z</time></trkpt>
<trkpt lat="39.996848" lon="-8.212988">
<ele>479</ele>
<time>2026-05-08T06:11:18Z</time></trkpt>
<trkpt lat="39.997044" lon="-8.212718">
<ele>478</ele>
<time>2026-05-08T06:11:24Z</time></trkpt>
<trkpt lat="39.997189" lon="-8.212525">
<ele>478</ele>
<time>2026-05-08T06:11:28Z</time></trkpt>
<trkpt lat="39.997266" lon="-8.212426">
<ele>478</ele>
<time>2026-05-08T06:11:30Z</time></trkpt>
<trkpt lat="39.997362" lon="-8.212303">
<ele>477</ele>
<time>2026-05-08T06:11:33Z</time></trkpt>
<trkpt lat="39.998093" lon="-8.211692">
<ele>472</ele>
<time>2026-05-08T06:11:50Z</time></trkpt>
<trkpt lat="39.998568" lon="-8.211295">
<ele>472</ele>
<time>2026-05-08T06:12:01Z</time></trkpt>
<trkpt lat="39.998638" lon="-8.211004">
<ele>471</ele>
<time>2026-05-08T06:12:06Z</time></trkpt>
<trkpt lat="39.998648" lon="-8.210886">
<ele>471</ele>
<time>2026-05-08T06:12:08Z</time></trkpt>
<trkpt lat="39.998618" lon="-8.210813">
<ele>470</ele>
<time>2026-05-08T06:12:09Z</time></trkpt>
<trkpt lat="39.998609" lon="-8.210685">
<ele>469</ele>
<time>2026-05-08T06:12:11Z</time></trkpt>
<trkpt lat="39.998626" lon="-8.210613">
<ele>469</ele>
<time>2026-05-08T06:12:12Z</time></trkpt>
<trkpt lat="39.998706" lon="-8.210501">
<ele>470</ele>
<time>2026-05-08T06:12:15Z</time></trkpt>
<trkpt lat="39.998764" lon="-8.210472">
<ele>470</ele>
<time>2026-05-08T06:12:16Z</time></trkpt>
<trkpt lat="39.998889" lon="-8.210305">
<ele>470</ele>
<time>2026-05-08T06:12:19Z</time></trkpt>
<trkpt lat="39.998998" lon="-8.210104">
<ele>469</ele>
<time>2026-05-08T06:12:23Z</time></trkpt>
<trkpt lat="39.999068" lon="-8.20988">
<ele>468</ele>
<time>2026-05-08T06:12:27Z</time></trkpt>
<trkpt lat="39.999169" lon="-8.209639">
<ele>466</ele>
<time>2026-05-08T06:12:31Z</time></trkpt>
<trkpt lat="39.999302" lon="-8.209416">
<ele>465</ele>
<time>2026-05-08T06:12:35Z</time></trkpt>
<trkpt lat="39.999381" lon="-8.20932">
<ele>465</ele>
<time>2026-05-08T06:12:38Z</time></trkpt>
<trkpt lat="39.999546" lon="-8.209164">
<ele>463</ele>
<time>2026-05-08T06:12:42Z</time></trkpt>
<trkpt lat="40.000111" lon="-8.208792">
<ele>464</ele>
<time>2026-05-08T06:12:54Z</time></trkpt>
<trkpt lat="40.000317" lon="-8.208673">
<ele>463</ele>
<time>2026-05-08T06:12:59Z</time></trkpt>
<trkpt lat="40.000398" lon="-8.208669">
<ele>463</ele>
<time>2026-05-08T06:13:01Z</time></trkpt>
<trkpt lat="40.000398" lon="-8.208669">
<ele>463</ele>
<time>2026-05-08T06:13:01Z</time></trkpt>
<trkpt lat="40.000493" lon="-8.208663">
<ele>464</ele>
<time>2026-05-08T06:13:02Z</time></trkpt>
<trkpt lat="40.001329" lon="-8.208832">
<ele>460</ele>
<time>2026-05-08T06:13:19Z</time></trkpt>
<trkpt lat="40.001413" lon="-8.208805">
<ele>460</ele>
<time>2026-05-08T06:13:21Z</time></trkpt>
<trkpt lat="40.00161" lon="-8.208678">
<ele>459</ele>
<time>2026-05-08T06:13:26Z</time></trkpt>
<trkpt lat="40.001683" lon="-8.208572">
<ele>458</ele>
<time>2026-05-08T06:13:28Z</time></trkpt>
<trkpt lat="40.001841" lon="-8.2084">
<ele>457</ele>
<time>2026-05-08T06:13:32Z</time></trkpt>
<trkpt lat="40.001944" lon="-8.208269">
<ele>457</ele>
<time>2026-05-08T06:13:35Z</time></trkpt>
<trkpt lat="40.001972" lon="-8.20821">
<ele>457</ele>
<time>2026-05-08T06:13:36Z</time></trkpt>
<trkpt lat="40.00227" lon="-8.207149">
<ele>459</ele>
<time>2026-05-08T06:13:53Z</time></trkpt>
<trkpt lat="40.002305" lon="-8.207066">
<ele>458</ele>
<time>2026-05-08T06:13:55Z</time></trkpt>
<trkpt lat="40.002347" lon="-8.207012">
<ele>457</ele>
<time>2026-05-08T06:13:56Z</time></trkpt>
<trkpt lat="40.002385" lon="-8.206976">
<ele>456</ele>
<time>2026-05-08T06:13:57Z</time></trkpt>
<trkpt lat="40.002474" lon="-8.206926">
<ele>454</ele>
<time>2026-05-08T06:13:59Z</time></trkpt>
<trkpt lat="40.002815" lon="-8.206865">
<ele>454</ele>
<time>2026-05-08T06:14:06Z</time></trkpt>
<trkpt lat="40.002894" lon="-8.206838">
<ele>454</ele>
<time>2026-05-08T06:14:07Z</time></trkpt>
<trkpt lat="40.003144" lon="-8.207073">
<ele>453</ele>
<time>2026-05-08T06:14:13Z</time></trkpt>
<trkpt lat="40.0032966" lon="-8.2071537">
<ele>452</ele>
<time>2026-05-08T06:14:17Z</time></trkpt>
<trkpt lat="40.003333" lon="-8.207173">
<ele>452</ele>
<time>2026-05-08T06:14:17Z</time></trkpt>
<trkpt lat="40.003511" lon="-8.207208">
<ele>452</ele>
<time>2026-05-08T06:14:21Z</time></trkpt>
<trkpt lat="40.003606" lon="-8.207203">
<ele>452</ele>
<time>2026-05-08T06:14:23Z</time></trkpt>
<trkpt lat="40.00384" lon="-8.207138">
<ele>453</ele>
<time>2026-05-08T06:14:28Z</time></trkpt>
<trkpt lat="40.003975" lon="-8.207045">
<ele>453</ele>
<time>2026-05-08T06:14:31Z</time></trkpt>
<trkpt lat="40.00413" lon="-8.206863">
<ele>454</ele>
<time>2026-05-08T06:14:35Z</time></trkpt>
<trkpt lat="40.004457" lon="-8.20628">
<ele>455</ele>
<time>2026-05-08T06:14:46Z</time></trkpt>
<trkpt lat="40.004599" lon="-8.206081">
<ele>455</ele>
<time>2026-05-08T06:14:50Z</time></trkpt>
<trkpt lat="40.004675" lon="-8.206008">
<ele>454</ele>
<time>2026-05-08T06:14:52Z</time></trkpt>
<trkpt lat="40.004675" lon="-8.206008">
<ele>454</ele>
<time>2026-05-08T06:14:52Z</time></trkpt>
<trkpt lat="40.004861" lon="-8.205854">
<ele>452</ele>
<time>2026-05-08T06:14:57Z</time></trkpt>
<trkpt lat="40.005192" lon="-8.205686">
<ele>454</ele>
<time>2026-05-08T06:15:04Z</time></trkpt>
<trkpt lat="40.005403" lon="-8.205493">
<ele>458</ele>
<time>2026-05-08T06:15:09Z</time></trkpt>
<trkpt lat="40.005446" lon="-8.205379">
<ele>461</ele>
<time>2026-05-08T06:15:11Z</time></trkpt>
<trkpt lat="40.005528" lon="-8.205309">
<ele>462</ele>
<time>2026-05-08T06:15:13Z</time></trkpt>
<trkpt lat="40.005626" lon="-8.205302">
<ele>463</ele>
<time>2026-05-08T06:15:15Z</time></trkpt>
<trkpt lat="40.005712" lon="-8.205361">
<ele>461</ele>
<time>2026-05-08T06:15:17Z</time></trkpt>
<trkpt lat="40.005761" lon="-8.205457">
<ele>460</ele>
<time>2026-05-08T06:15:18Z</time></trkpt>
<trkpt lat="40.005771" lon="-8.205571">
<ele>457</ele>
<time>2026-05-08T06:15:20Z</time></trkpt>
<trkpt lat="40.005759" lon="-8.205629">
<ele>456</ele>
<time>2026-05-08T06:15:21Z</time></trkpt>
<trkpt lat="40.005707" lon="-8.205725">
<ele>454</ele>
<time>2026-05-08T06:15:23Z</time></trkpt>
<trkpt lat="40.005712" lon="-8.205946">
<ele>452</ele>
<time>2026-05-08T06:15:26Z</time></trkpt>
<trkpt lat="40.006327" lon="-8.20782">
<ele>464</ele>
<time>2026-05-08T06:15:58Z</time></trkpt>
<trkpt lat="40.006327" lon="-8.20782">
<ele>464</ele>
<time>2026-05-08T06:15:58Z</time></trkpt>
<trkpt lat="40.0066173" lon="-8.2087038">
<ele>465</ele>
<time>2026-05-08T06:16:12Z</time></trkpt>
<trkpt lat="40.0066243" lon="-8.2087251">
<ele>465</ele>
<time>2026-05-08T06:16:13Z</time></trkpt>
<trkpt lat="40.006663" lon="-8.208843">
<ele>466</ele>
<time>2026-05-08T06:16:15Z</time></trkpt>
<trkpt lat="40.006736" lon="-8.208999">
<ele>467</ele>
<time>2026-05-08T06:16:17Z</time></trkpt>
<trkpt lat="40.006756" lon="-8.208996">
<ele>467</ele>
<time>2026-05-08T06:16:18Z</time></trkpt>
<trkpt lat="40.006826" lon="-8.209022">
<ele>468</ele>
<time>2026-05-08T06:16:19Z</time></trkpt>
<trkpt lat="40.006871" lon="-8.209097">
<ele>468</ele>
<time>2026-05-08T06:16:21Z</time></trkpt>
<trkpt lat="40.006878" lon="-8.209147">
<ele>469</ele>
<time>2026-05-08T06:16:22Z</time></trkpt>
<trkpt lat="40.006855" lon="-8.209242">
<ele>468</ele>
<time>2026-05-08T06:16:23Z</time></trkpt>
<trkpt lat="40.006869" lon="-8.209354">
<ele>468</ele>
<time>2026-05-08T06:16:25Z</time></trkpt>
<trkpt lat="40.006858" lon="-8.209521">
<ele>468</ele>
<time>2026-05-08T06:16:27Z</time></trkpt>
<trkpt lat="40.006802" lon="-8.209723">
<ele>468</ele>
<time>2026-05-08T06:16:31Z</time></trkpt>
<trkpt lat="40.006372" lon="-8.210274">
<ele>469</ele>
<time>2026-05-08T06:16:43Z</time></trkpt>
<trkpt lat="40.006323" lon="-8.210396">
<ele>470</ele>
<time>2026-05-08T06:16:45Z</time></trkpt>
<trkpt lat="40.006323" lon="-8.210396">
<ele>470</ele>
<time>2026-05-08T06:16:45Z</time></trkpt>
<trkpt lat="40.006293" lon="-8.210473">
<ele>471</ele>
<time>2026-05-08T06:16:46Z</time></trkpt>
<trkpt lat="40.006198" lon="-8.210864">
<ele>473</ele>
<time>2026-05-08T06:16:53Z</time></trkpt>
<trkpt lat="40.006213" lon="-8.211004">
<ele>474</ele>
<time>2026-05-08T06:16:55Z</time></trkpt>
<trkpt lat="40.006337" lon="-8.211221">
<ele>476</ele>
<time>2026-05-08T06:16:59Z</time></trkpt>
<trkpt lat="40.006373" lon="-8.211243">
<ele>476</ele>
<time>2026-05-08T06:17:00Z</time></trkpt>
<trkpt lat="40.006409" lon="-8.211223">
<ele>476</ele>
<time>2026-05-08T06:17:00Z</time></trkpt>
<trkpt lat="40.0065104" lon="-8.211093">
<ele>476</ele>
<time>2026-05-08T06:17:03Z</time></trkpt>
<trkpt lat="40.006995" lon="-8.210472">
<ele>473</ele>
<time>2026-05-08T06:17:17Z</time></trkpt>
<trkpt lat="40.007101" lon="-8.210423">
<ele>473</ele>
<time>2026-05-08T06:17:19Z</time></trkpt>
<trkpt lat="40.007144" lon="-8.210431">
<ele>473</ele>
<time>2026-05-08T06:17:20Z</time></trkpt>
<trkpt lat="40.007144" lon="-8.210431">
<ele>473</ele>
<time>2026-05-08T06:17:20Z</time></trkpt>
<trkpt lat="40.007319" lon="-8.210463">
<ele>474</ele>
<time>2026-05-08T06:17:24Z</time></trkpt>
<trkpt lat="40.007457" lon="-8.210525">
<ele>475</ele>
<time>2026-05-08T06:17:26Z</time></trkpt>
<trkpt lat="40.007552" lon="-8.210642">
<ele>476</ele>
<time>2026-05-08T06:17:29Z</time></trkpt>
<trkpt lat="40.007619" lon="-8.210861">
<ele>478</ele>
<time>2026-05-08T06:17:33Z</time></trkpt>
<trkpt lat="40.007646" lon="-8.210959">
<ele>478</ele>
<time>2026-05-08T06:17:34Z</time></trkpt>
<trkpt lat="40.007799" lon="-8.211362">
<ele>481</ele>
<time>2026-05-08T06:17:41Z</time></trkpt>
<trkpt lat="40.007954" lon="-8.211608">
<ele>482</ele>
<time>2026-05-08T06:17:46Z</time></trkpt>
<trkpt lat="40.008153" lon="-8.211842">
<ele>483</ele>
<time>2026-05-08T06:17:51Z</time></trkpt>
<trkpt lat="40.008394" lon="-8.212086">
<ele>486</ele>
<time>2026-05-08T06:17:58Z</time></trkpt>
<trkpt lat="40.008547" lon="-8.212215">
<ele>487</ele>
<time>2026-05-08T06:18:01Z</time></trkpt>
<trkpt lat="40.00902" lon="-8.212543">
<ele>485</ele>
<time>2026-05-08T06:18:12Z</time></trkpt>
<trkpt lat="40.009192" lon="-8.212627">
<ele>483</ele>
<time>2026-05-08T06:18:16Z</time></trkpt>
<trkpt lat="40.009678" lon="-8.212809">
<ele>483</ele>
<time>2026-05-08T06:18:26Z</time></trkpt>
<trkpt lat="40.010139" lon="-8.213255">
<ele>484</ele>
<time>2026-05-08T06:18:37Z</time></trkpt>
<trkpt lat="40.01035" lon="-8.213438">
<ele>486</ele>
<time>2026-05-08T06:18:42Z</time></trkpt>
<trkpt lat="40.010784" lon="-8.213708">
<ele>488</ele>
<time>2026-05-08T06:18:52Z</time></trkpt>
<trkpt lat="40.010957" lon="-8.213794">
<ele>490</ele>
<time>2026-05-08T06:18:56Z</time></trkpt>
<trkpt lat="40.011079" lon="-8.213828">
<ele>491</ele>
<time>2026-05-08T06:18:58Z</time></trkpt>
<trkpt lat="40.011312" lon="-8.213859">
<ele>494</ele>
<time>2026-05-08T06:19:03Z</time></trkpt>
<trkpt lat="40.011726" lon="-8.213961">
<ele>498</ele>
<time>2026-05-08T06:19:11Z</time></trkpt>
<trkpt lat="40.011822" lon="-8.214015">
<ele>499</ele>
<time>2026-05-08T06:19:13Z</time></trkpt>
<trkpt lat="40.012041" lon="-8.214233">
<ele>500</ele>
<time>2026-05-08T06:19:19Z</time></trkpt>
<trkpt lat="40.012278" lon="-8.214425">
<ele>501</ele>
<time>2026-05-08T06:19:25Z</time></trkpt>
<trkpt lat="40.012782" lon="-8.21489">
<ele>505</ele>
<time>2026-05-08T06:19:37Z</time></trkpt>
<trkpt lat="40.012932" lon="-8.215059">
<ele>506</ele>
<time>2026-05-08T06:19:41Z</time></trkpt>
<trkpt lat="40.012994" lon="-8.215197">
<ele>506</ele>
<time>2026-05-08T06:19:43Z</time></trkpt>
<trkpt lat="40.013082" lon="-8.215465">
<ele>507</ele>
<time>2026-05-08T06:19:48Z</time></trkpt>
<trkpt lat="40.013165" lon="-8.215593">
<ele>508</ele>
<time>2026-05-08T06:19:50Z</time></trkpt>
<trkpt lat="40.013279" lon="-8.215665">
<ele>508</ele>
<time>2026-05-08T06:19:53Z</time></trkpt>
<trkpt lat="40.013416" lon="-8.215657">
<ele>508</ele>
<time>2026-05-08T06:19:56Z</time></trkpt>
<trkpt lat="40.013564" lon="-8.215604">
<ele>508</ele>
<time>2026-05-08T06:19:59Z</time></trkpt>
<trkpt lat="40.013759" lon="-8.215473">
<ele>507</ele>
<time>2026-05-08T06:20:03Z</time></trkpt>
<trkpt lat="40.013888" lon="-8.215444">
<ele>507</ele>
<time>2026-05-08T06:20:06Z</time></trkpt>
<trkpt lat="40.014188" lon="-8.21548">
<ele>508</ele>
<time>2026-05-08T06:20:12Z</time></trkpt>
<trkpt lat="40.014276" lon="-8.215506">
<ele>509</ele>
<time>2026-05-08T06:20:14Z</time></trkpt>
<trkpt lat="40.014546" lon="-8.215733">
<ele>511</ele>
<time>2026-05-08T06:20:20Z</time></trkpt>
<trkpt lat="40.014634" lon="-8.215772">
<ele>512</ele>
<time>2026-05-08T06:20:22Z</time></trkpt>
<trkpt lat="40.014728" lon="-8.215769">
<ele>512</ele>
<time>2026-05-08T06:20:24Z</time></trkpt>
<trkpt lat="40.015119" lon="-8.215659">
<ele>513</ele>
<time>2026-05-08T06:20:32Z</time></trkpt>
<trkpt lat="40.015224" lon="-8.215652">
<ele>514</ele>
<time>2026-05-08T06:20:34Z</time></trkpt>
<trkpt lat="40.015372" lon="-8.215674">
<ele>515</ele>
<time>2026-05-08T06:20:37Z</time></trkpt>
<trkpt lat="40.015835" lon="-8.215835">
<ele>519</ele>
<time>2026-05-08T06:20:46Z</time></trkpt>
<trkpt lat="40.016051" lon="-8.215868">
<ele>521</ele>
<time>2026-05-08T06:20:51Z</time></trkpt>
<trkpt lat="40.016377" lon="-8.215888">
<ele>525</ele>
<time>2026-05-08T06:20:57Z</time></trkpt>
<trkpt lat="40.01706" lon="-8.215782">
<ele>528</ele>
<time>2026-05-08T06:21:11Z</time></trkpt>
<trkpt lat="40.017204" lon="-8.215725">
<ele>529</ele>
<time>2026-05-08T06:21:14Z</time></trkpt>
<trkpt lat="40.017544" lon="-8.21554">
<ele>530</ele>
<time>2026-05-08T06:21:22Z</time></trkpt>
<trkpt lat="40.017973" lon="-8.215413">
<ele>534</ele>
<time>2026-05-08T06:21:30Z</time></trkpt>
<trkpt lat="40.018079" lon="-8.215402">
<ele>535</ele>
<time>2026-05-08T06:21:33Z</time></trkpt>
<trkpt lat="40.018219" lon="-8.215458">
<ele>537</ele>
<time>2026-05-08T06:21:35Z</time></trkpt>
<trkpt lat="40.018646" lon="-8.215785">
<ele>547</ele>
<time>2026-05-08T06:21:45Z</time></trkpt>
<trkpt lat="40.01887" lon="-8.21591">
<ele>552</ele>
<time>2026-05-08T06:21:50Z</time></trkpt>
<trkpt lat="40.020865" lon="-8.216088">
<ele>570</ele>
<time>2026-05-08T06:22:30Z</time></trkpt>
<trkpt lat="40.021236" lon="-8.216099">
<ele>574</ele>
<time>2026-05-08T06:22:38Z</time></trkpt>
<trkpt lat="40.021513" lon="-8.216052">
<ele>576</ele>
<time>2026-05-08T06:22:43Z</time></trkpt>
<trkpt lat="40.021755" lon="-8.215946">
<ele>577</ele>
<time>2026-05-08T06:22:48Z</time></trkpt>
<trkpt lat="40.022187" lon="-8.215639">
<ele>578</ele>
<time>2026-05-08T06:22:58Z</time></trkpt>
<trkpt lat="40.022342" lon="-8.215567">
<ele>579</ele>
<time>2026-05-08T06:23:02Z</time></trkpt>
<trkpt lat="40.023096" lon="-8.215387">
<ele>586</ele>
<time>2026-05-08T06:23:17Z</time></trkpt>
<trkpt lat="40.023887" lon="-8.215276">
<ele>594</ele>
<time>2026-05-08T06:23:33Z</time></trkpt>
<trkpt lat="40.024226" lon="-8.215141">
<ele>595</ele>
<time>2026-05-08T06:23:40Z</time></trkpt>
<trkpt lat="40.025033" lon="-8.214757">
<ele>597</ele>
<time>2026-05-08T06:23:57Z</time></trkpt>
<trkpt lat="40.025132" lon="-8.214737">
<ele>598</ele>
<time>2026-05-08T06:23:59Z</time></trkpt>
<trkpt lat="40.025256" lon="-8.214766">
<ele>599</ele>
<time>2026-05-08T06:24:02Z</time></trkpt>
<trkpt lat="40.025359" lon="-8.21489">
<ele>601</ele>
<time>2026-05-08T06:24:05Z</time></trkpt>
<trkpt lat="40.025383" lon="-8.214951">
<ele>601</ele>
<time>2026-05-08T06:24:06Z</time></trkpt>
<trkpt lat="40.025405" lon="-8.21509">
<ele>603</ele>
<time>2026-05-08T06:24:08Z</time></trkpt>
<trkpt lat="40.025393" lon="-8.215222">
<ele>605</ele>
<time>2026-05-08T06:24:10Z</time></trkpt>
<trkpt lat="40.02532" lon="-8.215393">
<ele>607</ele>
<time>2026-05-08T06:24:13Z</time></trkpt>
<trkpt lat="40.025208" lon="-8.215495">
<ele>608</ele>
<time>2026-05-08T06:24:16Z</time></trkpt>
<trkpt lat="40.024087" lon="-8.216158">
<ele>613</ele>
<time>2026-05-08T06:24:40Z</time></trkpt>
<trkpt lat="40.024002" lon="-8.216268">
<ele>613</ele>
<time>2026-05-08T06:24:43Z</time></trkpt>
<trkpt lat="40.023973" lon="-8.216339">
<ele>614</ele>
<time>2026-05-08T06:24:44Z</time></trkpt>
<trkpt lat="40.023958" lon="-8.21646">
<ele>616</ele>
<time>2026-05-08T06:24:46Z</time></trkpt>
<trkpt lat="40.02399" lon="-8.216605">
<ele>619</ele>
<time>2026-05-08T06:24:48Z</time></trkpt>
<trkpt lat="40.024025" lon="-8.216665">
<ele>620</ele>
<time>2026-05-08T06:24:49Z</time></trkpt>
<trkpt lat="40.024119" lon="-8.216738">
<ele>622</ele>
<time>2026-05-08T06:24:51Z</time></trkpt>
<trkpt lat="40.02418" lon="-8.216755">
<ele>623</ele>
<time>2026-05-08T06:24:53Z</time></trkpt>
<trkpt lat="40.024275" lon="-8.216744">
<ele>623</ele>
<time>2026-05-08T06:24:55Z</time></trkpt>
<trkpt lat="40.024743" lon="-8.216529">
<ele>622</ele>
<time>2026-05-08T06:25:05Z</time></trkpt>
<trkpt lat="40.024887" lon="-8.216509">
<ele>622</ele>
<time>2026-05-08T06:25:07Z</time></trkpt>
<trkpt lat="40.024957" lon="-8.216526">
<ele>623</ele>
<time>2026-05-08T06:25:09Z</time></trkpt>
<trkpt lat="40.025143" lon="-8.216625">
<ele>625</ele>
<time>2026-05-08T06:25:13Z</time></trkpt>
<trkpt lat="40.025675" lon="-8.217055">
<ele>638</ele>
<time>2026-05-08T06:25:25Z</time></trkpt>
<trkpt lat="40.025781" lon="-8.217078">
<ele>639</ele>
<time>2026-05-08T06:25:28Z</time></trkpt>
<trkpt lat="40.026652" lon="-8.217081">
<ele>648</ele>
<time>2026-05-08T06:25:45Z</time></trkpt>
<trkpt lat="40.027471" lon="-8.216882">
<ele>655</ele>
<time>2026-05-08T06:26:02Z</time></trkpt>
<trkpt lat="40.028016" lon="-8.216824">
<ele>659</ele>
<time>2026-05-08T06:26:13Z</time></trkpt>
<trkpt lat="40.028016" lon="-8.216824">
<ele>659</ele>
<time>2026-05-08T06:26:13Z</time></trkpt>
<trkpt lat="40.028369" lon="-8.216787">
<ele>662</ele>
<time>2026-05-08T06:26:20Z</time></trkpt>
<trkpt lat="40.028958" lon="-8.216797">
<ele>667</ele>
<time>2026-05-08T06:26:32Z</time></trkpt>
<trkpt lat="40.029196" lon="-8.216751">
<ele>668</ele>
<time>2026-05-08T06:26:36Z</time></trkpt>
<trkpt lat="40.029412" lon="-8.216666">
<ele>669</ele>
<time>2026-05-08T06:26:41Z</time></trkpt>
<trkpt lat="40.02948" lon="-8.216586">
<ele>671</ele>
<time>2026-05-08T06:26:43Z</time></trkpt>
<trkpt lat="40.029521" lon="-8.216497">
<ele>672</ele>
<time>2026-05-08T06:26:44Z</time></trkpt>
<trkpt lat="40.029528" lon="-8.2164">
<ele>673</ele>
<time>2026-05-08T06:26:46Z</time></trkpt>
<trkpt lat="40.029404" lon="-8.21611">
<ele>671</ele>
<time>2026-05-08T06:26:51Z</time></trkpt>
<trkpt lat="40.029336" lon="-8.215896">
<ele>669</ele>
<time>2026-05-08T06:26:54Z</time></trkpt>
<trkpt lat="40.02925" lon="-8.215349">
<ele>671</ele>
<time>2026-05-08T06:27:03Z</time></trkpt>
<trkpt lat="40.029254" lon="-8.215123">
<ele>674</ele>
<time>2026-05-08T06:27:07Z</time></trkpt>
<trkpt lat="40.029294" lon="-8.214967">
<ele>676</ele>
<time>2026-05-08T06:27:09Z</time></trkpt>
<trkpt lat="40.029509" lon="-8.214426">
<ele>682</ele>
<time>2026-05-08T06:27:18Z</time></trkpt>
<trkpt lat="40.029543" lon="-8.214283">
<ele>682</ele>
<time>2026-05-08T06:27:21Z</time></trkpt>
<trkpt lat="40.029556" lon="-8.214108">
<ele>683</ele>
<time>2026-05-08T06:27:23Z</time></trkpt>
<trkpt lat="40.029517" lon="-8.213853">
<ele>684</ele>
<time>2026-05-08T06:27:27Z</time></trkpt>
<trkpt lat="40.029349" lon="-8.213411">
<ele>684</ele>
<time>2026-05-08T06:27:35Z</time></trkpt>
<trkpt lat="40.029306" lon="-8.213247">
<ele>683</ele>
<time>2026-05-08T06:27:38Z</time></trkpt>
<trkpt lat="40.029293" lon="-8.212965">
<ele>683</ele>
<time>2026-05-08T06:27:42Z</time></trkpt>
<trkpt lat="40.029354" lon="-8.212721">
<ele>686</ele>
<time>2026-05-08T06:27:46Z</time></trkpt>
<trkpt lat="40.029541" lon="-8.212271">
<ele>695</ele>
<time>2026-05-08T06:27:54Z</time></trkpt>
<trkpt lat="40.029577" lon="-8.212049">
<ele>698</ele>
<time>2026-05-08T06:27:57Z</time></trkpt>
<trkpt lat="40.02957" lon="-8.211803">
<ele>699</ele>
<time>2026-05-08T06:28:01Z</time></trkpt>
<trkpt lat="40.029488" lon="-8.211525">
<ele>701</ele>
<time>2026-05-08T06:28:06Z</time></trkpt>
<trkpt lat="40.029406" lon="-8.211391">
<ele>701</ele>
<time>2026-05-08T06:28:08Z</time></trkpt>
<trkpt lat="40.029315" lon="-8.211297">
<ele>701</ele>
<time>2026-05-08T06:28:11Z</time></trkpt>
<trkpt lat="40.028803" lon="-8.210939">
<ele>699</ele>
<time>2026-05-08T06:28:22Z</time></trkpt>
<trkpt lat="40.028505" lon="-8.210642">
<ele>701</ele>
<time>2026-05-08T06:28:30Z</time></trkpt>
<trkpt lat="40.028338" lon="-8.21041">
<ele>702</ele>
<time>2026-05-08T06:28:35Z</time></trkpt>
<trkpt lat="40.028135" lon="-8.210025">
<ele>706</ele>
<time>2026-05-08T06:28:42Z</time></trkpt>
<trkpt lat="40.028082" lon="-8.209904">
<ele>705</ele>
<time>2026-05-08T06:28:44Z</time></trkpt>
<trkpt lat="40.028051" lon="-8.209756">
<ele>706</ele>
<time>2026-05-08T06:28:46Z</time></trkpt>
<trkpt lat="40.028056" lon="-8.209653">
<ele>706</ele>
<time>2026-05-08T06:28:48Z</time></trkpt>
<trkpt lat="40.028109" lon="-8.209413">
<ele>709</ele>
<time>2026-05-08T06:28:52Z</time></trkpt>
<trkpt lat="40.028142" lon="-8.209311">
<ele>710</ele>
<time>2026-05-08T06:28:53Z</time></trkpt>
<trkpt lat="40.028184" lon="-8.209242">
<ele>711</ele>
<time>2026-05-08T06:28:55Z</time></trkpt>
<trkpt lat="40.028241" lon="-8.209189">
<ele>712</ele>
<time>2026-05-08T06:28:56Z</time></trkpt>
<trkpt lat="40.028345" lon="-8.209129">
<ele>714</ele>
<time>2026-05-08T06:28:58Z</time></trkpt>
<trkpt lat="40.028715" lon="-8.209039">
<ele>718</ele>
<time>2026-05-08T06:29:06Z</time></trkpt>
<trkpt lat="40.029268" lon="-8.208991">
<ele>726</ele>
<time>2026-05-08T06:29:17Z</time></trkpt>
<trkpt lat="40.029427" lon="-8.208957">
<ele>729</ele>
<time>2026-05-08T06:29:20Z</time></trkpt>
<trkpt lat="40.029521" lon="-8.208915">
<ele>730</ele>
<time>2026-05-08T06:29:22Z</time></trkpt>
<trkpt lat="40.030017" lon="-8.208597">
<ele>734</ele>
<time>2026-05-08T06:29:33Z</time></trkpt>
<trkpt lat="40.030164" lon="-8.208538">
<ele>735</ele>
<time>2026-05-08T06:29:36Z</time></trkpt>
<trkpt lat="40.030314" lon="-8.208506">
<ele>735</ele>
<time>2026-05-08T06:29:39Z</time></trkpt>
<trkpt lat="40.030595" lon="-8.208511">
<ele>738</ele>
<time>2026-05-08T06:29:45Z</time></trkpt>
<trkpt lat="40.03128" lon="-8.208727">
<ele>744</ele>
<time>2026-05-08T06:29:59Z</time></trkpt>
<trkpt lat="40.031427" lon="-8.208799">
<ele>745</ele>
<time>2026-05-08T06:30:02Z</time></trkpt>
<trkpt lat="40.031501" lon="-8.208855">
<ele>746</ele>
<time>2026-05-08T06:30:04Z</time></trkpt>
<trkpt lat="40.031648" lon="-8.20898">
<ele>749</ele>
<time>2026-05-08T06:30:08Z</time></trkpt>
<trkpt lat="40.031807" lon="-8.209151">
<ele>750</ele>
<time>2026-05-08T06:30:12Z</time></trkpt>
<trkpt lat="40.031969" lon="-8.209376">
<ele>750</ele>
<time>2026-05-08T06:30:16Z</time></trkpt>
<trkpt lat="40.032225" lon="-8.209812">
<ele>755</ele>
<time>2026-05-08T06:30:25Z</time></trkpt>
<trkpt lat="40.032445" lon="-8.210144">
<ele>760</ele>
<time>2026-05-08T06:30:32Z</time></trkpt>
<trkpt lat="40.032814" lon="-8.210577">
<ele>766</ele>
<time>2026-05-08T06:30:42Z</time></trkpt>
<trkpt lat="40.033039" lon="-8.21075">
<ele>768</ele>
<time>2026-05-08T06:30:47Z</time></trkpt>
<trkpt lat="40.03356" lon="-8.210944">
<ele>769</ele>
<time>2026-05-08T06:30:58Z</time></trkpt>
<trkpt lat="40.033683" lon="-8.211041">
<ele>772</ele>
<time>2026-05-08T06:31:00Z</time></trkpt>
<trkpt lat="40.033746" lon="-8.21115">
<ele>776</ele>
<time>2026-05-08T06:31:03Z</time></trkpt>
<trkpt lat="40.033761" lon="-8.211312">
<ele>781</ele>
<time>2026-05-08T06:31:05Z</time></trkpt>
<trkpt lat="40.033747" lon="-8.211396">
<ele>783</ele>
<time>2026-05-08T06:31:06Z</time></trkpt>
<trkpt lat="40.033711" lon="-8.211474">
<ele>785</ele>
<time>2026-05-08T06:31:08Z</time></trkpt>
<trkpt lat="40.033636" lon="-8.211555">
<ele>787</ele>
<time>2026-05-08T06:31:10Z</time></trkpt>
<trkpt lat="40.033539" lon="-8.211584">
<ele>788</ele>
<time>2026-05-08T06:31:12Z</time></trkpt>
<trkpt lat="40.03343" lon="-8.211554">
<ele>786</ele>
<time>2026-05-08T06:31:14Z</time></trkpt>
<trkpt lat="40.032789" lon="-8.211162">
<ele>781</ele>
<time>2026-05-08T06:31:28Z</time></trkpt>
<trkpt lat="40.032615" lon="-8.211094">
<ele>782</ele>
<time>2026-05-08T06:31:32Z</time></trkpt>
<trkpt lat="40.032484" lon="-8.21107">
<ele>783</ele>
<time>2026-05-08T06:31:34Z</time></trkpt>
<trkpt lat="40.0322" lon="-8.211069">
<ele>783</ele>
<time>2026-05-08T06:31:40Z</time></trkpt>
<trkpt lat="40.031973" lon="-8.211134">
<ele>783</ele>
<time>2026-05-08T06:31:45Z</time></trkpt>
<trkpt lat="40.031879" lon="-8.211193">
<ele>783</ele>
<time>2026-05-08T06:31:47Z</time></trkpt>
<trkpt lat="40.031773" lon="-8.211349">
<ele>784</ele>
<time>2026-05-08T06:31:50Z</time></trkpt>
<trkpt lat="40.031738" lon="-8.21151">
<ele>784</ele>
<time>2026-05-08T06:31:53Z</time></trkpt>
<trkpt lat="40.031742" lon="-8.211577">
<ele>784</ele>
<time>2026-05-08T06:31:54Z</time></trkpt>
<trkpt lat="40.031779" lon="-8.211684">
<ele>784</ele>
<time>2026-05-08T06:31:55Z</time></trkpt>
<trkpt lat="40.031847" lon="-8.211779">
<ele>785</ele>
<time>2026-05-08T06:31:57Z</time></trkpt>
<trkpt lat="40.031893" lon="-8.211816">
<ele>785</ele>
<time>2026-05-08T06:31:59Z</time></trkpt>
<trkpt lat="40.032047" lon="-8.211895">
<ele>787</ele>
<time>2026-05-08T06:32:02Z</time></trkpt>
<trkpt lat="40.032237" lon="-8.211948">
<ele>790</ele>
<time>2026-05-08T06:32:06Z</time></trkpt>
<trkpt lat="40.032806" lon="-8.21196">
<ele>796</ele>
<time>2026-05-08T06:32:17Z</time></trkpt>
<trkpt lat="40.033263" lon="-8.212072">
<ele>800</ele>
<time>2026-05-08T06:32:26Z</time></trkpt>
<trkpt lat="40.033518" lon="-8.212088">
<ele>803</ele>
<time>2026-05-08T06:32:32Z</time></trkpt>
<trkpt lat="40.033699" lon="-8.212046">
<ele>803</ele>
<time>2026-05-08T06:32:35Z</time></trkpt>
<trkpt lat="40.033699" lon="-8.212046">
<ele>803</ele>
<time>2026-05-08T06:32:35Z</time></trkpt>
<trkpt lat="40.034333" lon="-8.2119">
<ele>805</ele>
<time>2026-05-08T06:32:48Z</time></trkpt>
<trkpt lat="40.034994" lon="-8.211912">
<ele>814</ele>
<time>2026-05-08T06:33:01Z</time></trkpt>
<trkpt lat="40.035151" lon="-8.211894">
<ele>816</ele>
<time>2026-05-08T06:33:05Z</time></trkpt>
<trkpt lat="40.035301" lon="-8.21184">
<ele>816</ele>
<time>2026-05-08T06:33:08Z</time></trkpt>
<trkpt lat="40.035896" lon="-8.211544">
<ele>816</ele>
<time>2026-05-08T06:33:20Z</time></trkpt>
<trkpt lat="40.036328" lon="-8.211403">
<ele>816</ele>
<time>2026-05-08T06:33:29Z</time></trkpt>
<trkpt lat="40.036596" lon="-8.211388">
<ele>820</ele>
<time>2026-05-08T06:33:35Z</time></trkpt>
<trkpt lat="40.037133" lon="-8.211493">
<ele>829</ele>
<time>2026-05-08T06:33:46Z</time></trkpt>
<trkpt lat="40.037349" lon="-8.211483">
<ele>830</ele>
<time>2026-05-08T06:33:50Z</time></trkpt>
<trkpt lat="40.037788" lon="-8.211332">
<ele>832</ele>
<time>2026-05-08T06:33:59Z</time></trkpt>
<trkpt lat="40.038195" lon="-8.211131">
<ele>834</ele>
<time>2026-05-08T06:34:08Z</time></trkpt>
<trkpt lat="40.038726" lon="-8.21098">
<ele>842</ele>
<time>2026-05-08T06:34:19Z</time></trkpt>
<trkpt lat="40.038952" lon="-8.210875">
<ele>845</ele>
<time>2026-05-08T06:34:23Z</time></trkpt>
<trkpt lat="40.039091" lon="-8.210742">
<ele>846</ele>
<time>2026-05-08T06:34:27Z</time></trkpt>
<trkpt lat="40.039192" lon="-8.210598">
<ele>847</ele>
<time>2026-05-08T06:34:30Z</time></trkpt>
<trkpt lat="40.039294" lon="-8.21041">
<ele>849</ele>
<time>2026-05-08T06:34:33Z</time></trkpt>
<trkpt lat="40.039397" lon="-8.210126">
<ele>849</ele>
<time>2026-05-08T06:34:38Z</time></trkpt>
<trkpt lat="40.039428" lon="-8.209982">
<ele>848</ele>
<time>2026-05-08T06:34:41Z</time></trkpt>
<trkpt lat="40.039437" lon="-8.209828">
<ele>849</ele>
<time>2026-05-08T06:34:43Z</time></trkpt>
<trkpt lat="40.039381" lon="-8.209424">
<ele>847</ele>
<time>2026-05-08T06:34:49Z</time></trkpt>
<trkpt lat="40.039372" lon="-8.209069">
<ele>848</ele>
<time>2026-05-08T06:34:55Z</time></trkpt>
<trkpt lat="40.0394102" lon="-8.208687">
<ele>847</ele>
<time>2026-05-08T06:35:01Z</time></trkpt>
<trkpt lat="40.039416" lon="-8.208629">
<ele>847</ele>
<time>2026-05-08T06:35:02Z</time></trkpt>
<trkpt lat="40.039449" lon="-8.208469">
<ele>846</ele>
<time>2026-05-08T06:35:04Z</time></trkpt>
<trkpt lat="40.039506" lon="-8.208323">
<ele>846</ele>
<time>2026-05-08T06:35:07Z</time></trkpt>
<trkpt lat="40.039274" lon="-8.208124">
<ele>846</ele>
<time>2026-05-08T06:35:12Z</time></trkpt>
<trkpt lat="40.039152" lon="-8.208049">
<ele>847</ele>
<time>2026-05-08T06:35:15Z</time></trkpt>
<trkpt lat="40.038543" lon="-8.207814">
<ele>841</ele>
<time>2026-05-08T06:35:28Z</time></trkpt>
<trkpt lat="40.038417" lon="-8.207703">
<ele>841</ele>
<time>2026-05-08T06:35:31Z</time></trkpt>
<trkpt lat="40.03837" lon="-8.207619">
<ele>842</ele>
<time>2026-05-08T06:35:32Z</time></trkpt>
<trkpt lat="40.038312" lon="-8.207464">
<ele>842</ele>
<time>2026-05-08T06:35:35Z</time></trkpt>
<trkpt lat="40.038312" lon="-8.207464">
<ele>842</ele>
<time>2026-05-08T06:35:35Z</time></trkpt>
<trkpt lat="40.038251" lon="-8.207218">
<ele>840</ele>
<time>2026-05-08T06:35:39Z</time></trkpt>
<trkpt lat="40.03823" lon="-8.207048">
<ele>839</ele>
<time>2026-05-08T06:35:41Z</time></trkpt>
<trkpt lat="40.038204" lon="-8.206376">
<ele>838</ele>
<time>2026-05-08T06:35:52Z</time></trkpt>
<trkpt lat="40.038152" lon="-8.205939">
<ele>836</ele>
<time>2026-05-08T06:35:59Z</time></trkpt>
<trkpt lat="40.037958" lon="-8.205127">
<ele>827</ele>
<time>2026-05-08T06:36:12Z</time></trkpt>
<trkpt lat="40.037895" lon="-8.204251">
<ele>821</ele>
<time>2026-05-08T06:36:25Z</time></trkpt>
<trkpt lat="40.037912" lon="-8.204132">
<ele>820</ele>
<time>2026-05-08T06:36:27Z</time></trkpt>
<trkpt lat="40.037944" lon="-8.204026">
<ele>820</ele>
<time>2026-05-08T06:36:29Z</time></trkpt>
<trkpt lat="40.037979" lon="-8.203969">
<ele>820</ele>
<time>2026-05-08T06:36:30Z</time></trkpt>
<trkpt lat="40.038026" lon="-8.203906">
<ele>820</ele>
<time>2026-05-08T06:36:31Z</time></trkpt>
<trkpt lat="40.038084" lon="-8.203872">
<ele>821</ele>
<time>2026-05-08T06:36:32Z</time></trkpt>
<trkpt lat="40.038146" lon="-8.203844">
<ele>821</ele>
<time>2026-05-08T06:36:34Z</time></trkpt>
<trkpt lat="40.038221" lon="-8.20384">
<ele>823</ele>
<time>2026-05-08T06:36:35Z</time></trkpt>
<trkpt lat="40.038367" lon="-8.203878">
<ele>825</ele>
<time>2026-05-08T06:36:38Z</time></trkpt>
<trkpt lat="40.038445" lon="-8.203947">
<ele>824</ele>
<time>2026-05-08T06:36:40Z</time></trkpt>
<trkpt lat="40.038519" lon="-8.204058">
<ele>824</ele>
<time>2026-05-08T06:36:42Z</time></trkpt>
<trkpt lat="40.038887" lon="-8.204768">
<ele>825</ele>
<time>2026-05-08T06:36:56Z</time></trkpt>
<trkpt lat="40.040405" lon="-8.207721">
<ele>826</ele>
<time>2026-05-08T06:37:50Z</time></trkpt>
<trkpt lat="40.040524" lon="-8.207854">
<ele>828</ele>
<time>2026-05-08T06:37:53Z</time></trkpt>
<trkpt lat="40.040651" lon="-8.207899">
<ele>827</ele>
<time>2026-05-08T06:37:56Z</time></trkpt>
<trkpt lat="40.040747" lon="-8.207901">
<ele>825</ele>
<time>2026-05-08T06:37:58Z</time></trkpt>
<trkpt lat="40.041336" lon="-8.207856">
<ele>819</ele>
<time>2026-05-08T06:38:10Z</time></trkpt>
<trkpt lat="40.041429" lon="-8.207869">
<ele>819</ele>
<time>2026-05-08T06:38:12Z</time></trkpt>
<trkpt lat="40.04156" lon="-8.20793">
<ele>820</ele>
<time>2026-05-08T06:38:14Z</time></trkpt>
<trkpt lat="40.041837" lon="-8.208148">
<ele>825</ele>
<time>2026-05-08T06:38:21Z</time></trkpt>
<trkpt lat="40.041993" lon="-8.208198">
<ele>826</ele>
<time>2026-05-08T06:38:24Z</time></trkpt>
<trkpt lat="40.042113" lon="-8.208196">
<ele>826</ele>
<time>2026-05-08T06:38:26Z</time></trkpt>
<trkpt lat="40.043042" lon="-8.208052">
<ele>813</ele>
<time>2026-05-08T06:38:45Z</time></trkpt>
<trkpt lat="40.043131" lon="-8.208073">
<ele>813</ele>
<time>2026-05-08T06:38:47Z</time></trkpt>
<trkpt lat="40.043193" lon="-8.208111">
<ele>813</ele>
<time>2026-05-08T06:38:48Z</time></trkpt>
<trkpt lat="40.043263" lon="-8.208183">
<ele>814</ele>
<time>2026-05-08T06:38:50Z</time></trkpt>
<trkpt lat="40.043508" lon="-8.208571">
<ele>819</ele>
<time>2026-05-08T06:38:58Z</time></trkpt>
<trkpt lat="40.043574" lon="-8.208644">
<ele>821</ele>
<time>2026-05-08T06:39:00Z</time></trkpt>
<trkpt lat="40.043667" lon="-8.208703">
<ele>822</ele>
<time>2026-05-08T06:39:02Z</time></trkpt>
<trkpt lat="40.043729" lon="-8.20872">
<ele>822</ele>
<time>2026-05-08T06:39:03Z</time></trkpt>
<trkpt lat="40.043778" lon="-8.208703">
<ele>821</ele>
<time>2026-05-08T06:39:04Z</time></trkpt>
<trkpt lat="40.043891" lon="-8.208633">
<ele>819</ele>
<time>2026-05-08T06:39:06Z</time></trkpt>
<trkpt lat="40.044261" lon="-8.208279">
<ele>808</ele>
<time>2026-05-08T06:39:16Z</time></trkpt>
<trkpt lat="40.044524" lon="-8.208163">
<ele>807</ele>
<time>2026-05-08T06:39:21Z</time></trkpt>
<trkpt lat="40.044833" lon="-8.208096">
<ele>808</ele>
<time>2026-05-08T06:39:27Z</time></trkpt>
<trkpt lat="40.044921" lon="-8.208009">
<ele>806</ele>
<time>2026-05-08T06:39:30Z</time></trkpt>
<trkpt lat="40.045051" lon="-8.20783">
<ele>803</ele>
<time>2026-05-08T06:39:33Z</time></trkpt>
<trkpt lat="40.045155" lon="-8.207596">
<ele>800</ele>
<time>2026-05-08T06:39:38Z</time></trkpt>
<trkpt lat="40.045304" lon="-8.207357">
<ele>799</ele>
<time>2026-05-08T06:39:42Z</time></trkpt>
<trkpt lat="40.045374" lon="-8.207281">
<ele>800</ele>
<time>2026-05-08T06:39:44Z</time></trkpt>
<trkpt lat="40.045581" lon="-8.20714">
<ele>804</ele>
<time>2026-05-08T06:39:49Z</time></trkpt>
<trkpt lat="40.04574" lon="-8.206999">
<ele>806</ele>
<time>2026-05-08T06:39:53Z</time></trkpt>
<trkpt lat="40.045816" lon="-8.206844">
<ele>804</ele>
<time>2026-05-08T06:39:56Z</time></trkpt>
<trkpt lat="40.045935" lon="-8.206442">
<ele>798</ele>
<time>2026-05-08T06:40:02Z</time></trkpt>
<trkpt lat="40.045985" lon="-8.206342">
<ele>798</ele>
<time>2026-05-08T06:40:04Z</time></trkpt>
<trkpt lat="40.046323" lon="-8.205845">
<ele>797</ele>
<time>2026-05-08T06:40:14Z</time></trkpt>
<trkpt lat="40.046427" lon="-8.205627">
<ele>796</ele>
<time>2026-05-08T06:40:18Z</time></trkpt>
<trkpt lat="40.046557" lon="-8.205055">
<ele>790</ele>
<time>2026-05-08T06:40:27Z</time></trkpt>
<trkpt lat="40.046629" lon="-8.204936">
<ele>789</ele>
<time>2026-05-08T06:40:30Z</time></trkpt>
<trkpt lat="40.046776" lon="-8.204769">
<ele>785</ele>
<time>2026-05-08T06:40:33Z</time></trkpt>
<trkpt lat="40.046833" lon="-8.204718">
<ele>784</ele>
<time>2026-05-08T06:40:35Z</time></trkpt>
<trkpt lat="40.046906" lon="-8.204683">
<ele>783</ele>
<time>2026-05-08T06:40:36Z</time></trkpt>
<trkpt lat="40.047045" lon="-8.20465">
<ele>783</ele>
<time>2026-05-08T06:40:39Z</time></trkpt>
<trkpt lat="40.04766" lon="-8.204602">
<ele>788</ele>
<time>2026-05-08T06:40:52Z</time></trkpt>
<trkpt lat="40.04775" lon="-8.20453">
<ele>789</ele>
<time>2026-05-08T06:40:54Z</time></trkpt>
<trkpt lat="40.047807" lon="-8.204405">
<ele>789</ele>
<time>2026-05-08T06:40:56Z</time></trkpt>
<trkpt lat="40.047843" lon="-8.20412">
<ele>785</ele>
<time>2026-05-08T06:41:00Z</time></trkpt>
<trkpt lat="40.047836" lon="-8.203672">
<ele>780</ele>
<time>2026-05-08T06:41:07Z</time></trkpt>
<trkpt lat="40.047853" lon="-8.203462">
<ele>779</ele>
<time>2026-05-08T06:41:10Z</time></trkpt>
<trkpt lat="40.048084" lon="-8.20154">
<ele>776</ele>
<time>2026-05-08T06:41:40Z</time></trkpt>
<trkpt lat="40.048167" lon="-8.20113">
<ele>774</ele>
<time>2026-05-08T06:41:47Z</time></trkpt>
<trkpt lat="40.048207" lon="-8.201022">
<ele>775</ele>
<time>2026-05-08T06:41:49Z</time></trkpt>
<trkpt lat="40.048503" lon="-8.200448">
<ele>779</ele>
<time>2026-05-08T06:41:59Z</time></trkpt>
<trkpt lat="40.048548" lon="-8.200224">
<ele>777</ele>
<time>2026-05-08T06:42:03Z</time></trkpt>
<trkpt lat="40.048519" lon="-8.199783">
<ele>772</ele>
<time>2026-05-08T06:42:10Z</time></trkpt>
<trkpt lat="40.048442" lon="-8.199325">
<ele>770</ele>
<time>2026-05-08T06:42:17Z</time></trkpt>
<trkpt lat="40.048448" lon="-8.199111">
<ele>769</ele>
<time>2026-05-08T06:42:20Z</time></trkpt>
<trkpt lat="40.048488" lon="-8.198874">
<ele>767</ele>
<time>2026-05-08T06:42:24Z</time></trkpt>
<trkpt lat="40.048563" lon="-8.198683">
<ele>765</ele>
<time>2026-05-08T06:42:27Z</time></trkpt>
<trkpt lat="40.048697" lon="-8.198526">
<ele>764</ele>
<time>2026-05-08T06:42:31Z</time></trkpt>
<trkpt lat="40.048788" lon="-8.198479">
<ele>764</ele>
<time>2026-05-08T06:42:33Z</time></trkpt>
<trkpt lat="40.048882" lon="-8.198447">
<ele>763</ele>
<time>2026-05-08T06:42:35Z</time></trkpt>
<trkpt lat="40.049709" lon="-8.19833">
<ele>759</ele>
<time>2026-05-08T06:42:51Z</time></trkpt>
<trkpt lat="40.049875" lon="-8.198358">
<ele>759</ele>
<time>2026-05-08T06:42:55Z</time></trkpt>
<trkpt lat="40.049984" lon="-8.19841">
<ele>760</ele>
<time>2026-05-08T06:42:57Z</time></trkpt>
<trkpt lat="40.050186" lon="-8.198553">
<ele>765</ele>
<time>2026-05-08T06:43:02Z</time></trkpt>
<trkpt lat="40.050253" lon="-8.198578">
<ele>766</ele>
<time>2026-05-08T06:43:03Z</time></trkpt>
<trkpt lat="40.05031" lon="-8.198573">
<ele>766</ele>
<time>2026-05-08T06:43:04Z</time></trkpt>
<trkpt lat="40.050411" lon="-8.198512">
<ele>764</ele>
<time>2026-05-08T06:43:06Z</time></trkpt>
<trkpt lat="40.050807" lon="-8.19792">
<ele>751</ele>
<time>2026-05-08T06:43:18Z</time></trkpt>
<trkpt lat="40.050876" lon="-8.197858">
<ele>749</ele>
<time>2026-05-08T06:43:20Z</time></trkpt>
<trkpt lat="40.050961" lon="-8.197819">
<ele>748</ele>
<time>2026-05-08T06:43:22Z</time></trkpt>
<trkpt lat="40.051047" lon="-8.197816">
<ele>747</ele>
<time>2026-05-08T06:43:24Z</time></trkpt>
<trkpt lat="40.051148" lon="-8.197836">
<ele>747</ele>
<time>2026-05-08T06:43:26Z</time></trkpt>
<trkpt lat="40.051796" lon="-8.198205">
<ele>750</ele>
<time>2026-05-08T06:43:40Z</time></trkpt>
<trkpt lat="40.052305" lon="-8.198677">
<ele>748</ele>
<time>2026-05-08T06:43:52Z</time></trkpt>
<trkpt lat="40.052997" lon="-8.199482">
<ele>752</ele>
<time>2026-05-08T06:44:11Z</time></trkpt>
<trkpt lat="40.05307" lon="-8.199526">
<ele>752</ele>
<time>2026-05-08T06:44:13Z</time></trkpt>
<trkpt lat="40.053192" lon="-8.199528">
<ele>750</ele>
<time>2026-05-08T06:44:15Z</time></trkpt>
<trkpt lat="40.053259" lon="-8.199492">
<ele>749</ele>
<time>2026-05-08T06:44:16Z</time></trkpt>
<trkpt lat="40.053314" lon="-8.19943">
<ele>748</ele>
<time>2026-05-08T06:44:18Z</time></trkpt>
<trkpt lat="40.053351" lon="-8.199344">
<ele>748</ele>
<time>2026-05-08T06:44:19Z</time></trkpt>
<trkpt lat="40.053374" lon="-8.199109">
<ele>746</ele>
<time>2026-05-08T06:44:23Z</time></trkpt>
<trkpt lat="40.053095" lon="-8.197761">
<ele>733</ele>
<time>2026-05-08T06:44:44Z</time></trkpt>
<trkpt lat="40.05311" lon="-8.197604">
<ele>732</ele>
<time>2026-05-08T06:44:47Z</time></trkpt>
<trkpt lat="40.053147" lon="-8.197525">
<ele>731</ele>
<time>2026-05-08T06:44:48Z</time></trkpt>
<trkpt lat="40.053277" lon="-8.197395">
<ele>730</ele>
<time>2026-05-08T06:44:52Z</time></trkpt>
<trkpt lat="40.053277" lon="-8.197395">
<ele>730</ele>
<time>2026-05-08T06:44:52Z</time></trkpt>
<trkpt lat="40.05338" lon="-8.197345">
<ele>730</ele>
<time>2026-05-08T06:44:54Z</time></trkpt>
<trkpt lat="40.054215" lon="-8.197077">
<ele>729</ele>
<time>2026-05-08T06:45:11Z</time></trkpt>
<trkpt lat="40.054298" lon="-8.196988">
<ele>729</ele>
<time>2026-05-08T06:45:13Z</time></trkpt>
<trkpt lat="40.054333" lon="-8.196908">
<ele>729</ele>
<time>2026-05-08T06:45:15Z</time></trkpt>
<trkpt lat="40.054358" lon="-8.196791">
<ele>728</ele>
<time>2026-05-08T06:45:16Z</time></trkpt>
<trkpt lat="40.054355" lon="-8.196705">
<ele>727</ele>
<time>2026-05-08T06:45:18Z</time></trkpt>
<trkpt lat="40.054325" lon="-8.196576">
<ele>726</ele>
<time>2026-05-08T06:45:20Z</time></trkpt>
<trkpt lat="40.054262" lon="-8.196436">
<ele>726</ele>
<time>2026-05-08T06:45:22Z</time></trkpt>
<trkpt lat="40.054134" lon="-8.196266">
<ele>725</ele>
<time>2026-05-08T06:45:26Z</time></trkpt>
<trkpt lat="40.053969" lon="-8.196114">
<ele>723</ele>
<time>2026-05-08T06:45:30Z</time></trkpt>
<trkpt lat="40.053767" lon="-8.195973">
<ele>720</ele>
<time>2026-05-08T06:45:35Z</time></trkpt>
<trkpt lat="40.053624" lon="-8.195947">
<ele>718</ele>
<time>2026-05-08T06:45:37Z</time></trkpt>
<trkpt lat="40.053473" lon="-8.196038">
<ele>716</ele>
<time>2026-05-08T06:45:41Z</time></trkpt>
<trkpt lat="40.05331" lon="-8.196242">
<ele>716</ele>
<time>2026-05-08T06:45:45Z</time></trkpt>
<trkpt lat="40.053258" lon="-8.196266">
<ele>716</ele>
<time>2026-05-08T06:45:46Z</time></trkpt>
<trkpt lat="40.053168" lon="-8.196281">
<ele>716</ele>
<time>2026-05-08T06:45:48Z</time></trkpt>
<trkpt lat="40.053086" lon="-8.196264">
<ele>715</ele>
<time>2026-05-08T06:45:50Z</time></trkpt>
<trkpt lat="40.052814" lon="-8.196117">
<ele>712</ele>
<time>2026-05-08T06:45:56Z</time></trkpt>
<trkpt lat="40.052732" lon="-8.19613">
<ele>712</ele>
<time>2026-05-08T06:45:57Z</time></trkpt>
<trkpt lat="40.052664" lon="-8.196164">
<ele>712</ele>
<time>2026-05-08T06:45:59Z</time></trkpt>
<trkpt lat="40.052568" lon="-8.196272">
<ele>713</ele>
<time>2026-05-08T06:46:01Z</time></trkpt>
<trkpt lat="40.052421" lon="-8.19648">
<ele>716</ele>
<time>2026-05-08T06:46:06Z</time></trkpt>
<trkpt lat="40.052366" lon="-8.19652">
<ele>717</ele>
<time>2026-05-08T06:46:07Z</time></trkpt>
<trkpt lat="40.052227" lon="-8.196528">
<ele>718</ele>
<time>2026-05-08T06:46:10Z</time></trkpt>
<trkpt lat="40.052166" lon="-8.196503">
<ele>718</ele>
<time>2026-05-08T06:46:11Z</time></trkpt>
<trkpt lat="40.052103" lon="-8.196441">
<ele>718</ele>
<time>2026-05-08T06:46:13Z</time></trkpt>
<trkpt lat="40.052047" lon="-8.196321">
<ele>717</ele>
<time>2026-05-08T06:46:15Z</time></trkpt>
<trkpt lat="40.051886" lon="-8.195537">
<ele>709</ele>
<time>2026-05-08T06:46:27Z</time></trkpt>
<trkpt lat="40.051848" lon="-8.195426">
<ele>708</ele>
<time>2026-05-08T06:46:29Z</time></trkpt>
<trkpt lat="40.051814" lon="-8.195354">
<ele>708</ele>
<time>2026-05-08T06:46:30Z</time></trkpt>
<trkpt lat="40.05174" lon="-8.195278">
<ele>708</ele>
<time>2026-05-08T06:46:32Z</time></trkpt>
<trkpt lat="40.051669" lon="-8.195233">
<ele>708</ele>
<time>2026-05-08T06:46:34Z</time></trkpt>
<trkpt lat="40.051554" lon="-8.195212">
<ele>707</ele>
<time>2026-05-08T06:46:36Z</time></trkpt>
<trkpt lat="40.051474" lon="-8.195231">
<ele>707</ele>
<time>2026-05-08T06:46:38Z</time></trkpt>
<trkpt lat="40.051076" lon="-8.195454">
<ele>709</ele>
<time>2026-05-08T06:46:47Z</time></trkpt>
<trkpt lat="40.050956" lon="-8.195481">
<ele>709</ele>
<time>2026-05-08T06:46:49Z</time></trkpt>
<trkpt lat="40.050878" lon="-8.195474">
<ele>708</ele>
<time>2026-05-08T06:46:51Z</time></trkpt>
<trkpt lat="40.050801" lon="-8.19544">
<ele>708</ele>
<time>2026-05-08T06:46:52Z</time></trkpt>
<trkpt lat="40.050723" lon="-8.195364">
<ele>706</ele>
<time>2026-05-08T06:46:54Z</time></trkpt>
<trkpt lat="40.050351" lon="-8.194932">
<ele>700</ele>
<time>2026-05-08T06:47:04Z</time></trkpt>
<trkpt lat="40.049511" lon="-8.19429">
<ele>694</ele>
<time>2026-05-08T06:47:24Z</time></trkpt>
<trkpt lat="40.049395" lon="-8.194249">
<ele>693</ele>
<time>2026-05-08T06:47:26Z</time></trkpt>
<trkpt lat="40.049284" lon="-8.194237">
<ele>693</ele>
<time>2026-05-08T06:47:28Z</time></trkpt>
<trkpt lat="40.049148" lon="-8.194252">
<ele>693</ele>
<time>2026-05-08T06:47:31Z</time></trkpt>
<trkpt lat="40.048954" lon="-8.194339">
<ele>691</ele>
<time>2026-05-08T06:47:35Z</time></trkpt>
<trkpt lat="40.048885" lon="-8.194405">
<ele>690</ele>
<time>2026-05-08T06:47:37Z</time></trkpt>
<trkpt lat="40.048762" lon="-8.194658">
<ele>691</ele>
<time>2026-05-08T06:47:41Z</time></trkpt>
<trkpt lat="40.048601" lon="-8.195139">
<ele>695</ele>
<time>2026-05-08T06:47:50Z</time></trkpt>
<trkpt lat="40.048511" lon="-8.19525">
<ele>696</ele>
<time>2026-05-08T06:47:52Z</time></trkpt>
<trkpt lat="40.048438" lon="-8.195294">
<ele>696</ele>
<time>2026-05-08T06:47:54Z</time></trkpt>
<trkpt lat="40.048314" lon="-8.195298">
<ele>695</ele>
<time>2026-05-08T06:47:56Z</time></trkpt>
<trkpt lat="40.048109" lon="-8.195207">
<ele>692</ele>
<time>2026-05-08T06:48:00Z</time></trkpt>
<trkpt lat="40.047664" lon="-8.195144">
<ele>688</ele>
<time>2026-05-08T06:48:09Z</time></trkpt>
<trkpt lat="40.047567" lon="-8.195154">
<ele>687</ele>
<time>2026-05-08T06:48:11Z</time></trkpt>
<trkpt lat="40.047484" lon="-8.195185">
<ele>687</ele>
<time>2026-05-08T06:48:13Z</time></trkpt>
<trkpt lat="40.047242" lon="-8.195353">
<ele>686</ele>
<time>2026-05-08T06:48:19Z</time></trkpt>
<trkpt lat="40.047008" lon="-8.195609">
<ele>686</ele>
<time>2026-05-08T06:48:25Z</time></trkpt>
<trkpt lat="40.04689" lon="-8.195797">
<ele>687</ele>
<time>2026-05-08T06:48:28Z</time></trkpt>
<trkpt lat="40.04676" lon="-8.195955">
<ele>687</ele>
<time>2026-05-08T06:48:32Z</time></trkpt>
<trkpt lat="40.046623" lon="-8.195996">
<ele>685</ele>
<time>2026-05-08T06:48:35Z</time></trkpt>
<trkpt lat="40.046517" lon="-8.196056">
<ele>684</ele>
<time>2026-05-08T06:48:37Z</time></trkpt>
<trkpt lat="40.046471" lon="-8.196102">
<ele>684</ele>
<time>2026-05-08T06:48:38Z</time></trkpt>
<trkpt lat="40.046295" lon="-8.196341">
<ele>683</ele>
<time>2026-05-08T06:48:43Z</time></trkpt>
<trkpt lat="40.046231" lon="-8.196397">
<ele>682</ele>
<time>2026-05-08T06:48:45Z</time></trkpt>
<trkpt lat="40.046109" lon="-8.196452">
<ele>680</ele>
<time>2026-05-08T06:48:47Z</time></trkpt>
<trkpt lat="40.04587" lon="-8.196492">
<ele>676</ele>
<time>2026-05-08T06:48:52Z</time></trkpt>
<trkpt lat="40.045764" lon="-8.196575">
<ele>674</ele>
<time>2026-05-08T06:48:55Z</time></trkpt>
<trkpt lat="40.045681" lon="-8.196694">
<ele>674</ele>
<time>2026-05-08T06:48:57Z</time></trkpt>
<trkpt lat="40.045504" lon="-8.197029">
<ele>673</ele>
<time>2026-05-08T06:49:03Z</time></trkpt>
<trkpt lat="40.045395" lon="-8.197314">
<ele>673</ele>
<time>2026-05-08T06:49:08Z</time></trkpt>
<trkpt lat="40.045327" lon="-8.197522">
<ele>672</ele>
<time>2026-05-08T06:49:12Z</time></trkpt>
<trkpt lat="40.045291" lon="-8.197815">
<ele>670</ele>
<time>2026-05-08T06:49:16Z</time></trkpt>
<trkpt lat="40.045297" lon="-8.197998">
<ele>669</ele>
<time>2026-05-08T06:49:19Z</time></trkpt>
<trkpt lat="40.045406" lon="-8.198572">
<ele>671</ele>
<time>2026-05-08T06:49:28Z</time></trkpt>
<trkpt lat="40.045431" lon="-8.198778">
<ele>672</ele>
<time>2026-05-08T06:49:31Z</time></trkpt>
<trkpt lat="40.045374" lon="-8.198985">
<ele>670</ele>
<time>2026-05-08T06:49:35Z</time></trkpt>
<trkpt lat="40.045153" lon="-8.199305">
<ele>664</ele>
<time>2026-05-08T06:49:41Z</time></trkpt>
<trkpt lat="40.045102" lon="-8.199397">
<ele>663</ele>
<time>2026-05-08T06:49:43Z</time></trkpt>
<trkpt lat="40.045072" lon="-8.199515">
<ele>663</ele>
<time>2026-05-08T06:49:45Z</time></trkpt>
<trkpt lat="40.045075" lon="-8.199682">
<ele>664</ele>
<time>2026-05-08T06:49:48Z</time></trkpt>
<trkpt lat="40.045114" lon="-8.199822">
<ele>667</ele>
<time>2026-05-08T06:49:50Z</time></trkpt>
<trkpt lat="40.045131" lon="-8.200035">
<ele>669</ele>
<time>2026-05-08T06:49:53Z</time></trkpt>
<trkpt lat="40.045106" lon="-8.200123">
<ele>671</ele>
<time>2026-05-08T06:49:55Z</time></trkpt>
<trkpt lat="40.04506" lon="-8.200204">
<ele>671</ele>
<time>2026-05-08T06:49:56Z</time></trkpt>
<trkpt lat="40.044966" lon="-8.200293">
<ele>672</ele>
<time>2026-05-08T06:49:59Z</time></trkpt>
<trkpt lat="40.044895" lon="-8.200322">
<ele>673</ele>
<time>2026-05-08T06:50:00Z</time></trkpt>
<trkpt lat="40.0447" lon="-8.200264">
<ele>672</ele>
<time>2026-05-08T06:50:04Z</time></trkpt>
<trkpt lat="40.044446" lon="-8.200049">
<ele>669</ele>
<time>2026-05-08T06:50:10Z</time></trkpt>
<trkpt lat="40.044298" lon="-8.199878">
<ele>666</ele>
<time>2026-05-08T06:50:14Z</time></trkpt>
<trkpt lat="40.044128" lon="-8.199637">
<ele>661</ele>
<time>2026-05-08T06:50:19Z</time></trkpt>
<trkpt lat="40.043914" lon="-8.199254">
<ele>653</ele>
<time>2026-05-08T06:50:26Z</time></trkpt>
<trkpt lat="40.043839" lon="-8.199169">
<ele>651</ele>
<time>2026-05-08T06:50:28Z</time></trkpt>
<trkpt lat="40.043772" lon="-8.199127">
<ele>650</ele>
<time>2026-05-08T06:50:30Z</time></trkpt>
<trkpt lat="40.043503" lon="-8.199176">
<ele>650</ele>
<time>2026-05-08T06:50:35Z</time></trkpt>
<trkpt lat="40.043318" lon="-8.199282">
<ele>650</ele>
<time>2026-05-08T06:50:39Z</time></trkpt>
<trkpt lat="40.043255" lon="-8.199344">
<ele>649</ele>
<time>2026-05-08T06:50:41Z</time></trkpt>
<trkpt lat="40.04319" lon="-8.199475">
<ele>649</ele>
<time>2026-05-08T06:50:43Z</time></trkpt>
<trkpt lat="40.043169" lon="-8.199644">
<ele>651</ele>
<time>2026-05-08T06:50:46Z</time></trkpt>
<trkpt lat="40.043177" lon="-8.200757">
<ele>657</ele>
<time>2026-05-08T06:51:03Z</time></trkpt>
<trkpt lat="40.043166" lon="-8.200894">
<ele>658</ele>
<time>2026-05-08T06:51:05Z</time></trkpt>
<trkpt lat="40.043131" lon="-8.200986">
<ele>658</ele>
<time>2026-05-08T06:51:07Z</time></trkpt>
<trkpt lat="40.043049" lon="-8.201101">
<ele>659</ele>
<time>2026-05-08T06:51:09Z</time></trkpt>
<trkpt lat="40.042912" lon="-8.20115">
<ele>658</ele>
<time>2026-05-08T06:51:12Z</time></trkpt>
<trkpt lat="40.042701" lon="-8.201132">
<ele>657</ele>
<time>2026-05-08T06:51:16Z</time></trkpt>
<trkpt lat="40.042523" lon="-8.201085">
<ele>655</ele>
<time>2026-05-08T06:51:20Z</time></trkpt>
<trkpt lat="40.042406" lon="-8.201034">
<ele>657</ele>
<time>2026-05-08T06:51:22Z</time></trkpt>
<trkpt lat="40.042343" lon="-8.200985">
<ele>658</ele>
<time>2026-05-08T06:51:24Z</time></trkpt>
<trkpt lat="40.042282" lon="-8.200916">
<ele>658</ele>
<time>2026-05-08T06:51:25Z</time></trkpt>
<trkpt lat="40.042052" lon="-8.200272">
<ele>655</ele>
<time>2026-05-08T06:51:36Z</time></trkpt>
<trkpt lat="40.041699" lon="-8.199513">
<ele>646</ele>
<time>2026-05-08T06:51:50Z</time></trkpt>
<trkpt lat="40.041456" lon="-8.199138">
<ele>644</ele>
<time>2026-05-08T06:51:57Z</time></trkpt>
<trkpt lat="40.041346" lon="-8.198922">
<ele>643</ele>
<time>2026-05-08T06:52:01Z</time></trkpt>
<trkpt lat="40.041217" lon="-8.198753">
<ele>643</ele>
<time>2026-05-08T06:52:05Z</time></trkpt>
<trkpt lat="40.041014" lon="-8.198529">
<ele>644</ele>
<time>2026-05-08T06:52:10Z</time></trkpt>
<trkpt lat="40.040928" lon="-8.198376">
<ele>643</ele>
<time>2026-05-08T06:52:13Z</time></trkpt>
<trkpt lat="40.040807" lon="-8.197936">
<ele>639</ele>
<time>2026-05-08T06:52:21Z</time></trkpt>
<trkpt lat="40.040509" lon="-8.19697">
<ele>634</ele>
<time>2026-05-08T06:52:36Z</time></trkpt>
<trkpt lat="40.040481" lon="-8.196732">
<ele>632</ele>
<time>2026-05-08T06:52:40Z</time></trkpt>
<trkpt lat="40.040493" lon="-8.196335">
<ele>630</ele>
<time>2026-05-08T06:52:46Z</time></trkpt>
<trkpt lat="40.040465" lon="-8.19606">
<ele>630</ele>
<time>2026-05-08T06:52:51Z</time></trkpt>
<trkpt lat="40.040338" lon="-8.19556">
<ele>631</ele>
<time>2026-05-08T06:52:59Z</time></trkpt>
<trkpt lat="40.04023" lon="-8.195235">
<ele>630</ele>
<time>2026-05-08T06:53:04Z</time></trkpt>
<trkpt lat="40.040016" lon="-8.194883">
<ele>629</ele>
<time>2026-05-08T06:53:11Z</time></trkpt>
<trkpt lat="40.039571" lon="-8.194323">
<ele>621</ele>
<time>2026-05-08T06:53:23Z</time></trkpt>
<trkpt lat="40.039458" lon="-8.194125">
<ele>618</ele>
<time>2026-05-08T06:53:27Z</time></trkpt>
<trkpt lat="40.039222" lon="-8.193613">
<ele>612</ele>
<time>2026-05-08T06:53:36Z</time></trkpt>
<trkpt lat="40.039066" lon="-8.193419">
<ele>609</ele>
<time>2026-05-08T06:53:41Z</time></trkpt>
<trkpt lat="40.038918" lon="-8.193359">
<ele>608</ele>
<time>2026-05-08T06:53:44Z</time></trkpt>
<trkpt lat="40.038781" lon="-8.193355">
<ele>608</ele>
<time>2026-05-08T06:53:46Z</time></trkpt>
<trkpt lat="40.038668" lon="-8.193407">
<ele>609</ele>
<time>2026-05-08T06:53:49Z</time></trkpt>
<trkpt lat="40.038274" lon="-8.193731">
<ele>617</ele>
<time>2026-05-08T06:53:58Z</time></trkpt>
<trkpt lat="40.038168" lon="-8.193763">
<ele>617</ele>
<time>2026-05-08T06:54:00Z</time></trkpt>
<trkpt lat="40.038073" lon="-8.193768">
<ele>617</ele>
<time>2026-05-08T06:54:02Z</time></trkpt>
<trkpt lat="40.037921" lon="-8.193716">
<ele>615</ele>
<time>2026-05-08T06:54:05Z</time></trkpt>
<trkpt lat="40.037302" lon="-8.193328">
<ele>606</ele>
<time>2026-05-08T06:54:19Z</time></trkpt>
<trkpt lat="40.037173" lon="-8.193268">
<ele>605</ele>
<time>2026-05-08T06:54:22Z</time></trkpt>
<trkpt lat="40.037077" lon="-8.193246">
<ele>604</ele>
<time>2026-05-08T06:54:24Z</time></trkpt>
<trkpt lat="40.036987" lon="-8.193257">
<ele>604</ele>
<time>2026-05-08T06:54:26Z</time></trkpt>
<trkpt lat="40.036885" lon="-8.193289">
<ele>604</ele>
<time>2026-05-08T06:54:28Z</time></trkpt>
<trkpt lat="40.03576" lon="-8.193944">
<ele>605</ele>
<time>2026-05-08T06:54:52Z</time></trkpt>
<trkpt lat="40.035683" lon="-8.194051">
<ele>605</ele>
<time>2026-05-08T06:54:55Z</time></trkpt>
<trkpt lat="40.035618" lon="-8.194195">
<ele>607</ele>
<time>2026-05-08T06:54:57Z</time></trkpt>
<trkpt lat="40.035537" lon="-8.194302">
<ele>608</ele>
<time>2026-05-08T06:55:00Z</time></trkpt>
<trkpt lat="40.035418" lon="-8.194351">
<ele>607</ele>
<time>2026-05-08T06:55:02Z</time></trkpt>
<trkpt lat="40.034926" lon="-8.194289">
<ele>602</ele>
<time>2026-05-08T06:55:12Z</time></trkpt>
<trkpt lat="40.034779" lon="-8.194226">
<ele>601</ele>
<time>2026-05-08T06:55:15Z</time></trkpt>
<trkpt lat="40.034646" lon="-8.194083">
<ele>599</ele>
<time>2026-05-08T06:55:19Z</time></trkpt>
<trkpt lat="40.034382" lon="-8.193682">
<ele>594</ele>
<time>2026-05-08T06:55:27Z</time></trkpt>
<trkpt lat="40.034263" lon="-8.193559">
<ele>592</ele>
<time>2026-05-08T06:55:30Z</time></trkpt>
<trkpt lat="40.034036" lon="-8.193469">
<ele>591</ele>
<time>2026-05-08T06:55:34Z</time></trkpt>
<trkpt lat="40.033934" lon="-8.193461">
<ele>591</ele>
<time>2026-05-08T06:55:37Z</time></trkpt>
<trkpt lat="40.033714" lon="-8.193501">
<ele>591</ele>
<time>2026-05-08T06:55:41Z</time></trkpt>
<trkpt lat="40.033485" lon="-8.193683">
<ele>595</ele>
<time>2026-05-08T06:55:46Z</time></trkpt>
<trkpt lat="40.033393" lon="-8.193714">
<ele>596</ele>
<time>2026-05-08T06:55:48Z</time></trkpt>
<trkpt lat="40.03331" lon="-8.193712">
<ele>595</ele>
<time>2026-05-08T06:55:50Z</time></trkpt>
<trkpt lat="40.03296" lon="-8.193597">
<ele>589</ele>
<time>2026-05-08T06:55:57Z</time></trkpt>
<trkpt lat="40.032874" lon="-8.193585">
<ele>588</ele>
<time>2026-05-08T06:55:59Z</time></trkpt>
<trkpt lat="40.032741" lon="-8.193616">
<ele>587</ele>
<time>2026-05-08T06:56:02Z</time></trkpt>
<trkpt lat="40.032616" lon="-8.193672">
<ele>587</ele>
<time>2026-05-08T06:56:04Z</time></trkpt>
<trkpt lat="40.032616" lon="-8.193672">
<ele>587</ele>
<time>2026-05-08T06:56:04Z</time></trkpt>
<trkpt lat="40.032197" lon="-8.19386">
<ele>590</ele>
<time>2026-05-08T06:56:13Z</time></trkpt>
<trkpt lat="40.032116" lon="-8.193865">
<ele>590</ele>
<time>2026-05-08T06:56:15Z</time></trkpt>
<trkpt lat="40.032023" lon="-8.193846">
<ele>589</ele>
<time>2026-05-08T06:56:17Z</time></trkpt>
<trkpt lat="40.031952" lon="-8.193793">
<ele>588</ele>
<time>2026-05-08T06:56:18Z</time></trkpt>
<trkpt lat="40.031908" lon="-8.193731">
<ele>587</ele>
<time>2026-05-08T06:56:20Z</time></trkpt>
<trkpt lat="40.031856" lon="-8.193603">
<ele>585</ele>
<time>2026-05-08T06:56:22Z</time></trkpt>
<trkpt lat="40.031815" lon="-8.193365">
<ele>582</ele>
<time>2026-05-08T06:56:25Z</time></trkpt>
<trkpt lat="40.031779" lon="-8.193265">
<ele>581</ele>
<time>2026-05-08T06:56:27Z</time></trkpt>
<trkpt lat="40.03172" lon="-8.19318">
<ele>580</ele>
<time>2026-05-08T06:56:29Z</time></trkpt>
<trkpt lat="40.031646" lon="-8.193133">
<ele>579</ele>
<time>2026-05-08T06:56:31Z</time></trkpt>
<trkpt lat="40.031572" lon="-8.193112">
<ele>579</ele>
<time>2026-05-08T06:56:32Z</time></trkpt>
<trkpt lat="40.031503" lon="-8.193128">
<ele>579</ele>
<time>2026-05-08T06:56:34Z</time></trkpt>
<trkpt lat="40.031431" lon="-8.193166">
<ele>580</ele>
<time>2026-05-08T06:56:35Z</time></trkpt>
<trkpt lat="40.031365" lon="-8.193231">
<ele>581</ele>
<time>2026-05-08T06:56:37Z</time></trkpt>
<trkpt lat="40.031184" lon="-8.193453">
<ele>584</ele>
<time>2026-05-08T06:56:42Z</time></trkpt>
<trkpt lat="40.031068" lon="-8.193505">
<ele>584</ele>
<time>2026-05-08T06:56:44Z</time></trkpt>
<trkpt lat="40.030991" lon="-8.193506">
<ele>584</ele>
<time>2026-05-08T06:56:46Z</time></trkpt>
<trkpt lat="40.030907" lon="-8.193475">
<ele>584</ele>
<time>2026-05-08T06:56:47Z</time></trkpt>
<trkpt lat="40.030837" lon="-8.193403">
<ele>583</ele>
<time>2026-05-08T06:56:49Z</time></trkpt>
<trkpt lat="40.030221" lon="-8.19261">
<ele>566</ele>
<time>2026-05-08T06:57:07Z</time></trkpt>
<trkpt lat="40.030136" lon="-8.192543">
<ele>565</ele>
<time>2026-05-08T06:57:09Z</time></trkpt>
<trkpt lat="40.030068" lon="-8.192513">
<ele>564</ele>
<time>2026-05-08T06:57:10Z</time></trkpt>
<trkpt lat="40.029922" lon="-8.192527">
<ele>564</ele>
<time>2026-05-08T06:57:13Z</time></trkpt>
<trkpt lat="40.029738" lon="-8.192634">
<ele>563</ele>
<time>2026-05-08T06:57:17Z</time></trkpt>
<trkpt lat="40.029655" lon="-8.192714">
<ele>563</ele>
<time>2026-05-08T06:57:19Z</time></trkpt>
<trkpt lat="40.029618" lon="-8.192794">
<ele>563</ele>
<time>2026-05-08T06:57:20Z</time></trkpt>
<trkpt lat="40.029609" lon="-8.192915">
<ele>563</ele>
<time>2026-05-08T06:57:22Z</time></trkpt>
<trkpt lat="40.029639" lon="-8.193648">
<ele>568</ele>
<time>2026-05-08T06:57:34Z</time></trkpt>
<trkpt lat="40.029603" lon="-8.193804">
<ele>568</ele>
<time>2026-05-08T06:57:36Z</time></trkpt>
<trkpt lat="40.029544" lon="-8.193886">
<ele>568</ele>
<time>2026-05-08T06:57:38Z</time></trkpt>
<trkpt lat="40.029419" lon="-8.193959">
<ele>566</ele>
<time>2026-05-08T06:57:41Z</time></trkpt>
<trkpt lat="40.028964" lon="-8.194002">
<ele>559</ele>
<time>2026-05-08T06:57:50Z</time></trkpt>
<trkpt lat="40.028898" lon="-8.194033">
<ele>558</ele>
<time>2026-05-08T06:57:51Z</time></trkpt>
<trkpt lat="40.028828" lon="-8.194108">
<ele>557</ele>
<time>2026-05-08T06:57:53Z</time></trkpt>
<trkpt lat="40.028787" lon="-8.194182">
<ele>556</ele>
<time>2026-05-08T06:57:54Z</time></trkpt>
<trkpt lat="40.028758" lon="-8.194258">
<ele>557</ele>
<time>2026-05-08T06:57:56Z</time></trkpt>
<trkpt lat="40.028706" lon="-8.194535">
<ele>560</ele>
<time>2026-05-08T06:58:00Z</time></trkpt>
<trkpt lat="40.02862" lon="-8.194673">
<ele>560</ele>
<time>2026-05-08T06:58:03Z</time></trkpt>
<trkpt lat="40.028504" lon="-8.194742">
<ele>559</ele>
<time>2026-05-08T06:58:05Z</time></trkpt>
<trkpt lat="40.028062" lon="-8.19474">
<ele>552</ele>
<time>2026-05-08T06:58:14Z</time></trkpt>
<trkpt lat="40.027919" lon="-8.194794">
<ele>550</ele>
<time>2026-05-08T06:58:17Z</time></trkpt>
<trkpt lat="40.027768" lon="-8.194935">
<ele>549</ele>
<time>2026-05-08T06:58:21Z</time></trkpt>
<trkpt lat="40.027583" lon="-8.195272">
<ele>546</ele>
<time>2026-05-08T06:58:27Z</time></trkpt>
<trkpt lat="40.027519" lon="-8.19535">
<ele>544</ele>
<time>2026-05-08T06:58:29Z</time></trkpt>
<trkpt lat="40.027281" lon="-8.19557">
<ele>541</ele>
<time>2026-05-08T06:58:35Z</time></trkpt>
<trkpt lat="40.027163" lon="-8.195704">
<ele>540</ele>
<time>2026-05-08T06:58:38Z</time></trkpt>
<trkpt lat="40.027126" lon="-8.195862">
<ele>540</ele>
<time>2026-05-08T06:58:40Z</time></trkpt>
<trkpt lat="40.027134" lon="-8.19618">
<ele>540</ele>
<time>2026-05-08T06:58:45Z</time></trkpt>
<trkpt lat="40.027117" lon="-8.196279">
<ele>539</ele>
<time>2026-05-08T06:58:47Z</time></trkpt>
<trkpt lat="40.026819" lon="-8.197195">
<ele>541</ele>
<time>2026-05-08T06:59:02Z</time></trkpt>
<trkpt lat="40.026762" lon="-8.197303">
<ele>542</ele>
<time>2026-05-08T06:59:04Z</time></trkpt>
<trkpt lat="40.026625" lon="-8.197365">
<ele>541</ele>
<time>2026-05-08T06:59:07Z</time></trkpt>
<trkpt lat="40.026481" lon="-8.197346">
<ele>540</ele>
<time>2026-05-08T06:59:10Z</time></trkpt>
<trkpt lat="40.026371" lon="-8.197287">
<ele>539</ele>
<time>2026-05-08T06:59:12Z</time></trkpt>
<trkpt lat="40.026224" lon="-8.197165">
<ele>538</ele>
<time>2026-05-08T06:59:16Z</time></trkpt>
<trkpt lat="40.026131" lon="-8.197056">
<ele>536</ele>
<time>2026-05-08T06:59:18Z</time></trkpt>
<trkpt lat="40.026051" lon="-8.196919">
<ele>535</ele>
<time>2026-05-08T06:59:21Z</time></trkpt>
<trkpt lat="40.025782" lon="-8.196384">
<ele>530</ele>
<time>2026-05-08T06:59:31Z</time></trkpt>
<trkpt lat="40.025649" lon="-8.196236">
<ele>529</ele>
<time>2026-05-08T06:59:34Z</time></trkpt>
<trkpt lat="40.025494" lon="-8.196144">
<ele>528</ele>
<time>2026-05-08T06:59:38Z</time></trkpt>
<trkpt lat="40.024602" lon="-8.195707">
<ele>526</ele>
<time>2026-05-08T06:59:57Z</time></trkpt>
<trkpt lat="40.024385" lon="-8.195626">
<ele>525</ele>
<time>2026-05-08T07:00:01Z</time></trkpt>
<trkpt lat="40.024269" lon="-8.195621">
<ele>525</ele>
<time>2026-05-08T07:00:04Z</time></trkpt>
<trkpt lat="40.023988" lon="-8.195735">
<ele>524</ele>
<time>2026-05-08T07:00:10Z</time></trkpt>
<trkpt lat="40.023847" lon="-8.195855">
<ele>523</ele>
<time>2026-05-08T07:00:13Z</time></trkpt>
<trkpt lat="40.023611" lon="-8.196306">
<ele>523</ele>
<time>2026-05-08T07:00:21Z</time></trkpt>
<trkpt lat="40.023512" lon="-8.196379">
<ele>523</ele>
<time>2026-05-08T07:00:24Z</time></trkpt>
<trkpt lat="40.023461" lon="-8.196389">
<ele>522</ele>
<time>2026-05-08T07:00:25Z</time></trkpt>
<trkpt lat="40.023276" lon="-8.196328">
<ele>520</ele>
<time>2026-05-08T07:00:28Z</time></trkpt>
<trkpt lat="40.022728" lon="-8.19591">
<ele>515</ele>
<time>2026-05-08T07:00:41Z</time></trkpt>
<trkpt lat="40.022593" lon="-8.195858">
<ele>515</ele>
<time>2026-05-08T07:00:44Z</time></trkpt>
<trkpt lat="40.022436" lon="-8.195836">
<ele>514</ele>
<time>2026-05-08T07:00:47Z</time></trkpt>
<trkpt lat="40.022271" lon="-8.195827">
<ele>513</ele>
<time>2026-05-08T07:00:50Z</time></trkpt>
<trkpt lat="40.022017" lon="-8.195901">
<ele>513</ele>
<time>2026-05-08T07:00:56Z</time></trkpt>
<trkpt lat="40.021902" lon="-8.195986">
<ele>513</ele>
<time>2026-05-08T07:00:58Z</time></trkpt>
<trkpt lat="40.021706" lon="-8.196204">
<ele>513</ele>
<time>2026-05-08T07:01:04Z</time></trkpt>
<trkpt lat="40.021667" lon="-8.196247">
<ele>512</ele>
<time>2026-05-08T07:01:05Z</time></trkpt>
<trkpt lat="40.021445" lon="-8.196475">
<ele>513</ele>
<time>2026-05-08T07:01:10Z</time></trkpt>
<trkpt lat="40.0212" lon="-8.19676">
<ele>513</ele>
<time>2026-05-08T07:01:17Z</time></trkpt>
<trkpt lat="40.021109" lon="-8.196944">
<ele>513</ele>
<time>2026-05-08T07:01:20Z</time></trkpt>
<trkpt lat="40.021029" lon="-8.197184">
<ele>512</ele>
<time>2026-05-08T07:01:24Z</time></trkpt>
<trkpt lat="40.020939" lon="-8.197469">
<ele>512</ele>
<time>2026-05-08T07:01:29Z</time></trkpt>
<trkpt lat="40.020845" lon="-8.197591">
<ele>512</ele>
<time>2026-05-08T07:01:32Z</time></trkpt>
<trkpt lat="40.020779" lon="-8.197628">
<ele>512</ele>
<time>2026-05-08T07:01:33Z</time></trkpt>
<trkpt lat="40.020687" lon="-8.197652">
<ele>512</ele>
<time>2026-05-08T07:01:35Z</time></trkpt>
<trkpt lat="40.020587" lon="-8.197653">
<ele>511</ele>
<time>2026-05-08T07:01:37Z</time></trkpt>
<trkpt lat="40.020041" lon="-8.197567">
<ele>508</ele>
<time>2026-05-08T07:01:48Z</time></trkpt>
<trkpt lat="40.019915" lon="-8.197635">
<ele>507</ele>
<time>2026-05-08T07:01:51Z</time></trkpt>
<trkpt lat="40.019862" lon="-8.197691">
<ele>507</ele>
<time>2026-05-08T07:01:52Z</time></trkpt>
<trkpt lat="40.019771" lon="-8.197881">
<ele>507</ele>
<time>2026-05-08T07:01:55Z</time></trkpt>
<trkpt lat="40.019473" lon="-8.198813">
<ele>510</ele>
<time>2026-05-08T07:02:11Z</time></trkpt>
<trkpt lat="40.019365" lon="-8.199003">
<ele>511</ele>
<time>2026-05-08T07:02:15Z</time></trkpt>
<trkpt lat="40.0193" lon="-8.199069">
<ele>510</ele>
<time>2026-05-08T07:02:16Z</time></trkpt>
<trkpt lat="40.019148" lon="-8.199125">
<ele>509</ele>
<time>2026-05-08T07:02:19Z</time></trkpt>
<trkpt lat="40.018644" lon="-8.199129">
<ele>506</ele>
<time>2026-05-08T07:02:29Z</time></trkpt>
<trkpt lat="40.01848" lon="-8.199162">
<ele>505</ele>
<time>2026-05-08T07:02:33Z</time></trkpt>
<trkpt lat="40.018319" lon="-8.199233">
<ele>505</ele>
<time>2026-05-08T07:02:36Z</time></trkpt>
<trkpt lat="40.017189" lon="-8.199932">
<ele>497</ele>
<time>2026-05-08T07:03:01Z</time></trkpt>
<trkpt lat="40.017032" lon="-8.200014">
<ele>496</ele>
<time>2026-05-08T07:03:05Z</time></trkpt>
<trkpt lat="40.016676" lon="-8.200137">
<ele>493</ele>
<time>2026-05-08T07:03:12Z</time></trkpt>
<trkpt lat="40.016227" lon="-8.200248">
<ele>491</ele>
<time>2026-05-08T07:03:21Z</time></trkpt>
<trkpt lat="40.016108" lon="-8.200298">
<ele>491</ele>
<time>2026-05-08T07:03:24Z</time></trkpt>
<trkpt lat="40.01566" lon="-8.200671">
<ele>494</ele>
<time>2026-05-08T07:03:34Z</time></trkpt>
<trkpt lat="40.015469" lon="-8.2008008">
<ele>495</ele>
<time>2026-05-08T07:03:39Z</time></trkpt>
<trkpt lat="40.015223" lon="-8.2009796">
<ele>495</ele>
<time>2026-05-08T07:03:44Z</time></trkpt>
<trkpt lat="40.015147" lon="-8.201049">
<ele>495</ele>
<time>2026-05-08T07:03:46Z</time></trkpt>
<trkpt lat="40.014981" lon="-8.20176">
<ele>495</ele>
<time>2026-05-08T07:03:58Z</time></trkpt>
<trkpt lat="40.01497" lon="-8.201824">
<ele>496</ele>
<time>2026-05-08T07:03:59Z</time></trkpt>
<trkpt lat="40.014905" lon="-8.20192">
<ele>495</ele>
<time>2026-05-08T07:04:01Z</time></trkpt>
<trkpt lat="40.014857" lon="-8.201941">
<ele>495</ele>
<time>2026-05-08T07:04:02Z</time></trkpt>
<trkpt lat="40.014808" lon="-8.201941">
<ele>494</ele>
<time>2026-05-08T07:04:03Z</time></trkpt>
<trkpt lat="40.014709" lon="-8.201986">
<ele>493</ele>
<time>2026-05-08T07:04:05Z</time></trkpt>
<trkpt lat="40.014571" lon="-8.202175">
<ele>492</ele>
<time>2026-05-08T07:04:09Z</time></trkpt>
<trkpt lat="40.014525" lon="-8.202253">
<ele>492</ele>
<time>2026-05-08T07:04:10Z</time></trkpt>
<trkpt lat="40.014468" lon="-8.2023">
<ele>492</ele>
<time>2026-05-08T07:04:11Z</time></trkpt>
<trkpt lat="40.014392" lon="-8.202324">
<ele>491</ele>
<time>2026-05-08T07:04:13Z</time></trkpt>
<trkpt lat="40.01427" lon="-8.202311">
<ele>489</ele>
<time>2026-05-08T07:04:16Z</time></trkpt>
<trkpt lat="40.014173" lon="-8.20226">
<ele>488</ele>
<time>2026-05-08T07:04:18Z</time></trkpt>
<trkpt lat="40.013792" lon="-8.201895">
<ele>483</ele>
<time>2026-05-08T07:04:27Z</time></trkpt>
<trkpt lat="40.013607" lon="-8.201736">
<ele>481</ele>
<time>2026-05-08T07:04:32Z</time></trkpt>
<trkpt lat="40.013531" lon="-8.201703">
<ele>480</ele>
<time>2026-05-08T07:04:33Z</time></trkpt>
<trkpt lat="40.013412" lon="-8.201702">
<ele>479</ele>
<time>2026-05-08T07:04:35Z</time></trkpt>
<trkpt lat="40.013335" lon="-8.201733">
<ele>478</ele>
<time>2026-05-08T07:04:37Z</time></trkpt>
<trkpt lat="40.013138" lon="-8.201863">
<ele>477</ele>
<time>2026-05-08T07:04:42Z</time></trkpt>
<trkpt lat="40.012986" lon="-8.201985">
<ele>476</ele>
<time>2026-05-08T07:04:45Z</time></trkpt>
<trkpt lat="40.012874" lon="-8.202147">
<ele>475</ele>
<time>2026-05-08T07:04:48Z</time></trkpt>
<trkpt lat="40.012786" lon="-8.202432">
<ele>475</ele>
<time>2026-05-08T07:04:53Z</time></trkpt>
<trkpt lat="40.01271" lon="-8.202571">
<ele>475</ele>
<time>2026-05-08T07:04:56Z</time></trkpt>
<trkpt lat="40.01262" lon="-8.202636">
<ele>474</ele>
<time>2026-05-08T07:04:58Z</time></trkpt>
<trkpt lat="40.012349" lon="-8.202702">
<ele>472</ele>
<time>2026-05-08T07:05:03Z</time></trkpt>
<trkpt lat="40.012163" lon="-8.202801">
<ele>471</ele>
<time>2026-05-08T07:05:07Z</time></trkpt>
<trkpt lat="40.012077" lon="-8.202898">
<ele>471</ele>
<time>2026-05-08T07:05:10Z</time></trkpt>
<trkpt lat="40.011994" lon="-8.20307">
<ele>471</ele>
<time>2026-05-08T07:05:13Z</time></trkpt>
<trkpt lat="40.011778" lon="-8.203543">
<ele>470</ele>
<time>2026-05-08T07:05:21Z</time></trkpt>
<trkpt lat="40.011765" lon="-8.203573">
<ele>470</ele>
<time>2026-05-08T07:05:22Z</time></trkpt>
<trkpt lat="40.011706" lon="-8.203707">
<ele>469</ele>
<time>2026-05-08T07:05:24Z</time></trkpt>
<trkpt lat="40.011547" lon="-8.204065">
<ele>468</ele>
<time>2026-05-08T07:05:31Z</time></trkpt>
<trkpt lat="40.011489" lon="-8.204155">
<ele>468</ele>
<time>2026-05-08T07:05:32Z</time></trkpt>
<trkpt lat="40.011379" lon="-8.20426">
<ele>468</ele>
<time>2026-05-08T07:05:35Z</time></trkpt>
<trkpt lat="40.011215" lon="-8.20432">
<ele>468</ele>
<time>2026-05-08T07:05:38Z</time></trkpt>
<trkpt lat="40.011099" lon="-8.20437">
<ele>468</ele>
<time>2026-05-08T07:05:41Z</time></trkpt>
<trkpt lat="40.011045" lon="-8.204372">
<ele>468</ele>
<time>2026-05-08T07:05:42Z</time></trkpt>
<trkpt lat="40.010997" lon="-8.204343">
<ele>467</ele>
<time>2026-05-08T07:05:43Z</time></trkpt>
<trkpt lat="40.010988" lon="-8.204358">
<ele>468</ele>
<time>2026-05-08T07:05:43Z</time></trkpt>
<trkpt lat="40.010914" lon="-8.204415">
<ele>468</ele>
<time>2026-05-08T07:05:45Z</time></trkpt>
<trkpt lat="40.010867" lon="-8.204419">
<ele>468</ele>
<time>2026-05-08T07:05:46Z</time></trkpt>
<trkpt lat="40.010816" lon="-8.204399">
<ele>467</ele>
<time>2026-05-08T07:05:47Z</time></trkpt>
<trkpt lat="40.010755" lon="-8.204316">
<ele>466</ele>
<time>2026-05-08T07:05:49Z</time></trkpt>
<trkpt lat="40.010742" lon="-8.204259">
<ele>465</ele>
<time>2026-05-08T07:05:50Z</time></trkpt>
<trkpt lat="40.010754" lon="-8.204164">
<ele>465</ele>
<time>2026-05-08T07:05:51Z</time></trkpt>
<trkpt lat="40.010717" lon="-8.204058">
<ele>464</ele>
<time>2026-05-08T07:05:53Z</time></trkpt>
<trkpt lat="40.010634" lon="-8.203902">
<ele>464</ele>
<time>2026-05-08T07:05:56Z</time></trkpt>
<trkpt lat="40.010464" lon="-8.203898">
<ele>464</ele>
<time>2026-05-08T07:05:59Z</time></trkpt>
<trkpt lat="40.010097" lon="-8.203988">
<ele>464</ele>
<time>2026-05-08T07:06:07Z</time></trkpt>
<trkpt lat="40.008049" lon="-8.204553">
<ele>461</ele>
<time>2026-05-08T07:06:49Z</time></trkpt>
<trkpt lat="40.007673" lon="-8.204689">
<ele>461</ele>
<time>2026-05-08T07:06:57Z</time></trkpt>
<trkpt lat="40.007673" lon="-8.204689">
<ele>461</ele>
<time>2026-05-08T07:06:57Z</time></trkpt>
<trkpt lat="40.005935" lon="-8.205393">
<ele>461</ele>
<time>2026-05-08T07:07:33Z</time></trkpt>
<trkpt lat="40.005771" lon="-8.205571">
<ele>457</ele>
<time>2026-05-08T07:07:37Z</time></trkpt>
<trkpt lat="40.005759" lon="-8.205629">
<ele>456</ele>
<time>2026-05-08T07:07:38Z</time></trkpt>
<trkpt lat="40.005707" lon="-8.205725">
<ele>454</ele>
<time>2026-05-08T07:07:40Z</time></trkpt>
<trkpt lat="40.005712" lon="-8.205946">
<ele>452</ele>
<time>2026-05-08T07:07:43Z</time></trkpt>
<trkpt lat="40.005712" lon="-8.205946">
<ele>452</ele>
<time>2026-05-08T07:07:43Z</time></trkpt>
<trkpt lat="40.006589" lon="-8.208619">
<ele>465</ele>
<time>2026-05-08T07:08:28Z</time></trkpt>
</trkseg>
</trk>
</gpx>